<?xml version="1.0" encoding="utf-8"?>
<gpx xmlns:xsi="http://www.w3.org/2001/XMLSchema-instance" xmlns:xsd="http://www.w3.org/2001/XMLSchema" version="1.1" creator="Shapelink.com" xmlns="http://www.topografix.com/GPX/1/1" xmlns:gpxtpx="http://www.garmin.com/xmlschemas/TrackPointExtension/v1">
  <metadata>
    <name>Walking 12.32 km, 2012-08-08</name>
    <desc></desc>
    <author><name>Ulf Andrae</name></author> 
    <time>2012-08-08T09:27:18Z</time>
  </metadata>
  <trk>
    <name>Walking 12.32 km, 2012-08-08</name>
    <trkseg>
      <trkpt lat="61.6225237492" lon="8.63247061148">
        <ele>1356.56</ele>
        <time>2012-08-08T09:27:18Z</time>
      </trkpt>
      <trkpt lat="61.622534981" lon="8.63248226233">
        <ele>1356.08</ele>
        <time>2012-08-08T09:27:31Z</time>
      </trkpt>
      <trkpt lat="61.6225452069" lon="8.63251922652">
        <ele>1356.08</ele>
        <time>2012-08-08T09:27:52Z</time>
      </trkpt>
      <trkpt lat="61.6225408483" lon="8.63251889125">
        <ele>1358.96</ele>
        <time>2012-08-08T09:27:55Z</time>
      </trkpt>
      <trkpt lat="61.6225400101" lon="8.63251905888">
        <ele>1358.96</ele>
        <time>2012-08-08T09:27:56Z</time>
      </trkpt>
      <trkpt lat="61.6225366574" lon="8.63252224401">
        <ele>1362.33</ele>
        <time>2012-08-08T09:27:59Z</time>
      </trkpt>
      <trkpt lat="61.6225339752" lon="8.63252953626">
        <ele>1366.17</ele>
        <time>2012-08-08T09:28:02Z</time>
      </trkpt>
      <trkpt lat="61.6225327179" lon="8.63253867254">
        <ele>1369.54</ele>
        <time>2012-08-08T09:28:06Z</time>
      </trkpt>
      <trkpt lat="61.6225278564" lon="8.63258636557">
        <ele>1372.9</ele>
        <time>2012-08-08T09:28:10Z</time>
      </trkpt>
      <trkpt lat="61.6225287784" lon="8.63264369778">
        <ele>1375.78</ele>
        <time>2012-08-08T09:28:14Z</time>
      </trkpt>
      <trkpt lat="61.6225160379" lon="8.6327045504">
        <ele>1378.67</ele>
        <time>2012-08-08T09:28:19Z</time>
      </trkpt>
      <trkpt lat="61.6225032136" lon="8.63273313269">
        <ele>1380.59</ele>
        <time>2012-08-08T09:28:22Z</time>
      </trkpt>
      <trkpt lat="61.6224957537" lon="8.63274402916">
        <ele>1381.07</ele>
        <time>2012-08-08T09:28:23Z</time>
      </trkpt>
      <trkpt lat="61.6224628966" lon="8.63281946629">
        <ele>1382.99</ele>
        <time>2012-08-08T09:28:28Z</time>
      </trkpt>
      <trkpt lat="61.6224348173" lon="8.63285349682">
        <ele>1383.96</ele>
        <time>2012-08-08T09:28:32Z</time>
      </trkpt>
      <trkpt lat="61.6224535089" lon="8.63303278573">
        <ele>1387.8</ele>
        <time>2012-08-08T09:28:43Z</time>
      </trkpt>
      <trkpt lat="61.622459963" lon="8.63306136802">
        <ele>1387.32</ele>
        <time>2012-08-08T09:28:45Z</time>
      </trkpt>
      <trkpt lat="61.6224929038" lon="8.63311341964">
        <ele>1389.72</ele>
        <time>2012-08-08T09:28:51Z</time>
      </trkpt>
      <trkpt lat="61.6225272696" lon="8.63325867802">
        <ele>1392.13</ele>
        <time>2012-08-08T09:29:03Z</time>
      </trkpt>
      <trkpt lat="61.6225309577" lon="8.6333052814">
        <ele>1392.13</ele>
        <time>2012-08-08T09:29:06Z</time>
      </trkpt>
      <trkpt lat="61.6225064825" lon="8.63352321088">
        <ele>1393.09</ele>
        <time>2012-08-08T09:29:19Z</time>
      </trkpt>
      <trkpt lat="61.6225872003" lon="8.63357316703">
        <ele>1393.57</ele>
        <time>2012-08-08T09:29:34Z</time>
      </trkpt>
      <trkpt lat="61.6226144414" lon="8.63363678567">
        <ele>1391.65</ele>
        <time>2012-08-08T09:29:42Z</time>
      </trkpt>
      <trkpt lat="61.6226380784" lon="8.63369948231">
        <ele>1392.13</ele>
        <time>2012-08-08T09:29:58Z</time>
      </trkpt>
      <trkpt lat="61.6226642299" lon="8.63392788917">
        <ele>1390.2</ele>
        <time>2012-08-08T09:30:12Z</time>
      </trkpt>
      <trkpt lat="61.6226573568" lon="8.63395052031">
        <ele>1390.2</ele>
        <time>2012-08-08T09:30:43Z</time>
      </trkpt>
      <trkpt lat="61.6226478852" lon="8.6339196749">
        <ele>1390.2</ele>
        <time>2012-08-08T09:31:07Z</time>
      </trkpt>
      <trkpt lat="61.6226615477" lon="8.63391053863">
        <ele>1389.72</ele>
        <time>2012-08-08T09:31:28Z</time>
      </trkpt>
      <trkpt lat="61.6226638947" lon="8.63392059691">
        <ele>1390.2</ele>
        <time>2012-08-08T09:31:48Z</time>
      </trkpt>
      <trkpt lat="61.6226755455" lon="8.63392244093">
        <ele>1390.2</ele>
        <time>2012-08-08T09:32:06Z</time>
      </trkpt>
      <trkpt lat="61.6226641461" lon="8.63394498825">
        <ele>1390.2</ele>
        <time>2012-08-08T09:32:34Z</time>
      </trkpt>
      <trkpt lat="61.6226582788" lon="8.63392269239">
        <ele>1390.2</ele>
        <time>2012-08-08T09:32:44Z</time>
      </trkpt>
      <trkpt lat="61.6226773057" lon="8.63395546563">
        <ele>1390.2</ele>
        <time>2012-08-08T09:32:52Z</time>
      </trkpt>
      <trkpt lat="61.6227203049" lon="8.63409125246">
        <ele>1390.2</ele>
        <time>2012-08-08T09:33:06Z</time>
      </trkpt>
      <trkpt lat="61.6227191314" lon="8.63411673345">
        <ele>1390.68</ele>
        <time>2012-08-08T09:33:28Z</time>
      </trkpt>
      <trkpt lat="61.6227102466" lon="8.63414254971">
        <ele>1390.68</ele>
        <time>2012-08-08T09:33:54Z</time>
      </trkpt>
      <trkpt lat="61.6227167845" lon="8.63413827494">
        <ele>1390.68</ele>
        <time>2012-08-08T09:34:22Z</time>
      </trkpt>
      <trkpt lat="61.6227237415" lon="8.63415956497">
        <ele>1390.2</ele>
        <time>2012-08-08T09:34:44Z</time>
      </trkpt>
      <trkpt lat="61.6227456182" lon="8.63429375924">
        <ele>1390.68</ele>
        <time>2012-08-08T09:35:00Z</time>
      </trkpt>
      <trkpt lat="61.6227842588" lon="8.63453071564">
        <ele>1390.68</ele>
        <time>2012-08-08T09:35:14Z</time>
      </trkpt>
      <trkpt lat="61.6228003521" lon="8.63459416665">
        <ele>1390.2</ele>
        <time>2012-08-08T09:35:18Z</time>
      </trkpt>
      <trkpt lat="61.6228490509" lon="8.63467438146">
        <ele>1389.72</ele>
        <time>2012-08-08T09:35:30Z</time>
      </trkpt>
      <trkpt lat="61.6228596959" lon="8.63470539451">
        <ele>1390.2</ele>
        <time>2012-08-08T09:35:32Z</time>
      </trkpt>
      <trkpt lat="61.622880064" lon="8.63483665511">
        <ele>1389.72</ele>
        <time>2012-08-08T09:35:44Z</time>
      </trkpt>
      <trkpt lat="61.6229000967" lon="8.63494603895">
        <ele>1389.72</ele>
        <time>2012-08-08T09:35:57Z</time>
      </trkpt>
      <trkpt lat="61.6229038686" lon="8.63511074334">
        <ele>1389.72</ele>
        <time>2012-08-08T09:36:09Z</time>
      </trkpt>
      <trkpt lat="61.6229001805" lon="8.63534049131">
        <ele>1389.72</ele>
        <time>2012-08-08T09:36:22Z</time>
      </trkpt>
      <trkpt lat="61.6229122505" lon="8.63536052406">
        <ele>1389.72</ele>
        <time>2012-08-08T09:36:24Z</time>
      </trkpt>
      <trkpt lat="61.6229188722" lon="8.63539472222">
        <ele>1389.72</ele>
        <time>2012-08-08T09:36:26Z</time>
      </trkpt>
      <trkpt lat="61.6229044553" lon="8.63548030145">
        <ele>1389.72</ele>
        <time>2012-08-08T09:36:31Z</time>
      </trkpt>
      <trkpt lat="61.6229076404" lon="8.63552698866">
        <ele>1389.72</ele>
        <time>2012-08-08T09:36:33Z</time>
      </trkpt>
      <trkpt lat="61.6229097359" lon="8.6355958879">
        <ele>1390.2</ele>
        <time>2012-08-08T09:36:37Z</time>
      </trkpt>
      <trkpt lat="61.6229208838" lon="8.63567962311">
        <ele>1390.68</ele>
        <time>2012-08-08T09:36:42Z</time>
      </trkpt>
      <trkpt lat="61.6229145136" lon="8.63579344936">
        <ele>1390.2</ele>
        <time>2012-08-08T09:36:48Z</time>
      </trkpt>
      <trkpt lat="61.6229046229" lon="8.63588464446">
        <ele>1390.2</ele>
        <time>2012-08-08T09:36:53Z</time>
      </trkpt>
      <trkpt lat="61.6228933912" lon="8.63598606549">
        <ele>1389.72</ele>
        <time>2012-08-08T09:36:59Z</time>
      </trkpt>
      <trkpt lat="61.6228969954" lon="8.63601489924">
        <ele>1389.72</ele>
        <time>2012-08-08T09:37:02Z</time>
      </trkpt>
      <trkpt lat="61.6228713468" lon="8.63614481874">
        <ele>1388.76</ele>
        <time>2012-08-08T09:37:09Z</time>
      </trkpt>
      <trkpt lat="61.6229109932" lon="8.63627230749">
        <ele>1388.28</ele>
        <time>2012-08-08T09:37:18Z</time>
      </trkpt>
      <trkpt lat="61.6229135077" lon="8.63649149425">
        <ele>1388.76</ele>
        <time>2012-08-08T09:37:30Z</time>
      </trkpt>
      <trkpt lat="61.622927757" lon="8.63658587448">
        <ele>1388.28</ele>
        <time>2012-08-08T09:37:35Z</time>
      </trkpt>
      <trkpt lat="61.6229361389" lon="8.63666575402">
        <ele>1387.8</ele>
        <time>2012-08-08T09:37:39Z</time>
      </trkpt>
      <trkpt lat="61.6229504719" lon="8.63674261607">
        <ele>1387.32</ele>
        <time>2012-08-08T09:37:43Z</time>
      </trkpt>
      <trkpt lat="61.6229319479" lon="8.63685426302">
        <ele>1387.32</ele>
        <time>2012-08-08T09:37:57Z</time>
      </trkpt>
      <trkpt lat="61.6229290143" lon="8.63700815476">
        <ele>1386.84</ele>
        <time>2012-08-08T09:38:07Z</time>
      </trkpt>
      <trkpt lat="61.6229215544" lon="8.63703380339">
        <ele>1386.36</ele>
        <time>2012-08-08T09:38:10Z</time>
      </trkpt>
      <trkpt lat="61.6228721011" lon="8.63699139096">
        <ele>1386.36</ele>
        <time>2012-08-08T09:38:21Z</time>
      </trkpt>
      <trkpt lat="61.6228989232" lon="8.63695727661">
        <ele>1386.36</ele>
        <time>2012-08-08T09:38:39Z</time>
      </trkpt>
      <trkpt lat="61.6229245719" lon="8.63701393828">
        <ele>1386.36</ele>
        <time>2012-08-08T09:38:56Z</time>
      </trkpt>
      <trkpt lat="61.6229135916" lon="8.63704252057">
        <ele>1386.36</ele>
        <time>2012-08-08T09:39:13Z</time>
      </trkpt>
      <trkpt lat="61.6228924692" lon="8.63707898185">
        <ele>1385.88</ele>
        <time>2012-08-08T09:39:31Z</time>
      </trkpt>
      <trkpt lat="61.6228689998" lon="8.63705769181">
        <ele>1385.88</ele>
        <time>2012-08-08T09:39:48Z</time>
      </trkpt>
      <trkpt lat="61.622886518" lon="8.63710102625">
        <ele>1385.88</ele>
        <time>2012-08-08T09:40:03Z</time>
      </trkpt>
      <trkpt lat="61.6228892002" lon="8.63713371567">
        <ele>1385.4</ele>
        <time>2012-08-08T09:40:05Z</time>
      </trkpt>
      <trkpt lat="61.6228991747" lon="8.63715953194">
        <ele>1385.4</ele>
        <time>2012-08-08T09:40:16Z</time>
      </trkpt>
      <trkpt lat="61.6228860989" lon="8.63717981614">
        <ele>1385.4</ele>
        <time>2012-08-08T09:40:46Z</time>
      </trkpt>
      <trkpt lat="61.622900432" lon="8.63716682419">
        <ele>1385.4</ele>
        <time>2012-08-08T09:41:18Z</time>
      </trkpt>
      <trkpt lat="61.6229091492" lon="8.6372249946">
        <ele>1385.4</ele>
        <time>2012-08-08T09:41:53Z</time>
      </trkpt>
      <trkpt lat="61.6228976659" lon="8.63715986721">
        <ele>1384.92</ele>
        <time>2012-08-08T09:42:06Z</time>
      </trkpt>
      <trkpt lat="61.622934714" lon="8.63731384277">
        <ele>1384.92</ele>
        <time>2012-08-08T09:42:23Z</time>
      </trkpt>
      <trkpt lat="61.6229456104" lon="8.63753420301">
        <ele>1383.96</ele>
        <time>2012-08-08T09:42:36Z</time>
      </trkpt>
      <trkpt lat="61.6229477059" lon="8.63757225685">
        <ele>1384.44</ele>
        <time>2012-08-08T09:42:47Z</time>
      </trkpt>
      <trkpt lat="61.6229464486" lon="8.63757845946">
        <ele>1384.44</ele>
        <time>2012-08-08T09:42:55Z</time>
      </trkpt>
      <trkpt lat="61.6229556687" lon="8.63762129098">
        <ele>1383.96</ele>
        <time>2012-08-08T09:42:58Z</time>
      </trkpt>
      <trkpt lat="61.6229690798" lon="8.63774165511">
        <ele>1383.96</ele>
        <time>2012-08-08T09:43:05Z</time>
      </trkpt>
      <trkpt lat="61.6229950637" lon="8.63790778443">
        <ele>1382.99</ele>
        <time>2012-08-08T09:43:15Z</time>
      </trkpt>
      <trkpt lat="61.6230450198" lon="8.63810744137">
        <ele>1383.96</ele>
        <time>2012-08-08T09:43:28Z</time>
      </trkpt>
      <trkpt lat="61.6230529826" lon="8.63815588877">
        <ele>1383.47</ele>
        <time>2012-08-08T09:43:31Z</time>
      </trkpt>
      <trkpt lat="61.6230891924" lon="8.63838035613">
        <ele>1383.47</ele>
        <time>2012-08-08T09:43:44Z</time>
      </trkpt>
      <trkpt lat="61.6230932157" lon="8.63838999532">
        <ele>1383.47</ele>
        <time>2012-08-08T09:43:47Z</time>
      </trkpt>
      <trkpt lat="61.6231270786" lon="8.63842193037">
        <ele>1383.47</ele>
        <time>2012-08-08T09:43:58Z</time>
      </trkpt>
      <trkpt lat="61.6231534816" lon="8.63846166059">
        <ele>1382.99</ele>
        <time>2012-08-08T09:44:02Z</time>
      </trkpt>
      <trkpt lat="61.6231678147" lon="8.63847850822">
        <ele>1382.99</ele>
        <time>2012-08-08T09:44:04Z</time>
      </trkpt>
      <trkpt lat="61.623248281" lon="8.63861697726">
        <ele>1382.99</ele>
        <time>2012-08-08T09:44:17Z</time>
      </trkpt>
      <trkpt lat="61.6232747678" lon="8.63880087622">
        <ele>1383.47</ele>
        <time>2012-08-08T09:44:28Z</time>
      </trkpt>
      <trkpt lat="61.6232250631" lon="8.63897454925">
        <ele>1382.99</ele>
        <time>2012-08-08T09:44:39Z</time>
      </trkpt>
      <trkpt lat="61.6232164297" lon="8.6390377488">
        <ele>1382.03</ele>
        <time>2012-08-08T09:44:53Z</time>
      </trkpt>
      <trkpt lat="61.6232067905" lon="8.63917169161">
        <ele>1382.03</ele>
        <time>2012-08-08T09:45:05Z</time>
      </trkpt>
      <trkpt lat="61.6231963132" lon="8.63931275904">
        <ele>1382.51</ele>
        <time>2012-08-08T09:45:16Z</time>
      </trkpt>
      <trkpt lat="61.6232060362" lon="8.6393825803">
        <ele>1382.03</ele>
        <time>2012-08-08T09:45:20Z</time>
      </trkpt>
      <trkpt lat="61.6232425813" lon="8.63952289335">
        <ele>1382.03</ele>
        <time>2012-08-08T09:45:30Z</time>
      </trkpt>
      <trkpt lat="61.6232528072" lon="8.63972690888">
        <ele>1381.55</ele>
        <time>2012-08-08T09:45:44Z</time>
      </trkpt>
      <trkpt lat="61.6232295055" lon="8.63994517364">
        <ele>1382.03</ele>
        <time>2012-08-08T09:45:58Z</time>
      </trkpt>
      <trkpt lat="61.6232242249" lon="8.63999362104">
        <ele>1382.03</ele>
        <time>2012-08-08T09:46:02Z</time>
      </trkpt>
      <trkpt lat="61.6232000012" lon="8.64014550112">
        <ele>1382.51</ele>
        <time>2012-08-08T09:46:12Z</time>
      </trkpt>
      <trkpt lat="61.6231377237" lon="8.64036502317">
        <ele>1382.03</ele>
        <time>2012-08-08T09:46:27Z</time>
      </trkpt>
      <trkpt lat="61.6231008433" lon="8.64058043808">
        <ele>1382.99</ele>
        <time>2012-08-08T09:46:42Z</time>
      </trkpt>
      <trkpt lat="61.6230950598" lon="8.64080306143">
        <ele>1384.44</ele>
        <time>2012-08-08T09:46:58Z</time>
      </trkpt>
      <trkpt lat="61.6231268272" lon="8.64096097648">
        <ele>1384.44</ele>
        <time>2012-08-08T09:47:09Z</time>
      </trkpt>
      <trkpt lat="61.6231525596" lon="8.64106348716">
        <ele>1384.44</ele>
        <time>2012-08-08T09:47:16Z</time>
      </trkpt>
      <trkpt lat="61.623202851" lon="8.64125492983">
        <ele>1383.47</ele>
        <time>2012-08-08T09:47:28Z</time>
      </trkpt>
      <trkpt lat="61.6231938824" lon="8.6414912995">
        <ele>1383.96</ele>
        <time>2012-08-08T09:47:42Z</time>
      </trkpt>
      <trkpt lat="61.6232075449" lon="8.64169028588">
        <ele>1383.47</ele>
        <time>2012-08-08T09:47:54Z</time>
      </trkpt>
      <trkpt lat="61.6232215427" lon="8.64174602553">
        <ele>1382.51</ele>
        <time>2012-08-08T09:47:58Z</time>
      </trkpt>
      <trkpt lat="61.6232406534" lon="8.64181098528">
        <ele>1383.47</ele>
        <time>2012-08-08T09:48:02Z</time>
      </trkpt>
      <trkpt lat="61.6232360434" lon="8.64195188507">
        <ele>1382.51</ele>
        <time>2012-08-08T09:48:08Z</time>
      </trkpt>
      <trkpt lat="61.6232832335" lon="8.64210493863">
        <ele>1382.03</ele>
        <time>2012-08-08T09:48:21Z</time>
      </trkpt>
      <trkpt lat="61.6232995782" lon="8.64218406379">
        <ele>1382.51</ele>
        <time>2012-08-08T09:48:26Z</time>
      </trkpt>
      <trkpt lat="61.6232982371" lon="8.64232177846">
        <ele>1382.03</ele>
        <time>2012-08-08T09:48:34Z</time>
      </trkpt>
      <trkpt lat="61.6232951358" lon="8.6423774343">
        <ele>1382.51</ele>
        <time>2012-08-08T09:48:38Z</time>
      </trkpt>
      <trkpt lat="61.623292705" lon="8.64240995608">
        <ele>1382.51</ele>
        <time>2012-08-08T09:48:40Z</time>
      </trkpt>
      <trkpt lat="61.6232930403" lon="8.64259989001">
        <ele>1382.03</ele>
        <time>2012-08-08T09:48:53Z</time>
      </trkpt>
      <trkpt lat="61.6232954711" lon="8.64263668656">
        <ele>1382.51</ele>
        <time>2012-08-08T09:48:55Z</time>
      </trkpt>
      <trkpt lat="61.6232789587" lon="8.64283994772">
        <ele>1382.51</ele>
        <time>2012-08-08T09:49:06Z</time>
      </trkpt>
      <trkpt lat="61.6232720017" lon="8.642877331">
        <ele>1382.51</ele>
        <time>2012-08-08T09:49:09Z</time>
      </trkpt>
      <trkpt lat="61.6232656315" lon="8.64298227243">
        <ele>1381.55</ele>
        <time>2012-08-08T09:49:15Z</time>
      </trkpt>
      <trkpt lat="61.6232242249" lon="8.64315066487">
        <ele>1380.59</ele>
        <time>2012-08-08T09:49:28Z</time>
      </trkpt>
      <trkpt lat="61.6231932957" lon="8.64329952747">
        <ele>1380.59</ele>
        <time>2012-08-08T09:49:40Z</time>
      </trkpt>
      <trkpt lat="61.6231568344" lon="8.64352374338">
        <ele>1380.59</ele>
        <time>2012-08-08T09:49:53Z</time>
      </trkpt>
      <trkpt lat="61.6231528949" lon="8.64368911833">
        <ele>1381.07</ele>
        <time>2012-08-08T09:50:05Z</time>
      </trkpt>
      <trkpt lat="61.623169072" lon="8.64375039004">
        <ele>1381.07</ele>
        <time>2012-08-08T09:50:18Z</time>
      </trkpt>
      <trkpt lat="61.6231432557" lon="8.64374158904">
        <ele>1381.55</ele>
        <time>2012-08-08T09:50:40Z</time>
      </trkpt>
      <trkpt lat="61.6231555771" lon="8.64376245998">
        <ele>1381.07</ele>
        <time>2012-08-08T09:51:16Z</time>
      </trkpt>
      <trkpt lat="61.6231605224" lon="8.64375097677">
        <ele>1381.07</ele>
        <time>2012-08-08T09:51:30Z</time>
      </trkpt>
      <trkpt lat="61.6231706645" lon="8.64375516772">
        <ele>1381.07</ele>
        <time>2012-08-08T09:52:03Z</time>
      </trkpt>
      <trkpt lat="61.6231674794" lon="8.64374812692">
        <ele>1381.07</ele>
        <time>2012-08-08T09:52:32Z</time>
      </trkpt>
      <trkpt lat="61.6231647972" lon="8.64374284633">
        <ele>1381.07</ele>
        <time>2012-08-08T09:52:59Z</time>
      </trkpt>
      <trkpt lat="61.6231976543" lon="8.64385130815">
        <ele>1380.59</ele>
        <time>2012-08-08T09:53:17Z</time>
      </trkpt>
      <trkpt lat="61.6231949721" lon="8.64403361455">
        <ele>1380.59</ele>
        <time>2012-08-08T09:53:25Z</time>
      </trkpt>
      <trkpt lat="61.6231326945" lon="8.64435204305">
        <ele>1380.59</ele>
        <time>2012-08-08T09:53:39Z</time>
      </trkpt>
      <trkpt lat="61.6230914555" lon="8.64451456815">
        <ele>1380.59</ele>
        <time>2012-08-08T09:53:47Z</time>
      </trkpt>
      <trkpt lat="61.6230822355" lon="8.64457240328">
        <ele>1379.63</ele>
        <time>2012-08-08T09:53:50Z</time>
      </trkpt>
      <trkpt lat="61.6229658946" lon="8.64481941797">
        <ele>1379.63</ele>
        <time>2012-08-08T09:54:06Z</time>
      </trkpt>
      <trkpt lat="61.6228729393" lon="8.64500608295">
        <ele>1378.67</ele>
        <time>2012-08-08T09:54:20Z</time>
      </trkpt>
      <trkpt lat="61.6226945724" lon="8.64524354227">
        <ele>1377.71</ele>
        <time>2012-08-08T09:54:38Z</time>
      </trkpt>
      <trkpt lat="61.6226505674" lon="8.6453546863">
        <ele>1377.71</ele>
        <time>2012-08-08T09:54:44Z</time>
      </trkpt>
      <trkpt lat="61.6224339791" lon="8.64570572041">
        <ele>1377.71</ele>
        <time>2012-08-08T09:55:08Z</time>
      </trkpt>
      <trkpt lat="61.6223654151" lon="8.64589381032">
        <ele>1378.19</ele>
        <time>2012-08-08T09:55:29Z</time>
      </trkpt>
      <trkpt lat="61.6223293729" lon="8.64599891938">
        <ele>1378.19</ele>
        <time>2012-08-08T09:55:47Z</time>
      </trkpt>
      <trkpt lat="61.6223287024" lon="8.64604233764">
        <ele>1378.67</ele>
        <time>2012-08-08T09:55:50Z</time>
      </trkpt>
      <trkpt lat="61.622282099" lon="8.6462535616">
        <ele>1378.67</ele>
        <time>2012-08-08T09:56:03Z</time>
      </trkpt>
      <trkpt lat="61.62224086" lon="8.64650057629">
        <ele>1378.67</ele>
        <time>2012-08-08T09:56:15Z</time>
      </trkpt>
      <trkpt lat="61.6221769061" lon="8.64672646858">
        <ele>1379.15</ele>
        <time>2012-08-08T09:56:32Z</time>
      </trkpt>
      <trkpt lat="61.6220700368" lon="8.64701488987">
        <ele>1380.59</ele>
        <time>2012-08-08T09:56:56Z</time>
      </trkpt>
      <trkpt lat="61.6219896544" lon="8.64714447409">
        <ele>1379.15</ele>
        <time>2012-08-08T09:57:13Z</time>
      </trkpt>
      <trkpt lat="61.6219586413" lon="8.64724673331">
        <ele>1379.63</ele>
        <time>2012-08-08T09:57:31Z</time>
      </trkpt>
      <trkpt lat="61.6219544504" lon="8.64720784128">
        <ele>1380.11</ele>
        <time>2012-08-08T09:57:35Z</time>
      </trkpt>
      <trkpt lat="61.6219084337" lon="8.64725042135">
        <ele>1379.15</ele>
        <time>2012-08-08T09:57:44Z</time>
      </trkpt>
      <trkpt lat="61.6217945237" lon="8.64730062895">
        <ele>1378.67</ele>
        <time>2012-08-08T09:57:57Z</time>
      </trkpt>
      <trkpt lat="61.6217744909" lon="8.64731051959">
        <ele>1379.15</ele>
        <time>2012-08-08T09:57:59Z</time>
      </trkpt>
      <trkpt lat="61.6216667835" lon="8.64736315794">
        <ele>1379.63</ele>
        <time>2012-08-08T09:58:10Z</time>
      </trkpt>
      <trkpt lat="61.6215807851" lon="8.6473770719">
        <ele>1378.19</ele>
        <time>2012-08-08T09:58:26Z</time>
      </trkpt>
      <trkpt lat="61.6215889156" lon="8.64738084376">
        <ele>1378.19</ele>
        <time>2012-08-08T09:58:51Z</time>
      </trkpt>
      <trkpt lat="61.621585479" lon="8.6473810114">
        <ele>1378.19</ele>
        <time>2012-08-08T09:59:04Z</time>
      </trkpt>
      <trkpt lat="61.6214387957" lon="8.64746357314">
        <ele>1378.67</ele>
        <time>2012-08-08T09:59:18Z</time>
      </trkpt>
      <trkpt lat="61.6213676333" lon="8.64751009271">
        <ele>1377.23</ele>
        <time>2012-08-08T09:59:26Z</time>
      </trkpt>
      <trkpt lat="61.6212719958" lon="8.64755393006">
        <ele>1377.23</ele>
        <time>2012-08-08T09:59:41Z</time>
      </trkpt>
      <trkpt lat="61.6212334391" lon="8.64762308076">
        <ele>1377.23</ele>
        <time>2012-08-08T09:59:46Z</time>
      </trkpt>
      <trkpt lat="61.6211668029" lon="8.64767605439">
        <ele>1378.67</ele>
        <time>2012-08-08T09:59:54Z</time>
      </trkpt>
      <trkpt lat="61.6211074591" lon="8.64768519066">
        <ele>1377.23</ele>
        <time>2012-08-08T10:00:00Z</time>
      </trkpt>
      <trkpt lat="61.6210664716" lon="8.64768317901">
        <ele>1377.23</ele>
        <time>2012-08-08T10:00:04Z</time>
      </trkpt>
      <trkpt lat="61.6210531443" lon="8.64784645848">
        <ele>1377.23</ele>
        <time>2012-08-08T10:00:12Z</time>
      </trkpt>
      <trkpt lat="61.6209783778" lon="8.64802985452">
        <ele>1378.19</ele>
        <time>2012-08-08T10:00:22Z</time>
      </trkpt>
      <trkpt lat="61.620865725" lon="8.64808131941">
        <ele>1380.11</ele>
        <time>2012-08-08T10:00:31Z</time>
      </trkpt>
      <trkpt lat="61.6207361408" lon="8.64798291586">
        <ele>1379.63</ele>
        <time>2012-08-08T10:00:44Z</time>
      </trkpt>
      <trkpt lat="61.6206421796" lon="8.64790538326">
        <ele>1379.15</ele>
        <time>2012-08-08T10:00:57Z</time>
      </trkpt>
      <trkpt lat="61.6206307802" lon="8.6478967499">
        <ele>1379.63</ele>
        <time>2012-08-08T10:00:59Z</time>
      </trkpt>
      <trkpt lat="61.6205415968" lon="8.6478791479">
        <ele>1380.59</ele>
        <time>2012-08-08T10:01:10Z</time>
      </trkpt>
      <trkpt lat="61.6204809118" lon="8.64785735495">
        <ele>1379.63</ele>
        <time>2012-08-08T10:01:16Z</time>
      </trkpt>
      <trkpt lat="61.6204473004" lon="8.64782659337">
        <ele>1381.07</ele>
        <time>2012-08-08T10:01:20Z</time>
      </trkpt>
      <trkpt lat="61.6204139404" lon="8.64782382734">
        <ele>1380.59</ele>
        <time>2012-08-08T10:01:24Z</time>
      </trkpt>
      <trkpt lat="61.620398853" lon="8.64783556201">
        <ele>1380.59</ele>
        <time>2012-08-08T10:01:26Z</time>
      </trkpt>
      <trkpt lat="61.6202830989" lon="8.64778862335">
        <ele>1381.07</ele>
        <time>2012-08-08T10:01:38Z</time>
      </trkpt>
      <trkpt lat="61.62017975" lon="8.647780912">
        <ele>1382.03</ele>
        <time>2012-08-08T10:01:48Z</time>
      </trkpt>
      <trkpt lat="61.6200609785" lon="8.64780454896">
        <ele>1382.99</ele>
        <time>2012-08-08T10:02:00Z</time>
      </trkpt>
      <trkpt lat="61.6200410295" lon="8.64779516123">
        <ele>1382.99</ele>
        <time>2012-08-08T10:02:02Z</time>
      </trkpt>
      <trkpt lat="61.6199672688" lon="8.64783028141">
        <ele>1382.03</ele>
        <time>2012-08-08T10:02:09Z</time>
      </trkpt>
      <trkpt lat="61.6198359244" lon="8.64782709628">
        <ele>1383.47</ele>
        <time>2012-08-08T10:02:21Z</time>
      </trkpt>
      <trkpt lat="61.6198294703" lon="8.64782265387">
        <ele>1383.47</ele>
        <time>2012-08-08T10:02:22Z</time>
      </trkpt>
      <trkpt lat="61.6197071783" lon="8.64784536883">
        <ele>1383.96</ele>
        <time>2012-08-08T10:02:34Z</time>
      </trkpt>
      <trkpt lat="61.6196920071" lon="8.64784930833">
        <ele>1383.96</ele>
        <time>2012-08-08T10:02:36Z</time>
      </trkpt>
      <trkpt lat="61.6196568869" lon="8.64784779958">
        <ele>1382.99</ele>
        <time>2012-08-08T10:02:39Z</time>
      </trkpt>
      <trkpt lat="61.6195487604" lon="8.64786313847">
        <ele>1382.51</ele>
        <time>2012-08-08T10:02:50Z</time>
      </trkpt>
      <trkpt lat="61.6194158234" lon="8.64787646569">
        <ele>1382.51</ele>
        <time>2012-08-08T10:03:03Z</time>
      </trkpt>
      <trkpt lat="61.6193095408" lon="8.64783757366">
        <ele>1382.99</ele>
        <time>2012-08-08T10:03:14Z</time>
      </trkpt>
      <trkpt lat="61.6191905178" lon="8.64783044904">
        <ele>1381.55</ele>
        <time>2012-08-08T10:03:27Z</time>
      </trkpt>
      <trkpt lat="61.6191224568" lon="8.64784813486">
        <ele>1381.07</ele>
        <time>2012-08-08T10:03:34Z</time>
      </trkpt>
      <trkpt lat="61.619040817" lon="8.64786867052">
        <ele>1381.07</ele>
        <time>2012-08-08T10:03:41Z</time>
      </trkpt>
      <trkpt lat="61.618952807" lon="8.64781603217">
        <ele>1381.55</ele>
        <time>2012-08-08T10:03:54Z</time>
      </trkpt>
      <trkpt lat="61.6189344507" lon="8.64782868885">
        <ele>1380.59</ele>
        <time>2012-08-08T10:03:57Z</time>
      </trkpt>
      <trkpt lat="61.6188518889" lon="8.64782550372">
        <ele>1380.11</ele>
        <time>2012-08-08T10:04:09Z</time>
      </trkpt>
      <trkpt lat="61.6188114882" lon="8.64780982956">
        <ele>1381.07</ele>
        <time>2012-08-08T10:04:17Z</time>
      </trkpt>
      <trkpt lat="61.6187667288" lon="8.64786766469">
        <ele>1380.11</ele>
        <time>2012-08-08T10:04:23Z</time>
      </trkpt>
      <trkpt lat="61.6187042836" lon="8.64771754481">
        <ele>1380.59</ele>
        <time>2012-08-08T10:04:31Z</time>
      </trkpt>
      <trkpt lat="61.6186441854" lon="8.64767957479">
        <ele>1379.63</ele>
        <time>2012-08-08T10:04:37Z</time>
      </trkpt>
      <trkpt lat="61.6185542475" lon="8.64760992117">
        <ele>1380.11</ele>
        <time>2012-08-08T10:04:49Z</time>
      </trkpt>
      <trkpt lat="61.6184564307" lon="8.64753406495">
        <ele>1380.59</ele>
        <time>2012-08-08T10:05:01Z</time>
      </trkpt>
      <trkpt lat="61.6184191313" lon="8.64754596725">
        <ele>1381.55</ele>
        <time>2012-08-08T10:05:06Z</time>
      </trkpt>
      <trkpt lat="61.6183724441" lon="8.647529874">
        <ele>1382.99</ele>
        <time>2012-08-08T10:05:12Z</time>
      </trkpt>
      <trkpt lat="61.6182678379" lon="8.64759081043">
        <ele>1382.51</ele>
        <time>2012-08-08T10:05:26Z</time>
      </trkpt>
      <trkpt lat="61.6182579473" lon="8.64757999778">
        <ele>1382.99</ele>
        <time>2012-08-08T10:05:37Z</time>
      </trkpt>
      <trkpt lat="61.6182231624" lon="8.64761235192">
        <ele>1382.51</ele>
        <time>2012-08-08T10:05:43Z</time>
      </trkpt>
      <trkpt lat="61.6181521676" lon="8.6476474721">
        <ele>1382.99</ele>
        <time>2012-08-08T10:05:50Z</time>
      </trkpt>
      <trkpt lat="61.6180666722" lon="8.64765577018">
        <ele>1384.44</ele>
        <time>2012-08-08T10:05:59Z</time>
      </trkpt>
      <trkpt lat="61.6179694422" lon="8.64762878045">
        <ele>1383.96</ele>
        <time>2012-08-08T10:06:08Z</time>
      </trkpt>
      <trkpt lat="61.6179064941" lon="8.64763305523">
        <ele>1383.96</ele>
        <time>2012-08-08T10:06:14Z</time>
      </trkpt>
      <trkpt lat="61.6177333239" lon="8.64753901027">
        <ele>1384.92</ele>
        <time>2012-08-08T10:06:29Z</time>
      </trkpt>
      <trkpt lat="61.6176673584" lon="8.64740959369">
        <ele>1384.92</ele>
        <time>2012-08-08T10:06:36Z</time>
      </trkpt>
      <trkpt lat="61.6176204197" lon="8.64738293923">
        <ele>1385.4</ele>
        <time>2012-08-08T10:06:40Z</time>
      </trkpt>
      <trkpt lat="61.6175649315" lon="8.64733516239">
        <ele>1385.4</ele>
        <time>2012-08-08T10:06:45Z</time>
      </trkpt>
      <trkpt lat="61.6174338385" lon="8.64733222872">
        <ele>1385.4</ele>
        <time>2012-08-08T10:06:57Z</time>
      </trkpt>
      <trkpt lat="61.6173935216" lon="8.64730926231">
        <ele>1384.92</ele>
        <time>2012-08-08T10:07:00Z</time>
      </trkpt>
      <trkpt lat="61.6173817869" lon="8.64731311798">
        <ele>1385.4</ele>
        <time>2012-08-08T10:07:01Z</time>
      </trkpt>
      <trkpt lat="61.6173086129" lon="8.64729459397">
        <ele>1385.88</ele>
        <time>2012-08-08T10:07:07Z</time>
      </trkpt>
      <trkpt lat="61.6173050087" lon="8.64731043577">
        <ele>1385.88</ele>
        <time>2012-08-08T10:07:08Z</time>
      </trkpt>
      <trkpt lat="61.6172342654" lon="8.64731152542">
        <ele>1386.36</ele>
        <time>2012-08-08T10:07:16Z</time>
      </trkpt>
      <trkpt lat="61.6171434894" lon="8.64735343494">
        <ele>1387.8</ele>
        <time>2012-08-08T10:07:28Z</time>
      </trkpt>
      <trkpt lat="61.6171320062" lon="8.64735745825">
        <ele>1387.32</ele>
        <time>2012-08-08T10:07:29Z</time>
      </trkpt>
      <trkpt lat="61.6171238758" lon="8.64737799391">
        <ele>1387.32</ele>
        <time>2012-08-08T10:07:30Z</time>
      </trkpt>
      <trkpt lat="61.6171149071" lon="8.64738528617">
        <ele>1387.32</ele>
        <time>2012-08-08T10:07:31Z</time>
      </trkpt>
      <trkpt lat="61.6171055194" lon="8.64738461562">
        <ele>1387.32</ele>
        <time>2012-08-08T10:07:32Z</time>
      </trkpt>
      <trkpt lat="61.617093198" lon="8.64737422206">
        <ele>1387.32</ele>
        <time>2012-08-08T10:07:33Z</time>
      </trkpt>
      <trkpt lat="61.6170673817" lon="8.64736156538">
        <ele>1387.8</ele>
        <time>2012-08-08T10:07:36Z</time>
      </trkpt>
      <trkpt lat="61.6170560662" lon="8.6473528482">
        <ele>1387.32</ele>
        <time>2012-08-08T10:07:37Z</time>
      </trkpt>
      <trkpt lat="61.6169667989" lon="8.64726735279">
        <ele>1387.8</ele>
        <time>2012-08-08T10:07:49Z</time>
      </trkpt>
      <trkpt lat="61.6169281583" lon="8.64724153653">
        <ele>1388.28</ele>
        <time>2012-08-08T10:07:54Z</time>
      </trkpt>
      <trkpt lat="61.6169163398" lon="8.64723659121">
        <ele>1388.28</ele>
        <time>2012-08-08T10:07:55Z</time>
      </trkpt>
      <trkpt lat="61.6169061139" lon="8.6472282093">
        <ele>1388.28</ele>
        <time>2012-08-08T10:07:56Z</time>
      </trkpt>
      <trkpt lat="61.6167456843" lon="8.64706769586">
        <ele>1387.8</ele>
        <time>2012-08-08T10:08:10Z</time>
      </trkpt>
      <trkpt lat="61.6166872624" lon="8.64701078273">
        <ele>1387.8</ele>
        <time>2012-08-08T10:08:21Z</time>
      </trkpt>
      <trkpt lat="61.6166756116" lon="8.64700625651">
        <ele>1387.8</ele>
        <time>2012-08-08T10:08:22Z</time>
      </trkpt>
      <trkpt lat="61.6166640446" lon="8.64699913189">
        <ele>1388.28</ele>
        <time>2012-08-08T10:08:23Z</time>
      </trkpt>
      <trkpt lat="61.6166537348" lon="8.6469908338">
        <ele>1387.8</ele>
        <time>2012-08-08T10:08:24Z</time>
      </trkpt>
      <trkpt lat="61.6165871825" lon="8.64700717852">
        <ele>1388.28</ele>
        <time>2012-08-08T10:08:31Z</time>
      </trkpt>
      <trkpt lat="61.6165573429" lon="8.64692587405">
        <ele>1388.28</ele>
        <time>2012-08-08T10:08:37Z</time>
      </trkpt>
      <trkpt lat="61.6165045369" lon="8.64691212773">
        <ele>1388.76</ele>
        <time>2012-08-08T10:08:43Z</time>
      </trkpt>
      <trkpt lat="61.616378054" lon="8.64685513079">
        <ele>1389.72</ele>
        <time>2012-08-08T10:08:57Z</time>
      </trkpt>
      <trkpt lat="61.6163656488" lon="8.64684557542">
        <ele>1389.24</ele>
        <time>2012-08-08T10:08:58Z</time>
      </trkpt>
      <trkpt lat="61.6163527407" lon="8.64684138447">
        <ele>1389.24</ele>
        <time>2012-08-08T10:08:59Z</time>
      </trkpt>
      <trkpt lat="61.6163418442" lon="8.64682688378">
        <ele>1389.24</ele>
        <time>2012-08-08T10:09:00Z</time>
      </trkpt>
      <trkpt lat="61.6163317859" lon="8.64681347273">
        <ele>1389.24</ele>
        <time>2012-08-08T10:09:01Z</time>
      </trkpt>
      <trkpt lat="61.6163203027" lon="8.64681531675">
        <ele>1389.24</ele>
        <time>2012-08-08T10:09:02Z</time>
      </trkpt>
      <trkpt lat="61.6163093224" lon="8.64681238309">
        <ele>1389.24</ele>
        <time>2012-08-08T10:09:03Z</time>
      </trkpt>
      <trkpt lat="61.61626691" lon="8.64680299535">
        <ele>1389.24</ele>
        <time>2012-08-08T10:09:08Z</time>
      </trkpt>
      <trkpt lat="61.6162586957" lon="8.64681850187">
        <ele>1389.24</ele>
        <time>2012-08-08T10:09:09Z</time>
      </trkpt>
      <trkpt lat="61.6162488889" lon="8.64682495594">
        <ele>1389.24</ele>
        <time>2012-08-08T10:09:10Z</time>
      </trkpt>
      <trkpt lat="61.6161979269" lon="8.64681104198">
        <ele>1389.72</ele>
        <time>2012-08-08T10:09:16Z</time>
      </trkpt>
      <trkpt lat="61.6161527485" lon="8.64681003615">
        <ele>1390.2</ele>
        <time>2012-08-08T10:09:22Z</time>
      </trkpt>
      <trkpt lat="61.6160391737" lon="8.64683451131">
        <ele>1391.17</ele>
        <time>2012-08-08T10:09:36Z</time>
      </trkpt>
      <trkpt lat="61.6160235833" lon="8.64682110026">
        <ele>1391.17</ele>
        <time>2012-08-08T10:09:38Z</time>
      </trkpt>
      <trkpt lat="61.6159382556" lon="8.64681188017">
        <ele>1391.17</ele>
        <time>2012-08-08T10:09:47Z</time>
      </trkpt>
      <trkpt lat="61.6157948412" lon="8.64680953324">
        <ele>1392.13</ele>
        <time>2012-08-08T10:10:01Z</time>
      </trkpt>
      <trkpt lat="61.6156510077" lon="8.64678723738">
        <ele>1392.61</ele>
        <time>2012-08-08T10:10:17Z</time>
      </trkpt>
      <trkpt lat="61.6155644227" lon="8.64676519297">
        <ele>1393.09</ele>
        <time>2012-08-08T10:10:27Z</time>
      </trkpt>
      <trkpt lat="61.6155419592" lon="8.64675857127">
        <ele>1393.09</ele>
        <time>2012-08-08T10:10:29Z</time>
      </trkpt>
      <trkpt lat="61.6154117044" lon="8.64667349495">
        <ele>1393.57</ele>
        <time>2012-08-08T10:10:44Z</time>
      </trkpt>
      <trkpt lat="61.6153538693" lon="8.64660090767">
        <ele>1394.05</ele>
        <time>2012-08-08T10:10:52Z</time>
      </trkpt>
      <trkpt lat="61.6152421385" lon="8.64645020105">
        <ele>1395.49</ele>
        <time>2012-08-08T10:11:07Z</time>
      </trkpt>
      <trkpt lat="61.6151458304" lon="8.64634006284">
        <ele>1396.45</ele>
        <time>2012-08-08T10:11:20Z</time>
      </trkpt>
      <trkpt lat="61.6150857322" lon="8.64628164098">
        <ele>1396.93</ele>
        <time>2012-08-08T10:11:27Z</time>
      </trkpt>
      <trkpt lat="61.6149463411" lon="8.6462341994">
        <ele>1399.34</ele>
        <time>2012-08-08T10:11:44Z</time>
      </trkpt>
      <trkpt lat="61.6148764361" lon="8.6462258175">
        <ele>1399.82</ele>
        <time>2012-08-08T10:11:56Z</time>
      </trkpt>
      <trkpt lat="61.6147274058" lon="8.64623260684">
        <ele>1400.3</ele>
        <time>2012-08-08T10:12:10Z</time>
      </trkpt>
      <trkpt lat="61.6146387253" lon="8.64621098153">
        <ele>1401.26</ele>
        <time>2012-08-08T10:12:21Z</time>
      </trkpt>
      <trkpt lat="61.614515176" lon="8.64624911919">
        <ele>1402.22</ele>
        <time>2012-08-08T10:12:35Z</time>
      </trkpt>
      <trkpt lat="61.6144359671" lon="8.64628566429">
        <ele>1402.7</ele>
        <time>2012-08-08T10:12:43Z</time>
      </trkpt>
      <trkpt lat="61.614413755" lon="8.64627560601">
        <ele>1403.18</ele>
        <time>2012-08-08T10:12:45Z</time>
      </trkpt>
      <trkpt lat="61.6143068857" lon="8.64625364542">
        <ele>1404.14</ele>
        <time>2012-08-08T10:12:58Z</time>
      </trkpt>
      <trkpt lat="61.614274364" lon="8.64621835761">
        <ele>1404.14</ele>
        <time>2012-08-08T10:13:03Z</time>
      </trkpt>
      <trkpt lat="61.6142288502" lon="8.64625029266">
        <ele>1404.14</ele>
        <time>2012-08-08T10:13:09Z</time>
      </trkpt>
      <trkpt lat="61.614193311" lon="8.64625414833">
        <ele>1404.14</ele>
        <time>2012-08-08T10:13:13Z</time>
      </trkpt>
      <trkpt lat="61.6140990984" lon="8.64619019441">
        <ele>1405.58</ele>
        <time>2012-08-08T10:13:26Z</time>
      </trkpt>
      <trkpt lat="61.6140318755" lon="8.64606228657">
        <ele>1405.58</ele>
        <time>2012-08-08T10:13:40Z</time>
      </trkpt>
      <trkpt lat="61.6139948275" lon="8.64610034041">
        <ele>1406.07</ele>
        <time>2012-08-08T10:13:51Z</time>
      </trkpt>
      <trkpt lat="61.6139269341" lon="8.64611408673">
        <ele>1407.03</ele>
        <time>2012-08-08T10:14:02Z</time>
      </trkpt>
      <trkpt lat="61.6139041353" lon="8.64605549723">
        <ele>1406.07</ele>
        <time>2012-08-08T10:14:16Z</time>
      </trkpt>
      <trkpt lat="61.613918636" lon="8.64604812115">
        <ele>1406.07</ele>
        <time>2012-08-08T10:14:46Z</time>
      </trkpt>
      <trkpt lat="61.6139708553" lon="8.64601526409">
        <ele>1406.07</ele>
        <time>2012-08-08T10:15:17Z</time>
      </trkpt>
      <trkpt lat="61.6139221564" lon="8.64609950222">
        <ele>1406.55</ele>
        <time>2012-08-08T10:15:51Z</time>
      </trkpt>
      <trkpt lat="61.6139315441" lon="8.64611014724">
        <ele>1406.07</ele>
        <time>2012-08-08T10:16:22Z</time>
      </trkpt>
      <trkpt lat="61.6139310412" lon="8.6460699141">
        <ele>1406.07</ele>
        <time>2012-08-08T10:16:53Z</time>
      </trkpt>
      <trkpt lat="61.6139409319" lon="8.64605910145">
        <ele>1406.07</ele>
        <time>2012-08-08T10:17:23Z</time>
      </trkpt>
      <trkpt lat="61.6139203962" lon="8.64605180919">
        <ele>1406.07</ele>
        <time>2012-08-08T10:17:54Z</time>
      </trkpt>
      <trkpt lat="61.613933472" lon="8.64606220275">
        <ele>1406.55</ele>
        <time>2012-08-08T10:18:24Z</time>
      </trkpt>
      <trkpt lat="61.6139018722" lon="8.64611534402">
        <ele>1407.03</ele>
        <time>2012-08-08T10:18:41Z</time>
      </trkpt>
      <trkpt lat="61.6139188875" lon="8.64602657966">
        <ele>1406.07</ele>
        <time>2012-08-08T10:19:00Z</time>
      </trkpt>
      <trkpt lat="61.6139392555" lon="8.64609715529">
        <ele>1406.55</ele>
        <time>2012-08-08T10:19:20Z</time>
      </trkpt>
      <trkpt lat="61.6139300354" lon="8.64602649584">
        <ele>1406.07</ele>
        <time>2012-08-08T10:19:40Z</time>
      </trkpt>
      <trkpt lat="61.6139197256" lon="8.64608340897">
        <ele>1406.07</ele>
        <time>2012-08-08T10:20:01Z</time>
      </trkpt>
      <trkpt lat="61.6139242519" lon="8.64609229378">
        <ele>1406.07</ele>
        <time>2012-08-08T10:20:26Z</time>
      </trkpt>
      <trkpt lat="61.6138799954" lon="8.64609665237">
        <ele>1406.55</ele>
        <time>2012-08-08T10:20:43Z</time>
      </trkpt>
      <trkpt lat="61.613835739" lon="8.64605398849">
        <ele>1408.47</ele>
        <time>2012-08-08T10:20:54Z</time>
      </trkpt>
      <trkpt lat="61.6137851961" lon="8.64602725022">
        <ele>1409.43</ele>
        <time>2012-08-08T10:21:09Z</time>
      </trkpt>
      <trkpt lat="61.6137210745" lon="8.6460306868">
        <ele>1410.39</ele>
        <time>2012-08-08T10:21:22Z</time>
      </trkpt>
      <trkpt lat="61.6136435419" lon="8.64604418166">
        <ele>1411.83</ele>
        <time>2012-08-08T10:21:36Z</time>
      </trkpt>
      <trkpt lat="61.6135454737" lon="8.64603504539">
        <ele>1412.79</ele>
        <time>2012-08-08T10:21:49Z</time>
      </trkpt>
      <trkpt lat="61.6134607326" lon="8.64599992521">
        <ele>1414.24</ele>
        <time>2012-08-08T10:22:03Z</time>
      </trkpt>
      <trkpt lat="61.6133360937" lon="8.64595843479">
        <ele>1415.68</ele>
        <time>2012-08-08T10:22:18Z</time>
      </trkpt>
      <trkpt lat="61.6133146361" lon="8.64596279338">
        <ele>1416.16</ele>
        <time>2012-08-08T10:22:21Z</time>
      </trkpt>
      <trkpt lat="61.6132989619" lon="8.64596178755">
        <ele>1416.16</ele>
        <time>2012-08-08T10:22:23Z</time>
      </trkpt>
      <trkpt lat="61.6131943557" lon="8.64587411284">
        <ele>1418.08</ele>
        <time>2012-08-08T10:22:38Z</time>
      </trkpt>
      <trkpt lat="61.6131310724" lon="8.64583740011">
        <ele>1418.56</ele>
        <time>2012-08-08T10:22:47Z</time>
      </trkpt>
      <trkpt lat="61.6130792722" lon="8.6457933113">
        <ele>1418.08</ele>
        <time>2012-08-08T10:22:58Z</time>
      </trkpt>
      <trkpt lat="61.6129772644" lon="8.64576456137">
        <ele>1420</ele>
        <time>2012-08-08T10:23:11Z</time>
      </trkpt>
      <trkpt lat="61.6129041743" lon="8.64571896382">
        <ele>1420.49</ele>
        <time>2012-08-08T10:23:22Z</time>
      </trkpt>
      <trkpt lat="61.6128929425" lon="8.64572172984">
        <ele>1420.49</ele>
        <time>2012-08-08T10:23:24Z</time>
      </trkpt>
      <trkpt lat="61.6127917729" lon="8.64574645646">
        <ele>1422.41</ele>
        <time>2012-08-08T10:23:39Z</time>
      </trkpt>
      <trkpt lat="61.6127272323" lon="8.64574905485">
        <ele>1423.37</ele>
        <time>2012-08-08T10:23:50Z</time>
      </trkpt>
      <trkpt lat="61.6127168387" lon="8.64574930631">
        <ele>1423.85</ele>
        <time>2012-08-08T10:23:51Z</time>
      </trkpt>
      <trkpt lat="61.6126990691" lon="8.64570312202">
        <ele>1422.89</ele>
        <time>2012-08-08T10:23:54Z</time>
      </trkpt>
      <trkpt lat="61.6126098856" lon="8.64562558942">
        <ele>1424.81</ele>
        <time>2012-08-08T10:24:06Z</time>
      </trkpt>
      <trkpt lat="61.6125600971" lon="8.64562047645">
        <ele>1425.29</ele>
        <time>2012-08-08T10:24:14Z</time>
      </trkpt>
      <trkpt lat="61.6124990769" lon="8.64566314034">
        <ele>1426.25</ele>
        <time>2012-08-08T10:24:25Z</time>
      </trkpt>
      <trkpt lat="61.612449456" lon="8.64558426663">
        <ele>1427.21</ele>
        <time>2012-08-08T10:24:36Z</time>
      </trkpt>
      <trkpt lat="61.6123493761" lon="8.64555979148">
        <ele>1429.14</ele>
        <time>2012-08-08T10:24:51Z</time>
      </trkpt>
      <trkpt lat="61.6123416647" lon="8.64554948173">
        <ele>1429.14</ele>
        <time>2012-08-08T10:24:52Z</time>
      </trkpt>
      <trkpt lat="61.6123079695" lon="8.64551008679">
        <ele>1429.14</ele>
        <time>2012-08-08T10:25:07Z</time>
      </trkpt>
      <trkpt lat="61.6122807283" lon="8.64554001018">
        <ele>1429.62</ele>
        <time>2012-08-08T10:25:22Z</time>
      </trkpt>
      <trkpt lat="61.6122333705" lon="8.64546004683">
        <ele>1429.62</ele>
        <time>2012-08-08T10:25:33Z</time>
      </trkpt>
      <trkpt lat="61.6121663153" lon="8.64540942013">
        <ele>1431.06</ele>
        <time>2012-08-08T10:25:47Z</time>
      </trkpt>
      <trkpt lat="61.6121199634" lon="8.64538871683">
        <ele>1432.5</ele>
        <time>2012-08-08T10:26:02Z</time>
      </trkpt>
      <trkpt lat="61.6120452806" lon="8.64538310096">
        <ele>1434.42</ele>
        <time>2012-08-08T10:26:15Z</time>
      </trkpt>
      <trkpt lat="61.6119901277" lon="8.64539366215">
        <ele>1434.91</ele>
        <time>2012-08-08T10:26:27Z</time>
      </trkpt>
      <trkpt lat="61.6119804885" lon="8.64539139904">
        <ele>1435.39</ele>
        <time>2012-08-08T10:26:28Z</time>
      </trkpt>
      <trkpt lat="61.6119431891" lon="8.64538838156">
        <ele>1435.87</ele>
        <time>2012-08-08T10:26:33Z</time>
      </trkpt>
      <trkpt lat="61.6118482221" lon="8.64531386644">
        <ele>1436.83</ele>
        <time>2012-08-08T10:26:46Z</time>
      </trkpt>
      <trkpt lat="61.6117622238" lon="8.64518235438">
        <ele>1437.79</ele>
        <time>2012-08-08T10:26:59Z</time>
      </trkpt>
      <trkpt lat="61.6116830986" lon="8.64509459585">
        <ele>1438.27</ele>
        <time>2012-08-08T10:27:12Z</time>
      </trkpt>
      <trkpt lat="61.6116208211" lon="8.64506760612">
        <ele>1440.19</ele>
        <time>2012-08-08T10:27:23Z</time>
      </trkpt>
      <trkpt lat="61.6115537658" lon="8.64500449039">
        <ele>1440.19</ele>
        <time>2012-08-08T10:27:38Z</time>
      </trkpt>
      <trkpt lat="61.6115112696" lon="8.64497624338">
        <ele>1441.63</ele>
        <time>2012-08-08T10:27:53Z</time>
      </trkpt>
      <trkpt lat="61.611455027" lon="8.64493927918">
        <ele>1442.11</ele>
        <time>2012-08-08T10:28:10Z</time>
      </trkpt>
      <trkpt lat="61.6113619041" lon="8.6448723916">
        <ele>1444.04</ele>
        <time>2012-08-08T10:28:23Z</time>
      </trkpt>
      <trkpt lat="61.6113032307" lon="8.64483324811">
        <ele>1445.48</ele>
        <time>2012-08-08T10:28:36Z</time>
      </trkpt>
      <trkpt lat="61.6112606507" lon="8.64482964389">
        <ele>1445.48</ele>
        <time>2012-08-08T10:28:53Z</time>
      </trkpt>
      <trkpt lat="61.6112025641" lon="8.64483710378">
        <ele>1446.92</ele>
        <time>2012-08-08T10:29:03Z</time>
      </trkpt>
      <trkpt lat="61.611100724" lon="8.64479200915">
        <ele>1448.36</ele>
        <time>2012-08-08T10:29:18Z</time>
      </trkpt>
      <trkpt lat="61.6110516898" lon="8.64479259588">
        <ele>1448.84</ele>
        <time>2012-08-08T10:29:31Z</time>
      </trkpt>
      <trkpt lat="61.6110071819" lon="8.64480441436">
        <ele>1450.29</ele>
        <time>2012-08-08T10:29:43Z</time>
      </trkpt>
      <trkpt lat="61.6109852213" lon="8.64475831389">
        <ele>1450.29</ele>
        <time>2012-08-08T10:29:56Z</time>
      </trkpt>
      <trkpt lat="61.6109389532" lon="8.6447737366">
        <ele>1451.25</ele>
        <time>2012-08-08T10:30:07Z</time>
      </trkpt>
      <trkpt lat="61.6109096166" lon="8.64477138966">
        <ele>1453.17</ele>
        <time>2012-08-08T10:30:22Z</time>
      </trkpt>
      <trkpt lat="61.6108361911" lon="8.64468866028">
        <ele>1454.13</ele>
        <time>2012-08-08T10:30:36Z</time>
      </trkpt>
      <trkpt lat="61.6107471753" lon="8.64460031502">
        <ele>1454.13</ele>
        <time>2012-08-08T10:30:49Z</time>
      </trkpt>
      <trkpt lat="61.6107180063" lon="8.64457877353">
        <ele>1455.09</ele>
        <time>2012-08-08T10:30:54Z</time>
      </trkpt>
      <trkpt lat="61.6106513701" lon="8.64448682405">
        <ele>1455.09</ele>
        <time>2012-08-08T10:31:06Z</time>
      </trkpt>
      <trkpt lat="61.6105915233" lon="8.64449654706">
        <ele>1457.98</ele>
        <time>2012-08-08T10:31:27Z</time>
      </trkpt>
      <trkpt lat="61.6105268151" lon="8.64440719597">
        <ele>1457.5</ele>
        <time>2012-08-08T10:31:50Z</time>
      </trkpt>
      <trkpt lat="61.61039019" lon="8.64434483461">
        <ele>1459.42</ele>
        <time>2012-08-08T10:32:04Z</time>
      </trkpt>
      <trkpt lat="61.6102616116" lon="8.64425137639">
        <ele>1459.42</ele>
        <time>2012-08-08T10:32:18Z</time>
      </trkpt>
      <trkpt lat="61.6102121584" lon="8.64424802363">
        <ele>1459.9</ele>
        <time>2012-08-08T10:32:24Z</time>
      </trkpt>
      <trkpt lat="61.6101254895" lon="8.64413880743">
        <ele>1461.34</ele>
        <time>2012-08-08T10:32:36Z</time>
      </trkpt>
      <trkpt lat="61.6100450233" lon="8.64411081187">
        <ele>1462.78</ele>
        <time>2012-08-08T10:32:49Z</time>
      </trkpt>
      <trkpt lat="61.6100175306" lon="8.64410284907">
        <ele>1462.78</ele>
        <time>2012-08-08T10:32:53Z</time>
      </trkpt>
      <trkpt lat="61.6099643894" lon="8.64410234615">
        <ele>1463.26</ele>
        <time>2012-08-08T10:32:58Z</time>
      </trkpt>
      <trkpt lat="61.609900184" lon="8.64408574998">
        <ele>1462.78</ele>
        <time>2012-08-08T10:33:06Z</time>
      </trkpt>
      <trkpt lat="61.6098601185" lon="8.64404576831">
        <ele>1463.26</ele>
        <time>2012-08-08T10:33:10Z</time>
      </trkpt>
      <trkpt lat="61.6097949073" lon="8.6440078821">
        <ele>1463.74</ele>
        <time>2012-08-08T10:33:17Z</time>
      </trkpt>
      <trkpt lat="61.6096573602" lon="8.64398156293">
        <ele>1464.23</ele>
        <time>2012-08-08T10:33:32Z</time>
      </trkpt>
      <trkpt lat="61.6095529217" lon="8.64392917603">
        <ele>1465.19</ele>
        <time>2012-08-08T10:33:46Z</time>
      </trkpt>
      <trkpt lat="61.6094064899" lon="8.64390989766">
        <ele>1465.67</ele>
        <time>2012-08-08T10:34:02Z</time>
      </trkpt>
      <trkpt lat="61.6093095951" lon="8.64387645386">
        <ele>1466.63</ele>
        <time>2012-08-08T10:34:12Z</time>
      </trkpt>
      <trkpt lat="61.6092771571" lon="8.64381417632">
        <ele>1467.11</ele>
        <time>2012-08-08T10:34:16Z</time>
      </trkpt>
      <trkpt lat="61.6092586331" lon="8.64381208085">
        <ele>1467.11</ele>
        <time>2012-08-08T10:34:18Z</time>
      </trkpt>
      <trkpt lat="61.6092261951" lon="8.64382985048">
        <ele>1468.55</ele>
        <time>2012-08-08T10:34:22Z</time>
      </trkpt>
      <trkpt lat="61.6090918332" lon="8.64377218299">
        <ele>1468.55</ele>
        <time>2012-08-08T10:34:37Z</time>
      </trkpt>
      <trkpt lat="61.6090444755" lon="8.64376187325">
        <ele>1469.03</ele>
        <time>2012-08-08T10:34:43Z</time>
      </trkpt>
      <trkpt lat="61.608996531" lon="8.64384477027">
        <ele>1469.51</ele>
        <time>2012-08-08T10:34:51Z</time>
      </trkpt>
      <trkpt lat="61.608889075" lon="8.64391878247">
        <ele>1470.95</ele>
        <time>2012-08-08T10:35:05Z</time>
      </trkpt>
      <trkpt lat="61.6088165715" lon="8.64397577941">
        <ele>1471.92</ele>
        <time>2012-08-08T10:35:13Z</time>
      </trkpt>
      <trkpt lat="61.6086932737" lon="8.64399438724">
        <ele>1472.4</ele>
        <time>2012-08-08T10:35:28Z</time>
      </trkpt>
      <trkpt lat="61.6086557228" lon="8.64401291125">
        <ele>1472.88</ele>
        <time>2012-08-08T10:35:34Z</time>
      </trkpt>
      <trkpt lat="61.6086438205" lon="8.64401282743">
        <ele>1473.36</ele>
        <time>2012-08-08T10:35:36Z</time>
      </trkpt>
      <trkpt lat="61.6085068602" lon="8.64410142414">
        <ele>1473.36</ele>
        <time>2012-08-08T10:35:51Z</time>
      </trkpt>
      <trkpt lat="61.6084561497" lon="8.64411391318">
        <ele>1474.8</ele>
        <time>2012-08-08T10:35:57Z</time>
      </trkpt>
      <trkpt lat="61.6084207781" lon="8.64414224401">
        <ele>1475.28</ele>
        <time>2012-08-08T10:36:01Z</time>
      </trkpt>
      <trkpt lat="61.608275352" lon="8.64421214908">
        <ele>1477.2</ele>
        <time>2012-08-08T10:36:17Z</time>
      </trkpt>
      <trkpt lat="61.6082588397" lon="8.64423109218">
        <ele>1476.72</ele>
        <time>2012-08-08T10:36:19Z</time>
      </trkpt>
      <trkpt lat="61.6082070395" lon="8.64430518821">
        <ele>1478.65</ele>
        <time>2012-08-08T10:36:31Z</time>
      </trkpt>
      <trkpt lat="61.6081111506" lon="8.64439789206">
        <ele>1479.61</ele>
        <time>2012-08-08T10:36:43Z</time>
      </trkpt>
      <trkpt lat="61.6080848314" lon="8.64443359897">
        <ele>1479.61</ele>
        <time>2012-08-08T10:36:47Z</time>
      </trkpt>
      <trkpt lat="61.6079796385" lon="8.6445918493">
        <ele>1481.53</ele>
        <time>2012-08-08T10:37:02Z</time>
      </trkpt>
      <trkpt lat="61.6079543252" lon="8.6446385365">
        <ele>1481.53</ele>
        <time>2012-08-08T10:37:07Z</time>
      </trkpt>
      <trkpt lat="61.6078514792" lon="8.64477449097">
        <ele>1483.45</ele>
        <time>2012-08-08T10:37:21Z</time>
      </trkpt>
      <trkpt lat="61.6078138445" lon="8.64485797472">
        <ele>1483.93</ele>
        <time>2012-08-08T10:37:33Z</time>
      </trkpt>
      <trkpt lat="61.6078112461" lon="8.64491614513">
        <ele>1483.45</ele>
        <time>2012-08-08T10:37:35Z</time>
      </trkpt>
      <trkpt lat="61.6077967454" lon="8.64494925365">
        <ele>1484.41</ele>
        <time>2012-08-08T10:37:36Z</time>
      </trkpt>
      <trkpt lat="61.6077832505" lon="8.64497213624">
        <ele>1484.41</ele>
        <time>2012-08-08T10:37:37Z</time>
      </trkpt>
      <trkpt lat="61.6077426821" lon="8.64496618509">
        <ele>1484.89</ele>
        <time>2012-08-08T10:37:47Z</time>
      </trkpt>
      <trkpt lat="61.6077477112" lon="8.64495227113">
        <ele>1485.37</ele>
        <time>2012-08-08T10:38:01Z</time>
      </trkpt>
      <trkpt lat="61.6077674087" lon="8.64498940296">
        <ele>1484.89</ele>
        <time>2012-08-08T10:38:13Z</time>
      </trkpt>
      <trkpt lat="61.6077705938" lon="8.64494606853">
        <ele>1484.41</ele>
        <time>2012-08-08T10:38:43Z</time>
      </trkpt>
      <trkpt lat="61.6077451129" lon="8.64501865581">
        <ele>1485.37</ele>
        <time>2012-08-08T10:38:59Z</time>
      </trkpt>
      <trkpt lat="61.6076564323" lon="8.64504983649">
        <ele>1485.85</ele>
        <time>2012-08-08T10:39:10Z</time>
      </trkpt>
      <trkpt lat="61.6076202225" lon="8.64502443932">
        <ele>1485.85</ele>
        <time>2012-08-08T10:39:21Z</time>
      </trkpt>
      <trkpt lat="61.6076327953" lon="8.64501303993">
        <ele>1485.37</ele>
        <time>2012-08-08T10:39:38Z</time>
      </trkpt>
      <trkpt lat="61.6075881198" lon="8.64503868856">
        <ele>1484.89</ele>
        <time>2012-08-08T10:39:51Z</time>
      </trkpt>
      <trkpt lat="61.6075944062" lon="8.64500155672">
        <ele>1484.89</ele>
        <time>2012-08-08T10:40:03Z</time>
      </trkpt>
      <trkpt lat="61.6076011956" lon="8.6449987907">
        <ele>1485.37</ele>
        <time>2012-08-08T10:40:14Z</time>
      </trkpt>
      <trkpt lat="61.6076089069" lon="8.64499912597">
        <ele>1485.37</ele>
        <time>2012-08-08T10:40:26Z</time>
      </trkpt>
      <trkpt lat="61.6076246649" lon="8.645028295">
        <ele>1485.37</ele>
        <time>2012-08-08T10:40:36Z</time>
      </trkpt>
      <trkpt lat="61.6076416802" lon="8.64503432997">
        <ele>1485.85</ele>
        <time>2012-08-08T10:40:50Z</time>
      </trkpt>
      <trkpt lat="61.6076492239" lon="8.6450049933">
        <ele>1485.37</ele>
        <time>2012-08-08T10:41:09Z</time>
      </trkpt>
      <trkpt lat="61.6076462902" lon="8.64500440657">
        <ele>1485.85</ele>
        <time>2012-08-08T10:41:31Z</time>
      </trkpt>
      <trkpt lat="61.6076421831" lon="8.64504413679">
        <ele>1484.89</ele>
        <time>2012-08-08T10:41:43Z</time>
      </trkpt>
      <trkpt lat="61.6076370701" lon="8.64508051425">
        <ele>1486.34</ele>
        <time>2012-08-08T10:41:45Z</time>
      </trkpt>
      <trkpt lat="61.607626006" lon="8.64507657476">
        <ele>1486.34</ele>
        <time>2012-08-08T10:41:46Z</time>
      </trkpt>
      <trkpt lat="61.6076081526" lon="8.64504698664">
        <ele>1485.85</ele>
        <time>2012-08-08T10:41:54Z</time>
      </trkpt>
      <trkpt lat="61.6076159477" lon="8.64504128695">
        <ele>1486.34</ele>
        <time>2012-08-08T10:42:03Z</time>
      </trkpt>
      <trkpt lat="61.6076083202" lon="8.64502670243">
        <ele>1485.85</ele>
        <time>2012-08-08T10:42:29Z</time>
      </trkpt>
      <trkpt lat="61.6075799894" lon="8.64512577653">
        <ele>1485.85</ele>
        <time>2012-08-08T10:42:41Z</time>
      </trkpt>
      <trkpt lat="61.6075544246" lon="8.64514756948">
        <ele>1486.82</ele>
        <time>2012-08-08T10:42:53Z</time>
      </trkpt>
      <trkpt lat="61.6075531673" lon="8.6451146286">
        <ele>1485.85</ele>
        <time>2012-08-08T10:43:22Z</time>
      </trkpt>
      <trkpt lat="61.6075128503" lon="8.64522744901">
        <ele>1486.82</ele>
        <time>2012-08-08T10:43:34Z</time>
      </trkpt>
      <trkpt lat="61.6075163707" lon="8.64519333467">
        <ele>1486.82</ele>
        <time>2012-08-08T10:43:47Z</time>
      </trkpt>
      <trkpt lat="61.6074928176" lon="8.64518880844">
        <ele>1486.34</ele>
        <time>2012-08-08T10:44:00Z</time>
      </trkpt>
      <trkpt lat="61.6075386666" lon="8.64524069242">
        <ele>1486.82</ele>
        <time>2012-08-08T10:44:17Z</time>
      </trkpt>
      <trkpt lat="61.6075448692" lon="8.64524429664">
        <ele>1486.82</ele>
        <time>2012-08-08T10:44:18Z</time>
      </trkpt>
      <trkpt lat="61.6075459588" lon="8.64526734687">
        <ele>1486.82</ele>
        <time>2012-08-08T10:44:37Z</time>
      </trkpt>
      <trkpt lat="61.6075397562" lon="8.64525670186">
        <ele>1486.82</ele>
        <time>2012-08-08T10:45:02Z</time>
      </trkpt>
      <trkpt lat="61.6075366549" lon="8.64524915814">
        <ele>1485.85</ele>
        <time>2012-08-08T10:45:12Z</time>
      </trkpt>
      <trkpt lat="61.6075320449" lon="8.64527103491">
        <ele>1487.78</ele>
        <time>2012-08-08T10:45:14Z</time>
      </trkpt>
      <trkpt lat="61.6075250879" lon="8.64524463192">
        <ele>1488.26</ele>
        <time>2012-08-08T10:45:16Z</time>
      </trkpt>
      <trkpt lat="61.6075270995" lon="8.64522577263">
        <ele>1486.82</ele>
        <time>2012-08-08T10:45:27Z</time>
      </trkpt>
      <trkpt lat="61.6075110901" lon="8.64522602409">
        <ele>1487.3</ele>
        <time>2012-08-08T10:45:45Z</time>
      </trkpt>
      <trkpt lat="61.6075158678" lon="8.64533079788">
        <ele>1487.78</ele>
        <time>2012-08-08T10:46:04Z</time>
      </trkpt>
      <trkpt lat="61.6074858606" lon="8.64534546621">
        <ele>1488.26</ele>
        <time>2012-08-08T10:46:18Z</time>
      </trkpt>
      <trkpt lat="61.6074270196" lon="8.64541579038">
        <ele>1488.74</ele>
        <time>2012-08-08T10:46:40Z</time>
      </trkpt>
      <trkpt lat="61.6073944978" lon="8.6455524154">
        <ele>1490.18</ele>
        <time>2012-08-08T10:46:52Z</time>
      </trkpt>
      <trkpt lat="61.6073143668" lon="8.64568702877">
        <ele>1491.14</ele>
        <time>2012-08-08T10:47:06Z</time>
      </trkpt>
      <trkpt lat="61.607247144" lon="8.64578392357">
        <ele>1491.62</ele>
        <time>2012-08-08T10:47:20Z</time>
      </trkpt>
      <trkpt lat="61.6071807593" lon="8.64592172205">
        <ele>1492.1</ele>
        <time>2012-08-08T10:47:35Z</time>
      </trkpt>
      <trkpt lat="61.6071048193" lon="8.64605231211">
        <ele>1492.1</ele>
        <time>2012-08-08T10:47:49Z</time>
      </trkpt>
      <trkpt lat="61.6070177313" lon="8.64610377699">
        <ele>1492.58</ele>
        <time>2012-08-08T10:48:03Z</time>
      </trkpt>
      <trkpt lat="61.6069992911" lon="8.64614191465">
        <ele>1493.06</ele>
        <time>2012-08-08T10:48:06Z</time>
      </trkpt>
      <trkpt lat="61.6068906616" lon="8.64621458575">
        <ele>1492.58</ele>
        <time>2012-08-08T10:48:21Z</time>
      </trkpt>
      <trkpt lat="61.6067944374" lon="8.64628197625">
        <ele>1492.58</ele>
        <time>2012-08-08T10:48:34Z</time>
      </trkpt>
      <trkpt lat="61.6067309026" lon="8.64644869231">
        <ele>1495.95</ele>
        <time>2012-08-08T10:48:49Z</time>
      </trkpt>
      <trkpt lat="61.606717743" lon="8.64647543058">
        <ele>1495.47</ele>
        <time>2012-08-08T10:48:52Z</time>
      </trkpt>
      <trkpt lat="61.6066355165" lon="8.64659110084">
        <ele>1497.87</ele>
        <time>2012-08-08T10:49:07Z</time>
      </trkpt>
      <trkpt lat="61.6066142265" lon="8.64666326903">
        <ele>1498.83</ele>
        <time>2012-08-08T10:49:20Z</time>
      </trkpt>
      <trkpt lat="61.6065281443" lon="8.64665254019">
        <ele>1500.27</ele>
        <time>2012-08-08T10:49:33Z</time>
      </trkpt>
      <trkpt lat="61.6064480972" lon="8.64670023322">
        <ele>1501.72</ele>
        <time>2012-08-08T10:49:47Z</time>
      </trkpt>
      <trkpt lat="61.6063620988" lon="8.64674013108">
        <ele>1501.72</ele>
        <time>2012-08-08T10:50:01Z</time>
      </trkpt>
      <trkpt lat="61.6063369531" lon="8.64677910693">
        <ele>1502.2</ele>
        <time>2012-08-08T10:50:04Z</time>
      </trkpt>
      <trkpt lat="61.6062417347" lon="8.64691690542">
        <ele>1502.68</ele>
        <time>2012-08-08T10:50:20Z</time>
      </trkpt>
      <trkpt lat="61.6061638668" lon="8.64697289653">
        <ele>1504.12</ele>
        <time>2012-08-08T10:50:34Z</time>
      </trkpt>
      <trkpt lat="61.6060945485" lon="8.64712175913">
        <ele>1505.56</ele>
        <time>2012-08-08T10:50:50Z</time>
      </trkpt>
      <trkpt lat="61.6060370486" lon="8.64721270278">
        <ele>1507.48</ele>
        <time>2012-08-08T10:51:05Z</time>
      </trkpt>
      <trkpt lat="61.6059575044" lon="8.64731102251">
        <ele>1508.45</ele>
        <time>2012-08-08T10:51:20Z</time>
      </trkpt>
      <trkpt lat="61.6059612762" lon="8.6473198235">
        <ele>1509.89</ele>
        <time>2012-08-08T10:51:34Z</time>
      </trkpt>
      <trkpt lat="61.6058767866" lon="8.64742442966">
        <ele>1509.41</ele>
        <time>2012-08-08T10:51:50Z</time>
      </trkpt>
      <trkpt lat="61.6057757009" lon="8.64754621871">
        <ele>1510.85</ele>
        <time>2012-08-08T10:52:04Z</time>
      </trkpt>
      <trkpt lat="61.605743682" lon="8.64766323008">
        <ele>1512.77</ele>
        <time>2012-08-08T10:52:18Z</time>
      </trkpt>
      <trkpt lat="61.6056918819" lon="8.64777135663">
        <ele>1515.18</ele>
        <time>2012-08-08T10:52:33Z</time>
      </trkpt>
      <trkpt lat="61.6056669876" lon="8.64788006991">
        <ele>1518.54</ele>
        <time>2012-08-08T10:52:48Z</time>
      </trkpt>
      <trkpt lat="61.605574619" lon="8.64802340046">
        <ele>1519.02</ele>
        <time>2012-08-08T10:53:03Z</time>
      </trkpt>
      <trkpt lat="61.6055002715" lon="8.64816606045">
        <ele>1521.42</ele>
        <time>2012-08-08T10:53:19Z</time>
      </trkpt>
      <trkpt lat="61.6054872796" lon="8.64826479927">
        <ele>1524.31</ele>
        <time>2012-08-08T10:53:34Z</time>
      </trkpt>
      <trkpt lat="61.6054630559" lon="8.64836781286">
        <ele>1525.75</ele>
        <time>2012-08-08T10:53:47Z</time>
      </trkpt>
      <trkpt lat="61.6054281872" lon="8.64846579731">
        <ele>1526.71</ele>
        <time>2012-08-08T10:53:59Z</time>
      </trkpt>
      <trkpt lat="61.6053860262" lon="8.64856931381">
        <ele>1528.15</ele>
        <time>2012-08-08T10:54:12Z</time>
      </trkpt>
      <trkpt lat="61.6053159535" lon="8.64869931713">
        <ele>1530.56</ele>
        <time>2012-08-08T10:54:25Z</time>
      </trkpt>
      <trkpt lat="61.6052254289" lon="8.64877014421">
        <ele>1532</ele>
        <time>2012-08-08T10:54:40Z</time>
      </trkpt>
      <trkpt lat="61.6051971819" lon="8.64884105511">
        <ele>1533.44</ele>
        <time>2012-08-08T10:54:50Z</time>
      </trkpt>
      <trkpt lat="61.6051955894" lon="8.64891313948">
        <ele>1533.44</ele>
        <time>2012-08-08T10:55:04Z</time>
      </trkpt>
      <trkpt lat="61.6051976848" lon="8.64889143035">
        <ele>1533.44</ele>
        <time>2012-08-08T10:55:35Z</time>
      </trkpt>
      <trkpt lat="61.6052102577" lon="8.64891565405">
        <ele>1532.96</ele>
        <time>2012-08-08T10:56:07Z</time>
      </trkpt>
      <trkpt lat="61.6052103415" lon="8.64894029684">
        <ele>1533.44</ele>
        <time>2012-08-08T10:56:41Z</time>
      </trkpt>
      <trkpt lat="61.6051806696" lon="8.64893794991">
        <ele>1532.96</ele>
        <time>2012-08-08T10:57:10Z</time>
      </trkpt>
      <trkpt lat="61.605178155" lon="8.64893049002">
        <ele>1533.92</ele>
        <time>2012-08-08T10:57:39Z</time>
      </trkpt>
      <trkpt lat="61.6051787417" lon="8.64894323051">
        <ele>1530.56</ele>
        <time>2012-08-08T10:57:57Z</time>
      </trkpt>
      <trkpt lat="61.6051759757" lon="8.64893727936">
        <ele>1537.29</ele>
        <time>2012-08-08T10:57:59Z</time>
      </trkpt>
      <trkpt lat="61.6051754728" lon="8.64893442951">
        <ele>1533.92</ele>
        <time>2012-08-08T10:58:00Z</time>
      </trkpt>
      <trkpt lat="61.6051732935" lon="8.64896091633">
        <ele>1534.4</ele>
        <time>2012-08-08T10:58:23Z</time>
      </trkpt>
      <trkpt lat="61.6051300429" lon="8.64897985943">
        <ele>1534.88</ele>
        <time>2012-08-08T10:58:38Z</time>
      </trkpt>
      <trkpt lat="61.6050799191" lon="8.64908656105">
        <ele>1535.36</ele>
        <time>2012-08-08T10:58:48Z</time>
      </trkpt>
      <trkpt lat="61.6050214972" lon="8.64915998653">
        <ele>1535.36</ele>
        <time>2012-08-08T10:59:01Z</time>
      </trkpt>
      <trkpt lat="61.6050007101" lon="8.64938252605">
        <ele>1537.77</ele>
        <time>2012-08-08T10:59:15Z</time>
      </trkpt>
      <trkpt lat="61.6049413662" lon="8.64953566343">
        <ele>1538.73</ele>
        <time>2012-08-08T10:59:28Z</time>
      </trkpt>
      <trkpt lat="61.6049292125" lon="8.64963741973">
        <ele>1540.17</ele>
        <time>2012-08-08T10:59:35Z</time>
      </trkpt>
      <trkpt lat="61.6049004626" lon="8.64981377497">
        <ele>1541.61</ele>
        <time>2012-08-08T10:59:48Z</time>
      </trkpt>
      <trkpt lat="61.6048482433" lon="8.6498913914">
        <ele>1543.05</ele>
        <time>2012-08-08T11:00:01Z</time>
      </trkpt>
      <trkpt lat="61.6048116144" lon="8.65003296174">
        <ele>1544.5</ele>
        <time>2012-08-08T11:00:13Z</time>
      </trkpt>
      <trkpt lat="61.6047845408" lon="8.65015399642">
        <ele>1545.46</ele>
        <time>2012-08-08T11:00:26Z</time>
      </trkpt>
      <trkpt lat="61.6047518514" lon="8.65026740357">
        <ele>1546.9</ele>
        <time>2012-08-08T11:00:37Z</time>
      </trkpt>
      <trkpt lat="61.6047351714" lon="8.65032624453">
        <ele>1546.9</ele>
        <time>2012-08-08T11:00:41Z</time>
      </trkpt>
      <trkpt lat="61.6046884842" lon="8.65047242492">
        <ele>1547.86</ele>
        <time>2012-08-08T11:00:55Z</time>
      </trkpt>
      <trkpt lat="61.6046386119" lon="8.65054601803">
        <ele>1548.34</ele>
        <time>2012-08-08T11:01:07Z</time>
      </trkpt>
      <trkpt lat="61.6046100296" lon="8.65062413737">
        <ele>1549.3</ele>
        <time>2012-08-08T11:01:15Z</time>
      </trkpt>
      <trkpt lat="61.6045350116" lon="8.65076579154">
        <ele>1549.78</ele>
        <time>2012-08-08T11:01:28Z</time>
      </trkpt>
      <trkpt lat="61.6045131348" lon="8.6508642789">
        <ele>1550.26</ele>
        <time>2012-08-08T11:01:35Z</time>
      </trkpt>
      <trkpt lat="61.6044582333" lon="8.65092697553">
        <ele>1549.78</ele>
        <time>2012-08-08T11:01:43Z</time>
      </trkpt>
      <trkpt lat="61.6043751687" lon="8.6511043366">
        <ele>1549.78</ele>
        <time>2012-08-08T11:01:56Z</time>
      </trkpt>
      <trkpt lat="61.6043625958" lon="8.65112621337">
        <ele>1549.78</ele>
        <time>2012-08-08T11:01:59Z</time>
      </trkpt>
      <trkpt lat="61.6043210216" lon="8.65127197467">
        <ele>1549.78</ele>
        <time>2012-08-08T11:02:07Z</time>
      </trkpt>
      <trkpt lat="61.6042377893" lon="8.65138672292">
        <ele>1550.26</ele>
        <time>2012-08-08T11:02:20Z</time>
      </trkpt>
      <trkpt lat="61.6041507013" lon="8.65153918974">
        <ele>1551.22</ele>
        <time>2012-08-08T11:02:33Z</time>
      </trkpt>
      <trkpt lat="61.6041496117" lon="8.65154363215">
        <ele>1551.22</ele>
        <time>2012-08-08T11:02:34Z</time>
      </trkpt>
      <trkpt lat="61.6040890943" lon="8.65170213394">
        <ele>1550.74</ele>
        <time>2012-08-08T11:02:49Z</time>
      </trkpt>
      <trkpt lat="61.6040654574" lon="8.65183507092">
        <ele>1553.15</ele>
        <time>2012-08-08T11:02:58Z</time>
      </trkpt>
      <trkpt lat="61.6040403955" lon="8.65189936012">
        <ele>1553.63</ele>
        <time>2012-08-08T11:03:03Z</time>
      </trkpt>
      <trkpt lat="61.6040391382" lon="8.65200120024">
        <ele>1554.11</ele>
        <time>2012-08-08T11:03:16Z</time>
      </trkpt>
      <trkpt lat="61.6040434968" lon="8.65202022716">
        <ele>1554.11</ele>
        <time>2012-08-08T11:03:52Z</time>
      </trkpt>
      <trkpt lat="61.604034109" lon="8.65197295323">
        <ele>1554.11</ele>
        <time>2012-08-08T11:04:36Z</time>
      </trkpt>
      <trkpt lat="61.6039346997" lon="8.6520327162">
        <ele>1554.11</ele>
        <time>2012-08-08T11:04:49Z</time>
      </trkpt>
      <trkpt lat="61.6038508806" lon="8.65215936676">
        <ele>1554.11</ele>
        <time>2012-08-08T11:05:04Z</time>
      </trkpt>
      <trkpt lat="61.6037859209" lon="8.65226397291">
        <ele>1555.07</ele>
        <time>2012-08-08T11:05:18Z</time>
      </trkpt>
      <trkpt lat="61.6038381401" lon="8.65218702704">
        <ele>1561.8</ele>
        <time>2012-08-08T11:09:22Z</time>
      </trkpt>
      <trkpt lat="61.6031241696" lon="8.65325245075">
        <ele>1561.8</ele>
        <time>2012-08-08T11:09:23Z</time>
      </trkpt>
      <trkpt lat="61.6031020414" lon="8.65328430198">
        <ele>1566.61</ele>
        <time>2012-08-08T11:09:49Z</time>
      </trkpt>
      <trkpt lat="61.603101287" lon="8.65328329615">
        <ele>1561.8</ele>
        <time>2012-08-08T11:09:50Z</time>
      </trkpt>
      <trkpt lat="61.6031038016" lon="8.65328312851">
        <ele>1565.64</ele>
        <time>2012-08-08T11:10:04Z</time>
      </trkpt>
      <trkpt lat="61.6031034663" lon="8.65328405052">
        <ele>1562.28</ele>
        <time>2012-08-08T11:10:05Z</time>
      </trkpt>
      <trkpt lat="61.60311101" lon="8.65330559202">
        <ele>1562.76</ele>
        <time>2012-08-08T11:10:24Z</time>
      </trkpt>
      <trkpt lat="61.603113357" lon="8.65326259285">
        <ele>1563.24</ele>
        <time>2012-08-08T11:10:43Z</time>
      </trkpt>
      <trkpt lat="61.6031079926" lon="8.65323996171">
        <ele>1562.28</ele>
        <time>2012-08-08T11:11:12Z</time>
      </trkpt>
      <trkpt lat="61.6030861996" lon="8.65318665281">
        <ele>1561.8</ele>
        <time>2012-08-08T11:11:37Z</time>
      </trkpt>
      <trkpt lat="61.6030815057" lon="8.65325437859">
        <ele>1562.76</ele>
        <time>2012-08-08T11:11:53Z</time>
      </trkpt>
      <trkpt lat="61.6030882113" lon="8.65324876271">
        <ele>1562.28</ele>
        <time>2012-08-08T11:12:12Z</time>
      </trkpt>
      <trkpt lat="61.6030514147" lon="8.65323308855">
        <ele>1562.28</ele>
        <time>2012-08-08T11:12:17Z</time>
      </trkpt>
      <trkpt lat="61.6029525083" lon="8.65334264003">
        <ele>1562.76</ele>
        <time>2012-08-08T11:12:33Z</time>
      </trkpt>
      <trkpt lat="61.6028521769" lon="8.65352410823">
        <ele>1565.64</ele>
        <time>2012-08-08T11:12:51Z</time>
      </trkpt>
      <trkpt lat="61.6028533503" lon="8.65366827697">
        <ele>1566.61</ele>
        <time>2012-08-08T11:13:02Z</time>
      </trkpt>
      <trkpt lat="61.6028236784" lon="8.65382879041">
        <ele>1569.49</ele>
        <time>2012-08-08T11:13:16Z</time>
      </trkpt>
      <trkpt lat="61.6027331538" lon="8.65400791168">
        <ele>1569.97</ele>
        <time>2012-08-08T11:13:32Z</time>
      </trkpt>
      <trkpt lat="61.6026780847" lon="8.65409340709">
        <ele>1569.97</ele>
        <time>2012-08-08T11:13:41Z</time>
      </trkpt>
      <trkpt lat="61.6026583873" lon="8.65413037129">
        <ele>1570.45</ele>
        <time>2012-08-08T11:13:44Z</time>
      </trkpt>
      <trkpt lat="61.6025643423" lon="8.65429256111">
        <ele>1571.41</ele>
        <time>2012-08-08T11:13:59Z</time>
      </trkpt>
      <trkpt lat="61.6025229357" lon="8.65438912064">
        <ele>1571.89</ele>
        <time>2012-08-08T11:14:05Z</time>
      </trkpt>
      <trkpt lat="61.602449175" lon="8.65458064713">
        <ele>1572.85</ele>
        <time>2012-08-08T11:14:20Z</time>
      </trkpt>
      <trkpt lat="61.6023656912" lon="8.6546540726">
        <ele>1572.85</ele>
        <time>2012-08-08T11:14:32Z</time>
      </trkpt>
      <trkpt lat="61.6022576485" lon="8.65477862768">
        <ele>1573.82</ele>
        <time>2012-08-08T11:14:46Z</time>
      </trkpt>
      <trkpt lat="61.6021865699" lon="8.65490737371">
        <ele>1574.3</ele>
        <time>2012-08-08T11:14:59Z</time>
      </trkpt>
      <trkpt lat="61.6021167487" lon="8.65510560572">
        <ele>1575.26</ele>
        <time>2012-08-08T11:15:13Z</time>
      </trkpt>
      <trkpt lat="61.6020865738" lon="8.65532462485">
        <ele>1576.22</ele>
        <time>2012-08-08T11:15:26Z</time>
      </trkpt>
      <trkpt lat="61.6020889208" lon="8.65536485799">
        <ele>1576.22</ele>
        <time>2012-08-08T11:15:42Z</time>
      </trkpt>
      <trkpt lat="61.6020853166" lon="8.65535664372">
        <ele>1575.74</ele>
        <time>2012-08-08T11:16:12Z</time>
      </trkpt>
      <trkpt lat="61.6020981409" lon="8.65535513498">
        <ele>1576.22</ele>
        <time>2012-08-08T11:16:45Z</time>
      </trkpt>
      <trkpt lat="61.6021311656" lon="8.65537013859">
        <ele>1576.7</ele>
        <time>2012-08-08T11:16:52Z</time>
      </trkpt>
      <trkpt lat="61.6021060199" lon="8.65543107502">
        <ele>1576.22</ele>
        <time>2012-08-08T11:17:07Z</time>
      </trkpt>
      <trkpt lat="61.6020827182" lon="8.65543040447">
        <ele>1573.33</ele>
        <time>2012-08-08T11:17:12Z</time>
      </trkpt>
      <trkpt lat="61.602089256" lon="8.655419508">
        <ele>1577.66</ele>
        <time>2012-08-08T11:17:13Z</time>
      </trkpt>
      <trkpt lat="61.6021123901" lon="8.65543920547">
        <ele>1575.26</ele>
        <time>2012-08-08T11:17:28Z</time>
      </trkpt>
      <trkpt lat="61.602177266" lon="8.65535287187">
        <ele>1575.74</ele>
        <time>2012-08-08T11:18:01Z</time>
      </trkpt>
      <trkpt lat="61.6021906771" lon="8.65543501452">
        <ele>1576.22</ele>
        <time>2012-08-08T11:18:31Z</time>
      </trkpt>
      <trkpt lat="61.6021412238" lon="8.65550885908">
        <ele>1575.26</ele>
        <time>2012-08-08T11:19:33Z</time>
      </trkpt>
      <trkpt lat="61.6020862386" lon="8.65543987602">
        <ele>1575.74</ele>
        <time>2012-08-08T11:20:07Z</time>
      </trkpt>
      <trkpt lat="61.6020823829" lon="8.65550433286">
        <ele>1575.74</ele>
        <time>2012-08-08T11:20:34Z</time>
      </trkpt>
      <trkpt lat="61.6020937823" lon="8.65549192764">
        <ele>1576.22</ele>
        <time>2012-08-08T11:20:49Z</time>
      </trkpt>
      <trkpt lat="61.6020843107" lon="8.65548958071">
        <ele>1576.22</ele>
        <time>2012-08-08T11:21:15Z</time>
      </trkpt>
      <trkpt lat="61.6020812094" lon="8.65545571782">
        <ele>1575.74</ele>
        <time>2012-08-08T11:21:39Z</time>
      </trkpt>
      <trkpt lat="61.602080455" lon="8.65544633009">
        <ele>1575.74</ele>
        <time>2012-08-08T11:22:06Z</time>
      </trkpt>
      <trkpt lat="61.6020903457" lon="8.65543618798">
        <ele>1576.22</ele>
        <time>2012-08-08T11:22:32Z</time>
      </trkpt>
      <trkpt lat="61.6020715702" lon="8.65546627901">
        <ele>1576.22</ele>
        <time>2012-08-08T11:22:59Z</time>
      </trkpt>
      <trkpt lat="61.6020792816" lon="8.65546921268">
        <ele>1577.18</ele>
        <time>2012-08-08T11:23:26Z</time>
      </trkpt>
      <trkpt lat="61.6020941176" lon="8.65542420186">
        <ele>1576.7</ele>
        <time>2012-08-08T11:23:47Z</time>
      </trkpt>
      <trkpt lat="61.602088837" lon="8.65545161068">
        <ele>1576.22</ele>
        <time>2012-08-08T11:24:12Z</time>
      </trkpt>
      <trkpt lat="61.6020895913" lon="8.65545722656">
        <ele>1576.7</ele>
        <time>2012-08-08T11:24:13Z</time>
      </trkpt>
      <trkpt lat="61.6020822152" lon="8.65545328707">
        <ele>1576.7</ele>
        <time>2012-08-08T11:24:20Z</time>
      </trkpt>
      <trkpt lat="61.6020938661" lon="8.65544431843">
        <ele>1576.7</ele>
        <time>2012-08-08T11:24:28Z</time>
      </trkpt>
      <trkpt lat="61.6020952072" lon="8.65547424182">
        <ele>1576.7</ele>
        <time>2012-08-08T11:24:54Z</time>
      </trkpt>
      <trkpt lat="61.6020911839" lon="8.65544658154">
        <ele>1576.7</ele>
        <time>2012-08-08T11:25:18Z</time>
      </trkpt>
      <trkpt lat="61.60208649" lon="8.65539394319">
        <ele>1576.7</ele>
        <time>2012-08-08T11:25:40Z</time>
      </trkpt>
      <trkpt lat="61.6020641942" lon="8.65538547747">
        <ele>1577.66</ele>
        <time>2012-08-08T11:25:51Z</time>
      </trkpt>
      <trkpt lat="61.6020938661" lon="8.65541288629">
        <ele>1578.14</ele>
        <time>2012-08-08T11:26:06Z</time>
      </trkpt>
      <trkpt lat="61.6020779405" lon="8.65544205531">
        <ele>1578.14</ele>
        <time>2012-08-08T11:26:22Z</time>
      </trkpt>
      <trkpt lat="61.602085568" lon="8.65549578331">
        <ele>1578.62</ele>
        <time>2012-08-08T11:26:38Z</time>
      </trkpt>
      <trkpt lat="61.6020714864" lon="8.65548790433">
        <ele>1578.62</ele>
        <time>2012-08-08T11:27:06Z</time>
      </trkpt>
      <trkpt lat="61.602093447" lon="8.65548253991">
        <ele>1578.62</ele>
        <time>2012-08-08T11:27:24Z</time>
      </trkpt>
      <trkpt lat="61.6020797007" lon="8.65544725209">
        <ele>1578.14</ele>
        <time>2012-08-08T11:27:46Z</time>
      </trkpt>
      <trkpt lat="61.6020627692" lon="8.6554935202">
        <ele>1578.62</ele>
        <time>2012-08-08T11:28:14Z</time>
      </trkpt>
      <trkpt lat="61.60201516" lon="8.65564347245">
        <ele>1580.06</ele>
        <time>2012-08-08T11:28:27Z</time>
      </trkpt>
      <trkpt lat="61.6020045988" lon="8.65575453267">
        <ele>1581.03</ele>
        <time>2012-08-08T11:28:38Z</time>
      </trkpt>
      <trkpt lat="61.6019653715" lon="8.65585075691">
        <ele>1581.51</ele>
        <time>2012-08-08T11:28:50Z</time>
      </trkpt>
      <trkpt lat="61.6018966399" lon="8.65595544688">
        <ele>1581.51</ele>
        <time>2012-08-08T11:29:04Z</time>
      </trkpt>
      <trkpt lat="61.6018281598" lon="8.65609207191">
        <ele>1581.99</ele>
        <time>2012-08-08T11:29:17Z</time>
      </trkpt>
      <trkpt lat="61.6017660499" lon="8.65625409409">
        <ele>1582.47</ele>
        <time>2012-08-08T11:29:33Z</time>
      </trkpt>
      <trkpt lat="61.6016828176" lon="8.65634386428">
        <ele>1583.43</ele>
        <time>2012-08-08T11:29:47Z</time>
      </trkpt>
      <trkpt lat="61.6016378067" lon="8.65647772327">
        <ele>1583.91</ele>
        <time>2012-08-08T11:30:00Z</time>
      </trkpt>
      <trkpt lat="61.6015820671" lon="8.65662809461">
        <ele>1585.35</ele>
        <time>2012-08-08T11:30:16Z</time>
      </trkpt>
      <trkpt lat="61.6015483718" lon="8.65676513873">
        <ele>1586.31</ele>
        <time>2012-08-08T11:30:28Z</time>
      </trkpt>
      <trkpt lat="61.6014974099" lon="8.65687058307">
        <ele>1586.79</ele>
        <time>2012-08-08T11:30:40Z</time>
      </trkpt>
      <trkpt lat="61.6014564224" lon="8.65696202964">
        <ele>1586.79</ele>
        <time>2012-08-08T11:30:48Z</time>
      </trkpt>
      <trkpt lat="61.6014182009" lon="8.65705540404">
        <ele>1587.75</ele>
        <time>2012-08-08T11:30:55Z</time>
      </trkpt>
      <trkpt lat="61.6014067177" lon="8.65708281286">
        <ele>1587.27</ele>
        <time>2012-08-08T11:30:57Z</time>
      </trkpt>
      <trkpt lat="61.6013277601" lon="8.65729009733">
        <ele>1588.72</ele>
        <time>2012-08-08T11:31:12Z</time>
      </trkpt>
      <trkpt lat="61.6012544185" lon="8.65745882504">
        <ele>1590.16</ele>
        <time>2012-08-08T11:31:27Z</time>
      </trkpt>
      <trkpt lat="61.6011753771" lon="8.6576008983">
        <ele>1591.12</ele>
        <time>2012-08-08T11:31:39Z</time>
      </trkpt>
      <trkpt lat="61.6011229064" lon="8.65773274563">
        <ele>1591.6</ele>
        <time>2012-08-08T11:31:52Z</time>
      </trkpt>
      <trkpt lat="61.6011151113" lon="8.65778747946">
        <ele>1593.04</ele>
        <time>2012-08-08T11:31:55Z</time>
      </trkpt>
      <trkpt lat="61.6010768898" lon="8.65791949444">
        <ele>1593.52</ele>
        <time>2012-08-08T11:32:09Z</time>
      </trkpt>
      <trkpt lat="61.6010723636" lon="8.6579087656">
        <ele>1593.52</ele>
        <time>2012-08-08T11:32:41Z</time>
      </trkpt>
      <trkpt lat="61.6010274366" lon="8.65801144391">
        <ele>1593.04</ele>
        <time>2012-08-08T11:32:56Z</time>
      </trkpt>
      <trkpt lat="61.6010052245" lon="8.65803088993">
        <ele>1593.52</ele>
        <time>2012-08-08T11:33:08Z</time>
      </trkpt>
      <trkpt lat="61.6009227466" lon="8.65810825489">
        <ele>1594</ele>
        <time>2012-08-08T11:33:21Z</time>
      </trkpt>
      <trkpt lat="61.6008660011" lon="8.65810247138">
        <ele>1593.52</ele>
        <time>2012-08-08T11:33:29Z</time>
      </trkpt>
      <trkpt lat="61.6008318868" lon="8.65808621049">
        <ele>1593.52</ele>
        <time>2012-08-08T11:33:33Z</time>
      </trkpt>
      <trkpt lat="61.6007735487" lon="8.65808067843">
        <ele>1594</ele>
        <time>2012-08-08T11:33:40Z</time>
      </trkpt>
      <trkpt lat="61.6006307211" lon="8.65808470175">
        <ele>1594.96</ele>
        <time>2012-08-08T11:33:55Z</time>
      </trkpt>
      <trkpt lat="61.6004917491" lon="8.65823096596">
        <ele>1595.45</ele>
        <time>2012-08-08T11:34:11Z</time>
      </trkpt>
      <trkpt lat="61.6003899928" lon="8.65829349495">
        <ele>1597.37</ele>
        <time>2012-08-08T11:34:25Z</time>
      </trkpt>
      <trkpt lat="61.600282453" lon="8.6583504919">
        <ele>1598.33</ele>
        <time>2012-08-08T11:34:38Z</time>
      </trkpt>
      <trkpt lat="61.6002091952" lon="8.6584346462">
        <ele>1598.33</ele>
        <time>2012-08-08T11:34:51Z</time>
      </trkpt>
      <trkpt lat="61.6001532879" lon="8.65842727013">
        <ele>1599.29</ele>
        <time>2012-08-08T11:35:04Z</time>
      </trkpt>
      <trkpt lat="61.6000882443" lon="8.65845920518">
        <ele>1600.73</ele>
        <time>2012-08-08T11:35:18Z</time>
      </trkpt>
      <trkpt lat="61.6000129748" lon="8.65860496648">
        <ele>1601.69</ele>
        <time>2012-08-08T11:35:32Z</time>
      </trkpt>
      <trkpt lat="61.599961007" lon="8.65875047632">
        <ele>1603.14</ele>
        <time>2012-08-08T11:35:45Z</time>
      </trkpt>
      <trkpt lat="61.5999253839" lon="8.65882499143">
        <ele>1603.62</ele>
        <time>2012-08-08T11:35:57Z</time>
      </trkpt>
      <trkpt lat="61.5998354461" lon="8.65887871943">
        <ele>1605.06</ele>
        <time>2012-08-08T11:36:11Z</time>
      </trkpt>
      <trkpt lat="61.599822538" lon="8.65885885432">
        <ele>1604.58</ele>
        <time>2012-08-08T11:36:14Z</time>
      </trkpt>
      <trkpt lat="61.5997164231" lon="8.65887788124">
        <ele>1605.54</ele>
        <time>2012-08-08T11:36:26Z</time>
      </trkpt>
      <trkpt lat="61.5996921994" lon="8.65890311077">
        <ele>1605.54</ele>
        <time>2012-08-08T11:36:29Z</time>
      </trkpt>
      <trkpt lat="61.5996384714" lon="8.6590498779">
        <ele>1607.46</ele>
        <time>2012-08-08T11:36:43Z</time>
      </trkpt>
      <trkpt lat="61.5995880123" lon="8.65913554095">
        <ele>1608.42</ele>
        <time>2012-08-08T11:36:56Z</time>
      </trkpt>
      <trkpt lat="61.5994973201" lon="8.65928708576">
        <ele>1609.86</ele>
        <time>2012-08-08T11:37:10Z</time>
      </trkpt>
      <trkpt lat="61.5994119085" lon="8.65936461836">
        <ele>1610.83</ele>
        <time>2012-08-08T11:37:23Z</time>
      </trkpt>
      <trkpt lat="61.5993549954" lon="8.65943737328">
        <ele>1611.79</ele>
        <time>2012-08-08T11:37:35Z</time>
      </trkpt>
      <trkpt lat="61.5993582644" lon="8.6594894249">
        <ele>1609.86</ele>
        <time>2012-08-08T11:37:52Z</time>
      </trkpt>
      <trkpt lat="61.5993466973" lon="8.65949361585">
        <ele>1609.86</ele>
        <time>2012-08-08T11:38:26Z</time>
      </trkpt>
      <trkpt lat="61.5993517265" lon="8.65949286148">
        <ele>1609.86</ele>
        <time>2012-08-08T11:38:41Z</time>
      </trkpt>
      <trkpt lat="61.5993486252" lon="8.65949219093">
        <ele>1610.35</ele>
        <time>2012-08-08T11:39:15Z</time>
      </trkpt>
      <trkpt lat="61.5993446857" lon="8.65952094086">
        <ele>1610.35</ele>
        <time>2012-08-08T11:39:53Z</time>
      </trkpt>
      <trkpt lat="61.5993315261" lon="8.65947676823">
        <ele>1610.83</ele>
        <time>2012-08-08T11:40:29Z</time>
      </trkpt>
      <trkpt lat="61.5993124153" lon="8.65946863778">
        <ele>1610.35</ele>
        <time>2012-08-08T11:40:33Z</time>
      </trkpt>
      <trkpt lat="61.5992530715" lon="8.65945665166">
        <ele>1611.79</ele>
        <time>2012-08-08T11:40:41Z</time>
      </trkpt>
      <trkpt lat="61.5991509799" lon="8.65958824754">
        <ele>1613.23</ele>
        <time>2012-08-08T11:40:55Z</time>
      </trkpt>
      <trkpt lat="61.5991044603" lon="8.65973300301">
        <ele>1614.19</ele>
        <time>2012-08-08T11:41:08Z</time>
      </trkpt>
      <trkpt lat="61.5990256704" lon="8.65985948592">
        <ele>1615.15</ele>
        <time>2012-08-08T11:41:24Z</time>
      </trkpt>
      <trkpt lat="61.5990126785" lon="8.65991262719">
        <ele>1617.56</ele>
        <time>2012-08-08T11:41:32Z</time>
      </trkpt>
      <trkpt lat="61.5990042128" lon="8.65992126055">
        <ele>1616.11</ele>
        <time>2012-08-08T11:41:37Z</time>
      </trkpt>
      <trkpt lat="61.5989002772" lon="8.66003315896">
        <ele>1617.56</ele>
        <time>2012-08-08T11:41:54Z</time>
      </trkpt>
      <trkpt lat="61.5988474712" lon="8.66013181396">
        <ele>1619.48</ele>
        <time>2012-08-08T11:42:01Z</time>
      </trkpt>
      <trkpt lat="61.59880355" lon="8.66022217087">
        <ele>1620.92</ele>
        <time>2012-08-08T11:42:14Z</time>
      </trkpt>
      <trkpt lat="61.5987825952" lon="8.66033750586">
        <ele>1620.92</ele>
        <time>2012-08-08T11:42:27Z</time>
      </trkpt>
      <trkpt lat="61.5987370815" lon="8.66045468487">
        <ele>1622.36</ele>
        <time>2012-08-08T11:42:42Z</time>
      </trkpt>
      <trkpt lat="61.5986879636" lon="8.66052911617">
        <ele>1624.28</ele>
        <time>2012-08-08T11:42:53Z</time>
      </trkpt>
      <trkpt lat="61.5986422822" lon="8.660611175">
        <ele>1626.69</ele>
        <time>2012-08-08T11:43:03Z</time>
      </trkpt>
      <trkpt lat="61.5986022167" lon="8.66069323383">
        <ele>1626.69</ele>
        <time>2012-08-08T11:43:18Z</time>
      </trkpt>
      <trkpt lat="61.5985646658" lon="8.66081887856">
        <ele>1627.65</ele>
        <time>2012-08-08T11:43:30Z</time>
      </trkpt>
      <trkpt lat="61.5985115245" lon="8.66091015749">
        <ele>1628.61</ele>
        <time>2012-08-08T11:43:43Z</time>
      </trkpt>
      <trkpt lat="61.5984392725" lon="8.66092725657">
        <ele>1631.01</ele>
        <time>2012-08-08T11:43:57Z</time>
      </trkpt>
      <trkpt lat="61.5983847901" lon="8.66095097736">
        <ele>1633.42</ele>
        <time>2012-08-08T11:44:11Z</time>
      </trkpt>
      <trkpt lat="61.5983694512" lon="8.66098643281">
        <ele>1632.94</ele>
        <time>2012-08-08T11:44:30Z</time>
      </trkpt>
      <trkpt lat="61.5983773302" lon="8.66103999317">
        <ele>1633.9</ele>
        <time>2012-08-08T11:44:44Z</time>
      </trkpt>
      <trkpt lat="61.5984021407" lon="8.66110755131">
        <ele>1633.42</ele>
        <time>2012-08-08T11:44:58Z</time>
      </trkpt>
      <trkpt lat="61.5983873885" lon="8.66111819632">
        <ele>1633.9</ele>
        <time>2012-08-08T11:45:13Z</time>
      </trkpt>
      <trkpt lat="61.5983516816" lon="8.66113680415">
        <ele>1635.34</ele>
        <time>2012-08-08T11:45:25Z</time>
      </trkpt>
      <trkpt lat="61.598350592" lon="8.66119329818">
        <ele>1635.82</ele>
        <time>2012-08-08T11:45:43Z</time>
      </trkpt>
      <trkpt lat="61.5983171482" lon="8.66119304672">
        <ele>1636.78</ele>
        <time>2012-08-08T11:45:51Z</time>
      </trkpt>
      <trkpt lat="61.5982813574" lon="8.66130125709">
        <ele>1638.7</ele>
        <time>2012-08-08T11:45:55Z</time>
      </trkpt>
      <trkpt lat="61.598244058" lon="8.66139815189">
        <ele>1641.11</ele>
        <time>2012-08-08T11:46:00Z</time>
      </trkpt>
      <trkpt lat="61.5982058365" lon="8.66150242276">
        <ele>1644.47</ele>
        <time>2012-08-08T11:46:12Z</time>
      </trkpt>
      <trkpt lat="61.5981590655" lon="8.66157626733">
        <ele>1645.91</ele>
        <time>2012-08-08T11:46:21Z</time>
      </trkpt>
      <trkpt lat="61.5981079359" lon="8.66168112494">
        <ele>1646.88</ele>
        <time>2012-08-08T11:46:34Z</time>
      </trkpt>
      <trkpt lat="61.5981016494" lon="8.66168791428">
        <ele>1647.36</ele>
        <time>2012-08-08T11:46:36Z</time>
      </trkpt>
      <trkpt lat="61.5980322473" lon="8.66188421845">
        <ele>1650.24</ele>
        <time>2012-08-08T11:46:50Z</time>
      </trkpt>
      <trkpt lat="61.5980131365" lon="8.66192285903">
        <ele>1650.72</ele>
        <time>2012-08-08T11:47:09Z</time>
      </trkpt>
      <trkpt lat="61.5980225243" lon="8.66191229783">
        <ele>1651.2</ele>
        <time>2012-08-08T11:47:40Z</time>
      </trkpt>
      <trkpt lat="61.5979602467" lon="8.66208504885">
        <ele>1653.12</ele>
        <time>2012-08-08T11:47:55Z</time>
      </trkpt>
      <trkpt lat="61.5979479253" lon="8.66218605079">
        <ele>1652.64</ele>
        <time>2012-08-08T11:48:10Z</time>
      </trkpt>
      <trkpt lat="61.5979330055" lon="8.66221555509">
        <ele>1652.64</ele>
        <time>2012-08-08T11:48:38Z</time>
      </trkpt>
      <trkpt lat="61.5979426447" lon="8.66220030002">
        <ele>1652.64</ele>
        <time>2012-08-08T11:49:09Z</time>
      </trkpt>
      <trkpt lat="61.5979415551" lon="8.66220138967">
        <ele>1652.64</ele>
        <time>2012-08-08T11:49:40Z</time>
      </trkpt>
      <trkpt lat="61.5979268868" lon="8.66223257035">
        <ele>1653.12</ele>
        <time>2012-08-08T11:50:05Z</time>
      </trkpt>
      <trkpt lat="61.5979325026" lon="8.6621949356">
        <ele>1653.6</ele>
        <time>2012-08-08T11:50:40Z</time>
      </trkpt>
      <trkpt lat="61.5979146492" lon="8.66225821897">
        <ele>1653.12</ele>
        <time>2012-08-08T11:51:13Z</time>
      </trkpt>
      <trkpt lat="61.5979159065" lon="8.66223122925">
        <ele>1653.12</ele>
        <time>2012-08-08T11:51:35Z</time>
      </trkpt>
      <trkpt lat="61.5979116317" lon="8.66222938523">
        <ele>1653.6</ele>
        <time>2012-08-08T11:51:56Z</time>
      </trkpt>
      <trkpt lat="61.5979216062" lon="8.66218806244">
        <ele>1653.6</ele>
        <time>2012-08-08T11:52:15Z</time>
      </trkpt>
      <trkpt lat="61.5979299881" lon="8.66217314266">
        <ele>1652.64</ele>
        <time>2012-08-08T11:52:24Z</time>
      </trkpt>
      <trkpt lat="61.59790501" lon="8.66223768331">
        <ele>1653.12</ele>
        <time>2012-08-08T11:52:36Z</time>
      </trkpt>
      <trkpt lat="61.597918421" lon="8.66231068969">
        <ele>1653.12</ele>
        <time>2012-08-08T11:52:47Z</time>
      </trkpt>
      <trkpt lat="61.5979074407" lon="8.66226852871">
        <ele>1652.16</ele>
        <time>2012-08-08T11:53:11Z</time>
      </trkpt>
      <trkpt lat="61.5978979692" lon="8.66234170273">
        <ele>1652.64</ele>
        <time>2012-08-08T11:53:18Z</time>
      </trkpt>
      <trkpt lat="61.5978362784" lon="8.66259969771">
        <ele>1652.16</ele>
        <time>2012-08-08T11:53:30Z</time>
      </trkpt>
      <trkpt lat="61.5977981407" lon="8.66268946789">
        <ele>1653.12</ele>
        <time>2012-08-08T11:53:37Z</time>
      </trkpt>
      <trkpt lat="61.5977303311" lon="8.66277018562">
        <ele>1654.09</ele>
        <time>2012-08-08T11:53:50Z</time>
      </trkpt>
      <trkpt lat="61.597723458" lon="8.66278300993">
        <ele>1654.57</ele>
        <time>2012-08-08T11:53:51Z</time>
      </trkpt>
      <trkpt lat="61.5976405609" lon="8.66290722974">
        <ele>1656.01</ele>
        <time>2012-08-08T11:54:04Z</time>
      </trkpt>
      <trkpt lat="61.5975806303" lon="8.66306003183">
        <ele>1656.97</ele>
        <time>2012-08-08T11:54:17Z</time>
      </trkpt>
      <trkpt lat="61.5975294169" lon="8.66315508261">
        <ele>1658.89</ele>
        <time>2012-08-08T11:54:29Z</time>
      </trkpt>
      <trkpt lat="61.5974672232" lon="8.66330998018">
        <ele>1660.81</ele>
        <time>2012-08-08T11:54:45Z</time>
      </trkpt>
      <trkpt lat="61.5974013414" lon="8.6634249799">
        <ele>1661.78</ele>
        <time>2012-08-08T11:54:57Z</time>
      </trkpt>
      <trkpt lat="61.5973223001" lon="8.66353059188">
        <ele>1662.26</ele>
        <time>2012-08-08T11:55:10Z</time>
      </trkpt>
      <trkpt lat="61.5972212143" lon="8.66366051137">
        <ele>1664.66</ele>
        <time>2012-08-08T11:55:25Z</time>
      </trkpt>
      <trkpt lat="61.5972142573" lon="8.66366973147">
        <ele>1664.66</ele>
        <time>2012-08-08T11:55:26Z</time>
      </trkpt>
      <trkpt lat="61.5971423406" lon="8.6638346035">
        <ele>1666.1</ele>
        <time>2012-08-08T11:55:40Z</time>
      </trkpt>
      <trkpt lat="61.5970729385" lon="8.66393242031">
        <ele>1668.02</ele>
        <time>2012-08-08T11:55:53Z</time>
      </trkpt>
      <trkpt lat="61.5970219765" lon="8.66403568536">
        <ele>1668.99</ele>
        <time>2012-08-08T11:56:04Z</time>
      </trkpt>
      <trkpt lat="61.5969371516" lon="8.66400701925">
        <ele>1670.91</ele>
        <time>2012-08-08T11:56:19Z</time>
      </trkpt>
      <trkpt lat="61.5969009418" lon="8.66403602064">
        <ele>1671.39</ele>
        <time>2012-08-08T11:56:27Z</time>
      </trkpt>
      <trkpt lat="61.596876299" lon="8.664063178">
        <ele>1672.83</ele>
        <time>2012-08-08T11:56:41Z</time>
      </trkpt>
      <trkpt lat="61.5968666598" lon="8.66402428597">
        <ele>1672.83</ele>
        <time>2012-08-08T11:56:55Z</time>
      </trkpt>
      <trkpt lat="61.5968642291" lon="8.664044654">
        <ele>1672.83</ele>
        <time>2012-08-08T11:57:18Z</time>
      </trkpt>
      <trkpt lat="61.5968384966" lon="8.6640649382">
        <ele>1672.83</ele>
        <time>2012-08-08T11:57:33Z</time>
      </trkpt>
      <trkpt lat="61.5967783146" lon="8.66411439143">
        <ele>1672.83</ele>
        <time>2012-08-08T11:57:42Z</time>
      </trkpt>
      <trkpt lat="61.5967207309" lon="8.66419712082">
        <ele>1673.31</ele>
        <time>2012-08-08T11:57:50Z</time>
      </trkpt>
      <trkpt lat="61.5966386721" lon="8.66426819935">
        <ele>1673.79</ele>
        <time>2012-08-08T11:58:02Z</time>
      </trkpt>
      <trkpt lat="61.5966328047" lon="8.66427490488">
        <ele>1674.27</ele>
        <time>2012-08-08T11:58:03Z</time>
      </trkpt>
      <trkpt lat="61.5965617262" lon="8.66435553879">
        <ele>1675.72</ele>
        <time>2012-08-08T11:58:16Z</time>
      </trkpt>
      <trkpt lat="61.5964924917" lon="8.66443105973">
        <ele>1677.64</ele>
        <time>2012-08-08T11:58:28Z</time>
      </trkpt>
      <trkpt lat="61.5964171384" lon="8.66450431757">
        <ele>1679.08</ele>
        <time>2012-08-08T11:58:42Z</time>
      </trkpt>
      <trkpt lat="61.5963018872" lon="8.66457908414">
        <ele>1680.04</ele>
        <time>2012-08-08T11:58:56Z</time>
      </trkpt>
      <trkpt lat="61.5962503385" lon="8.66471855901">
        <ele>1681</ele>
        <time>2012-08-08T11:59:09Z</time>
      </trkpt>
      <trkpt lat="61.5962439682" lon="8.66472358815">
        <ele>1681</ele>
        <time>2012-08-08T11:59:10Z</time>
      </trkpt>
      <trkpt lat="61.596127376" lon="8.66475535557">
        <ele>1681.48</ele>
        <time>2012-08-08T11:59:25Z</time>
      </trkpt>
      <trkpt lat="61.5960573871" lon="8.66482542828">
        <ele>1683.89</ele>
        <time>2012-08-08T11:59:38Z</time>
      </trkpt>
      <trkpt lat="61.596031487" lon="8.66484881379">
        <ele>1684.37</ele>
        <time>2012-08-08T11:59:42Z</time>
      </trkpt>
      <trkpt lat="61.5959723108" lon="8.66488980129">
        <ele>1686.29</ele>
        <time>2012-08-08T11:59:55Z</time>
      </trkpt>
      <trkpt lat="61.5959025733" lon="8.66502902471">
        <ele>1686.77</ele>
        <time>2012-08-08T12:00:07Z</time>
      </trkpt>
      <trkpt lat="61.595859658" lon="8.6651091557">
        <ele>1687.73</ele>
        <time>2012-08-08T12:00:15Z</time>
      </trkpt>
      <trkpt lat="61.5958245378" lon="8.665156262">
        <ele>1687.73</ele>
        <time>2012-08-08T12:00:21Z</time>
      </trkpt>
      <trkpt lat="61.5957164112" lon="8.66525189951">
        <ele>1689.17</ele>
        <time>2012-08-08T12:00:35Z</time>
      </trkpt>
      <trkpt lat="61.5956267249" lon="8.66531250067">
        <ele>1690.62</ele>
        <time>2012-08-08T12:00:48Z</time>
      </trkpt>
      <trkpt lat="61.5955239628" lon="8.66543370299">
        <ele>1692.06</ele>
        <time>2012-08-08T12:01:02Z</time>
      </trkpt>
      <trkpt lat="61.5954281576" lon="8.66553445347">
        <ele>1692.54</ele>
        <time>2012-08-08T12:01:14Z</time>
      </trkpt>
      <trkpt lat="61.5953894332" lon="8.66556362249">
        <ele>1693.5</ele>
        <time>2012-08-08T12:01:19Z</time>
      </trkpt>
      <trkpt lat="61.5952706616" lon="8.66560251452">
        <ele>1693.5</ele>
        <time>2012-08-08T12:01:33Z</time>
      </trkpt>
      <trkpt lat="61.5952551551" lon="8.66561634466">
        <ele>1694.46</ele>
        <time>2012-08-08T12:01:36Z</time>
      </trkpt>
      <trkpt lat="61.5951661393" lon="8.66567543708">
        <ele>1695.42</ele>
        <time>2012-08-08T12:01:48Z</time>
      </trkpt>
      <trkpt lat="61.5951442625" lon="8.66568423808">
        <ele>1695.9</ele>
        <time>2012-08-08T12:01:53Z</time>
      </trkpt>
      <trkpt lat="61.5951150097" lon="8.66567778401">
        <ele>1695.42</ele>
        <time>2012-08-08T12:01:56Z</time>
      </trkpt>
      <trkpt lat="61.5951127466" lon="8.66557518952">
        <ele>1697.34</ele>
        <time>2012-08-08T12:02:08Z</time>
      </trkpt>
      <trkpt lat="61.5950888582" lon="8.66557678208">
        <ele>1696.38</ele>
        <time>2012-08-08T12:02:26Z</time>
      </trkpt>
      <trkpt lat="61.595082907" lon="8.66553135216">
        <ele>1696.38</ele>
        <time>2012-08-08T12:02:35Z</time>
      </trkpt>
      <trkpt lat="61.595067149" lon="8.66554141045">
        <ele>1696.38</ele>
        <time>2012-08-08T12:02:37Z</time>
      </trkpt>
      <trkpt lat="61.5950418357" lon="8.66558566689">
        <ele>1696.86</ele>
        <time>2012-08-08T12:02:40Z</time>
      </trkpt>
      <trkpt lat="61.5949007683" lon="8.66557661444">
        <ele>1697.34</ele>
        <time>2012-08-08T12:02:54Z</time>
      </trkpt>
      <trkpt lat="61.594867073" lon="8.66561634466">
        <ele>1696.38</ele>
        <time>2012-08-08T12:03:04Z</time>
      </trkpt>
      <trkpt lat="61.5948781371" lon="8.66561072879">
        <ele>1696.38</ele>
        <time>2012-08-08T12:03:15Z</time>
      </trkpt>
      <trkpt lat="61.5948812384" lon="8.66561969742">
        <ele>1697.34</ele>
        <time>2012-08-08T12:03:17Z</time>
      </trkpt>
      <trkpt lat="61.5948903747" lon="8.66563243791">
        <ele>1695.42</ele>
        <time>2012-08-08T12:03:34Z</time>
      </trkpt>
      <trkpt lat="61.5948770475" lon="8.66565573961">
        <ele>1697.34</ele>
        <time>2012-08-08T12:03:40Z</time>
      </trkpt>
      <trkpt lat="61.5949023608" lon="8.66559983231">
        <ele>1696.38</ele>
        <time>2012-08-08T12:03:52Z</time>
      </trkpt>
      <trkpt lat="61.5949185379" lon="8.66557661444">
        <ele>1695.42</ele>
        <time>2012-08-08T12:04:04Z</time>
      </trkpt>
      <trkpt lat="61.5949349664" lon="8.66560217924">
        <ele>1695.9</ele>
        <time>2012-08-08T12:04:19Z</time>
      </trkpt>
      <trkpt lat="61.5949340444" lon="8.66563260555">
        <ele>1695.9</ele>
        <time>2012-08-08T12:04:50Z</time>
      </trkpt>
      <trkpt lat="61.5949215554" lon="8.66563847288">
        <ele>1696.38</ele>
        <time>2012-08-08T12:05:10Z</time>
      </trkpt>
      <trkpt lat="61.5949420072" lon="8.6656063702">
        <ele>1696.38</ele>
        <time>2012-08-08T12:05:30Z</time>
      </trkpt>
      <trkpt lat="61.5948908776" lon="8.66561911069">
        <ele>1696.38</ele>
        <time>2012-08-08T12:05:54Z</time>
      </trkpt>
      <trkpt lat="61.5948275104" lon="8.66566060111">
        <ele>1694.94</ele>
        <time>2012-08-08T12:06:04Z</time>
      </trkpt>
      <trkpt lat="61.5947488882" lon="8.66584391333">
        <ele>1693.98</ele>
        <time>2012-08-08T12:06:15Z</time>
      </trkpt>
      <trkpt lat="61.5946659073" lon="8.66601205431">
        <ele>1693.5</ele>
        <time>2012-08-08T12:06:26Z</time>
      </trkpt>
      <trkpt lat="61.5945965052" lon="8.66610827856">
        <ele>1691.58</ele>
        <time>2012-08-08T12:06:42Z</time>
      </trkpt>
      <trkpt lat="61.5945991036" lon="8.66612747312">
        <ele>1692.54</ele>
        <time>2012-08-08T12:07:01Z</time>
      </trkpt>
      <trkpt lat="61.5945974272" lon="8.6661357712">
        <ele>1693.02</ele>
        <time>2012-08-08T12:07:08Z</time>
      </trkpt>
      <trkpt lat="61.594630871" lon="8.66612722166">
        <ele>1692.06</ele>
        <time>2012-08-08T12:07:22Z</time>
      </trkpt>
      <trkpt lat="61.5946489759" lon="8.66650675423">
        <ele>1689.17</ele>
        <time>2012-08-08T12:07:37Z</time>
      </trkpt>
      <trkpt lat="61.5946585312" lon="8.66663239896">
        <ele>1688.69</ele>
        <time>2012-08-08T12:07:43Z</time>
      </trkpt>
      <trkpt lat="61.5946561005" lon="8.66668000817">
        <ele>1687.73</ele>
        <time>2012-08-08T12:07:45Z</time>
      </trkpt>
      <trkpt lat="61.5946740378" lon="8.6670535896">
        <ele>1684.85</ele>
        <time>2012-08-08T12:08:00Z</time>
      </trkpt>
      <trkpt lat="61.5946809947" lon="8.66734729148">
        <ele>1683.89</ele>
        <time>2012-08-08T12:08:12Z</time>
      </trkpt>
      <trkpt lat="61.5946894605" lon="8.66749850102">
        <ele>1682.93</ele>
        <time>2012-08-08T12:08:18Z</time>
      </trkpt>
      <trkpt lat="61.5946949925" lon="8.66771073081">
        <ele>1681</ele>
        <time>2012-08-08T12:08:28Z</time>
      </trkpt>
      <trkpt lat="61.5947001893" lon="8.66774518043">
        <ele>1681</ele>
        <time>2012-08-08T12:08:30Z</time>
      </trkpt>
      <trkpt lat="61.5946882032" lon="8.66795715876">
        <ele>1678.6</ele>
        <time>2012-08-08T12:08:39Z</time>
      </trkpt>
      <trkpt lat="61.594688287" lon="8.6679868307">
        <ele>1678.12</ele>
        <time>2012-08-08T12:08:40Z</time>
      </trkpt>
      <trkpt lat="61.5947118402" lon="8.66808598861">
        <ele>1678.6</ele>
        <time>2012-08-08T12:08:44Z</time>
      </trkpt>
      <trkpt lat="61.5947142709" lon="8.668168718">
        <ele>1677.16</ele>
        <time>2012-08-08T12:08:48Z</time>
      </trkpt>
      <trkpt lat="61.5947063081" lon="8.66818740964">
        <ele>1677.16</ele>
        <time>2012-08-08T12:09:02Z</time>
      </trkpt>
      <trkpt lat="61.5947197191" lon="8.66823225282">
        <ele>1678.12</ele>
        <time>2012-08-08T12:09:05Z</time>
      </trkpt>
      <trkpt lat="61.5947716031" lon="8.66849770769">
        <ele>1676.2</ele>
        <time>2012-08-08T12:09:20Z</time>
      </trkpt>
      <trkpt lat="61.5947991796" lon="8.66863466799">
        <ele>1675.72</ele>
        <time>2012-08-08T12:09:28Z</time>
      </trkpt>
      <trkpt lat="61.5948205534" lon="8.66887422279">
        <ele>1674.75</ele>
        <time>2012-08-08T12:09:42Z</time>
      </trkpt>
      <trkpt lat="61.5948208049" lon="8.66888243705">
        <ele>1674.75</ele>
        <time>2012-08-08T12:09:43Z</time>
      </trkpt>
      <trkpt lat="61.5948288515" lon="8.66896843538">
        <ele>1674.27</ele>
        <time>2012-08-08T12:09:47Z</time>
      </trkpt>
      <trkpt lat="61.5948311146" lon="8.66928200237">
        <ele>1672.83</ele>
        <time>2012-08-08T12:10:04Z</time>
      </trkpt>
      <trkpt lat="61.5948078968" lon="8.66926171817">
        <ele>1672.35</ele>
        <time>2012-08-08T12:10:23Z</time>
      </trkpt>
      <trkpt lat="61.5948141832" lon="8.66924897768">
        <ele>1672.83</ele>
        <time>2012-08-08T12:10:50Z</time>
      </trkpt>
      <trkpt lat="61.5948183741" lon="8.66927881725">
        <ele>1672.83</ele>
        <time>2012-08-08T12:11:24Z</time>
      </trkpt>
      <trkpt lat="61.5948312823" lon="8.6692380812">
        <ele>1673.31</ele>
        <time>2012-08-08T12:11:49Z</time>
      </trkpt>
      <trkpt lat="61.5948076453" lon="8.66930480115">
        <ele>1673.31</ele>
        <time>2012-08-08T12:12:17Z</time>
      </trkpt>
      <trkpt lat="61.5948020294" lon="8.66930270568">
        <ele>1672.35</ele>
        <time>2012-08-08T12:12:37Z</time>
      </trkpt>
      <trkpt lat="61.5948034544" lon="8.66931200959">
        <ele>1672.35</ele>
        <time>2012-08-08T12:13:08Z</time>
      </trkpt>
      <trkpt lat="61.5947898757" lon="8.66932106204">
        <ele>1671.39</ele>
        <time>2012-08-08T12:13:26Z</time>
      </trkpt>
      <trkpt lat="61.594779063" lon="8.66936900653">
        <ele>1671.39</ele>
        <time>2012-08-08T12:13:45Z</time>
      </trkpt>
      <trkpt lat="61.5947643109" lon="8.66936716251">
        <ele>1671.39</ele>
        <time>2012-08-08T12:14:08Z</time>
      </trkpt>
      <trkpt lat="61.5947551746" lon="8.66939448752">
        <ele>1670.91</ele>
        <time>2012-08-08T12:14:22Z</time>
      </trkpt>
      <trkpt lat="61.5947654005" lon="8.66938233376">
        <ele>1670.43</ele>
        <time>2012-08-08T12:14:53Z</time>
      </trkpt>
      <trkpt lat="61.594770262" lon="8.66938954219">
        <ele>1671.39</ele>
        <time>2012-08-08T12:15:27Z</time>
      </trkpt>
      <trkpt lat="61.5947493073" lon="8.66940798238">
        <ele>1669.95</ele>
        <time>2012-08-08T12:15:49Z</time>
      </trkpt>
      <trkpt lat="61.5947478823" lon="8.66940370761">
        <ele>1670.43</ele>
        <time>2012-08-08T12:16:14Z</time>
      </trkpt>
      <trkpt lat="61.5947241616" lon="8.66944050416">
        <ele>1670.91</ele>
        <time>2012-08-08T12:16:37Z</time>
      </trkpt>
      <trkpt lat="61.5947185457" lon="8.66938744672">
        <ele>1669.95</ele>
        <time>2012-08-08T12:16:41Z</time>
      </trkpt>
      <trkpt lat="61.5946953278" lon="8.66919902153">
        <ele>1668.51</ele>
        <time>2012-08-08T12:16:55Z</time>
      </trkpt>
      <trkpt lat="61.5946638118" lon="8.66907211952">
        <ele>1666.1</ele>
        <time>2012-08-08T12:17:07Z</time>
      </trkpt>
      <trkpt lat="61.5946556814" lon="8.66902476177">
        <ele>1666.58</ele>
        <time>2012-08-08T12:17:11Z</time>
      </trkpt>
      <trkpt lat="61.5946331341" lon="8.66896625608">
        <ele>1665.62</ele>
        <time>2012-08-08T12:17:22Z</time>
      </trkpt>
      <trkpt lat="61.5945944935" lon="8.66897019558">
        <ele>1663.7</ele>
        <time>2012-08-08T12:17:34Z</time>
      </trkpt>
      <trkpt lat="61.5945478901" lon="8.66906524636">
        <ele>1661.78</ele>
        <time>2012-08-08T12:17:45Z</time>
      </trkpt>
      <trkpt lat="61.5945000295" lon="8.6689509172">
        <ele>1660.33</ele>
        <time>2012-08-08T12:17:55Z</time>
      </trkpt>
      <trkpt lat="61.5944727883" lon="8.6690706946">
        <ele>1659.37</ele>
        <time>2012-08-08T12:18:07Z</time>
      </trkpt>
      <trkpt lat="61.5944499057" lon="8.66915845312">
        <ele>1657.93</ele>
        <time>2012-08-08T12:18:20Z</time>
      </trkpt>
      <trkpt lat="61.5944286995" lon="8.66914110258">
        <ele>1657.45</ele>
        <time>2012-08-08T12:18:34Z</time>
      </trkpt>
      <trkpt lat="61.5944249276" lon="8.66914931685">
        <ele>1656.97</ele>
        <time>2012-08-08T12:18:45Z</time>
      </trkpt>
      <trkpt lat="61.5944017936" lon="8.66918393411">
        <ele>1657.45</ele>
        <time>2012-08-08T12:19:00Z</time>
      </trkpt>
      <trkpt lat="61.5943866223" lon="8.66925266571">
        <ele>1656.49</ele>
        <time>2012-08-08T12:19:12Z</time>
      </trkpt>
      <trkpt lat="61.5943438746" lon="8.66939255968">
        <ele>1656.01</ele>
        <time>2012-08-08T12:19:23Z</time>
      </trkpt>
      <trkpt lat="61.5942983609" lon="8.66932458244">
        <ele>1654.57</ele>
        <time>2012-08-08T12:19:35Z</time>
      </trkpt>
      <trkpt lat="61.5942671802" lon="8.66938048974">
        <ele>1653.6</ele>
        <time>2012-08-08T12:19:45Z</time>
      </trkpt>
      <trkpt lat="61.5942121949" lon="8.66930823773">
        <ele>1651.68</ele>
        <time>2012-08-08T12:19:56Z</time>
      </trkpt>
      <trkpt lat="61.5941522643" lon="8.66936213337">
        <ele>1651.2</ele>
        <time>2012-08-08T12:20:04Z</time>
      </trkpt>
      <trkpt lat="61.5940721333" lon="8.6693213135">
        <ele>1648.8</ele>
        <time>2012-08-08T12:20:16Z</time>
      </trkpt>
      <trkpt lat="61.5940217581" lon="8.66928225383">
        <ele>1648.32</ele>
        <time>2012-08-08T12:20:23Z</time>
      </trkpt>
      <trkpt lat="61.5939705446" lon="8.66922542453">
        <ele>1646.4</ele>
        <time>2012-08-08T12:20:35Z</time>
      </trkpt>
      <trkpt lat="61.5939440578" lon="8.66928485222">
        <ele>1644.95</ele>
        <time>2012-08-08T12:20:40Z</time>
      </trkpt>
      <trkpt lat="61.5938975383" lon="8.66936716251">
        <ele>1645.91</ele>
        <time>2012-08-08T12:20:53Z</time>
      </trkpt>
      <trkpt lat="61.5938779246" lon="8.66935450584">
        <ele>1644.47</ele>
        <time>2012-08-08T12:20:58Z</time>
      </trkpt>
      <trkpt lat="61.5937908366" lon="8.66933816113">
        <ele>1642.55</ele>
        <time>2012-08-08T12:21:08Z</time>
      </trkpt>
      <trkpt lat="61.5936634317" lon="8.66947495379">
        <ele>1640.63</ele>
        <time>2012-08-08T12:21:21Z</time>
      </trkpt>
      <trkpt lat="61.5935514495" lon="8.66952675395">
        <ele>1639.19</ele>
        <time>2012-08-08T12:21:32Z</time>
      </trkpt>
      <trkpt lat="61.5934411436" lon="8.66942910478">
        <ele>1637.26</ele>
        <time>2012-08-08T12:21:45Z</time>
      </trkpt>
      <trkpt lat="61.5934319235" lon="8.66942357272">
        <ele>1636.78</ele>
        <time>2012-08-08T12:21:54Z</time>
      </trkpt>
      <trkpt lat="61.5934130643" lon="8.66931737401">
        <ele>1636.3</ele>
        <time>2012-08-08T12:21:59Z</time>
      </trkpt>
      <trkpt lat="61.593387248" lon="8.66937185638">
        <ele>1635.82</ele>
        <time>2012-08-08T12:22:11Z</time>
      </trkpt>
      <trkpt lat="61.5933837276" lon="8.66936749779">
        <ele>1636.3</ele>
        <time>2012-08-08T12:22:30Z</time>
      </trkpt>
      <trkpt lat="61.5934126452" lon="8.6693944037">
        <ele>1636.3</ele>
        <time>2012-08-08T12:22:46Z</time>
      </trkpt>
      <trkpt lat="61.5934050176" lon="8.66942382418">
        <ele>1636.78</ele>
        <time>2012-08-08T12:23:08Z</time>
      </trkpt>
      <trkpt lat="61.5934065264" lon="8.66943254136">
        <ele>1636.78</ele>
        <time>2012-08-08T12:23:24Z</time>
      </trkpt>
      <trkpt lat="61.5934139024" lon="8.66943648085">
        <ele>1636.78</ele>
        <time>2012-08-08T12:23:43Z</time>
      </trkpt>
      <trkpt lat="61.5933838952" lon="8.66947453469">
        <ele>1637.26</ele>
        <time>2012-08-08T12:23:58Z</time>
      </trkpt>
      <trkpt lat="61.593396049" lon="8.66936280392">
        <ele>1635.82</ele>
        <time>2012-08-08T12:24:12Z</time>
      </trkpt>
      <trkpt lat="61.5934000723" lon="8.66937889718">
        <ele>1636.3</ele>
        <time>2012-08-08T12:24:14Z</time>
      </trkpt>
      <trkpt lat="61.5933644492" lon="8.66954452358">
        <ele>1635.82</ele>
        <time>2012-08-08T12:24:20Z</time>
      </trkpt>
      <trkpt lat="61.5933365375" lon="8.66959012114">
        <ele>1635.82</ele>
        <time>2012-08-08T12:24:22Z</time>
      </trkpt>
      <trkpt lat="61.5932797082" lon="8.66966153495">
        <ele>1635.82</ele>
        <time>2012-08-08T12:24:26Z</time>
      </trkpt>
      <trkpt lat="61.5932338592" lon="8.66981442086">
        <ele>1635.82</ele>
        <time>2012-08-08T12:24:39Z</time>
      </trkpt>
      <trkpt lat="61.5932395589" lon="8.66987510584">
        <ele>1635.34</ele>
        <time>2012-08-08T12:25:07Z</time>
      </trkpt>
      <trkpt lat="61.5932509582" lon="8.66978248581">
        <ele>1636.3</ele>
        <time>2012-08-08T12:25:17Z</time>
      </trkpt>
      <trkpt lat="61.5932933707" lon="8.66963739507">
        <ele>1635.34</ele>
        <time>2012-08-08T12:25:24Z</time>
      </trkpt>
      <trkpt lat="61.5933672152" lon="8.66945106536">
        <ele>1635.82</ele>
        <time>2012-08-08T12:25:35Z</time>
      </trkpt>
      <trkpt lat="61.5934041794" lon="8.66932290606">
        <ele>1636.78</ele>
        <time>2012-08-08T12:25:46Z</time>
      </trkpt>
      <trkpt lat="61.5934302472" lon="8.66936456412">
        <ele>1636.78</ele>
        <time>2012-08-08T12:26:01Z</time>
      </trkpt>
      <trkpt lat="61.59343821" lon="8.66934000514">
        <ele>1636.78</ele>
        <time>2012-08-08T12:26:23Z</time>
      </trkpt>
      <trkpt lat="61.5934231225" lon="8.66934788413">
        <ele>1636.78</ele>
        <time>2012-08-08T12:26:41Z</time>
      </trkpt>
      <trkpt lat="61.5934410598" lon="8.66940194741">
        <ele>1636.3</ele>
        <time>2012-08-08T12:27:08Z</time>
      </trkpt>
      <trkpt lat="61.5934144892" lon="8.66944016889">
        <ele>1632.94</ele>
        <time>2012-08-08T12:27:30Z</time>
      </trkpt>
      <trkpt lat="61.5934123937" lon="8.66944368929">
        <ele>1641.11</ele>
        <time>2012-08-08T12:27:31Z</time>
      </trkpt>
      <trkpt lat="61.5934080351" lon="8.66945601068">
        <ele>1636.78</ele>
        <time>2012-08-08T12:27:32Z</time>
      </trkpt>
      <trkpt lat="61.5933828056" lon="8.66929155774">
        <ele>1636.78</ele>
        <time>2012-08-08T12:27:44Z</time>
      </trkpt>
      <trkpt lat="61.5933892597" lon="8.66930572316">
        <ele>1637.26</ele>
        <time>2012-08-08T12:28:00Z</time>
      </trkpt>
      <trkpt lat="61.5933708195" lon="8.66942893714">
        <ele>1637.26</ele>
        <time>2012-08-08T12:28:15Z</time>
      </trkpt>
      <trkpt lat="61.593429409" lon="8.66939205676">
        <ele>1638.22</ele>
        <time>2012-08-08T12:28:30Z</time>
      </trkpt>
      <trkpt lat="61.5934325103" lon="8.66944846697">
        <ele>1641.59</ele>
        <time>2012-08-08T12:28:49Z</time>
      </trkpt>
      <trkpt lat="61.5934413113" lon="8.66943530738">
        <ele>1638.22</ele>
        <time>2012-08-08T12:28:59Z</time>
      </trkpt>
      <trkpt lat="61.5934623498" lon="8.66943589412">
        <ele>1637.74</ele>
        <time>2012-08-08T12:29:26Z</time>
      </trkpt>
      <trkpt lat="61.5934601706" lon="8.6694477126">
        <ele>1641.59</ele>
        <time>2012-08-08T12:29:37Z</time>
      </trkpt>
      <trkpt lat="61.5934581589" lon="8.66944779642">
        <ele>1634.86</ele>
        <time>2012-08-08T12:29:38Z</time>
      </trkpt>
      <trkpt lat="61.5934662893" lon="8.66945056245">
        <ele>1641.59</ele>
        <time>2012-08-08T12:29:40Z</time>
      </trkpt>
      <trkpt lat="61.5934410598" lon="8.66948241368">
        <ele>1638.22</ele>
        <time>2012-08-08T12:29:42Z</time>
      </trkpt>
      <trkpt lat="61.5934081189" lon="8.66937671788">
        <ele>1637.26</ele>
        <time>2012-08-08T12:29:51Z</time>
      </trkpt>
      <trkpt lat="61.5934135672" lon="8.66930580698">
        <ele>1636.78</ele>
        <time>2012-08-08T12:29:54Z</time>
      </trkpt>
      <trkpt lat="61.5933781955" lon="8.66939272732">
        <ele>1640.63</ele>
        <time>2012-08-08T12:30:06Z</time>
      </trkpt>
      <trkpt lat="61.5933772735" lon="8.6693922244">
        <ele>1637.26</ele>
        <time>2012-08-08T12:30:07Z</time>
      </trkpt>
      <trkpt lat="61.5933870804" lon="8.6693803221">
        <ele>1634.38</ele>
        <time>2012-08-08T12:30:16Z</time>
      </trkpt>
      <trkpt lat="61.5933857393" lon="8.66936045699">
        <ele>1640.15</ele>
        <time>2012-08-08T12:30:17Z</time>
      </trkpt>
      <trkpt lat="61.5933822189" lon="8.669343777">
        <ele>1635.82</ele>
        <time>2012-08-08T12:30:18Z</time>
      </trkpt>
      <trkpt lat="61.5933991503" lon="8.66935559548">
        <ele>1639.19</ele>
        <time>2012-08-08T12:30:22Z</time>
      </trkpt>
      <trkpt lat="61.5933955461" lon="8.66935282946">
        <ele>1637.26</ele>
        <time>2012-08-08T12:30:25Z</time>
      </trkpt>
      <trkpt lat="61.5933799557" lon="8.66938979365">
        <ele>1637.26</ele>
        <time>2012-08-08T12:30:29Z</time>
      </trkpt>
      <trkpt lat="61.5933956299" lon="8.66939658299">
        <ele>1636.78</ele>
        <time>2012-08-08T12:30:57Z</time>
      </trkpt>
      <trkpt lat="61.5933905169" lon="8.66939976811">
        <ele>1635.82</ele>
        <time>2012-08-08T12:31:20Z</time>
      </trkpt>
      <trkpt lat="61.5933740884" lon="8.66939825937">
        <ele>1636.3</ele>
        <time>2012-08-08T12:31:52Z</time>
      </trkpt>
      <trkpt lat="61.5933820512" lon="8.66942021996">
        <ele>1636.3</ele>
        <time>2012-08-08T12:32:17Z</time>
      </trkpt>
      <trkpt lat="61.5934063587" lon="8.66943111643">
        <ele>1636.3</ele>
        <time>2012-08-08T12:32:47Z</time>
      </trkpt>
      <trkpt lat="61.5933941212" lon="8.66941804066">
        <ele>1636.78</ele>
        <time>2012-08-08T12:33:17Z</time>
      </trkpt>
      <trkpt lat="61.5933889244" lon="8.66940161213">
        <ele>1637.26</ele>
        <time>2012-08-08T12:33:49Z</time>
      </trkpt>
      <trkpt lat="61.5933983959" lon="8.66938124411">
        <ele>1636.78</ele>
        <time>2012-08-08T12:34:15Z</time>
      </trkpt>
      <trkpt lat="61.5933862422" lon="8.66940513253">
        <ele>1637.26</ele>
        <time>2012-08-08T12:34:46Z</time>
      </trkpt>
      <trkpt lat="61.5934036765" lon="8.66941267624">
        <ele>1637.74</ele>
        <time>2012-08-08T12:35:19Z</time>
      </trkpt>
      <trkpt lat="61.5933920257" lon="8.66941200569">
        <ele>1637.26</ele>
        <time>2012-08-08T12:35:44Z</time>
      </trkpt>
      <trkpt lat="61.593394205" lon="8.66940613836">
        <ele>1636.78</ele>
        <time>2012-08-08T12:36:08Z</time>
      </trkpt>
      <trkpt lat="61.5934080351" lon="8.66942013614">
        <ele>1637.26</ele>
        <time>2012-08-08T12:36:37Z</time>
      </trkpt>
      <trkpt lat="61.5933823865" lon="8.66940856911">
        <ele>1636.78</ele>
        <time>2012-08-08T12:37:10Z</time>
      </trkpt>
      <trkpt lat="61.5933927801" lon="8.66940043867">
        <ele>1636.78</ele>
        <time>2012-08-08T12:37:36Z</time>
      </trkpt>
      <trkpt lat="61.5933843981" lon="8.66941208951">
        <ele>1635.82</ele>
        <time>2012-08-08T12:38:15Z</time>
      </trkpt>
      <trkpt lat="61.5934109688" lon="8.66936054081">
        <ele>1636.3</ele>
        <time>2012-08-08T12:38:39Z</time>
      </trkpt>
      <trkpt lat="61.5933899302" lon="8.66935878061">
        <ele>1636.78</ele>
        <time>2012-08-08T12:39:01Z</time>
      </trkpt>
      <trkpt lat="61.5933920257" lon="8.66937973537">
        <ele>1636.3</ele>
        <time>2012-08-08T12:39:23Z</time>
      </trkpt>
      <trkpt lat="61.5933771059" lon="8.66939549334">
        <ele>1636.78</ele>
        <time>2012-08-08T12:39:58Z</time>
      </trkpt>
      <trkpt lat="61.5933848172" lon="8.66938828491">
        <ele>1637.74</ele>
        <time>2012-08-08T12:40:29Z</time>
      </trkpt>
      <trkpt lat="61.5933762677" lon="8.66937613115">
        <ele>1637.26</ele>
        <time>2012-08-08T12:40:55Z</time>
      </trkpt>
      <trkpt lat="61.5933885891" lon="8.66935995407">
        <ele>1636.78</ele>
        <time>2012-08-08T12:41:22Z</time>
      </trkpt>
      <trkpt lat="61.593381213" lon="8.66938090883">
        <ele>1637.74</ele>
        <time>2012-08-08T12:41:39Z</time>
      </trkpt>
      <trkpt lat="61.5933954623" lon="8.66936330684">
        <ele>1635.34</ele>
        <time>2012-08-08T12:41:48Z</time>
      </trkpt>
      <trkpt lat="61.5933935344" lon="8.6693750415">
        <ele>1638.22</ele>
        <time>2012-08-08T12:41:49Z</time>
      </trkpt>
      <trkpt lat="61.5934063587" lon="8.66936464794">
        <ele>1637.26</ele>
        <time>2012-08-08T12:42:10Z</time>
      </trkpt>
      <trkpt lat="61.593414573" lon="8.66933698766">
        <ele>1637.26</ele>
        <time>2012-08-08T12:42:32Z</time>
      </trkpt>
      <trkpt lat="61.5934345219" lon="8.6693283543">
        <ele>1636.3</ele>
        <time>2012-08-08T12:42:34Z</time>
      </trkpt>
      <trkpt lat="61.5934181772" lon="8.66937386803">
        <ele>1639.19</ele>
        <time>2012-08-08T12:42:36Z</time>
      </trkpt>
      <trkpt lat="61.5934138186" lon="8.66935819387">
        <ele>1636.78</ele>
        <time>2012-08-08T12:42:42Z</time>
      </trkpt>
      <trkpt lat="61.5934354439" lon="8.66938702762">
        <ele>1635.82</ele>
        <time>2012-08-08T12:42:51Z</time>
      </trkpt>
      <trkpt lat="61.593427984" lon="8.66936020553">
        <ele>1639.67</ele>
        <time>2012-08-08T12:42:54Z</time>
      </trkpt>
      <trkpt lat="61.593427062" lon="8.66935282946">
        <ele>1636.78</ele>
        <time>2012-08-08T12:42:55Z</time>
      </trkpt>
      <trkpt lat="61.5933743399" lon="8.6693851836">
        <ele>1640.15</ele>
        <time>2012-08-08T12:43:11Z</time>
      </trkpt>
      <trkpt lat="61.5933731664" lon="8.66937596351">
        <ele>1635.82</ele>
        <time>2012-08-08T12:43:13Z</time>
      </trkpt>
      <trkpt lat="61.5933906846" lon="8.66937872954">
        <ele>1639.67</ele>
        <time>2012-08-08T12:43:17Z</time>
      </trkpt>
      <trkpt lat="61.5933994018" lon="8.66940177977">
        <ele>1638.7</ele>
        <time>2012-08-08T12:43:18Z</time>
      </trkpt>
      <trkpt lat="61.5933823865" lon="8.66950185969">
        <ele>1637.74</ele>
        <time>2012-08-08T12:43:22Z</time>
      </trkpt>
      <trkpt lat="61.5933790337" lon="8.66958785802">
        <ele>1633.42</ele>
        <time>2012-08-08T12:43:31Z</time>
      </trkpt>
      <trkpt lat="61.5933794528" lon="8.66957805119">
        <ele>1634.86</ele>
        <time>2012-08-08T12:43:32Z</time>
      </trkpt>
      <trkpt lat="61.5933752619" lon="8.66956673563">
        <ele>1635.82</ele>
        <time>2012-08-08T12:43:34Z</time>
      </trkpt>
      <trkpt lat="61.5933612641" lon="8.66956304759">
        <ele>1639.19</ele>
        <time>2012-08-08T12:43:47Z</time>
      </trkpt>
      <trkpt lat="61.5933585819" lon="8.66956673563">
        <ele>1636.3</ele>
        <time>2012-08-08T12:43:48Z</time>
      </trkpt>
      <trkpt lat="61.5933750104" lon="8.669460034">
        <ele>1639.19</ele>
        <time>2012-08-08T12:43:55Z</time>
      </trkpt>
      <trkpt lat="61.5933737531" lon="8.66939817555">
        <ele>1637.74</ele>
        <time>2012-08-08T12:44:02Z</time>
      </trkpt>
      <trkpt lat="61.593370568" lon="8.66938141175">
        <ele>1636.3</ele>
        <time>2012-08-08T12:44:25Z</time>
      </trkpt>
      <trkpt lat="61.5933870804" lon="8.6693737004">
        <ele>1636.78</ele>
        <time>2012-08-08T12:44:54Z</time>
      </trkpt>
      <trkpt lat="61.5933802072" lon="8.66937822662">
        <ele>1636.3</ele>
        <time>2012-08-08T12:45:18Z</time>
      </trkpt>
      <trkpt lat="61.5933797043" lon="8.66935593076">
        <ele>1636.3</ele>
        <time>2012-08-08T12:45:45Z</time>
      </trkpt>
      <trkpt lat="61.5933656227" lon="8.66934587248">
        <ele>1637.26</ele>
        <time>2012-08-08T12:46:06Z</time>
      </trkpt>
      <trkpt lat="61.5933831409" lon="8.66937294602">
        <ele>1637.26</ele>
        <time>2012-08-08T12:46:31Z</time>
      </trkpt>
      <trkpt lat="61.5933928639" lon="8.66940169595">
        <ele>1638.22</ele>
        <time>2012-08-08T12:46:40Z</time>
      </trkpt>
      <trkpt lat="61.5933743399" lon="8.66938359104">
        <ele>1636.3</ele>
        <time>2012-08-08T12:46:44Z</time>
      </trkpt>
      <trkpt lat="61.5933633596" lon="8.66937093437">
        <ele>1637.26</ele>
        <time>2012-08-08T12:47:02Z</time>
      </trkpt>
      <trkpt lat="61.5933584981" lon="8.6693763826">
        <ele>1638.7</ele>
        <time>2012-08-08T12:47:09Z</time>
      </trkpt>
      <trkpt lat="61.5934030898" lon="8.66939943284">
        <ele>1639.19</ele>
        <time>2012-08-08T12:47:23Z</time>
      </trkpt>
      <trkpt lat="61.5933941212" lon="8.66937520914">
        <ele>1635.34</ele>
        <time>2012-08-08T12:47:32Z</time>
      </trkpt>
      <trkpt lat="61.5933811292" lon="8.66938903928">
        <ele>1636.78</ele>
        <time>2012-08-08T12:48:00Z</time>
      </trkpt>
      <trkpt lat="61.5933604259" lon="8.66936758161">
        <ele>1636.78</ele>
        <time>2012-08-08T12:48:27Z</time>
      </trkpt>
      <trkpt lat="61.5933892597" lon="8.66939130239">
        <ele>1636.78</ele>
        <time>2012-08-08T12:49:01Z</time>
      </trkpt>
      <trkpt lat="61.5933802072" lon="8.66938451305">
        <ele>1635.82</ele>
        <time>2012-08-08T12:49:25Z</time>
      </trkpt>
      <trkpt lat="61.5933704842" lon="8.66939540952">
        <ele>1636.78</ele>
        <time>2012-08-08T12:49:53Z</time>
      </trkpt>
      <trkpt lat="61.5933934506" lon="8.66938476451">
        <ele>1636.3</ele>
        <time>2012-08-08T12:50:21Z</time>
      </trkpt>
      <trkpt lat="61.5933790337" lon="8.66938895546">
        <ele>1636.78</ele>
        <time>2012-08-08T12:50:28Z</time>
      </trkpt>
      <trkpt lat="61.5933753457" lon="8.66937772371">
        <ele>1636.78</ele>
        <time>2012-08-08T12:51:01Z</time>
      </trkpt>
      <trkpt lat="61.5933888406" lon="8.66938845254">
        <ele>1636.3</ele>
        <time>2012-08-08T12:51:30Z</time>
      </trkpt>
      <trkpt lat="61.5933873318" lon="8.66939255968">
        <ele>1635.82</ele>
        <time>2012-08-08T12:51:31Z</time>
      </trkpt>
      <trkpt lat="61.5933662094" lon="8.66940077394">
        <ele>1636.78</ele>
        <time>2012-08-08T12:51:59Z</time>
      </trkpt>
      <trkpt lat="61.5933722444" lon="8.6693666596">
        <ele>1635.82</ele>
        <time>2012-08-08T12:52:14Z</time>
      </trkpt>
      <trkpt lat="61.5933904331" lon="8.66941745393">
        <ele>1636.3</ele>
        <time>2012-08-08T12:52:32Z</time>
      </trkpt>
      <trkpt lat="61.593390014" lon="8.66946757771">
        <ele>1636.3</ele>
        <time>2012-08-08T12:53:04Z</time>
      </trkpt>
      <trkpt lat="61.5934087057" lon="8.66942441091">
        <ele>1636.78</ele>
        <time>2012-08-08T12:53:34Z</time>
      </trkpt>
      <trkpt lat="61.5934235416" lon="8.66935651749">
        <ele>1635.82</ele>
        <time>2012-08-08T12:54:06Z</time>
      </trkpt>
      <trkpt lat="61.5934273973" lon="8.66939960048">
        <ele>1635.82</ele>
        <time>2012-08-08T12:54:37Z</time>
      </trkpt>
      <trkpt lat="61.5933984797" lon="8.6693891231">
        <ele>1635.82</ele>
        <time>2012-08-08T12:55:15Z</time>
      </trkpt>
      <trkpt lat="61.593389092" lon="8.66939608008">
        <ele>1636.78</ele>
        <time>2012-08-08T12:55:29Z</time>
      </trkpt>
      <trkpt lat="61.593413651" lon="8.66940957494">
        <ele>1641.11</ele>
        <time>2012-08-08T12:55:41Z</time>
      </trkpt>
      <trkpt lat="61.593416417" lon="8.66941175424">
        <ele>1636.78</ele>
        <time>2012-08-08T12:55:42Z</time>
      </trkpt>
      <trkpt lat="61.5933906008" lon="8.66942809895">
        <ele>1629.09</ele>
        <time>2012-08-08T12:55:49Z</time>
      </trkpt>
      <trkpt lat="61.5933916904" lon="8.66942533292">
        <ele>1634.38</ele>
        <time>2012-08-08T12:55:50Z</time>
      </trkpt>
      <trkpt lat="61.5933927801" lon="8.6694164481">
        <ele>1635.82</ele>
        <time>2012-08-08T12:55:52Z</time>
      </trkpt>
      <trkpt lat="61.5933797043" lon="8.6694234889">
        <ele>1644.47</ele>
        <time>2012-08-08T12:56:03Z</time>
      </trkpt>
      <trkpt lat="61.5933739208" lon="8.66942617111">
        <ele>1636.3</ele>
        <time>2012-08-08T12:56:04Z</time>
      </trkpt>
      <trkpt lat="61.5934027545" lon="8.66941217333">
        <ele>1637.26</ele>
        <time>2012-08-08T12:56:15Z</time>
      </trkpt>
      <trkpt lat="61.5934044309" lon="8.66938862018">
        <ele>1633.9</ele>
        <time>2012-08-08T12:56:20Z</time>
      </trkpt>
      <trkpt lat="61.5934065264" lon="8.66940421052">
        <ele>1638.22</ele>
        <time>2012-08-08T12:56:26Z</time>
      </trkpt>
      <trkpt lat="61.5933773573" lon="8.66941502318">
        <ele>1632.46</ele>
        <time>2012-08-08T12:56:38Z</time>
      </trkpt>
      <trkpt lat="61.5933797881" lon="8.66942298599">
        <ele>1636.3</ele>
        <time>2012-08-08T12:56:41Z</time>
      </trkpt>
      <trkpt lat="61.5933841467" lon="8.66941628046">
        <ele>1639.19</ele>
        <time>2012-08-08T12:56:44Z</time>
      </trkpt>
      <trkpt lat="61.59340946" lon="8.66939784028">
        <ele>1635.82</ele>
        <time>2012-08-08T12:56:57Z</time>
      </trkpt>
      <trkpt lat="61.5933865774" lon="8.66938593797">
        <ele>1636.78</ele>
        <time>2012-08-08T12:57:26Z</time>
      </trkpt>
      <trkpt lat="61.5933611803" lon="8.66939892992">
        <ele>1635.82</ele>
        <time>2012-08-08T12:57:52Z</time>
      </trkpt>
      <trkpt lat="61.593353888" lon="8.66942114197">
        <ele>1635.34</ele>
        <time>2012-08-08T12:58:20Z</time>
      </trkpt>
      <trkpt lat="61.5933653712" lon="8.6693996843">
        <ele>1635.82</ele>
        <time>2012-08-08T12:58:52Z</time>
      </trkpt>
      <trkpt lat="61.5933614317" lon="8.66940027103">
        <ele>1635.82</ele>
        <time>2012-08-08T12:59:12Z</time>
      </trkpt>
      <trkpt lat="61.5933505353" lon="8.66941493936">
        <ele>1636.3</ele>
        <time>2012-08-08T12:59:45Z</time>
      </trkpt>
      <trkpt lat="61.5933615156" lon="8.66939205676">
        <ele>1636.3</ele>
        <time>2012-08-08T13:00:17Z</time>
      </trkpt>
      <trkpt lat="61.5933684725" lon="8.66940546781">
        <ele>1636.78</ele>
        <time>2012-08-08T13:00:35Z</time>
      </trkpt>
      <trkpt lat="61.5933415666" lon="8.6693781428">
        <ele>1636.78</ele>
        <time>2012-08-08T13:00:59Z</time>
      </trkpt>
      <trkpt lat="61.5933614317" lon="8.6694186274">
        <ele>1636.78</ele>
        <time>2012-08-08T13:01:27Z</time>
      </trkpt>
      <trkpt lat="61.5933475178" lon="8.66943312809">
        <ele>1636.3</ele>
        <time>2012-08-08T13:01:57Z</time>
      </trkpt>
      <trkpt lat="61.5933605935" lon="8.66940094158">
        <ele>1636.3</ele>
        <time>2012-08-08T13:02:28Z</time>
      </trkpt>
      <trkpt lat="61.5933853202" lon="8.66942491382">
        <ele>1635.34</ele>
        <time>2012-08-08T13:02:48Z</time>
      </trkpt>
      <trkpt lat="61.5933641978" lon="8.66943296045">
        <ele>1635.82</ele>
        <time>2012-08-08T13:03:15Z</time>
      </trkpt>
      <trkpt lat="61.5933500323" lon="8.66937269457">
        <ele>1635.82</ele>
        <time>2012-08-08T13:03:40Z</time>
      </trkpt>
      <trkpt lat="61.5933670476" lon="8.66940077394">
        <ele>1635.34</ele>
        <time>2012-08-08T13:04:11Z</time>
      </trkpt>
      <trkpt lat="61.5933491942" lon="8.66941418499">
        <ele>1635.82</ele>
        <time>2012-08-08T13:04:40Z</time>
      </trkpt>
      <trkpt lat="61.5933809616" lon="8.66940840147">
        <ele>1636.3</ele>
        <time>2012-08-08T13:05:09Z</time>
      </trkpt>
      <trkpt lat="61.5933647007" lon="8.66941267624">
        <ele>1636.78</ele>
        <time>2012-08-08T13:05:38Z</time>
      </trkpt>
      <trkpt lat="61.593377525" lon="8.66941695102">
        <ele>1636.3</ele>
        <time>2012-08-08T13:06:13Z</time>
      </trkpt>
      <trkpt lat="61.5933779441" lon="8.66939515807">
        <ele>1635.82</ele>
        <time>2012-08-08T13:06:33Z</time>
      </trkpt>
      <trkpt lat="61.5933753457" lon="8.66939985193">
        <ele>1631.98</ele>
        <time>2012-08-08T13:06:49Z</time>
      </trkpt>
      <trkpt lat="61.5933789499" lon="8.66939934902">
        <ele>1638.22</ele>
        <time>2012-08-08T13:06:50Z</time>
      </trkpt>
      <trkpt lat="61.5933812968" lon="8.66940714419">
        <ele>1634.86</ele>
        <time>2012-08-08T13:07:04Z</time>
      </trkpt>
      <trkpt lat="61.5933828894" lon="8.66942089051">
        <ele>1639.67</ele>
        <time>2012-08-08T13:07:30Z</time>
      </trkpt>
      <trkpt lat="61.5933865774" lon="8.66941611283">
        <ele>1634.86</ele>
        <time>2012-08-08T13:07:31Z</time>
      </trkpt>
      <trkpt lat="61.5933704842" lon="8.66939758882">
        <ele>1636.3</ele>
        <time>2012-08-08T13:08:00Z</time>
      </trkpt>
      <trkpt lat="61.593374256" lon="8.66940144449">
        <ele>1636.78</ele>
        <time>2012-08-08T13:08:32Z</time>
      </trkpt>
      <trkpt lat="61.5933929477" lon="8.66940136068">
        <ele>1636.3</ele>
        <time>2012-08-08T13:09:07Z</time>
      </trkpt>
      <trkpt lat="61.5933776088" lon="8.66942851804">
        <ele>1636.3</ele>
        <time>2012-08-08T13:09:36Z</time>
      </trkpt>
      <trkpt lat="61.5933714062" lon="8.66944729351">
        <ele>1636.3</ele>
        <time>2012-08-08T13:09:57Z</time>
      </trkpt>
      <trkpt lat="61.5933791175" lon="8.66944117472">
        <ele>1636.3</ele>
        <time>2012-08-08T13:10:26Z</time>
      </trkpt>
      <trkpt lat="61.5933652036" lon="8.66945835762">
        <ele>1639.67</ele>
        <time>2012-08-08T13:10:39Z</time>
      </trkpt>
      <trkpt lat="61.5933674667" lon="8.66946070455">
        <ele>1636.78</ele>
        <time>2012-08-08T13:10:40Z</time>
      </trkpt>
      <trkpt lat="61.5933752619" lon="8.66939180531">
        <ele>1636.3</ele>
        <time>2012-08-08T13:11:09Z</time>
      </trkpt>
      <trkpt lat="61.5933725797" lon="8.66939624771">
        <ele>1635.82</ele>
        <time>2012-08-08T13:11:42Z</time>
      </trkpt>
      <trkpt lat="61.5933638625" lon="8.66942340508">
        <ele>1635.34</ele>
        <time>2012-08-08T13:12:11Z</time>
      </trkpt>
      <trkpt lat="61.5933624376" lon="8.66937529296">
        <ele>1635.82</ele>
        <time>2012-08-08T13:12:43Z</time>
      </trkpt>
      <trkpt lat="61.5933631919" lon="8.66937378421">
        <ele>1636.3</ele>
        <time>2012-08-08T13:13:19Z</time>
      </trkpt>
      <trkpt lat="61.593355732" lon="8.66935735568">
        <ele>1635.82</ele>
        <time>2012-08-08T13:13:50Z</time>
      </trkpt>
      <trkpt lat="61.5933473501" lon="8.66937789135">
        <ele>1635.82</ele>
        <time>2012-08-08T13:14:23Z</time>
      </trkpt>
      <trkpt lat="61.593353888" lon="8.66938007064">
        <ele>1635.82</ele>
        <time>2012-08-08T13:14:58Z</time>
      </trkpt>
      <trkpt lat="61.5933794528" lon="8.66938568652">
        <ele>1635.82</ele>
        <time>2012-08-08T13:15:30Z</time>
      </trkpt>
      <trkpt lat="61.5933791175" lon="8.66939247586">
        <ele>1635.82</ele>
        <time>2012-08-08T13:16:00Z</time>
      </trkpt>
      <trkpt lat="61.593365036" lon="8.66941443644">
        <ele>1635.82</ele>
        <time>2012-08-08T13:16:32Z</time>
      </trkpt>
      <trkpt lat="61.5933776088" lon="8.66936992854">
        <ele>1636.3</ele>
        <time>2012-08-08T13:16:51Z</time>
      </trkpt>
      <trkpt lat="61.5933854878" lon="8.66936867125">
        <ele>1631.49</ele>
        <time>2012-08-08T13:16:56Z</time>
      </trkpt>
      <trkpt lat="61.5933841467" lon="8.66936221719">
        <ele>1631.49</ele>
        <time>2012-08-08T13:16:57Z</time>
      </trkpt>
      <trkpt lat="61.5933843981" lon="8.66935316473">
        <ele>1636.78</ele>
        <time>2012-08-08T13:16:59Z</time>
      </trkpt>
      <trkpt lat="61.5933843981" lon="8.66935324855">
        <ele>1636.78</ele>
        <time>2012-08-08T13:17:00Z</time>
      </trkpt>
      <trkpt lat="61.5933817159" lon="8.66936070845">
        <ele>1634.86</ele>
        <time>2012-08-08T13:17:03Z</time>
      </trkpt>
      <trkpt lat="61.5933816321" lon="8.6693648994">
        <ele>1635.82</ele>
        <time>2012-08-08T13:17:05Z</time>
      </trkpt>
      <trkpt lat="61.5933809616" lon="8.6693503987">
        <ele>1636.78</ele>
        <time>2012-08-08T13:17:38Z</time>
      </trkpt>
      <trkpt lat="61.5933855716" lon="8.66935065016">
        <ele>1635.34</ele>
        <time>2012-08-08T13:18:05Z</time>
      </trkpt>
      <trkpt lat="61.5933869965" lon="8.66934620775">
        <ele>1640.15</ele>
        <time>2012-08-08T13:18:06Z</time>
      </trkpt>
      <trkpt lat="61.5933871642" lon="8.66934327409">
        <ele>1631.98</ele>
        <time>2012-08-08T13:18:07Z</time>
      </trkpt>
      <trkpt lat="61.5933858231" lon="8.66934151389">
        <ele>1635.34</ele>
        <time>2012-08-08T13:18:08Z</time>
      </trkpt>
      <trkpt lat="61.5933851525" lon="8.66933472455">
        <ele>1643.03</ele>
        <time>2012-08-08T13:18:10Z</time>
      </trkpt>
      <trkpt lat="61.5933848172" lon="8.66933380254">
        <ele>1636.78</ele>
        <time>2012-08-08T13:18:11Z</time>
      </trkpt>
      <trkpt lat="61.5933779441" lon="8.66932332516">
        <ele>1628.13</ele>
        <time>2012-08-08T13:18:16Z</time>
      </trkpt>
      <trkpt lat="61.5933776088" lon="8.66932676174">
        <ele>1637.26</ele>
        <time>2012-08-08T13:18:17Z</time>
      </trkpt>
      <trkpt lat="61.5933634434" lon="8.66934444755">
        <ele>1633.42</ele>
        <time>2012-08-08T13:18:34Z</time>
      </trkpt>
      <trkpt lat="61.5933604259" lon="8.66933757439">
        <ele>1636.78</ele>
        <time>2012-08-08T13:18:36Z</time>
      </trkpt>
      <trkpt lat="61.5933598392" lon="8.66933631711">
        <ele>1636.78</ele>
        <time>2012-08-08T13:18:37Z</time>
      </trkpt>
      <trkpt lat="61.5933460928" lon="8.66932533681">
        <ele>1640.15</ele>
        <time>2012-08-08T13:18:46Z</time>
      </trkpt>
      <trkpt lat="61.5933448356" lon="8.66932298988">
        <ele>1636.3</ele>
        <time>2012-08-08T13:18:47Z</time>
      </trkpt>
      <trkpt lat="61.5933439136" lon="8.66932206787">
        <ele>1631.01</ele>
        <time>2012-08-08T13:18:48Z</time>
      </trkpt>
      <trkpt lat="61.5933434945" lon="8.66932240315">
        <ele>1635.82</ele>
        <time>2012-08-08T13:18:49Z</time>
      </trkpt>
      <trkpt lat="61.5933412313" lon="8.66932701319">
        <ele>1631.98</ele>
        <time>2012-08-08T13:18:52Z</time>
      </trkpt>
      <trkpt lat="61.5933429915" lon="8.66932567209">
        <ele>1636.3</ele>
        <time>2012-08-08T13:18:53Z</time>
      </trkpt>
      <trkpt lat="61.5933461767" lon="8.66933028214">
        <ele>1634.86</ele>
        <time>2012-08-08T13:18:58Z</time>
      </trkpt>
      <trkpt lat="61.593348356" lon="8.66934184916">
        <ele>1639.67</ele>
        <time>2012-08-08T13:19:00Z</time>
      </trkpt>
      <trkpt lat="61.5933481883" lon="8.66934511811">
        <ele>1636.3</ele>
        <time>2012-08-08T13:19:01Z</time>
      </trkpt>
      <trkpt lat="61.5933493618" lon="8.66934855469">
        <ele>1631.01</ele>
        <time>2012-08-08T13:19:02Z</time>
      </trkpt>
      <trkpt lat="61.5933503676" lon="8.66934956051">
        <ele>1631.01</ele>
        <time>2012-08-08T13:19:03Z</time>
      </trkpt>
      <trkpt lat="61.5933499485" lon="8.66934436373">
        <ele>1635.34</ele>
        <time>2012-08-08T13:19:04Z</time>
      </trkpt>
      <trkpt lat="61.593349278" lon="8.66933925077">
        <ele>1634.86</ele>
        <time>2012-08-08T13:19:05Z</time>
      </trkpt>
      <trkpt lat="61.5933518764" lon="8.66934260353">
        <ele>1643.51</ele>
        <time>2012-08-08T13:19:08Z</time>
      </trkpt>
      <trkpt lat="61.5933522116" lon="8.66934738122">
        <ele>1634.38</ele>
        <time>2012-08-08T13:19:09Z</time>
      </trkpt>
      <trkpt lat="61.5933463443" lon="8.66937629879">
        <ele>1636.3</ele>
        <time>2012-08-08T13:19:11Z</time>
      </trkpt>
      <trkpt lat="61.5933315083" lon="8.66943346336">
        <ele>1635.34</ele>
        <time>2012-08-08T13:19:13Z</time>
      </trkpt>
      <trkpt lat="61.593327485" lon="8.66945642978">
        <ele>1635.82</ele>
        <time>2012-08-08T13:19:14Z</time>
      </trkpt>
      <trkpt lat="61.5933227073" lon="8.66955885664">
        <ele>1636.78</ele>
        <time>2012-08-08T13:19:29Z</time>
      </trkpt>
      <trkpt lat="61.5933241323" lon="8.6695551686">
        <ele>1636.3</ele>
        <time>2012-08-08T13:19:35Z</time>
      </trkpt>
      <trkpt lat="61.593365455" lon="8.6693371553">
        <ele>1632.46</ele>
        <time>2012-08-08T13:19:43Z</time>
      </trkpt>
      <trkpt lat="61.5933740046" lon="8.6693441961">
        <ele>1627.65</ele>
        <time>2012-08-08T13:19:45Z</time>
      </trkpt>
      <trkpt lat="61.5933777764" lon="8.6693494767">
        <ele>1635.34</ele>
        <time>2012-08-08T13:19:46Z</time>
      </trkpt>
      <trkpt lat="61.5933817159" lon="8.66935760714">
        <ele>1639.19</ele>
        <time>2012-08-08T13:19:49Z</time>
      </trkpt>
      <trkpt lat="61.5933803748" lon="8.6693596188">
        <ele>1639.19</ele>
        <time>2012-08-08T13:19:50Z</time>
      </trkpt>
      <trkpt lat="61.5933786146" lon="8.66936531849">
        <ele>1630.05</ele>
        <time>2012-08-08T13:19:51Z</time>
      </trkpt>
      <trkpt lat="61.5933754295" lon="8.66937596351">
        <ele>1638.22</ele>
        <time>2012-08-08T13:19:52Z</time>
      </trkpt>
      <trkpt lat="61.5933865774" lon="8.66937068291">
        <ele>1633.42</ele>
        <time>2012-08-08T13:19:57Z</time>
      </trkpt>
      <trkpt lat="61.5933869127" lon="8.66936875507">
        <ele>1643.99</ele>
        <time>2012-08-08T13:19:58Z</time>
      </trkpt>
      <trkpt lat="61.5933867451" lon="8.66937302984">
        <ele>1636.3</ele>
        <time>2012-08-08T13:19:59Z</time>
      </trkpt>
      <trkpt lat="61.5934020001" lon="8.66933204234">
        <ele>1636.3</ele>
        <time>2012-08-08T13:20:17Z</time>
      </trkpt>
      <trkpt lat="61.5934003238" lon="8.669361379">
        <ele>1635.82</ele>
        <time>2012-08-08T13:20:46Z</time>
      </trkpt>
      <trkpt lat="61.5933921095" lon="8.66935023107">
        <ele>1635.82</ele>
        <time>2012-08-08T13:20:52Z</time>
      </trkpt>
      <trkpt lat="61.5933886729" lon="8.66948300041">
        <ele>1635.82</ele>
        <time>2012-08-08T13:20:57Z</time>
      </trkpt>
      <trkpt lat="61.593424296" lon="8.66953765042">
        <ele>1636.78</ele>
        <time>2012-08-08T13:21:01Z</time>
      </trkpt>
      <trkpt lat="61.5934216976" lon="8.6696031969">
        <ele>1637.74</ele>
        <time>2012-08-08T13:21:05Z</time>
      </trkpt>
      <trkpt lat="61.5934635233" lon="8.66964234039">
        <ele>1639.67</ele>
        <time>2012-08-08T13:21:11Z</time>
      </trkpt>
      <trkpt lat="61.5933658741" lon="8.66997392848">
        <ele>1638.7</ele>
        <time>2012-08-08T13:21:25Z</time>
      </trkpt>
      <trkpt lat="61.5933321789" lon="8.67013838142">
        <ele>1640.15</ele>
        <time>2012-08-08T13:21:36Z</time>
      </trkpt>
      <trkpt lat="61.5932875872" lon="8.67011876777">
        <ele>1640.63</ele>
        <time>2012-08-08T13:22:16Z</time>
      </trkpt>
      <trkpt lat="61.5933112241" lon="8.67000695318">
        <ele>1639.19</ele>
        <time>2012-08-08T13:22:20Z</time>
      </trkpt>
      <trkpt lat="61.5933924448" lon="8.66961149499">
        <ele>1637.74</ele>
        <time>2012-08-08T13:22:33Z</time>
      </trkpt>
      <trkpt lat="61.5934189316" lon="8.66948886774">
        <ele>1637.26</ele>
        <time>2012-08-08T13:22:39Z</time>
      </trkpt>
      <trkpt lat="61.5933864936" lon="8.66940856911">
        <ele>1636.3</ele>
        <time>2012-08-08T13:22:46Z</time>
      </trkpt>
      <trkpt lat="61.5933727473" lon="8.66938074119">
        <ele>1635.82</ele>
        <time>2012-08-08T13:22:59Z</time>
      </trkpt>
      <trkpt lat="61.5933825541" lon="8.66935953498">
        <ele>1635.34</ele>
        <time>2012-08-08T13:23:29Z</time>
      </trkpt>
      <trkpt lat="61.5933833085" lon="8.66934503429">
        <ele>1635.82</ele>
        <time>2012-08-08T13:23:49Z</time>
      </trkpt>
      <trkpt lat="61.5933870804" lon="8.66931217723">
        <ele>1634.86</ele>
        <time>2012-08-08T13:24:09Z</time>
      </trkpt>
      <trkpt lat="61.5933944564" lon="8.66934360936">
        <ele>1635.34</ele>
        <time>2012-08-08T13:24:25Z</time>
      </trkpt>
      <trkpt lat="61.5933886729" lon="8.66935526021">
        <ele>1635.34</ele>
        <time>2012-08-08T13:24:43Z</time>
      </trkpt>
      <trkpt lat="61.5933882538" lon="8.66936883889">
        <ele>1635.34</ele>
        <time>2012-08-08T13:25:03Z</time>
      </trkpt>
      <trkpt lat="61.5933786985" lon="8.66935861297">
        <ele>1634.86</ele>
        <time>2012-08-08T13:25:35Z</time>
      </trkpt>
      <trkpt lat="61.5933838114" lon="8.66934855469">
        <ele>1635.34</ele>
        <time>2012-08-08T13:25:56Z</time>
      </trkpt>
      <trkpt lat="61.5933761001" lon="8.66933614947">
        <ele>1635.34</ele>
        <time>2012-08-08T13:26:21Z</time>
      </trkpt>
      <trkpt lat="61.5933630243" lon="8.66932542063">
        <ele>1635.82</ele>
        <time>2012-08-08T13:26:38Z</time>
      </trkpt>
      <trkpt lat="61.5933739208" lon="8.66932894103">
        <ele>1636.3</ele>
        <time>2012-08-08T13:26:49Z</time>
      </trkpt>
      <trkpt lat="61.5933783632" lon="8.66933070123">
        <ele>1637.26</ele>
        <time>2012-08-08T13:27:12Z</time>
      </trkpt>
      <trkpt lat="61.5933745075" lon="8.66934310645">
        <ele>1636.3</ele>
        <time>2012-08-08T13:27:32Z</time>
      </trkpt>
      <trkpt lat="61.5933734179" lon="8.66935643367">
        <ele>1628.13</ele>
        <time>2012-08-08T13:27:37Z</time>
      </trkpt>
      <trkpt lat="61.5933750104" lon="8.66935534403">
        <ele>1631.01</ele>
        <time>2012-08-08T13:27:38Z</time>
      </trkpt>
      <trkpt lat="61.5933752619" lon="8.66934997961">
        <ele>1635.82</ele>
        <time>2012-08-08T13:27:39Z</time>
      </trkpt>
      <trkpt lat="61.5933761001" lon="8.66934402846">
        <ele>1635.34</ele>
        <time>2012-08-08T13:27:40Z</time>
      </trkpt>
      <trkpt lat="61.5933782794" lon="8.6693314556">
        <ele>1645.43</ele>
        <time>2012-08-08T13:28:04Z</time>
      </trkpt>
      <trkpt lat="61.5933769383" lon="8.66931837983">
        <ele>1637.74</ele>
        <time>2012-08-08T13:28:05Z</time>
      </trkpt>
      <trkpt lat="61.5933840629" lon="8.66932491772">
        <ele>1635.82</ele>
        <time>2012-08-08T13:28:08Z</time>
      </trkpt>
      <trkpt lat="61.5933804587" lon="8.6693296954">
        <ele>1636.78</ele>
        <time>2012-08-08T13:28:28Z</time>
      </trkpt>
      <trkpt lat="61.593359001" lon="8.66932634264">
        <ele>1636.3</ele>
        <time>2012-08-08T13:28:47Z</time>
      </trkpt>
      <trkpt lat="61.5933470987" lon="8.66939356551">
        <ele>1636.3</ele>
        <time>2012-08-08T13:29:01Z</time>
      </trkpt>
      <trkpt lat="61.5933660418" lon="8.66937805898">
        <ele>1635.34</ele>
        <time>2012-08-08T13:29:20Z</time>
      </trkpt>
      <trkpt lat="61.5933400579" lon="8.669343777">
        <ele>1635.82</ele>
        <time>2012-08-08T13:29:27Z</time>
      </trkpt>
      <trkpt lat="61.5933375433" lon="8.66938116029">
        <ele>1635.34</ele>
        <time>2012-08-08T13:29:41Z</time>
      </trkpt>
      <trkpt lat="61.5933646169" lon="8.66934495047">
        <ele>1634.86</ele>
        <time>2012-08-08T13:29:52Z</time>
      </trkpt>
      <trkpt lat="61.5933710709" lon="8.66932726465">
        <ele>1635.34</ele>
        <time>2012-08-08T13:30:11Z</time>
      </trkpt>
      <trkpt lat="61.5933797881" lon="8.66933338344">
        <ele>1635.34</ele>
        <time>2012-08-08T13:30:35Z</time>
      </trkpt>
      <trkpt lat="61.5933661256" lon="8.66937227547">
        <ele>1635.34</ele>
        <time>2012-08-08T13:30:59Z</time>
      </trkpt>
      <trkpt lat="61.5933424048" lon="8.66935945116">
        <ele>1633.9</ele>
        <time>2012-08-08T13:31:18Z</time>
      </trkpt>
      <trkpt lat="61.5933341905" lon="8.66936959326">
        <ele>1636.78</ele>
        <time>2012-08-08T13:31:20Z</time>
      </trkpt>
      <trkpt lat="61.5933306701" lon="8.66937948391">
        <ele>1635.82</ele>
        <time>2012-08-08T13:31:21Z</time>
      </trkpt>
      <trkpt lat="61.5933242999" lon="8.66935073398">
        <ele>1635.34</ele>
        <time>2012-08-08T13:31:23Z</time>
      </trkpt>
      <trkpt lat="61.5933584142" lon="8.66937135346">
        <ele>1635.34</ele>
        <time>2012-08-08T13:31:34Z</time>
      </trkpt>
      <trkpt lat="61.5933849849" lon="8.66937420331">
        <ele>1635.82</ele>
        <time>2012-08-08T13:31:50Z</time>
      </trkpt>
      <trkpt lat="61.5933319274" lon="8.66932533681">
        <ele>1635.34</ele>
        <time>2012-08-08T13:32:06Z</time>
      </trkpt>
      <trkpt lat="61.5932817198" lon="8.66927789524">
        <ele>1634.86</ele>
        <time>2012-08-08T13:32:20Z</time>
      </trkpt>
      <trkpt lat="61.5932873357" lon="8.66926875897">
        <ele>1634.86</ele>
        <time>2012-08-08T13:32:40Z</time>
      </trkpt>
      <trkpt lat="61.5933090448" lon="8.66932114586">
        <ele>1635.34</ele>
        <time>2012-08-08T13:32:58Z</time>
      </trkpt>
      <trkpt lat="61.5932566579" lon="8.66925149225">
        <ele>1634.86</ele>
        <time>2012-08-08T13:33:17Z</time>
      </trkpt>
      <trkpt lat="61.5932034329" lon="8.6691953335">
        <ele>1634.38</ele>
        <time>2012-08-08T13:33:27Z</time>
      </trkpt>
      <trkpt lat="61.5931709949" lon="8.66913976148">
        <ele>1633.42</ele>
        <time>2012-08-08T13:33:30Z</time>
      </trkpt>
      <trkpt lat="61.5930927917" lon="8.66895938292">
        <ele>1631.01</ele>
        <time>2012-08-08T13:33:40Z</time>
      </trkpt>
      <trkpt lat="61.5930860024" lon="8.66888327524">
        <ele>1630.53</ele>
        <time>2012-08-08T13:33:43Z</time>
      </trkpt>
      <trkpt lat="61.5929955617" lon="8.66864807904">
        <ele>1628.61</ele>
        <time>2012-08-08T13:33:56Z</time>
      </trkpt>
      <trkpt lat="61.5929497965" lon="8.66860390641">
        <ele>1627.65</ele>
        <time>2012-08-08T13:34:03Z</time>
      </trkpt>
      <trkpt lat="61.592863379" lon="8.66850499995">
        <ele>1626.21</ele>
        <time>2012-08-08T13:34:17Z</time>
      </trkpt>
      <trkpt lat="61.5927917138" lon="8.66836049594">
        <ele>1625.25</ele>
        <time>2012-08-08T13:34:32Z</time>
      </trkpt>
      <trkpt lat="61.5927798953" lon="8.6683550477">
        <ele>1625.25</ele>
        <time>2012-08-08T13:34:34Z</time>
      </trkpt>
      <trkpt lat="61.5927155223" lon="8.66821423173">
        <ele>1623.8</ele>
        <time>2012-08-08T13:34:49Z</time>
      </trkpt>
      <trkpt lat="61.5926788934" lon="8.66815865971">
        <ele>1622.84</ele>
        <time>2012-08-08T13:35:08Z</time>
      </trkpt>
      <trkpt lat="61.5925860219" lon="8.6681806203">
        <ele>1622.36</ele>
        <time>2012-08-08T13:35:24Z</time>
      </trkpt>
      <trkpt lat="61.59250631" lon="8.66810677573">
        <ele>1620.44</ele>
        <time>2012-08-08T13:35:39Z</time>
      </trkpt>
      <trkpt lat="61.5924989339" lon="8.66809504107">
        <ele>1620.44</ele>
        <time>2012-08-08T13:35:40Z</time>
      </trkpt>
      <trkpt lat="61.5923870355" lon="8.66806805134">
        <ele>1619</ele>
        <time>2012-08-08T13:35:56Z</time>
      </trkpt>
      <trkpt lat="61.5923217405" lon="8.6680401396">
        <ele>1618.04</ele>
        <time>2012-08-08T13:36:09Z</time>
      </trkpt>
      <trkpt lat="61.592270527" lon="8.66804164834">
        <ele>1617.56</ele>
        <time>2012-08-08T13:36:25Z</time>
      </trkpt>
      <trkpt lat="61.5922452975" lon="8.66798180155">
        <ele>1617.56</ele>
        <time>2012-08-08T13:36:32Z</time>
      </trkpt>
      <trkpt lat="61.5922152903" lon="8.66783386096">
        <ele>1616.59</ele>
        <time>2012-08-08T13:36:45Z</time>
      </trkpt>
      <trkpt lat="61.5921229217" lon="8.66779647768">
        <ele>1615.15</ele>
        <time>2012-08-08T13:36:56Z</time>
      </trkpt>
      <trkpt lat="61.5920919925" lon="8.66777845658">
        <ele>1614.67</ele>
        <time>2012-08-08T13:36:59Z</time>
      </trkpt>
      <trkpt lat="61.5920101851" lon="8.66773989983">
        <ele>1614.67</ele>
        <time>2012-08-08T13:37:16Z</time>
      </trkpt>
      <trkpt lat="61.5920044016" lon="8.66774643771">
        <ele>1614.67</ele>
        <time>2012-08-08T13:37:17Z</time>
      </trkpt>
      <trkpt lat="61.5919349156" lon="8.6676908657">
        <ele>1613.71</ele>
        <time>2012-08-08T13:37:34Z</time>
      </trkpt>
      <trkpt lat="61.5918806847" lon="8.66765976883">
        <ele>1614.19</ele>
        <time>2012-08-08T13:37:47Z</time>
      </trkpt>
      <trkpt lat="61.5918479953" lon="8.66760168225">
        <ele>1612.75</ele>
        <time>2012-08-08T13:38:00Z</time>
      </trkpt>
      <trkpt lat="61.5917713009" lon="8.66754543968">
        <ele>1611.31</ele>
        <time>2012-08-08T13:38:13Z</time>
      </trkpt>
      <trkpt lat="61.5917567164" lon="8.66755650379">
        <ele>1610.83</ele>
        <time>2012-08-08T13:38:15Z</time>
      </trkpt>
      <trkpt lat="61.5917303972" lon="8.6675904505">
        <ele>1610.83</ele>
        <time>2012-08-08T13:38:20Z</time>
      </trkpt>
      <trkpt lat="61.5916407108" lon="8.66756790318">
        <ele>1610.83</ele>
        <time>2012-08-08T13:38:30Z</time>
      </trkpt>
      <trkpt lat="61.5915678721" lon="8.66754502058">
        <ele>1609.38</ele>
        <time>2012-08-08T13:38:40Z</time>
      </trkpt>
      <trkpt lat="61.5915097855" lon="8.66756790318">
        <ele>1610.35</ele>
        <time>2012-08-08T13:38:48Z</time>
      </trkpt>
      <trkpt lat="61.5914782695" lon="8.66752909496">
        <ele>1611.31</ele>
        <time>2012-08-08T13:38:51Z</time>
      </trkpt>
      <trkpt lat="61.5914430656" lon="8.66748869419">
        <ele>1609.38</ele>
        <time>2012-08-08T13:38:56Z</time>
      </trkpt>
      <trkpt lat="61.591336783" lon="8.66738844663">
        <ele>1607.46</ele>
        <time>2012-08-08T13:39:08Z</time>
      </trkpt>
      <trkpt lat="61.5913101286" lon="8.66734343581">
        <ele>1607.46</ele>
        <time>2012-08-08T13:39:11Z</time>
      </trkpt>
      <trkpt lat="61.5911878366" lon="8.66725626402">
        <ele>1607.46</ele>
        <time>2012-08-08T13:39:21Z</time>
      </trkpt>
      <trkpt lat="61.5910982341" lon="8.66718443111">
        <ele>1606.98</ele>
        <time>2012-08-08T13:39:34Z</time>
      </trkpt>
      <trkpt lat="61.5910787042" lon="8.66716850549">
        <ele>1607.46</ele>
        <time>2012-08-08T13:39:36Z</time>
      </trkpt>
      <trkpt lat="61.5910082124" lon="8.66708200425">
        <ele>1606.02</ele>
        <time>2012-08-08T13:39:48Z</time>
      </trkpt>
      <trkpt lat="61.5909875091" lon="8.66705149412">
        <ele>1604.1</ele>
        <time>2012-08-08T13:39:54Z</time>
      </trkpt>
      <trkpt lat="61.5909802169" lon="8.66701318882">
        <ele>1605.54</ele>
        <time>2012-08-08T13:40:06Z</time>
      </trkpt>
      <trkpt lat="61.5910081286" lon="8.66698762402">
        <ele>1605.54</ele>
        <time>2012-08-08T13:40:30Z</time>
      </trkpt>
      <trkpt lat="61.5909683146" lon="8.66700874642">
        <ele>1605.06</ele>
        <time>2012-08-08T13:40:47Z</time>
      </trkpt>
      <trkpt lat="61.5909788758" lon="8.66699525155">
        <ele>1606.02</ele>
        <time>2012-08-08T13:40:58Z</time>
      </trkpt>
      <trkpt lat="61.5909823962" lon="8.6669787392">
        <ele>1606.02</ele>
        <time>2012-08-08T13:40:59Z</time>
      </trkpt>
      <trkpt lat="61.5909836534" lon="8.66700522602">
        <ele>1605.06</ele>
        <time>2012-08-08T13:41:11Z</time>
      </trkpt>
      <trkpt lat="61.5909867547" lon="8.66696055047">
        <ele>1605.54</ele>
        <time>2012-08-08T13:41:19Z</time>
      </trkpt>
      <trkpt lat="61.5909848269" lon="8.66698728874">
        <ele>1605.54</ele>
        <time>2012-08-08T13:41:37Z</time>
      </trkpt>
      <trkpt lat="61.5909664705" lon="8.666923251">
        <ele>1605.54</ele>
        <time>2012-08-08T13:41:59Z</time>
      </trkpt>
      <trkpt lat="61.5909875929" lon="8.66692962125">
        <ele>1605.06</ele>
        <time>2012-08-08T13:42:20Z</time>
      </trkpt>
      <trkpt lat="61.5909697395" lon="8.66700774059">
        <ele>1603.14</ele>
        <time>2012-08-08T13:42:37Z</time>
      </trkpt>
      <trkpt lat="61.5909474436" lon="8.66698100232">
        <ele>1604.58</ele>
        <time>2012-08-08T13:42:43Z</time>
      </trkpt>
      <trkpt lat="61.5909414925" lon="8.66696306504">
        <ele>1603.62</ele>
        <time>2012-08-08T13:42:45Z</time>
      </trkpt>
      <trkpt lat="61.5909077972" lon="8.66693339311">
        <ele>1602.66</ele>
        <time>2012-08-08T13:42:52Z</time>
      </trkpt>
      <trkpt lat="61.590857422" lon="8.66689542308">
        <ele>1602.66</ele>
        <time>2012-08-08T13:43:05Z</time>
      </trkpt>
      <trkpt lat="61.5908471961" lon="8.66683297791">
        <ele>1601.21</ele>
        <time>2012-08-08T13:43:21Z</time>
      </trkpt>
      <trkpt lat="61.5908333659" lon="8.66681554355">
        <ele>1601.21</ele>
        <time>2012-08-08T13:43:39Z</time>
      </trkpt>
      <trkpt lat="61.5907813143" lon="8.66677036509">
        <ele>1600.25</ele>
        <time>2012-08-08T13:43:44Z</time>
      </trkpt>
      <trkpt lat="61.5907265805" lon="8.66660012864">
        <ele>1599.77</ele>
        <time>2012-08-08T13:43:56Z</time>
      </trkpt>
      <trkpt lat="61.5907223057" lon="8.66658579558">
        <ele>1599.29</ele>
        <time>2012-08-08T13:44:01Z</time>
      </trkpt>
      <trkpt lat="61.5906734392" lon="8.66649493575">
        <ele>1599.29</ele>
        <time>2012-08-08T13:44:06Z</time>
      </trkpt>
      <trkpt lat="61.5905646421" lon="8.66635722108">
        <ele>1597.37</ele>
        <time>2012-08-08T13:44:19Z</time>
      </trkpt>
      <trkpt lat="61.590539664" lon="8.66630617529">
        <ele>1597.37</ele>
        <time>2012-08-08T13:44:26Z</time>
      </trkpt>
      <trkpt lat="61.5904561803" lon="8.66622813977">
        <ele>1596.41</ele>
        <time>2012-08-08T13:44:38Z</time>
      </trkpt>
      <trkpt lat="61.5904488042" lon="8.66620341316">
        <ele>1595.93</ele>
        <time>2012-08-08T13:44:40Z</time>
      </trkpt>
      <trkpt lat="61.5904239099" lon="8.66619134322">
        <ele>1594</ele>
        <time>2012-08-08T13:44:44Z</time>
      </trkpt>
      <trkpt lat="61.5904094093" lon="8.66617038846">
        <ele>1594.48</ele>
        <time>2012-08-08T13:44:46Z</time>
      </trkpt>
      <trkpt lat="61.5903956629" lon="8.6661392916">
        <ele>1594.96</ele>
        <time>2012-08-08T13:44:48Z</time>
      </trkpt>
      <trkpt lat="61.5903681703" lon="8.66614406928">
        <ele>1595.45</ele>
        <time>2012-08-08T13:44:54Z</time>
      </trkpt>
      <trkpt lat="61.5902366582" lon="8.66609461606">
        <ele>1594.48</ele>
        <time>2012-08-08T13:45:07Z</time>
      </trkpt>
      <trkpt lat="61.5901398472" lon="8.66604566574">
        <ele>1594.48</ele>
        <time>2012-08-08T13:45:20Z</time>
      </trkpt>
      <trkpt lat="61.5900327265" lon="8.66592706181">
        <ele>1594.48</ele>
        <time>2012-08-08T13:45:32Z</time>
      </trkpt>
      <trkpt lat="61.5899443813" lon="8.66585422307">
        <ele>1594</ele>
        <time>2012-08-08T13:45:40Z</time>
      </trkpt>
      <trkpt lat="61.5898479894" lon="8.66566110402">
        <ele>1593.04</ele>
        <time>2012-08-08T13:45:55Z</time>
      </trkpt>
      <trkpt lat="61.5898209997" lon="8.66564668715">
        <ele>1592.08</ele>
        <time>2012-08-08T13:45:58Z</time>
      </trkpt>
      <trkpt lat="61.5897239372" lon="8.66551375017">
        <ele>1590.64</ele>
        <time>2012-08-08T13:46:12Z</time>
      </trkpt>
      <trkpt lat="61.5897162259" lon="8.66550050676">
        <ele>1590.64</ele>
        <time>2012-08-08T13:46:13Z</time>
      </trkpt>
      <trkpt lat="61.58964389" lon="8.66543705575">
        <ele>1588.72</ele>
        <time>2012-08-08T13:46:24Z</time>
      </trkpt>
      <trkpt lat="61.5896071773" lon="8.66538492031">
        <ele>1587.27</ele>
        <time>2012-08-08T13:46:31Z</time>
      </trkpt>
      <trkpt lat="61.5895633399" lon="8.66536446847">
        <ele>1586.79</ele>
        <time>2012-08-08T13:46:39Z</time>
      </trkpt>
      <trkpt lat="61.5894996375" lon="8.66533261724">
        <ele>1585.83</ele>
        <time>2012-08-08T13:46:50Z</time>
      </trkpt>
      <trkpt lat="61.5894525312" lon="8.66522868164">
        <ele>1585.83</ele>
        <time>2012-08-08T13:47:02Z</time>
      </trkpt>
      <trkpt lat="61.5894293133" lon="8.66521275602">
        <ele>1584.87</ele>
        <time>2012-08-08T13:47:06Z</time>
      </trkpt>
      <trkpt lat="61.5893703885" lon="8.6651919689">
        <ele>1585.35</ele>
        <time>2012-08-08T13:47:14Z</time>
      </trkpt>
      <trkpt lat="61.5892768465" lon="8.66512826644">
        <ele>1583.91</ele>
        <time>2012-08-08T13:47:28Z</time>
      </trkpt>
      <trkpt lat="61.5891610086" lon="8.66500010714">
        <ele>1581.99</ele>
        <time>2012-08-08T13:47:42Z</time>
      </trkpt>
      <trkpt lat="61.5891040955" lon="8.66498845629">
        <ele>1581.51</ele>
        <time>2012-08-08T13:47:48Z</time>
      </trkpt>
      <trkpt lat="61.5890069492" lon="8.6649827566">
        <ele>1581.99</ele>
        <time>2012-08-08T13:48:04Z</time>
      </trkpt>
      <trkpt lat="61.5889639501" lon="8.66501997225">
        <ele>1581.99</ele>
        <time>2012-08-08T13:48:11Z</time>
      </trkpt>
      <trkpt lat="61.5888164286" lon="8.66496884264">
        <ele>1580.06</ele>
        <time>2012-08-08T13:48:26Z</time>
      </trkpt>
      <trkpt lat="61.588758342" lon="8.66494537331">
        <ele>1579.58</ele>
        <time>2012-08-08T13:48:38Z</time>
      </trkpt>
      <trkpt lat="61.5887381416" lon="8.66493221372">
        <ele>1578.14</ele>
        <time>2012-08-08T13:48:41Z</time>
      </trkpt>
      <trkpt lat="61.5886711702" lon="8.66491042078">
        <ele>1578.62</ele>
        <time>2012-08-08T13:48:53Z</time>
      </trkpt>
      <trkpt lat="61.5886677336" lon="8.66491612047">
        <ele>1579.58</ele>
        <time>2012-08-08T13:49:05Z</time>
      </trkpt>
      <trkpt lat="61.588605037" lon="8.6648924835">
        <ele>1578.62</ele>
        <time>2012-08-08T13:49:17Z</time>
      </trkpt>
      <trkpt lat="61.5885777958" lon="8.66486641578">
        <ele>1578.62</ele>
        <time>2012-08-08T13:49:34Z</time>
      </trkpt>
      <trkpt lat="61.5885301866" lon="8.66489156149">
        <ele>1577.66</ele>
        <time>2012-08-08T13:50:00Z</time>
      </trkpt>
      <trkpt lat="61.5884964075" lon="8.66489122622">
        <ele>1577.66</ele>
        <time>2012-08-08T13:50:23Z</time>
      </trkpt>
      <trkpt lat="61.5884841699" lon="8.66487387568">
        <ele>1576.7</ele>
        <time>2012-08-08T13:50:26Z</time>
      </trkpt>
      <trkpt lat="61.5883917175" lon="8.66478460841">
        <ele>1576.7</ele>
        <time>2012-08-08T13:50:34Z</time>
      </trkpt>
      <trkpt lat="61.5883497242" lon="8.66473926231">
        <ele>1576.22</ele>
        <time>2012-08-08T13:50:39Z</time>
      </trkpt>
      <trkpt lat="61.5882768854" lon="8.66469726898">
        <ele>1576.22</ele>
        <time>2012-08-08T13:50:49Z</time>
      </trkpt>
      <trkpt lat="61.5882481355" lon="8.66469232365">
        <ele>1576.22</ele>
        <time>2012-08-08T13:50:53Z</time>
      </trkpt>
      <trkpt lat="61.5882086568" lon="8.66468570195">
        <ele>1575.26</ele>
        <time>2012-08-08T13:50:58Z</time>
      </trkpt>
      <trkpt lat="61.588189546" lon="8.66468670778">
        <ele>1575.26</ele>
        <time>2012-08-08T13:51:00Z</time>
      </trkpt>
      <trkpt lat="61.5880962554" lon="8.66462878883">
        <ele>1573.82</ele>
        <time>2012-08-08T13:51:10Z</time>
      </trkpt>
      <trkpt lat="61.5880411863" lon="8.66455745883">
        <ele>1572.85</ele>
        <time>2012-08-08T13:51:19Z</time>
      </trkpt>
      <trkpt lat="61.5879527573" lon="8.66445327178">
        <ele>1571.41</ele>
        <time>2012-08-08T13:51:31Z</time>
      </trkpt>
      <trkpt lat="61.587898694" lon="8.66445234977">
        <ele>1571.89</ele>
        <time>2012-08-08T13:51:46Z</time>
      </trkpt>
      <trkpt lat="61.5878507495" lon="8.66449166089">
        <ele>1571.41</ele>
        <time>2012-08-08T13:51:57Z</time>
      </trkpt>
      <trkpt lat="61.587773636" lon="8.66451110691">
        <ele>1571.41</ele>
        <time>2012-08-08T13:52:05Z</time>
      </trkpt>
      <trkpt lat="61.5877516754" lon="8.6644996237">
        <ele>1571.41</ele>
        <time>2012-08-08T13:52:07Z</time>
      </trkpt>
      <trkpt lat="61.5876809321" lon="8.66445251741">
        <ele>1570.93</ele>
        <time>2012-08-08T13:52:16Z</time>
      </trkpt>
      <trkpt lat="61.5876017231" lon="8.66442150436">
        <ele>1569.97</ele>
        <time>2012-08-08T13:52:28Z</time>
      </trkpt>
      <trkpt lat="61.5875313152" lon="8.66442468949">
        <ele>1569.01</ele>
        <time>2012-08-08T13:52:40Z</time>
      </trkpt>
      <trkpt lat="61.5875201672" lon="8.66441220045">
        <ele>1568.53</ele>
        <time>2012-08-08T13:52:47Z</time>
      </trkpt>
      <trkpt lat="61.5874559619" lon="8.66439862177">
        <ele>1568.53</ele>
        <time>2012-08-08T13:52:53Z</time>
      </trkpt>
      <trkpt lat="61.5874351747" lon="8.66441823542">
        <ele>1568.53</ele>
        <time>2012-08-08T13:52:56Z</time>
      </trkpt>
      <trkpt lat="61.5873583965" lon="8.66434430704">
        <ele>1567.57</ele>
        <time>2012-08-08T13:53:05Z</time>
      </trkpt>
      <trkpt lat="61.587253958" lon="8.66433332674">
        <ele>1566.12</ele>
        <time>2012-08-08T13:53:17Z</time>
      </trkpt>
      <trkpt lat="61.5872338414" lon="8.66436802782">
        <ele>1567.09</ele>
        <time>2012-08-08T13:53:31Z</time>
      </trkpt>
      <trkpt lat="61.5871555544" lon="8.66438403726">
        <ele>1565.64</ele>
        <time>2012-08-08T13:53:41Z</time>
      </trkpt>
      <trkpt lat="61.5870246291" lon="8.66426602006">
        <ele>1562.76</ele>
        <time>2012-08-08T13:53:54Z</time>
      </trkpt>
      <trkpt lat="61.5870004892" lon="8.66428957321">
        <ele>1564.68</ele>
        <time>2012-08-08T13:53:57Z</time>
      </trkpt>
      <trkpt lat="61.586974673" lon="8.66432620212">
        <ele>1564.2</ele>
        <time>2012-08-08T13:54:00Z</time>
      </trkpt>
      <trkpt lat="61.5868409816" lon="8.66427113302">
        <ele>1563.72</ele>
        <time>2012-08-08T13:54:13Z</time>
      </trkpt>
      <trkpt lat="61.5867679752" lon="8.66424146108">
        <ele>1562.76</ele>
        <time>2012-08-08T13:54:24Z</time>
      </trkpt>
      <trkpt lat="61.5867405664" lon="8.66422067396">
        <ele>1562.76</ele>
        <time>2012-08-08T13:54:37Z</time>
      </trkpt>
      <trkpt lat="61.5866846591" lon="8.66426778026">
        <ele>1560.84</ele>
        <time>2012-08-08T13:54:42Z</time>
      </trkpt>
      <trkpt lat="61.5866720863" lon="8.66425017826">
        <ele>1561.8</ele>
        <time>2012-08-08T13:54:44Z</time>
      </trkpt>
      <trkpt lat="61.5866148379" lon="8.66419854574">
        <ele>1560.84</ele>
        <time>2012-08-08T13:54:56Z</time>
      </trkpt>
      <trkpt lat="61.5866315179" lon="8.66415487602">
        <ele>1559.4</ele>
        <time>2012-08-08T13:54:58Z</time>
      </trkpt>
      <trkpt lat="61.5866372176" lon="8.66414716467">
        <ele>1560.84</ele>
        <time>2012-08-08T13:55:00Z</time>
      </trkpt>
      <trkpt lat="61.5866355412" lon="8.66412252188">
        <ele>1560.36</ele>
        <time>2012-08-08T13:55:14Z</time>
      </trkpt>
      <trkpt lat="61.586626824" lon="8.6641327478">
        <ele>1559.4</ele>
        <time>2012-08-08T13:55:16Z</time>
      </trkpt>
      <trkpt lat="61.5865583438" lon="8.66411455907">
        <ele>1558.92</ele>
        <time>2012-08-08T13:55:27Z</time>
      </trkpt>
      <trkpt lat="61.586550381" lon="8.66410668008">
        <ele>1558.92</ele>
        <time>2012-08-08T13:55:30Z</time>
      </trkpt>
      <trkpt lat="61.5865383949" lon="8.66408379748">
        <ele>1558.43</ele>
        <time>2012-08-08T13:55:32Z</time>
      </trkpt>
      <trkpt lat="61.5864309389" lon="8.66409050301">
        <ele>1557.47</ele>
        <time>2012-08-08T13:55:45Z</time>
      </trkpt>
      <trkpt lat="61.5863412526" lon="8.66412159987">
        <ele>1556.99</ele>
        <time>2012-08-08T13:55:59Z</time>
      </trkpt>
      <trkpt lat="61.5863291826" lon="8.66412679665">
        <ele>1556.99</ele>
        <time>2012-08-08T13:56:01Z</time>
      </trkpt>
      <trkpt lat="61.5862472076" lon="8.66414984688">
        <ele>1556.51</ele>
        <time>2012-08-08T13:56:08Z</time>
      </trkpt>
      <trkpt lat="61.5862337966" lon="8.66417658515">
        <ele>1556.51</ele>
        <time>2012-08-08T13:56:10Z</time>
      </trkpt>
      <trkpt lat="61.5862042084" lon="8.66419586353">
        <ele>1556.03</ele>
        <time>2012-08-08T13:56:14Z</time>
      </trkpt>
      <trkpt lat="61.5861815773" lon="8.66420399398">
        <ele>1555.55</ele>
        <time>2012-08-08T13:56:17Z</time>
      </trkpt>
      <trkpt lat="61.586099267" lon="8.66418848746">
        <ele>1555.55</ele>
        <time>2012-08-08T13:56:29Z</time>
      </trkpt>
      <trkpt lat="61.5860604588" lon="8.66420634091">
        <ele>1555.07</ele>
        <time>2012-08-08T13:56:34Z</time>
      </trkpt>
      <trkpt lat="61.5859665815" lon="8.66428278387">
        <ele>1555.07</ele>
        <time>2012-08-08T13:56:46Z</time>
      </trkpt>
      <trkpt lat="61.5858990233" lon="8.66432670504">
        <ele>1555.07</ele>
        <time>2012-08-08T13:56:59Z</time>
      </trkpt>
      <trkpt lat="61.5858488996" lon="8.66439015605">
        <ele>1555.07</ele>
        <time>2012-08-08T13:57:14Z</time>
      </trkpt>
      <trkpt lat="61.5858293697" lon="8.66438412108">
        <ele>1554.59</ele>
        <time>2012-08-08T13:57:25Z</time>
      </trkpt>
      <trkpt lat="61.5858397633" lon="8.66441538557">
        <ele>1554.11</ele>
        <time>2012-08-08T13:57:40Z</time>
      </trkpt>
      <trkpt lat="61.5858328063" lon="8.66434698924">
        <ele>1555.55</ele>
        <time>2012-08-08T13:57:51Z</time>
      </trkpt>
      <trkpt lat="61.5858249273" lon="8.66436174139">
        <ele>1555.55</ele>
        <time>2012-08-08T13:57:52Z</time>
      </trkpt>
      <trkpt lat="61.5857498255" lon="8.66443994455">
        <ele>1554.11</ele>
        <time>2012-08-08T13:58:05Z</time>
      </trkpt>
      <trkpt lat="61.585746808" lon="8.66443516687">
        <ele>1554.59</ele>
        <time>2012-08-08T13:58:10Z</time>
      </trkpt>
      <trkpt lat="61.5857284516" lon="8.66443248466">
        <ele>1554.11</ele>
        <time>2012-08-08T13:58:12Z</time>
      </trkpt>
      <trkpt lat="61.5856548585" lon="8.6644199118">
        <ele>1553.63</ele>
        <time>2012-08-08T13:58:24Z</time>
      </trkpt>
      <trkpt lat="61.5856180619" lon="8.66444690153">
        <ele>1553.15</ele>
        <time>2012-08-08T13:58:29Z</time>
      </trkpt>
      <trkpt lat="61.5855157189" lon="8.66452082992">
        <ele>1553.15</ele>
        <time>2012-08-08T13:58:42Z</time>
      </trkpt>
      <trkpt lat="61.5854490828" lon="8.66463004611">
        <ele>1553.63</ele>
        <time>2012-08-08T13:58:55Z</time>
      </trkpt>
      <trkpt lat="61.5853303112" lon="8.66474647075">
        <ele>1553.63</ele>
        <time>2012-08-08T13:59:08Z</time>
      </trkpt>
      <trkpt lat="61.5852594003" lon="8.66485543549">
        <ele>1552.67</ele>
        <time>2012-08-08T13:59:18Z</time>
      </trkpt>
      <trkpt lat="61.5852121264" lon="8.66499574855">
        <ele>1552.67</ele>
        <time>2012-08-08T13:59:31Z</time>
      </trkpt>
      <trkpt lat="61.5852001403" lon="8.66504821926">
        <ele>1552.19</ele>
        <time>2012-08-08T13:59:35Z</time>
      </trkpt>
      <trkpt lat="61.5851466637" lon="8.66511628032">
        <ele>1551.22</ele>
        <time>2012-08-08T13:59:42Z</time>
      </trkpt>
      <trkpt lat="61.5850736573" lon="8.6652443558">
        <ele>1551.22</ele>
        <time>2012-08-08T13:59:51Z</time>
      </trkpt>
      <trkpt lat="61.5850475058" lon="8.66526547819">
        <ele>1551.71</ele>
        <time>2012-08-08T13:59:54Z</time>
      </trkpt>
      <trkpt lat="61.5850193426" lon="8.66529682651">
        <ele>1551.22</ele>
        <time>2012-08-08T13:59:58Z</time>
      </trkpt>
      <trkpt lat="61.5848994814" lon="8.66540302522">
        <ele>1550.74</ele>
        <time>2012-08-08T14:00:12Z</time>
      </trkpt>
      <trkpt lat="61.5847981442" lon="8.66547175683">
        <ele>1551.71</ele>
        <time>2012-08-08T14:00:24Z</time>
      </trkpt>
      <trkpt lat="61.5847610123" lon="8.66548474878">
        <ele>1551.22</ele>
        <time>2012-08-08T14:00:28Z</time>
      </trkpt>
      <trkpt lat="61.5847269818" lon="8.66557066329">
        <ele>1551.22</ele>
        <time>2012-08-08T14:00:34Z</time>
      </trkpt>
      <trkpt lat="61.5846144967" lon="8.66569823585">
        <ele>1551.22</ele>
        <time>2012-08-08T14:00:48Z</time>
      </trkpt>
      <trkpt lat="61.5845906921" lon="8.66572556086">
        <ele>1551.71</ele>
        <time>2012-08-08T14:00:52Z</time>
      </trkpt>
      <trkpt lat="61.5844881814" lon="8.66574978456">
        <ele>1551.22</ele>
        <time>2012-08-08T14:01:05Z</time>
      </trkpt>
      <trkpt lat="61.5844759438" lon="8.66571709514">
        <ele>1551.22</ele>
        <time>2012-08-08T14:01:18Z</time>
      </trkpt>
      <trkpt lat="61.5844497923" lon="8.66584885865">
        <ele>1551.71</ele>
        <time>2012-08-08T14:01:40Z</time>
      </trkpt>
      <trkpt lat="61.5844198689" lon="8.66588314064">
        <ele>1551.71</ele>
        <time>2012-08-08T14:01:52Z</time>
      </trkpt>
      <trkpt lat="61.5844112355" lon="8.66588800214">
        <ele>1552.19</ele>
        <time>2012-08-08T14:02:10Z</time>
      </trkpt>
      <trkpt lat="61.5844056197" lon="8.6659142375">
        <ele>1550.74</ele>
        <time>2012-08-08T14:02:16Z</time>
      </trkpt>
      <trkpt lat="61.584403608" lon="8.66591272876">
        <ele>1550.74</ele>
        <time>2012-08-08T14:02:17Z</time>
      </trkpt>
      <trkpt lat="61.5844386443" lon="8.66592488252">
        <ele>1552.19</ele>
        <time>2012-08-08T14:02:25Z</time>
      </trkpt>
      <trkpt lat="61.5844427515" lon="8.6659662053">
        <ele>1552.19</ele>
        <time>2012-08-08T14:02:35Z</time>
      </trkpt>
      <trkpt lat="61.5843736846" lon="8.66598280147">
        <ele>1551.71</ele>
        <time>2012-08-08T14:02:48Z</time>
      </trkpt>
      <trkpt lat="61.5843453538" lon="8.66603191942">
        <ele>1552.19</ele>
        <time>2012-08-08T14:03:02Z</time>
      </trkpt>
      <trkpt lat="61.5843106527" lon="8.66606192663">
        <ele>1552.67</ele>
        <time>2012-08-08T14:03:16Z</time>
      </trkpt>
      <trkpt lat="61.5842663124" lon="8.66618572734">
        <ele>1552.67</ele>
        <time>2012-08-08T14:03:36Z</time>
      </trkpt>
      <trkpt lat="61.5842349641" lon="8.666223865">
        <ele>1553.15</ele>
        <time>2012-08-08T14:03:41Z</time>
      </trkpt>
      <trkpt lat="61.5841743629" lon="8.66637792438">
        <ele>1552.19</ele>
        <time>2012-08-08T14:03:55Z</time>
      </trkpt>
      <trkpt lat="61.58413128" lon="8.66645269096">
        <ele>1553.63</ele>
        <time>2012-08-08T14:04:07Z</time>
      </trkpt>
      <trkpt lat="61.5841223113" lon="8.66645663045">
        <ele>1552.67</ele>
        <time>2012-08-08T14:04:33Z</time>
      </trkpt>
      <trkpt lat="61.5840753727" lon="8.66647741757">
        <ele>1552.67</ele>
        <time>2012-08-08T14:04:51Z</time>
      </trkpt>
      <trkpt lat="61.5839629713" lon="8.66663214751">
        <ele>1553.15</ele>
        <time>2012-08-08T14:05:04Z</time>
      </trkpt>
      <trkpt lat="61.5839105844" lon="8.66665553302">
        <ele>1554.11</ele>
        <time>2012-08-08T14:05:10Z</time>
      </trkpt>
      <trkpt lat="61.5838679206" lon="8.66667129099">
        <ele>1551.71</ele>
        <time>2012-08-08T14:05:17Z</time>
      </trkpt>
      <trkpt lat="61.5838679206" lon="8.66669668816">
        <ele>1552.67</ele>
        <time>2012-08-08T14:05:22Z</time>
      </trkpt>
      <trkpt lat="61.5838585328" lon="8.66671739146">
        <ele>1552.67</ele>
        <time>2012-08-08T14:05:24Z</time>
      </trkpt>
      <trkpt lat="61.5837684274" lon="8.66676365957">
        <ele>1552.67</ele>
        <time>2012-08-08T14:05:37Z</time>
      </trkpt>
      <trkpt lat="61.5836562775" lon="8.66689911112">
        <ele>1551.71</ele>
        <time>2012-08-08T14:05:48Z</time>
      </trkpt>
      <trkpt lat="61.5836285334" lon="8.66693121381">
        <ele>1552.67</ele>
        <time>2012-08-08T14:05:52Z</time>
      </trkpt>
      <trkpt lat="61.5835178085" lon="8.66695065983">
        <ele>1551.22</ele>
        <time>2012-08-08T14:06:03Z</time>
      </trkpt>
      <trkpt lat="61.5834044013" lon="8.6671540048">
        <ele>1550.74</ele>
        <time>2012-08-08T14:06:17Z</time>
      </trkpt>
      <trkpt lat="61.583292" lon="8.66725031286">
        <ele>1549.78</ele>
        <time>2012-08-08T14:06:29Z</time>
      </trkpt>
      <trkpt lat="61.5832541976" lon="8.66728534922">
        <ele>1549.3</ele>
        <time>2012-08-08T14:06:33Z</time>
      </trkpt>
      <trkpt lat="61.583211869" lon="8.66731703281">
        <ele>1549.78</ele>
        <time>2012-08-08T14:06:37Z</time>
      </trkpt>
      <trkpt lat="61.5831653494" lon="8.66737537086">
        <ele>1549.3</ele>
        <time>2012-08-08T14:06:43Z</time>
      </trkpt>
      <trkpt lat="61.5830470808" lon="8.66749062203">
        <ele>1548.82</ele>
        <time>2012-08-08T14:06:57Z</time>
      </trkpt>
      <trkpt lat="61.5830293112" lon="8.66751233116">
        <ele>1548.34</ele>
        <time>2012-08-08T14:06:59Z</time>
      </trkpt>
      <trkpt lat="61.5829320811" lon="8.66769111715">
        <ele>1547.38</ele>
        <time>2012-08-08T14:07:12Z</time>
      </trkpt>
      <trkpt lat="61.5828848071" lon="8.66772992536">
        <ele>1547.86</ele>
        <time>2012-08-08T14:07:17Z</time>
      </trkpt>
      <trkpt lat="61.5827679634" lon="8.66789102554">
        <ele>1547.86</ele>
        <time>2012-08-08T14:07:31Z</time>
      </trkpt>
      <trkpt lat="61.5827560611" lon="8.66791156121">
        <ele>1547.86</ele>
        <time>2012-08-08T14:07:33Z</time>
      </trkpt>
      <trkpt lat="61.5826501977" lon="8.66804206744">
        <ele>1546.42</ele>
        <time>2012-08-08T14:07:45Z</time>
      </trkpt>
      <trkpt lat="61.5826437436" lon="8.66804315709">
        <ele>1546.42</ele>
        <time>2012-08-08T14:07:47Z</time>
      </trkpt>
      <trkpt lat="61.5826319251" lon="8.66805891506">
        <ele>1546.42</ele>
        <time>2012-08-08T14:07:49Z</time>
      </trkpt>
      <trkpt lat="61.5825339407" lon="8.66826016456">
        <ele>1546.42</ele>
        <time>2012-08-08T14:08:06Z</time>
      </trkpt>
      <trkpt lat="61.5824686456" lon="8.6683277227">
        <ele>1545.94</ele>
        <time>2012-08-08T14:08:14Z</time>
      </trkpt>
      <trkpt lat="61.5823765285" lon="8.66848949343">
        <ele>1545.94</ele>
        <time>2012-08-08T14:08:30Z</time>
      </trkpt>
      <trkpt lat="61.582303606" lon="8.66857004352">
        <ele>1546.42</ele>
        <time>2012-08-08T14:08:40Z</time>
      </trkpt>
      <trkpt lat="61.5822449327" lon="8.66867766716">
        <ele>1547.86</ele>
        <time>2012-08-08T14:08:53Z</time>
      </trkpt>
      <trkpt lat="61.5821694117" lon="8.6688346602">
        <ele>1548.34</ele>
        <time>2012-08-08T14:09:07Z</time>
      </trkpt>
      <trkpt lat="61.5821508039" lon="8.6688852869">
        <ele>1547.38</ele>
        <time>2012-08-08T14:09:21Z</time>
      </trkpt>
      <trkpt lat="61.5821523964" lon="8.66889266297">
        <ele>1547.38</ele>
        <time>2012-08-08T14:09:22Z</time>
      </trkpt>
      <trkpt lat="61.5821613651" lon="8.66891697049">
        <ele>1548.82</ele>
        <time>2012-08-08T14:09:24Z</time>
      </trkpt>
      <trkpt lat="61.5821596887" lon="8.66901235655">
        <ele>1548.34</ele>
        <time>2012-08-08T14:09:34Z</time>
      </trkpt>
      <trkpt lat="61.5821343753" lon="8.66896692663">
        <ele>1548.82</ele>
        <time>2012-08-08T14:10:00Z</time>
      </trkpt>
      <trkpt lat="61.5821365546" lon="8.66898033768">
        <ele>1547.86</ele>
        <time>2012-08-08T14:10:32Z</time>
      </trkpt>
      <trkpt lat="61.5821259096" lon="8.66897706874">
        <ele>1548.34</ele>
        <time>2012-08-08T14:10:57Z</time>
      </trkpt>
      <trkpt lat="61.5821270831" lon="8.66898310371">
        <ele>1547.86</ele>
        <time>2012-08-08T14:11:26Z</time>
      </trkpt>
      <trkpt lat="61.582131777" lon="8.6689786613">
        <ele>1547.86</ele>
        <time>2012-08-08T14:11:56Z</time>
      </trkpt>
      <trkpt lat="61.582138231" lon="8.66900229827">
        <ele>1547.86</ele>
        <time>2012-08-08T14:12:20Z</time>
      </trkpt>
      <trkpt lat="61.5821420029" lon="8.66901470348">
        <ele>1548.34</ele>
        <time>2012-08-08T14:12:44Z</time>
      </trkpt>
      <trkpt lat="61.5821078047" lon="8.66906650364">
        <ele>1548.34</ele>
        <time>2012-08-08T14:13:04Z</time>
      </trkpt>
      <trkpt lat="61.5821026918" lon="8.6690878775">
        <ele>1548.34</ele>
        <time>2012-08-08T14:13:06Z</time>
      </trkpt>
      <trkpt lat="61.5820177831" lon="8.66928719915">
        <ele>1548.82</ele>
        <time>2012-08-08T14:13:20Z</time>
      </trkpt>
      <trkpt lat="61.5819860157" lon="8.66930161603">
        <ele>1546.9</ele>
        <time>2012-08-08T14:13:32Z</time>
      </trkpt>
      <trkpt lat="61.5819538292" lon="8.66932692938">
        <ele>1546.42</ele>
        <time>2012-08-08T14:13:36Z</time>
      </trkpt>
      <trkpt lat="61.581879314" lon="8.66932122968">
        <ele>1545.46</ele>
        <time>2012-08-08T14:13:41Z</time>
      </trkpt>
      <trkpt lat="61.5818247478" lon="8.66936582141">
        <ele>1545.46</ele>
        <time>2012-08-08T14:13:52Z</time>
      </trkpt>
      <trkpt lat="61.5818196349" lon="8.66938308813">
        <ele>1546.42</ele>
        <time>2012-08-08T14:13:59Z</time>
      </trkpt>
      <trkpt lat="61.5817359835" lon="8.6695912946">
        <ele>1546.42</ele>
        <time>2012-08-08T14:14:14Z</time>
      </trkpt>
      <trkpt lat="61.5817022044" lon="8.66965893656">
        <ele>1546.9</ele>
        <time>2012-08-08T14:14:21Z</time>
      </trkpt>
      <trkpt lat="61.5815851092" lon="8.66974577308">
        <ele>1546.9</ele>
        <time>2012-08-08T14:14:33Z</time>
      </trkpt>
      <trkpt lat="61.5815385059" lon="8.6698128283">
        <ele>1546.42</ele>
        <time>2012-08-08T14:14:47Z</time>
      </trkpt>
      <trkpt lat="61.5815352369" lon="8.66982389241">
        <ele>1546.42</ele>
        <time>2012-08-08T14:14:48Z</time>
      </trkpt>
      <trkpt lat="61.5814104304" lon="8.66993403062">
        <ele>1545.46</ele>
        <time>2012-08-08T14:15:03Z</time>
      </trkpt>
      <trkpt lat="61.5813777409" lon="8.6699581705">
        <ele>1545.46</ele>
        <time>2012-08-08T14:15:07Z</time>
      </trkpt>
      <trkpt lat="61.5812889766" lon="8.67003226653">
        <ele>1545.94</ele>
        <time>2012-08-08T14:15:20Z</time>
      </trkpt>
      <trkpt lat="61.5812474024" lon="8.67006788962">
        <ele>1545.46</ele>
        <time>2012-08-08T14:15:31Z</time>
      </trkpt>
      <trkpt lat="61.5812101029" lon="8.67011130787">
        <ele>1545.94</ele>
        <time>2012-08-08T14:15:41Z</time>
      </trkpt>
      <trkpt lat="61.5811111126" lon="8.67023569532">
        <ele>1544.98</ele>
        <time>2012-08-08T14:15:49Z</time>
      </trkpt>
      <trkpt lat="61.5811002161" lon="8.67026369087">
        <ele>1544.98</ele>
        <time>2012-08-08T14:15:50Z</time>
      </trkpt>
      <trkpt lat="61.5810481645" lon="8.6703113839">
        <ele>1544.98</ele>
        <time>2012-08-08T14:16:02Z</time>
      </trkpt>
      <trkpt lat="61.5810361784" lon="8.67034072056">
        <ele>1545.46</ele>
        <time>2012-08-08T14:16:05Z</time>
      </trkpt>
      <trkpt lat="61.5809753258" lon="8.6704100389">
        <ele>1544.5</ele>
        <time>2012-08-08T14:16:14Z</time>
      </trkpt>
      <trkpt lat="61.5809608251" lon="8.67043141276">
        <ele>1544.98</ele>
        <time>2012-08-08T14:16:15Z</time>
      </trkpt>
      <trkpt lat="61.5809507668" lon="8.67045043968">
        <ele>1544.5</ele>
        <time>2012-08-08T14:16:16Z</time>
      </trkpt>
      <trkpt lat="61.5809438098" lon="8.67046929896">
        <ele>1544.5</ele>
        <time>2012-08-08T14:16:17Z</time>
      </trkpt>
      <trkpt lat="61.5809337515" lon="8.67048497312">
        <ele>1544.5</ele>
        <time>2012-08-08T14:16:18Z</time>
      </trkpt>
      <trkpt lat="61.5808144771" lon="8.6706870608">
        <ele>1544.5</ele>
        <time>2012-08-08T14:16:32Z</time>
      </trkpt>
      <trkpt lat="61.5807903372" lon="8.6707218457">
        <ele>1544.5</ele>
        <time>2012-08-08T14:16:35Z</time>
      </trkpt>
      <trkpt lat="61.5807773452" lon="8.67073249072">
        <ele>1544.5</ele>
        <time>2012-08-08T14:16:36Z</time>
      </trkpt>
      <trkpt lat="61.5807116311" lon="8.67082905024">
        <ele>1544.5</ele>
        <time>2012-08-08T14:16:45Z</time>
      </trkpt>
      <trkpt lat="61.5806941967" lon="8.67084539495">
        <ele>1544.5</ele>
        <time>2012-08-08T14:16:47Z</time>
      </trkpt>
      <trkpt lat="61.5806183405" lon="8.67090792395">
        <ele>1544.01</ele>
        <time>2012-08-08T14:16:58Z</time>
      </trkpt>
      <trkpt lat="61.5806081146" lon="8.67089627311">
        <ele>1544.01</ele>
        <time>2012-08-08T14:17:00Z</time>
      </trkpt>
      <trkpt lat="61.5805733297" lon="8.67087808438">
        <ele>1543.53</ele>
        <time>2012-08-08T14:17:04Z</time>
      </trkpt>
      <trkpt lat="61.5805611759" lon="8.6709570419">
        <ele>1543.53</ele>
        <time>2012-08-08T14:17:17Z</time>
      </trkpt>
      <trkpt lat="61.5805591643" lon="8.67103809491">
        <ele>1544.5</ele>
        <time>2012-08-08T14:17:29Z</time>
      </trkpt>
      <trkpt lat="61.5805478487" lon="8.67104689591">
        <ele>1544.5</ele>
        <time>2012-08-08T14:17:37Z</time>
      </trkpt>
      <trkpt lat="61.5805162489" lon="8.67109023035">
        <ele>1544.01</ele>
        <time>2012-08-08T14:17:48Z</time>
      </trkpt>
      <trkpt lat="61.5804871637" lon="8.67113792337">
        <ele>1544.01</ele>
        <time>2012-08-08T14:17:54Z</time>
      </trkpt>
      <trkpt lat="61.5804527979" lon="8.6711961776">
        <ele>1544.5</ele>
        <time>2012-08-08T14:17:58Z</time>
      </trkpt>
      <trkpt lat="61.5803979803" lon="8.67130304687">
        <ele>1544.5</ele>
        <time>2012-08-08T14:18:07Z</time>
      </trkpt>
      <trkpt lat="61.5803944599" lon="8.67133204825">
        <ele>1544.98</ele>
        <time>2012-08-08T14:18:09Z</time>
      </trkpt>
      <trkpt lat="61.5803631116" lon="8.67140430026">
        <ele>1544.5</ele>
        <time>2012-08-08T14:18:16Z</time>
      </trkpt>
      <trkpt lat="61.5803446714" lon="8.67143254727">
        <ele>1544.98</ele>
        <time>2012-08-08T14:18:19Z</time>
      </trkpt>
      <trkpt lat="61.5803286619" lon="8.6714612972">
        <ele>1544.5</ele>
        <time>2012-08-08T14:18:21Z</time>
      </trkpt>
      <trkpt lat="61.5802678093" lon="8.67156766355">
        <ele>1544.98</ele>
        <time>2012-08-08T14:18:31Z</time>
      </trkpt>
      <trkpt lat="61.5802247263" lon="8.67160479538">
        <ele>1544.5</ele>
        <time>2012-08-08T14:18:36Z</time>
      </trkpt>
      <trkpt lat="61.5801127441" lon="8.67174963467">
        <ele>1544.5</ele>
        <time>2012-08-08T14:18:52Z</time>
      </trkpt>
      <trkpt lat="61.5800102334" lon="8.67182247341">
        <ele>1544.01</ele>
        <time>2012-08-08T14:19:05Z</time>
      </trkpt>
      <trkpt lat="61.5798772126" lon="8.67191500962">
        <ele>1544.01</ele>
        <time>2012-08-08T14:19:21Z</time>
      </trkpt>
      <trkpt lat="61.5798241552" lon="8.67192288861">
        <ele>1544.98</ele>
        <time>2012-08-08T14:19:30Z</time>
      </trkpt>
      <trkpt lat="61.5797400009" lon="8.67201324552">
        <ele>1544.01</ele>
        <time>2012-08-08T14:19:44Z</time>
      </trkpt>
      <trkpt lat="61.5797363129" lon="8.67203093134">
        <ele>1544.5</ele>
        <time>2012-08-08T14:19:45Z</time>
      </trkpt>
      <trkpt lat="61.5796124283" lon="8.67212916724">
        <ele>1544.01</ele>
        <time>2012-08-08T14:19:58Z</time>
      </trkpt>
      <trkpt lat="61.5795298666" lon="8.67225514725">
        <ele>1543.05</ele>
        <time>2012-08-08T14:20:09Z</time>
      </trkpt>
      <trkpt lat="61.5794299543" lon="8.67237014696">
        <ele>1543.53</ele>
        <time>2012-08-08T14:20:22Z</time>
      </trkpt>
      <trkpt lat="61.5794074908" lon="8.67242094129">
        <ele>1543.53</ele>
        <time>2012-08-08T14:20:26Z</time>
      </trkpt>
      <trkpt lat="61.5793961752" lon="8.67243703455">
        <ele>1543.05</ele>
        <time>2012-08-08T14:20:28Z</time>
      </trkpt>
      <trkpt lat="61.5793753881" lon="8.67250425741">
        <ele>1542.57</ele>
        <time>2012-08-08T14:20:33Z</time>
      </trkpt>
      <trkpt lat="61.579330042" lon="8.67254616693">
        <ele>1543.05</ele>
        <time>2012-08-08T14:20:38Z</time>
      </trkpt>
      <trkpt lat="61.5792560298" lon="8.67264130153">
        <ele>1543.05</ele>
        <time>2012-08-08T14:20:52Z</time>
      </trkpt>
      <trkpt lat="61.5792162996" lon="8.67267130874">
        <ele>1543.05</ele>
        <time>2012-08-08T14:20:59Z</time>
      </trkpt>
      <trkpt lat="61.579132732" lon="8.67282318883">
        <ele>1543.05</ele>
        <time>2012-08-08T14:21:12Z</time>
      </trkpt>
      <trkpt lat="61.5790845361" lon="8.67290223017">
        <ele>1544.01</ele>
        <time>2012-08-08T14:21:19Z</time>
      </trkpt>
      <trkpt lat="61.5789838694" lon="8.67307296954">
        <ele>1543.53</ele>
        <time>2012-08-08T14:21:32Z</time>
      </trkpt>
      <trkpt lat="61.5788666904" lon="8.6732458882">
        <ele>1544.01</ele>
        <time>2012-08-08T14:21:41Z</time>
      </trkpt>
      <trkpt lat="61.5788033232" lon="8.67335828952">
        <ele>1546.42</ele>
        <time>2012-08-08T14:21:55Z</time>
      </trkpt>
      <trkpt lat="61.5787712205" lon="8.67337413132">
        <ele>1545.94</ele>
        <time>2012-08-08T14:22:07Z</time>
      </trkpt>
      <trkpt lat="61.5787554625" lon="8.67335150018">
        <ele>1543.05</ele>
        <time>2012-08-08T14:22:14Z</time>
      </trkpt>
      <trkpt lat="61.5787632577" lon="8.6733467225">
        <ele>1545.94</ele>
        <time>2012-08-08T14:22:19Z</time>
      </trkpt>
      <trkpt lat="61.5787644312" lon="8.67335644551">
        <ele>1545.94</ele>
        <time>2012-08-08T14:22:20Z</time>
      </trkpt>
      <trkpt lat="61.5787662752" lon="8.67345971055">
        <ele>1546.42</ele>
        <time>2012-08-08T14:22:30Z</time>
      </trkpt>
      <trkpt lat="61.5787748247" lon="8.67344026454">
        <ele>1544.5</ele>
        <time>2012-08-08T14:22:44Z</time>
      </trkpt>
      <trkpt lat="61.5787568875" lon="8.67343842052">
        <ele>1545.46</ele>
        <time>2012-08-08T14:23:00Z</time>
      </trkpt>
      <trkpt lat="61.5787472483" lon="8.67342685349">
        <ele>1544.98</ele>
        <time>2012-08-08T14:23:19Z</time>
      </trkpt>
      <trkpt lat="61.5787455719" lon="8.67342350073">
        <ele>1544.98</ele>
        <time>2012-08-08T14:23:40Z</time>
      </trkpt>
      <trkpt lat="61.578742303" lon="8.673396511">
        <ele>1544.5</ele>
        <time>2012-08-08T14:23:57Z</time>
      </trkpt>
      <trkpt lat="61.5787192527" lon="8.67340330034">
        <ele>1544.5</ele>
        <time>2012-08-08T14:24:21Z</time>
      </trkpt>
      <trkpt lat="61.5787372738" lon="8.67339659482">
        <ele>1544.5</ele>
        <time>2012-08-08T14:24:53Z</time>
      </trkpt>
      <trkpt lat="61.5787324961" lon="8.6734224949">
        <ele>1544.01</ele>
        <time>2012-08-08T14:25:18Z</time>
      </trkpt>
      <trkpt lat="61.5787413809" lon="8.67342031561">
        <ele>1544.98</ele>
        <time>2012-08-08T14:25:39Z</time>
      </trkpt>
      <trkpt lat="61.5787477512" lon="8.67340774275">
        <ele>1544.98</ele>
        <time>2012-08-08T14:26:03Z</time>
      </trkpt>
      <trkpt lat="61.5787600726" lon="8.67339433171">
        <ele>1544.98</ele>
        <time>2012-08-08T14:26:34Z</time>
      </trkpt>
      <trkpt lat="61.5787687059" lon="8.6734035518">
        <ele>1544.5</ele>
        <time>2012-08-08T14:27:07Z</time>
      </trkpt>
      <trkpt lat="61.5787652694" lon="8.67339642718">
        <ele>1544.98</ele>
        <time>2012-08-08T14:27:37Z</time>
      </trkpt>
      <trkpt lat="61.5787868109" lon="8.67342886515">
        <ele>1543.53</ele>
        <time>2012-08-08T14:28:05Z</time>
      </trkpt>
      <trkpt lat="61.5787910856" lon="8.67342584766">
        <ele>1546.9</ele>
        <time>2012-08-08T14:28:08Z</time>
      </trkpt>
      <trkpt lat="61.5787814464" lon="8.67346113548">
        <ele>1546.42</ele>
        <time>2012-08-08T14:28:13Z</time>
      </trkpt>
      <trkpt lat="61.5787790995" lon="8.67347781546">
        <ele>1545.94</ele>
        <time>2012-08-08T14:28:14Z</time>
      </trkpt>
      <trkpt lat="61.5786832944" lon="8.67361754179">
        <ele>1544.98</ele>
        <time>2012-08-08T14:28:26Z</time>
      </trkpt>
      <trkpt lat="61.5786483418" lon="8.67371829227">
        <ele>1545.46</ele>
        <time>2012-08-08T14:28:39Z</time>
      </trkpt>
      <trkpt lat="61.5786586516" lon="8.67374637164">
        <ele>1545.46</ele>
        <time>2012-08-08T14:28:51Z</time>
      </trkpt>
      <trkpt lat="61.5786522813" lon="8.6737708468">
        <ele>1544.98</ele>
        <time>2012-08-08T14:28:52Z</time>
      </trkpt>
      <trkpt lat="61.5786092822" lon="8.67390403524">
        <ele>1544.5</ele>
        <time>2012-08-08T14:28:58Z</time>
      </trkpt>
      <trkpt lat="61.5785966255" lon="8.67391778156">
        <ele>1544.5</ele>
        <time>2012-08-08T14:28:59Z</time>
      </trkpt>
      <trkpt lat="61.5785847232" lon="8.67393035442">
        <ele>1544.01</ele>
        <time>2012-08-08T14:29:00Z</time>
      </trkpt>
      <trkpt lat="61.5785368625" lon="8.67395323701">
        <ele>1544.5</ele>
        <time>2012-08-08T14:29:05Z</time>
      </trkpt>
      <trkpt lat="61.5784874931" lon="8.67408634163">
        <ele>1544.98</ele>
        <time>2012-08-08T14:29:17Z</time>
      </trkpt>
      <trkpt lat="61.5784520376" lon="8.67418952286">
        <ele>1544.5</ele>
        <time>2012-08-08T14:29:28Z</time>
      </trkpt>
      <trkpt lat="61.5784517862" lon="8.67420276627">
        <ele>1544.01</ele>
        <time>2012-08-08T14:29:29Z</time>
      </trkpt>
      <trkpt lat="61.5784462541" lon="8.67421642877">
        <ele>1544.01</ele>
        <time>2012-08-08T14:29:30Z</time>
      </trkpt>
      <trkpt lat="61.5784391295" lon="8.67423570715">
        <ele>1544.01</ele>
        <time>2012-08-08T14:29:31Z</time>
      </trkpt>
      <trkpt lat="61.5784345195" lon="8.67425867356">
        <ele>1543.53</ele>
        <time>2012-08-08T14:29:32Z</time>
      </trkpt>
      <trkpt lat="61.578428233" lon="8.67427803576">
        <ele>1543.53</ele>
        <time>2012-08-08T14:29:33Z</time>
      </trkpt>
      <trkpt lat="61.5784139838" lon="8.67432053201">
        <ele>1543.05</ele>
        <time>2012-08-08T14:29:36Z</time>
      </trkpt>
      <trkpt lat="61.5783265606" lon="8.67442974821">
        <ele>1543.53</ele>
        <time>2012-08-08T14:29:49Z</time>
      </trkpt>
      <trkpt lat="61.5782079566" lon="8.67454416119">
        <ele>1543.53</ele>
        <time>2012-08-08T14:30:01Z</time>
      </trkpt>
      <trkpt lat="61.5780996624" lon="8.67466075346">
        <ele>1543.53</ele>
        <time>2012-08-08T14:30:12Z</time>
      </trkpt>
      <trkpt lat="61.5779887699" lon="8.67475748062">
        <ele>1543.05</ele>
        <time>2012-08-08T14:30:25Z</time>
      </trkpt>
      <trkpt lat="61.5778864268" lon="8.67486108094">
        <ele>1542.57</ele>
        <time>2012-08-08T14:30:36Z</time>
      </trkpt>
      <trkpt lat="61.577817779" lon="8.67500147782">
        <ele>1543.05</ele>
        <time>2012-08-08T14:30:46Z</time>
      </trkpt>
      <trkpt lat="61.5777394921" lon="8.67512628436">
        <ele>1542.57</ele>
        <time>2012-08-08T14:30:58Z</time>
      </trkpt>
      <trkpt lat="61.5775932278" lon="8.6752374284">
        <ele>1542.09</ele>
        <time>2012-08-08T14:31:14Z</time>
      </trkpt>
      <trkpt lat="61.5775359794" lon="8.67531605065">
        <ele>1541.61</ele>
        <time>2012-08-08T14:31:22Z</time>
      </trkpt>
      <trkpt lat="61.5774314571" lon="8.67542250082">
        <ele>1540.65</ele>
        <time>2012-08-08T14:31:34Z</time>
      </trkpt>
      <trkpt lat="61.5773910563" lon="8.67544479668">
        <ele>1541.13</ele>
        <time>2012-08-08T14:31:38Z</time>
      </trkpt>
      <trkpt lat="61.5773383342" lon="8.6754792463">
        <ele>1541.61</ele>
        <time>2012-08-08T14:31:44Z</time>
      </trkpt>
      <trkpt lat="61.5773293655" lon="8.675493747">
        <ele>1541.13</ele>
        <time>2012-08-08T14:31:45Z</time>
      </trkpt>
      <trkpt lat="61.5772655793" lon="8.67560832761">
        <ele>1541.13</ele>
        <time>2012-08-08T14:31:54Z</time>
      </trkpt>
      <trkpt lat="61.5772561915" lon="8.67562006228">
        <ele>1540.65</ele>
        <time>2012-08-08T14:31:55Z</time>
      </trkpt>
      <trkpt lat="61.5771615598" lon="8.67572106421">
        <ele>1540.17</ele>
        <time>2012-08-08T14:32:08Z</time>
      </trkpt>
      <trkpt lat="61.577155441" lon="8.67572944611">
        <ele>1538.73</ele>
        <time>2012-08-08T14:32:10Z</time>
      </trkpt>
      <trkpt lat="61.5771357436" lon="8.67575325072">
        <ele>1542.09</ele>
        <time>2012-08-08T14:32:14Z</time>
      </trkpt>
      <trkpt lat="61.5771239251" lon="8.67576096207">
        <ele>1540.65</ele>
        <time>2012-08-08T14:32:15Z</time>
      </trkpt>
      <trkpt lat="61.5771131963" lon="8.67576599121">
        <ele>1540.65</ele>
        <time>2012-08-08T14:32:16Z</time>
      </trkpt>
      <trkpt lat="61.5771052334" lon="8.67577722296">
        <ele>1540.17</ele>
        <time>2012-08-08T14:32:17Z</time>
      </trkpt>
      <trkpt lat="61.5770957619" lon="8.67579197511">
        <ele>1540.65</ele>
        <time>2012-08-08T14:32:18Z</time>
      </trkpt>
      <trkpt lat="61.5770857036" lon="8.67580303922">
        <ele>1540.65</ele>
        <time>2012-08-08T14:32:19Z</time>
      </trkpt>
      <trkpt lat="61.5770666767" lon="8.67583204061">
        <ele>1540.65</ele>
        <time>2012-08-08T14:32:22Z</time>
      </trkpt>
      <trkpt lat="61.576938685" lon="8.67599624209">
        <ele>1540.65</ele>
        <time>2012-08-08T14:32:36Z</time>
      </trkpt>
      <trkpt lat="61.5768407006" lon="8.67613010108">
        <ele>1540.17</ele>
        <time>2012-08-08T14:32:49Z</time>
      </trkpt>
      <trkpt lat="61.5768366773" lon="8.67611358874">
        <ele>1539.21</ele>
        <time>2012-08-08T14:32:53Z</time>
      </trkpt>
      <trkpt lat="61.5768641699" lon="8.67611157708">
        <ele>1537.77</ele>
        <time>2012-08-08T14:33:14Z</time>
      </trkpt>
      <trkpt lat="61.5768619906" lon="8.67614066228">
        <ele>1540.17</ele>
        <time>2012-08-08T14:33:16Z</time>
      </trkpt>
      <trkpt lat="61.5768453944" lon="8.67623294704">
        <ele>1540.17</ele>
        <time>2012-08-08T14:33:21Z</time>
      </trkpt>
      <trkpt lat="61.5768208355" lon="8.67636747658">
        <ele>1539.69</ele>
        <time>2012-08-08T14:33:34Z</time>
      </trkpt>
      <trkpt lat="61.5767763276" lon="8.67641123012">
        <ele>1537.77</ele>
        <time>2012-08-08T14:33:43Z</time>
      </trkpt>
      <trkpt lat="61.5767518524" lon="8.67644777521">
        <ele>1539.21</ele>
        <time>2012-08-08T14:33:52Z</time>
      </trkpt>
      <trkpt lat="61.5766878147" lon="8.67653142661">
        <ele>1538.73</ele>
        <time>2012-08-08T14:34:00Z</time>
      </trkpt>
      <trkpt lat="61.5765879862" lon="8.67669235915">
        <ele>1538.25</ele>
        <time>2012-08-08T14:34:13Z</time>
      </trkpt>
      <trkpt lat="61.5765588172" lon="8.67672747932">
        <ele>1538.73</ele>
        <time>2012-08-08T14:34:17Z</time>
      </trkpt>
      <trkpt lat="61.5765208472" lon="8.67676427588">
        <ele>1538.73</ele>
        <time>2012-08-08T14:34:21Z</time>
      </trkpt>
      <trkpt lat="61.5764719807" lon="8.67692252621">
        <ele>1539.69</ele>
        <time>2012-08-08T14:34:30Z</time>
      </trkpt>
      <trkpt lat="61.5764588211" lon="8.6769524496">
        <ele>1540.17</ele>
        <time>2012-08-08T14:34:32Z</time>
      </trkpt>
      <trkpt lat="61.5764334239" lon="8.67695228197">
        <ele>1539.21</ele>
        <time>2012-08-08T14:34:35Z</time>
      </trkpt>
      <trkpt lat="61.5763836354" lon="8.67710340768">
        <ele>1540.65</ele>
        <time>2012-08-08T14:34:49Z</time>
      </trkpt>
      <trkpt lat="61.5763770975" lon="8.67709946819">
        <ele>1539.69</ele>
        <time>2012-08-08T14:35:03Z</time>
      </trkpt>
      <trkpt lat="61.5763118025" lon="8.67720373906">
        <ele>1538.73</ele>
        <time>2012-08-08T14:35:14Z</time>
      </trkpt>
      <trkpt lat="61.5762100462" lon="8.67739216425">
        <ele>1538.25</ele>
        <time>2012-08-08T14:35:29Z</time>
      </trkpt>
      <trkpt lat="61.5761678014" lon="8.67746273987">
        <ele>1538.25</ele>
        <time>2012-08-08T14:35:36Z</time>
      </trkpt>
      <trkpt lat="61.5761552285" lon="8.67747631855">
        <ele>1538.73</ele>
        <time>2012-08-08T14:35:38Z</time>
      </trkpt>
      <trkpt lat="61.5761097148" lon="8.67754119448">
        <ele>1538.25</ele>
        <time>2012-08-08T14:35:44Z</time>
      </trkpt>
      <trkpt lat="61.5760129038" lon="8.67769642733">
        <ele>1537.29</ele>
        <time>2012-08-08T14:35:58Z</time>
      </trkpt>
      <trkpt lat="61.5759083815" lon="8.67783129215">
        <ele>1536.32</ele>
        <time>2012-08-08T14:36:12Z</time>
      </trkpt>
      <trkpt lat="61.5758731775" lon="8.67787831463">
        <ele>1534.4</ele>
        <time>2012-08-08T14:36:18Z</time>
      </trkpt>
      <trkpt lat="61.5758045297" lon="8.67798367515">
        <ele>1533.92</ele>
        <time>2012-08-08T14:36:36Z</time>
      </trkpt>
      <trkpt lat="61.5757569205" lon="8.6779843457">
        <ele>1534.88</ele>
        <time>2012-08-08T14:36:44Z</time>
      </trkpt>
      <trkpt lat="61.5756712575" lon="8.6780296918">
        <ele>1532</ele>
        <time>2012-08-08T14:36:57Z</time>
      </trkpt>
      <trkpt lat="61.5756401606" lon="8.67806422524">
        <ele>1532</ele>
        <time>2012-08-08T14:37:00Z</time>
      </trkpt>
      <trkpt lat="61.5756077226" lon="8.67808350362">
        <ele>1531.04</ele>
        <time>2012-08-08T14:37:02Z</time>
      </trkpt>
      <trkpt lat="61.5755855944" lon="8.67809012532">
        <ele>1532</ele>
        <time>2012-08-08T14:37:03Z</time>
      </trkpt>
      <trkpt lat="61.5755720157" lon="8.67810160853">
        <ele>1531.52</ele>
        <time>2012-08-08T14:37:04Z</time>
      </trkpt>
      <trkpt lat="61.5755586885" lon="8.6781129241">
        <ele>1531.04</ele>
        <time>2012-08-08T14:37:05Z</time>
      </trkpt>
      <trkpt lat="61.5755435172" lon="8.6781217251">
        <ele>1530.56</ele>
        <time>2012-08-08T14:37:06Z</time>
      </trkpt>
      <trkpt lat="61.5754459519" lon="8.67806464434">
        <ele>1530.08</ele>
        <time>2012-08-08T14:37:12Z</time>
      </trkpt>
      <trkpt lat="61.575426003" lon="8.67806321941">
        <ele>1530.08</ele>
        <time>2012-08-08T14:37:14Z</time>
      </trkpt>
      <trkpt lat="61.5754083171" lon="8.67808115669">
        <ele>1529.11</ele>
        <time>2012-08-08T14:37:15Z</time>
      </trkpt>
      <trkpt lat="61.5753374062" lon="8.67812004872">
        <ele>1528.63</ele>
        <time>2012-08-08T14:37:27Z</time>
      </trkpt>
      <trkpt lat="61.5753509011" lon="8.67813865654">
        <ele>1528.63</ele>
        <time>2012-08-08T14:37:50Z</time>
      </trkpt>
      <trkpt lat="61.575337993" lon="8.67816388607">
        <ele>1529.11</ele>
        <time>2012-08-08T14:38:16Z</time>
      </trkpt>
      <trkpt lat="61.5753189661" lon="8.67820445448">
        <ele>1529.59</ele>
        <time>2012-08-08T14:38:39Z</time>
      </trkpt>
      <trkpt lat="61.5753063094" lon="8.67824887857">
        <ele>1529.11</ele>
        <time>2012-08-08T14:38:58Z</time>
      </trkpt>
      <trkpt lat="61.5753187146" lon="8.67822205648">
        <ele>1530.56</ele>
        <time>2012-08-08T14:39:06Z</time>
      </trkpt>
      <trkpt lat="61.5752999391" lon="8.67825491354">
        <ele>1529.11</ele>
        <time>2012-08-08T14:39:11Z</time>
      </trkpt>
      <trkpt lat="61.575287953" lon="8.67828852497">
        <ele>1529.11</ele>
        <time>2012-08-08T14:39:13Z</time>
      </trkpt>
      <trkpt lat="61.5752318781" lon="8.6784520559">
        <ele>1529.11</ele>
        <time>2012-08-08T14:39:25Z</time>
      </trkpt>
      <trkpt lat="61.5751943272" lon="8.6785040237">
        <ele>1528.63</ele>
        <time>2012-08-08T14:39:30Z</time>
      </trkpt>
      <trkpt lat="61.5751057304" lon="8.67866428569">
        <ele>1527.67</ele>
        <time>2012-08-08T14:39:41Z</time>
      </trkpt>
      <trkpt lat="61.575048482" lon="8.67874584161">
        <ele>1526.23</ele>
        <time>2012-08-08T14:39:47Z</time>
      </trkpt>
      <trkpt lat="61.5750361606" lon="8.67875791155">
        <ele>1526.71</ele>
        <time>2012-08-08T14:39:48Z</time>
      </trkpt>
      <trkpt lat="61.575024426" lon="8.67877601646">
        <ele>1526.23</ele>
        <time>2012-08-08T14:39:49Z</time>
      </trkpt>
      <trkpt lat="61.5749068279" lon="8.67888707668">
        <ele>1525.27</ele>
        <time>2012-08-08T14:40:02Z</time>
      </trkpt>
      <trkpt lat="61.5748620685" lon="8.67888615467">
        <ele>1524.31</ele>
        <time>2012-08-08T14:40:07Z</time>
      </trkpt>
      <trkpt lat="61.574832648" lon="8.67889847606">
        <ele>1525.27</ele>
        <time>2012-08-08T14:40:11Z</time>
      </trkpt>
      <trkpt lat="61.5748063289" lon="8.67885916494">
        <ele>1522.39</ele>
        <time>2012-08-08T14:40:15Z</time>
      </trkpt>
      <trkpt lat="61.5747775789" lon="8.67885539308">
        <ele>1522.87</ele>
        <time>2012-08-08T14:40:20Z</time>
      </trkpt>
      <trkpt lat="61.5747629944" lon="8.67886796594">
        <ele>1521.42</ele>
        <time>2012-08-08T14:40:25Z</time>
      </trkpt>
      <trkpt lat="61.5746922512" lon="8.6789435707">
        <ele>1520.94</ele>
        <time>2012-08-08T14:40:38Z</time>
      </trkpt>
      <trkpt lat="61.5746830311" lon="8.67895731702">
        <ele>1520.94</ele>
        <time>2012-08-08T14:40:39Z</time>
      </trkpt>
      <trkpt lat="61.574672889" lon="8.67895899341">
        <ele>1520.94</ele>
        <time>2012-08-08T14:40:40Z</time>
      </trkpt>
      <trkpt lat="61.5746512637" lon="8.6789541319">
        <ele>1520.46</ele>
        <time>2012-08-08T14:40:45Z</time>
      </trkpt>
      <trkpt lat="61.5746269561" lon="8.67896536365">
        <ele>1520.46</ele>
        <time>2012-08-08T14:40:48Z</time>
      </trkpt>
      <trkpt lat="61.5745948534" lon="8.67894826457">
        <ele>1519.02</ele>
        <time>2012-08-08T14:40:51Z</time>
      </trkpt>
      <trkpt lat="61.5745795984" lon="8.67893057875">
        <ele>1519.98</ele>
        <time>2012-08-08T14:40:52Z</time>
      </trkpt>
      <trkpt lat="61.5745030716" lon="8.67892202921">
        <ele>1518.06</ele>
        <time>2012-08-08T14:41:00Z</time>
      </trkpt>
      <trkpt lat="61.5744638443" lon="8.67892554961">
        <ele>1518.06</ele>
        <time>2012-08-08T14:41:04Z</time>
      </trkpt>
      <trkpt lat="61.5744094457" lon="8.67899017408">
        <ele>1518.54</ele>
        <time>2012-08-08T14:41:13Z</time>
      </trkpt>
      <trkpt lat="61.5744008962" lon="8.6790047586">
        <ele>1518.54</ele>
        <time>2012-08-08T14:41:14Z</time>
      </trkpt>
      <trkpt lat="61.5743458271" lon="8.6790739093">
        <ele>1516.62</ele>
        <time>2012-08-08T14:41:20Z</time>
      </trkpt>
      <trkpt lat="61.5743361041" lon="8.67909251712">
        <ele>1517.1</ele>
        <time>2012-08-08T14:41:21Z</time>
      </trkpt>
      <trkpt lat="61.5742692165" lon="8.67916032672">
        <ele>1516.62</ele>
        <time>2012-08-08T14:41:30Z</time>
      </trkpt>
      <trkpt lat="61.5742527042" lon="8.67915102281">
        <ele>1515.66</ele>
        <time>2012-08-08T14:41:31Z</time>
      </trkpt>
      <trkpt lat="61.5742383711" lon="8.67915194482">
        <ele>1516.62</ele>
        <time>2012-08-08T14:41:32Z</time>
      </trkpt>
      <trkpt lat="61.5742232837" lon="8.67914414965">
        <ele>1516.62</ele>
        <time>2012-08-08T14:41:33Z</time>
      </trkpt>
      <trkpt lat="61.5742108785" lon="8.67913928814">
        <ele>1515.66</ele>
        <time>2012-08-08T14:41:34Z</time>
      </trkpt>
      <trkpt lat="61.5742013231" lon="8.67914213799">
        <ele>1515.66</ele>
        <time>2012-08-08T14:41:35Z</time>
      </trkpt>
      <trkpt lat="61.5741752554" lon="8.67919444107">
        <ele>1515.18</ele>
        <time>2012-08-08T14:41:39Z</time>
      </trkpt>
      <trkpt lat="61.574123539" lon="8.67927867919">
        <ele>1513.73</ele>
        <time>2012-08-08T14:41:49Z</time>
      </trkpt>
      <trkpt lat="61.5741137322" lon="8.6792972032">
        <ele>1513.73</ele>
        <time>2012-08-08T14:41:50Z</time>
      </trkpt>
      <trkpt lat="61.5740880836" lon="8.67935470305">
        <ele>1513.73</ele>
        <time>2012-08-08T14:41:54Z</time>
      </trkpt>
      <trkpt lat="61.5740814619" lon="8.67936970666">
        <ele>1513.73</ele>
        <time>2012-08-08T14:41:55Z</time>
      </trkpt>
      <trkpt lat="61.574043911" lon="8.67944346741">
        <ele>1513.25</ele>
        <time>2012-08-08T14:42:01Z</time>
      </trkpt>
      <trkpt lat="61.5740341879" lon="8.67946391925">
        <ele>1513.25</ele>
        <time>2012-08-08T14:42:02Z</time>
      </trkpt>
      <trkpt lat="61.574023962" lon="8.67948076688">
        <ele>1513.73</ele>
        <time>2012-08-08T14:42:03Z</time>
      </trkpt>
      <trkpt lat="61.5740021691" lon="8.67952569388">
        <ele>1513.25</ele>
        <time>2012-08-08T14:42:06Z</time>
      </trkpt>
      <trkpt lat="61.5739455912" lon="8.67955796421">
        <ele>1511.33</ele>
        <time>2012-08-08T14:42:11Z</time>
      </trkpt>
      <trkpt lat="61.5739342757" lon="8.67956567556">
        <ele>1511.33</ele>
        <time>2012-08-08T14:42:12Z</time>
      </trkpt>
      <trkpt lat="61.5738812182" lon="8.67957858369">
        <ele>1510.85</ele>
        <time>2012-08-08T14:42:19Z</time>
      </trkpt>
      <trkpt lat="61.5738696512" lon="8.67956936359">
        <ele>1510.85</ele>
        <time>2012-08-08T14:42:20Z</time>
      </trkpt>
      <trkpt lat="61.5738589223" lon="8.679565005">
        <ele>1510.37</ele>
        <time>2012-08-08T14:42:21Z</time>
      </trkpt>
      <trkpt lat="61.5738469362" lon="8.67956877686">
        <ele>1510.37</ele>
        <time>2012-08-08T14:42:22Z</time>
      </trkpt>
      <trkpt lat="61.5738217067" lon="8.67956793867">
        <ele>1509.89</ele>
        <time>2012-08-08T14:42:25Z</time>
      </trkpt>
      <trkpt lat="61.5737919509" lon="8.67957288399">
        <ele>1509.41</ele>
        <time>2012-08-08T14:42:28Z</time>
      </trkpt>
      <trkpt lat="61.5737788752" lon="8.6795667652">
        <ele>1508.93</ele>
        <time>2012-08-08T14:42:29Z</time>
      </trkpt>
      <trkpt lat="61.5737334453" lon="8.67961688899">
        <ele>1507.48</ele>
        <time>2012-08-08T14:42:35Z</time>
      </trkpt>
      <trkpt lat="61.5737016778" lon="8.67965636775">
        <ele>1507.48</ele>
        <time>2012-08-08T14:42:41Z</time>
      </trkpt>
      <trkpt lat="61.5736735985" lon="8.67969165556">
        <ele>1506.52</ele>
        <time>2012-08-08T14:42:45Z</time>
      </trkpt>
      <trkpt lat="61.5736625344" lon="8.67970364168">
        <ele>1506.52</ele>
        <time>2012-08-08T14:42:46Z</time>
      </trkpt>
      <trkpt lat="61.5736471117" lon="8.67974982597">
        <ele>1505.56</ele>
        <time>2012-08-08T14:42:50Z</time>
      </trkpt>
      <trkpt lat="61.5736569185" lon="8.67977262475">
        <ele>1504.6</ele>
        <time>2012-08-08T14:43:05Z</time>
      </trkpt>
      <trkpt lat="61.5736278333" lon="8.67977941409">
        <ele>1505.56</ele>
        <time>2012-08-08T14:43:24Z</time>
      </trkpt>
      <trkpt lat="61.5736308508" lon="8.67980958894">
        <ele>1505.56</ele>
        <time>2012-08-08T14:43:52Z</time>
      </trkpt>
      <trkpt lat="61.5736406576" lon="8.67980623618">
        <ele>1504.6</ele>
        <time>2012-08-08T14:44:18Z</time>
      </trkpt>
      <trkpt lat="61.5736319404" lon="8.67982861586">
        <ele>1505.56</ele>
        <time>2012-08-08T14:44:51Z</time>
      </trkpt>
      <trkpt lat="61.5736354608" lon="8.67979458533">
        <ele>1505.56</ele>
        <time>2012-08-08T14:45:27Z</time>
      </trkpt>
      <trkpt lat="61.5736445133" lon="8.67980875075">
        <ele>1505.56</ele>
        <time>2012-08-08T14:46:00Z</time>
      </trkpt>
      <trkpt lat="61.5736521408" lon="8.67981696501">
        <ele>1505.08</ele>
        <time>2012-08-08T14:46:27Z</time>
      </trkpt>
      <trkpt lat="61.5736280847" lon="8.6798059009">
        <ele>1505.08</ele>
        <time>2012-08-08T14:47:10Z</time>
      </trkpt>
      <trkpt lat="61.5736169368" lon="8.67982056923">
        <ele>1505.56</ele>
        <time>2012-08-08T14:47:34Z</time>
      </trkpt>
      <trkpt lat="61.5735832416" lon="8.67983456701">
        <ele>1504.6</ele>
        <time>2012-08-08T14:47:47Z</time>
      </trkpt>
      <trkpt lat="61.5735223051" lon="8.67990916595">
        <ele>1504.12</ele>
        <time>2012-08-08T14:47:57Z</time>
      </trkpt>
      <trkpt lat="61.5735071339" lon="8.67990606464">
        <ele>1504.6</ele>
        <time>2012-08-08T14:47:58Z</time>
      </trkpt>
      <trkpt lat="61.5734999254" lon="8.67994696833">
        <ele>1503.64</ele>
        <time>2012-08-08T14:48:07Z</time>
      </trkpt>
      <trkpt lat="61.5734279249" lon="8.68004470132">
        <ele>1502.68</ele>
        <time>2012-08-08T14:48:20Z</time>
      </trkpt>
      <trkpt lat="61.5734140109" lon="8.68005065247">
        <ele>1502.68</ele>
        <time>2012-08-08T14:48:22Z</time>
      </trkpt>
      <trkpt lat="61.5733554214" lon="8.68012206629">
        <ele>1502.2</ele>
        <time>2012-08-08T14:48:33Z</time>
      </trkpt>
      <trkpt lat="61.5733247437" lon="8.68015886284">
        <ele>1500.76</ele>
        <time>2012-08-08T14:48:41Z</time>
      </trkpt>
      <trkpt lat="61.5732946526" lon="8.68019783869">
        <ele>1500.76</ele>
        <time>2012-08-08T14:48:52Z</time>
      </trkpt>
      <trkpt lat="61.5732755419" lon="8.68024469353">
        <ele>1499.31</ele>
        <time>2012-08-08T14:49:04Z</time>
      </trkpt>
      <trkpt lat="61.5732384939" lon="8.68028257973">
        <ele>1499.31</ele>
        <time>2012-08-08T14:49:16Z</time>
      </trkpt>
      <trkpt lat="61.5732166171" lon="8.68036807515">
        <ele>1499.31</ele>
        <time>2012-08-08T14:49:24Z</time>
      </trkpt>
      <trkpt lat="61.5731923934" lon="8.68038483895">
        <ele>1499.31</ele>
        <time>2012-08-08T14:49:27Z</time>
      </trkpt>
      <trkpt lat="61.5731736179" lon="8.68038886227">
        <ele>1498.83</ele>
        <time>2012-08-08T14:49:28Z</time>
      </trkpt>
      <trkpt lat="61.5730944928" lon="8.6804674007">
        <ele>1497.87</ele>
        <time>2012-08-08T14:49:39Z</time>
      </trkpt>
      <trkpt lat="61.5730749629" lon="8.68054174818">
        <ele>1495.95</ele>
        <time>2012-08-08T14:49:50Z</time>
      </trkpt>
      <trkpt lat="61.5730611328" lon="8.68055172265">
        <ele>1495.47</ele>
        <time>2012-08-08T14:49:51Z</time>
      </trkpt>
      <trkpt lat="61.5730369091" lon="8.68063688278">
        <ele>1495.95</ele>
        <time>2012-08-08T14:50:00Z</time>
      </trkpt>
      <trkpt lat="61.5730136912" lon="8.68068826385">
        <ele>1495.95</ele>
        <time>2012-08-08T14:50:03Z</time>
      </trkpt>
      <trkpt lat="61.5730019566" lon="8.68070092052">
        <ele>1495.47</ele>
        <time>2012-08-08T14:50:04Z</time>
      </trkpt>
      <trkpt lat="61.5729886293" lon="8.68070896715">
        <ele>1495.47</ele>
        <time>2012-08-08T14:50:05Z</time>
      </trkpt>
      <trkpt lat="61.5729758888" lon="8.68071550503">
        <ele>1495.95</ele>
        <time>2012-08-08T14:50:06Z</time>
      </trkpt>
      <trkpt lat="61.572966082" lon="8.68072053418">
        <ele>1495.95</ele>
        <time>2012-08-08T14:50:07Z</time>
      </trkpt>
      <trkpt lat="61.5728743002" lon="8.68089714088">
        <ele>1495.95</ele>
        <time>2012-08-08T14:50:19Z</time>
      </trkpt>
      <trkpt lat="61.572862817" lon="8.68093946949">
        <ele>1495.47</ele>
        <time>2012-08-08T14:50:21Z</time>
      </trkpt>
      <trkpt lat="61.572854938" lon="8.68101976812">
        <ele>1494.99</ele>
        <time>2012-08-08T14:50:25Z</time>
      </trkpt>
      <trkpt lat="61.5728505794" lon="8.68104415946">
        <ele>1494.51</ele>
        <time>2012-08-08T14:50:26Z</time>
      </trkpt>
      <trkpt lat="61.5728173032" lon="8.68124498986">
        <ele>1495.47</ele>
        <time>2012-08-08T14:50:37Z</time>
      </trkpt>
      <trkpt lat="61.5727530979" lon="8.68151488714">
        <ele>1494.99</ele>
        <time>2012-08-08T14:50:49Z</time>
      </trkpt>
      <trkpt lat="61.5726639982" lon="8.68174245581">
        <ele>1493.55</ele>
        <time>2012-08-08T14:51:03Z</time>
      </trkpt>
      <trkpt lat="61.5726633277" lon="8.68175930344">
        <ele>1492.58</ele>
        <time>2012-08-08T14:51:15Z</time>
      </trkpt>
      <trkpt lat="61.5726577956" lon="8.68179584853">
        <ele>1492.1</ele>
        <time>2012-08-08T14:51:32Z</time>
      </trkpt>
      <trkpt lat="61.5726650041" lon="8.68175603449">
        <ele>1492.1</ele>
        <time>2012-08-08T14:51:45Z</time>
      </trkpt>
      <trkpt lat="61.5726577956" lon="8.681769697">
        <ele>1491.62</ele>
        <time>2012-08-08T14:51:59Z</time>
      </trkpt>
      <trkpt lat="61.5726362541" lon="8.68177673779">
        <ele>1491.14</ele>
        <time>2012-08-08T14:52:19Z</time>
      </trkpt>
      <trkpt lat="61.5725968592" lon="8.68179157376">
        <ele>1489.7</ele>
        <time>2012-08-08T14:52:32Z</time>
      </trkpt>
      <trkpt lat="61.5725400299" lon="8.68184940889">
        <ele>1489.22</ele>
        <time>2012-08-08T14:52:44Z</time>
      </trkpt>
      <trkpt lat="61.5725134593" lon="8.68197346106">
        <ele>1488.26</ele>
        <time>2012-08-08T14:52:57Z</time>
      </trkpt>
      <trkpt lat="61.5724984556" lon="8.68203154765">
        <ele>1488.26</ele>
        <time>2012-08-08T14:53:02Z</time>
      </trkpt>
      <trkpt lat="61.5724808536" lon="8.68210287765">
        <ele>1487.3</ele>
        <time>2012-08-08T14:53:13Z</time>
      </trkpt>
      <trkpt lat="61.5724726394" lon="8.68214118294">
        <ele>1486.82</ele>
        <time>2012-08-08T14:53:16Z</time>
      </trkpt>
      <trkpt lat="61.5724674426" lon="8.68216230534">
        <ele>1486.82</ele>
        <time>2012-08-08T14:53:17Z</time>
      </trkpt>
      <trkpt lat="61.5724577196" lon="8.6823061388">
        <ele>1486.34</ele>
        <time>2012-08-08T14:53:28Z</time>
      </trkpt>
      <trkpt lat="61.572451517" lon="8.68226624094">
        <ele>1485.85</ele>
        <time>2012-08-08T14:53:44Z</time>
      </trkpt>
      <trkpt lat="61.5724560432" lon="8.68233363144">
        <ele>1487.3</ele>
        <time>2012-08-08T14:54:03Z</time>
      </trkpt>
      <trkpt lat="61.5724592283" lon="8.68227026425">
        <ele>1486.34</ele>
        <time>2012-08-08T14:54:23Z</time>
      </trkpt>
      <trkpt lat="61.572463084" lon="8.6822695937">
        <ele>1485.37</ele>
        <time>2012-08-08T14:54:38Z</time>
      </trkpt>
      <trkpt lat="61.5724508464" lon="8.68232977577">
        <ele>1485.85</ele>
        <time>2012-08-08T14:55:02Z</time>
      </trkpt>
      <trkpt lat="61.572453361" lon="8.682352826">
        <ele>1485.37</ele>
        <time>2012-08-08T14:55:03Z</time>
      </trkpt>
      <trkpt lat="61.5724540316" lon="8.68237587623">
        <ele>1485.37</ele>
        <time>2012-08-08T14:55:04Z</time>
      </trkpt>
      <trkpt lat="61.5724511817" lon="8.68239850737">
        <ele>1484.89</ele>
        <time>2012-08-08T14:55:05Z</time>
      </trkpt>
      <trkpt lat="61.5724478289" lon="8.68242180906">
        <ele>1485.37</ele>
        <time>2012-08-08T14:55:06Z</time>
      </trkpt>
      <trkpt lat="61.5724459849" lon="8.68244745769">
        <ele>1485.37</ele>
        <time>2012-08-08T14:55:07Z</time>
      </trkpt>
      <trkpt lat="61.5724200848" lon="8.68269790895">
        <ele>1484.41</ele>
        <time>2012-08-08T14:55:20Z</time>
      </trkpt>
      <trkpt lat="61.5724230185" lon="8.68271601386">
        <ele>1484.89</ele>
        <time>2012-08-08T14:55:21Z</time>
      </trkpt>
      <trkpt lat="61.5724154748" lon="8.68279572576">
        <ele>1483.93</ele>
        <time>2012-08-08T14:55:26Z</time>
      </trkpt>
      <trkpt lat="61.5724091046" lon="8.68281223811">
        <ele>1483.93</ele>
        <time>2012-08-08T14:55:27Z</time>
      </trkpt>
      <trkpt lat="61.5724030696" lon="8.68284878321">
        <ele>1483.93</ele>
        <time>2012-08-08T14:55:29Z</time>
      </trkpt>
      <trkpt lat="61.5724060033" lon="8.68295439519">
        <ele>1484.41</ele>
        <time>2012-08-08T14:55:35Z</time>
      </trkpt>
      <trkpt lat="61.5724023152" lon="8.68297903799">
        <ele>1483.45</ele>
        <time>2012-08-08T14:55:36Z</time>
      </trkpt>
      <trkpt lat="61.5723978728" lon="8.68301776238">
        <ele>1482.97</ele>
        <time>2012-08-08T14:55:37Z</time>
      </trkpt>
      <trkpt lat="61.5723925922" lon="8.68306335993">
        <ele>1482.97</ele>
        <time>2012-08-08T14:55:38Z</time>
      </trkpt>
      <trkpt lat="61.5723834559" lon="8.68311038241">
        <ele>1482.49</ele>
        <time>2012-08-08T14:55:39Z</time>
      </trkpt>
      <trkpt lat="61.5723744873" lon="8.68315908127">
        <ele>1482.49</ele>
        <time>2012-08-08T14:55:40Z</time>
      </trkpt>
      <trkpt lat="61.5723697096" lon="8.68320937268">
        <ele>1482.49</ele>
        <time>2012-08-08T14:55:41Z</time>
      </trkpt>
      <trkpt lat="61.5723663568" lon="8.68326351978">
        <ele>1482.01</ele>
        <time>2012-08-08T14:55:42Z</time>
      </trkpt>
      <trkpt lat="61.5723693743" lon="8.68355529383">
        <ele>1481.05</ele>
        <time>2012-08-08T14:55:52Z</time>
      </trkpt>
      <trkpt lat="61.5723668598" lon="8.68358136155">
        <ele>1481.53</ele>
        <time>2012-08-08T14:55:53Z</time>
      </trkpt>
      <trkpt lat="61.5723636746" lon="8.68361011147">
        <ele>1481.53</ele>
        <time>2012-08-08T14:55:54Z</time>
      </trkpt>
      <trkpt lat="61.572347749" lon="8.6837357562">
        <ele>1481.05</ele>
        <time>2012-08-08T14:56:00Z</time>
      </trkpt>
      <trkpt lat="61.5723433904" lon="8.68376316503">
        <ele>1481.05</ele>
        <time>2012-08-08T14:56:01Z</time>
      </trkpt>
      <trkpt lat="61.5723370202" lon="8.6838846188">
        <ele>1480.09</ele>
        <time>2012-08-08T14:56:05Z</time>
      </trkpt>
      <trkpt lat="61.5723394509" lon="8.68391093798">
        <ele>1480.09</ele>
        <time>2012-08-08T14:56:06Z</time>
      </trkpt>
      <trkpt lat="61.5723382775" lon="8.68394035846">
        <ele>1480.09</ele>
        <time>2012-08-08T14:56:07Z</time>
      </trkpt>
      <trkpt lat="61.5723364335" lon="8.68396885693">
        <ele>1480.09</ele>
        <time>2012-08-08T14:56:08Z</time>
      </trkpt>
      <trkpt lat="61.5723336674" lon="8.68399576284">
        <ele>1479.61</ele>
        <time>2012-08-08T14:56:09Z</time>
      </trkpt>
      <trkpt lat="61.5723299794" lon="8.68402124383">
        <ele>1480.09</ele>
        <time>2012-08-08T14:56:10Z</time>
      </trkpt>
      <trkpt lat="61.5723112877" lon="8.68422861211">
        <ele>1479.13</ele>
        <time>2012-08-08T14:56:23Z</time>
      </trkpt>
      <trkpt lat="61.5722918417" lon="8.6842281092">
        <ele>1478.65</ele>
        <time>2012-08-08T14:56:32Z</time>
      </trkpt>
      <trkpt lat="61.5722876508" lon="8.68425115943">
        <ele>1478.16</ele>
        <time>2012-08-08T14:56:33Z</time>
      </trkpt>
      <trkpt lat="61.5723064262" lon="8.68432760239">
        <ele>1478.16</ele>
        <time>2012-08-08T14:56:38Z</time>
      </trkpt>
      <trkpt lat="61.5723044984" lon="8.68432441726">
        <ele>1478.65</ele>
        <time>2012-08-08T14:56:53Z</time>
      </trkpt>
      <trkpt lat="61.5722985473" lon="8.68436750025">
        <ele>1478.65</ele>
        <time>2012-08-08T14:57:09Z</time>
      </trkpt>
      <trkpt lat="61.5723132156" lon="8.68447495624">
        <ele>1478.65</ele>
        <time>2012-08-08T14:57:21Z</time>
      </trkpt>
      <trkpt lat="61.5723029058" lon="8.68461132981">
        <ele>1477.68</ele>
        <time>2012-08-08T14:57:38Z</time>
      </trkpt>
      <trkpt lat="61.5722920094" lon="8.6848108191">
        <ele>1477.2</ele>
        <time>2012-08-08T14:57:55Z</time>
      </trkpt>
      <trkpt lat="61.5722878184" lon="8.68485650048">
        <ele>1476.24</ele>
        <time>2012-08-08T14:58:03Z</time>
      </trkpt>
      <trkpt lat="61.5722726472" lon="8.68502179161">
        <ele>1475.76</ele>
        <time>2012-08-08T14:58:16Z</time>
      </trkpt>
      <trkpt lat="61.5722703002" lon="8.68512840942">
        <ele>1476.24</ele>
        <time>2012-08-08T14:58:33Z</time>
      </trkpt>
      <trkpt lat="61.5722660255" lon="8.68518146686">
        <ele>1475.28</ele>
        <time>2012-08-08T14:58:48Z</time>
      </trkpt>
      <trkpt lat="61.5722525306" lon="8.68519789539">
        <ele>1475.76</ele>
        <time>2012-08-08T14:59:12Z</time>
      </trkpt>
      <trkpt lat="61.5722484235" lon="8.68522337638">
        <ele>1474.8</ele>
        <time>2012-08-08T14:59:45Z</time>
      </trkpt>
      <trkpt lat="61.5722453222" lon="8.68530241773">
        <ele>1473.84</ele>
        <time>2012-08-08T14:59:57Z</time>
      </trkpt>
      <trkpt lat="61.5722280554" lon="8.68530535139">
        <ele>1473.36</ele>
        <time>2012-08-08T15:00:15Z</time>
      </trkpt>
      <trkpt lat="61.5721757524" lon="8.68528657593">
        <ele>1473.36</ele>
        <time>2012-08-08T15:00:37Z</time>
      </trkpt>
      <trkpt lat="61.5721949469" lon="8.68529940024">
        <ele>1473.36</ele>
        <time>2012-08-08T15:01:04Z</time>
      </trkpt>
      <trkpt lat="61.5722354315" lon="8.68524910882">
        <ele>1474.32</ele>
        <time>2012-08-08T15:01:23Z</time>
      </trkpt>
      <trkpt lat="61.5722387005" lon="8.68527358398">
        <ele>1474.32</ele>
        <time>2012-08-08T15:01:41Z</time>
      </trkpt>
      <trkpt lat="61.572284298" lon="8.6852943711">
        <ele>1473.84</ele>
        <time>2012-08-08T15:02:15Z</time>
      </trkpt>
      <trkpt lat="61.5722483397" lon="8.68529872969">
        <ele>1472.4</ele>
        <time>2012-08-08T15:02:36Z</time>
      </trkpt>
      <trkpt lat="61.572237527" lon="8.68528272025">
        <ele>1471.92</ele>
        <time>2012-08-08T15:03:02Z</time>
      </trkpt>
      <trkpt lat="61.5722409636" lon="8.68534600362">
        <ele>1472.4</ele>
        <time>2012-08-08T15:03:08Z</time>
      </trkpt>
      <trkpt lat="61.5722573921" lon="8.68534030393">
        <ele>1472.4</ele>
        <time>2012-08-08T15:03:25Z</time>
      </trkpt>
      <trkpt lat="61.5722495969" lon="8.68535187095">
        <ele>1473.84</ele>
        <time>2012-08-08T15:03:37Z</time>
      </trkpt>
      <trkpt lat="61.5722326655" lon="8.68534709327">
        <ele>1471.92</ele>
        <time>2012-08-08T15:03:55Z</time>
      </trkpt>
      <trkpt lat="61.5722309891" lon="8.68528758176">
        <ele>1472.4</ele>
        <time>2012-08-08T15:04:06Z</time>
      </trkpt>
      <trkpt lat="61.5722330008" lon="8.68532655761">
        <ele>1472.88</ele>
        <time>2012-08-08T15:04:31Z</time>
      </trkpt>
      <trkpt lat="61.5722364374" lon="8.68540392257">
        <ele>1472.4</ele>
        <time>2012-08-08T15:04:44Z</time>
      </trkpt>
      <trkpt lat="61.5722289775" lon="8.68560684845">
        <ele>1472.4</ele>
        <time>2012-08-08T15:04:55Z</time>
      </trkpt>
      <trkpt lat="61.5722304862" lon="8.68578571826">
        <ele>1471.92</ele>
        <time>2012-08-08T15:05:05Z</time>
      </trkpt>
      <trkpt lat="61.5722235292" lon="8.68595050648">
        <ele>1472.4</ele>
        <time>2012-08-08T15:05:15Z</time>
      </trkpt>
      <trkpt lat="61.572220847" lon="8.68597204797">
        <ele>1471.92</ele>
        <time>2012-08-08T15:05:16Z</time>
      </trkpt>
      <trkpt lat="61.5722264629" lon="8.68618670851">
        <ele>1471.44</ele>
        <time>2012-08-08T15:05:28Z</time>
      </trkpt>
      <trkpt lat="61.5722189192" lon="8.68622358888">
        <ele>1471.44</ele>
        <time>2012-08-08T15:05:30Z</time>
      </trkpt>
      <trkpt lat="61.5722200088" lon="8.68634286337">
        <ele>1470.95</ele>
        <time>2012-08-08T15:05:36Z</time>
      </trkpt>
      <trkpt lat="61.5722182486" lon="8.68637085892">
        <ele>1471.44</ele>
        <time>2012-08-08T15:05:37Z</time>
      </trkpt>
      <trkpt lat="61.5722123813" lon="8.68639818393">
        <ele>1470.47</ele>
        <time>2012-08-08T15:05:38Z</time>
      </trkpt>
      <trkpt lat="61.5722100344" lon="8.68642299436">
        <ele>1470.47</ele>
        <time>2012-08-08T15:05:39Z</time>
      </trkpt>
      <trkpt lat="61.5722038317" lon="8.68655283004">
        <ele>1469.99</ele>
        <time>2012-08-08T15:05:47Z</time>
      </trkpt>
      <trkpt lat="61.5722006466" lon="8.68657990359">
        <ele>1469.99</ele>
        <time>2012-08-08T15:05:48Z</time>
      </trkpt>
      <trkpt lat="61.5722018201" lon="8.68677402847">
        <ele>1469.51</ele>
        <time>2012-08-08T15:05:59Z</time>
      </trkpt>
      <trkpt lat="61.5721952822" lon="8.68682926521">
        <ele>1468.07</ele>
        <time>2012-08-08T15:06:11Z</time>
      </trkpt>
      <trkpt lat="61.5722124651" lon="8.68686706759">
        <ele>1468.55</ele>
        <time>2012-08-08T15:06:30Z</time>
      </trkpt>
      <trkpt lat="61.572202323" lon="8.68686723523">
        <ele>1469.51</ele>
        <time>2012-08-08T15:06:31Z</time>
      </trkpt>
      <trkpt lat="61.5721940249" lon="8.68695532903">
        <ele>1469.03</ele>
        <time>2012-08-08T15:06:35Z</time>
      </trkpt>
      <trkpt lat="61.5721946955" lon="8.68698894046">
        <ele>1469.03</ele>
        <time>2012-08-08T15:06:36Z</time>
      </trkpt>
      <trkpt lat="61.5721957013" lon="8.68701693602">
        <ele>1469.03</ele>
        <time>2012-08-08T15:06:37Z</time>
      </trkpt>
      <trkpt lat="61.5721994732" lon="8.68704727851">
        <ele>1469.03</ele>
        <time>2012-08-08T15:06:39Z</time>
      </trkpt>
      <trkpt lat="61.572202323" lon="8.68709245697">
        <ele>1468.07</ele>
        <time>2012-08-08T15:06:41Z</time>
      </trkpt>
      <trkpt lat="61.5722145606" lon="8.68727811612">
        <ele>1468.55</ele>
        <time>2012-08-08T15:06:53Z</time>
      </trkpt>
      <trkpt lat="61.5722309053" lon="8.68734726682">
        <ele>1468.55</ele>
        <time>2012-08-08T15:06:58Z</time>
      </trkpt>
      <trkpt lat="61.5722389519" lon="8.68740459904">
        <ele>1469.03</ele>
        <time>2012-08-08T15:07:01Z</time>
      </trkpt>
      <trkpt lat="61.5722361859" lon="8.68746310472">
        <ele>1468.55</ele>
        <time>2012-08-08T15:07:04Z</time>
      </trkpt>
      <trkpt lat="61.5722460765" lon="8.68757550605">
        <ele>1469.03</ele>
        <time>2012-08-08T15:07:10Z</time>
      </trkpt>
      <trkpt lat="61.5722705517" lon="8.68769519962">
        <ele>1468.55</ele>
        <time>2012-08-08T15:07:17Z</time>
      </trkpt>
      <trkpt lat="61.5722670313" lon="8.68772361428">
        <ele>1468.55</ele>
        <time>2012-08-08T15:07:18Z</time>
      </trkpt>
      <trkpt lat="61.5722623374" lon="8.68774867617">
        <ele>1468.07</ele>
        <time>2012-08-08T15:07:19Z</time>
      </trkpt>
      <trkpt lat="61.5722603258" lon="8.68777164258">
        <ele>1468.07</ele>
        <time>2012-08-08T15:07:20Z</time>
      </trkpt>
      <trkpt lat="61.5722722281" lon="8.68797373027">
        <ele>1469.03</ele>
        <time>2012-08-08T15:07:34Z</time>
      </trkpt>
      <trkpt lat="61.5722697135" lon="8.68818336166">
        <ele>1466.15</ele>
        <time>2012-08-08T15:07:40Z</time>
      </trkpt>
      <trkpt lat="61.5722936019" lon="8.68870429695">
        <ele>1464.71</ele>
        <time>2012-08-08T15:07:49Z</time>
      </trkpt>
      <trkpt lat="61.5723094437" lon="8.68894619867">
        <ele>1465.19</ele>
        <time>2012-08-08T15:07:56Z</time>
      </trkpt>
      <trkpt lat="61.5723151434" lon="8.68912221864">
        <ele>1464.23</ele>
        <time>2012-08-08T15:08:08Z</time>
      </trkpt>
      <trkpt lat="61.5723207593" lon="8.68916714564">
        <ele>1463.74</ele>
        <time>2012-08-08T15:08:11Z</time>
      </trkpt>
      <trkpt lat="61.5723319072" lon="8.68930201046">
        <ele>1463.74</ele>
        <time>2012-08-08T15:08:22Z</time>
      </trkpt>
      <trkpt lat="61.5723272972" lon="8.6894408986">
        <ele>1463.26</ele>
        <time>2012-08-08T15:08:37Z</time>
      </trkpt>
      <trkpt lat="61.5723056719" lon="8.68958557025">
        <ele>1462.78</ele>
        <time>2012-08-08T15:08:49Z</time>
      </trkpt>
      <trkpt lat="61.5723372716" lon="8.68971599266">
        <ele>1461.82</ele>
        <time>2012-08-08T15:08:57Z</time>
      </trkpt>
      <trkpt lat="61.5723561309" lon="8.68980165571">
        <ele>1462.3</ele>
        <time>2012-08-08T15:09:10Z</time>
      </trkpt>
      <trkpt lat="61.5723687038" lon="8.68981741369">
        <ele>1462.78</ele>
        <time>2012-08-08T15:09:35Z</time>
      </trkpt>
      <trkpt lat="61.5723444801" lon="8.68982948363">
        <ele>1461.82</ele>
        <time>2012-08-08T15:09:37Z</time>
      </trkpt>
      <trkpt lat="61.572314892" lon="8.68980542757">
        <ele>1459.9</ele>
        <time>2012-08-08T15:09:54Z</time>
      </trkpt>
      <trkpt lat="61.5723154787" lon="8.68982738815">
        <ele>1460.38</ele>
        <time>2012-08-08T15:10:25Z</time>
      </trkpt>
      <trkpt lat="61.5722687077" lon="8.68988614529">
        <ele>1459.42</ele>
        <time>2012-08-08T15:10:42Z</time>
      </trkpt>
      <trkpt lat="61.57226854" lon="8.68991623633">
        <ele>1459.42</ele>
        <time>2012-08-08T15:11:07Z</time>
      </trkpt>
      <trkpt lat="61.5722786821" lon="8.68991011754">
        <ele>1459.42</ele>
        <time>2012-08-08T15:11:35Z</time>
      </trkpt>
      <trkpt lat="61.5722730663" lon="8.68991606869">
        <ele>1459.42</ele>
        <time>2012-08-08T15:11:51Z</time>
      </trkpt>
      <trkpt lat="61.5722655226" lon="8.6899117101">
        <ele>1458.94</ele>
        <time>2012-08-08T15:12:24Z</time>
      </trkpt>
      <trkpt lat="61.5722583141" lon="8.68992134929">
        <ele>1458.94</ele>
        <time>2012-08-08T15:12:47Z</time>
      </trkpt>
      <trkpt lat="61.5722653549" lon="8.68992093019">
        <ele>1458.94</ele>
        <time>2012-08-08T15:13:18Z</time>
      </trkpt>
      <trkpt lat="61.5722288098" lon="8.68991984054">
        <ele>1458.94</ele>
        <time>2012-08-08T15:13:35Z</time>
      </trkpt>
      <trkpt lat="61.5722052567" lon="8.68990617804">
        <ele>1458.46</ele>
        <time>2012-08-08T15:13:47Z</time>
      </trkpt>
      <trkpt lat="61.5721969586" lon="8.68991095573">
        <ele>1457.98</ele>
        <time>2012-08-08T15:14:00Z</time>
      </trkpt>
      <trkpt lat="61.5722012334" lon="8.68992109783">
        <ele>1457.98</ele>
        <time>2012-08-08T15:14:10Z</time>
      </trkpt>
      <trkpt lat="61.5721393749" lon="8.68991078809">
        <ele>1456.05</ele>
        <time>2012-08-08T15:14:20Z</time>
      </trkpt>
      <trkpt lat="61.5721498523" lon="8.68991531432">
        <ele>1456.05</ele>
        <time>2012-08-08T15:14:21Z</time>
      </trkpt>
      <trkpt lat="61.5722341742" lon="8.68991682306">
        <ele>1458.94</ele>
        <time>2012-08-08T15:14:30Z</time>
      </trkpt>
      <trkpt lat="61.5722836275" lon="8.68989150971">
        <ele>1460.38</ele>
        <time>2012-08-08T15:14:42Z</time>
      </trkpt>
      <trkpt lat="61.5722962841" lon="8.68987005204">
        <ele>1460.86</ele>
        <time>2012-08-08T15:14:47Z</time>
      </trkpt>
      <trkpt lat="61.5723356791" lon="8.68997700512">
        <ele>1460.86</ele>
        <time>2012-08-08T15:14:54Z</time>
      </trkpt>
      <trkpt lat="61.5723778401" lon="8.68999016471">
        <ele>1461.82</ele>
        <time>2012-08-08T15:15:10Z</time>
      </trkpt>
      <trkpt lat="61.5723599866" lon="8.69001111947">
        <ele>1461.34</ele>
        <time>2012-08-08T15:15:38Z</time>
      </trkpt>
      <trkpt lat="61.5723864734" lon="8.68994808756">
        <ele>1461.34</ele>
        <time>2012-08-08T15:15:55Z</time>
      </trkpt>
      <trkpt lat="61.5723867249" lon="8.68997449055">
        <ele>1460.86</ele>
        <time>2012-08-08T15:16:00Z</time>
      </trkpt>
      <trkpt lat="61.5724049974" lon="8.69008605368">
        <ele>1460.86</ele>
        <time>2012-08-08T15:16:04Z</time>
      </trkpt>
      <trkpt lat="61.5724231862" lon="8.69017708115">
        <ele>1462.3</ele>
        <time>2012-08-08T15:16:14Z</time>
      </trkpt>
      <trkpt lat="61.5724262875" lon="8.69030532427">
        <ele>1461.82</ele>
        <time>2012-08-08T15:16:22Z</time>
      </trkpt>
      <trkpt lat="61.5724293049" lon="8.69033114053">
        <ele>1461.82</ele>
        <time>2012-08-08T15:16:24Z</time>
      </trkpt>
      <trkpt lat="61.5724545345" lon="8.69051839225">
        <ele>1461.34</ele>
        <time>2012-08-08T15:16:37Z</time>
      </trkpt>
      <trkpt lat="61.5724643413" lon="8.69061612524">
        <ele>1460.38</ele>
        <time>2012-08-08T15:16:44Z</time>
      </trkpt>
      <trkpt lat="61.5724687837" lon="8.69069374166">
        <ele>1460.38</ele>
        <time>2012-08-08T15:16:48Z</time>
      </trkpt>
      <trkpt lat="61.5724756569" lon="8.69072115049">
        <ele>1460.38</ele>
        <time>2012-08-08T15:16:49Z</time>
      </trkpt>
      <trkpt lat="61.5725065861" lon="8.69087470695">
        <ele>1460.38</ele>
        <time>2012-08-08T15:17:01Z</time>
      </trkpt>
      <trkpt lat="61.5725042392" lon="8.69089272805">
        <ele>1460.38</ele>
        <time>2012-08-08T15:17:02Z</time>
      </trkpt>
      <trkpt lat="61.5725155547" lon="8.69091636501">
        <ele>1460.38</ele>
        <time>2012-08-08T15:17:05Z</time>
      </trkpt>
      <trkpt lat="61.5725260321" lon="8.69095399976">
        <ele>1460.86</ele>
        <time>2012-08-08T15:17:07Z</time>
      </trkpt>
      <trkpt lat="61.5725312289" lon="8.69097168557">
        <ele>1460.38</ele>
        <time>2012-08-08T15:17:08Z</time>
      </trkpt>
      <trkpt lat="61.5725602303" lon="8.69111065753">
        <ele>1460.38</ele>
        <time>2012-08-08T15:17:16Z</time>
      </trkpt>
      <trkpt lat="61.5725819394" lon="8.69124107994">
        <ele>1460.38</ele>
        <time>2012-08-08T15:17:26Z</time>
      </trkpt>
      <trkpt lat="61.5725825261" lon="8.69133302942">
        <ele>1460.38</ele>
        <time>2012-08-08T15:17:31Z</time>
      </trkpt>
      <trkpt lat="61.5725874715" lon="8.69139715098">
        <ele>1459.9</ele>
        <time>2012-08-08T15:17:35Z</time>
      </trkpt>
      <trkpt lat="61.5725944284" lon="8.69143151678">
        <ele>1459.9</ele>
        <time>2012-08-08T15:17:36Z</time>
      </trkpt>
      <trkpt lat="61.5726113599" lon="8.6915826425">
        <ele>1459.9</ele>
        <time>2012-08-08T15:17:46Z</time>
      </trkpt>
      <trkpt lat="61.5726111084" lon="8.69166763499">
        <ele>1460.38</ele>
        <time>2012-08-08T15:17:51Z</time>
      </trkpt>
      <trkpt lat="61.5726277046" lon="8.69178632274">
        <ele>1460.38</ele>
        <time>2012-08-08T15:18:03Z</time>
      </trkpt>
      <trkpt lat="61.5726179816" lon="8.69180509821">
        <ele>1460.38</ele>
        <time>2012-08-08T15:18:07Z</time>
      </trkpt>
      <trkpt lat="61.5725951828" lon="8.69181289338">
        <ele>1459.9</ele>
        <time>2012-08-08T15:18:17Z</time>
      </trkpt>
      <trkpt lat="61.5725972783" lon="8.6918526236">
        <ele>1460.38</ele>
        <time>2012-08-08T15:18:23Z</time>
      </trkpt>
      <trkpt lat="61.5726007987" lon="8.6918848101">
        <ele>1460.38</ele>
        <time>2012-08-08T15:18:25Z</time>
      </trkpt>
      <trkpt lat="61.5726054925" lon="8.69197784923">
        <ele>1460.86</ele>
        <time>2012-08-08T15:18:29Z</time>
      </trkpt>
      <trkpt lat="61.5726080071" lon="8.69201380759">
        <ele>1460.38</ele>
        <time>2012-08-08T15:18:30Z</time>
      </trkpt>
      <trkpt lat="61.5726092644" lon="8.69203970768">
        <ele>1459.9</ele>
        <time>2012-08-08T15:18:31Z</time>
      </trkpt>
      <trkpt lat="61.5726079233" lon="8.69206242263">
        <ele>1459.9</ele>
        <time>2012-08-08T15:18:32Z</time>
      </trkpt>
      <trkpt lat="61.5726080909" lon="8.69208354503">
        <ele>1459.9</ele>
        <time>2012-08-08T15:18:33Z</time>
      </trkpt>
      <trkpt lat="61.5726105217" lon="8.69210634381">
        <ele>1459.9</ele>
        <time>2012-08-08T15:18:34Z</time>
      </trkpt>
      <trkpt lat="61.5726307221" lon="8.69232628495">
        <ele>1459.42</ele>
        <time>2012-08-08T15:18:47Z</time>
      </trkpt>
      <trkpt lat="61.5726406965" lon="8.69240297936">
        <ele>1459.42</ele>
        <time>2012-08-08T15:18:53Z</time>
      </trkpt>
      <trkpt lat="61.5726519283" lon="8.69245578535">
        <ele>1459.42</ele>
        <time>2012-08-08T15:18:58Z</time>
      </trkpt>
      <trkpt lat="61.5726553649" lon="8.69262685999">
        <ele>1459.9</ele>
        <time>2012-08-08T15:19:12Z</time>
      </trkpt>
      <trkpt lat="61.5726602264" lon="8.69269550778">
        <ele>1458.94</ele>
        <time>2012-08-08T15:19:16Z</time>
      </trkpt>
      <trkpt lat="61.5726726316" lon="8.69280329905">
        <ele>1459.42</ele>
        <time>2012-08-08T15:19:23Z</time>
      </trkpt>
      <trkpt lat="61.5726938378" lon="8.69295643643">
        <ele>1458.46</ele>
        <time>2012-08-08T15:19:35Z</time>
      </trkpt>
      <trkpt lat="61.572714122" lon="8.69308996014">
        <ele>1458.94</ele>
        <time>2012-08-08T15:19:48Z</time>
      </trkpt>
      <trkpt lat="61.5727339033" lon="8.69314368814">
        <ele>1459.42</ele>
        <time>2012-08-08T15:19:52Z</time>
      </trkpt>
      <trkpt lat="61.5727393515" lon="8.6931611225">
        <ele>1459.42</ele>
        <time>2012-08-08T15:19:53Z</time>
      </trkpt>
      <trkpt lat="61.5727728792" lon="8.69332741946">
        <ele>1459.42</ele>
        <time>2012-08-08T15:20:06Z</time>
      </trkpt>
      <trkpt lat="61.5727788303" lon="8.69343076833">
        <ele>1459.42</ele>
        <time>2012-08-08T15:20:13Z</time>
      </trkpt>
      <trkpt lat="61.5727797523" lon="8.69344979525">
        <ele>1459.42</ele>
        <time>2012-08-08T15:20:14Z</time>
      </trkpt>
      <trkpt lat="61.5728069097" lon="8.69352204725">
        <ele>1459.42</ele>
        <time>2012-08-08T15:20:30Z</time>
      </trkpt>
      <trkpt lat="61.572832223" lon="8.69350478053">
        <ele>1458.46</ele>
        <time>2012-08-08T15:21:03Z</time>
      </trkpt>
      <trkpt lat="61.5728131961" lon="8.69362380356">
        <ele>1458.94</ele>
        <time>2012-08-08T15:21:21Z</time>
      </trkpt>
      <trkpt lat="61.5728114359" lon="8.69366043247">
        <ele>1458.94</ele>
        <time>2012-08-08T15:21:23Z</time>
      </trkpt>
      <trkpt lat="61.5728100948" lon="8.69368750602">
        <ele>1459.42</ele>
        <time>2012-08-08T15:21:24Z</time>
      </trkpt>
      <trkpt lat="61.5728049818" lon="8.69371449575">
        <ele>1458.94</ele>
        <time>2012-08-08T15:21:25Z</time>
      </trkpt>
      <trkpt lat="61.5728054848" lon="8.69373955764">
        <ele>1458.94</ele>
        <time>2012-08-08T15:21:26Z</time>
      </trkpt>
      <trkpt lat="61.5728069935" lon="8.69376386516">
        <ele>1458.94</ele>
        <time>2012-08-08T15:21:27Z</time>
      </trkpt>
      <trkpt lat="61.5728085022" lon="8.69378674775">
        <ele>1458.94</ele>
        <time>2012-08-08T15:21:28Z</time>
      </trkpt>
      <trkpt lat="61.5728226677" lon="8.69386696257">
        <ele>1458.46</ele>
        <time>2012-08-08T15:21:34Z</time>
      </trkpt>
      <trkpt lat="61.5728250984" lon="8.6938794516">
        <ele>1458.94</ele>
        <time>2012-08-08T15:21:35Z</time>
      </trkpt>
      <trkpt lat="61.5728251822" lon="8.69389772415">
        <ele>1458.94</ele>
        <time>2012-08-08T15:21:36Z</time>
      </trkpt>
      <trkpt lat="61.5728469752" lon="8.69404315017">
        <ele>1459.42</ele>
        <time>2012-08-08T15:21:45Z</time>
      </trkpt>
      <trkpt lat="61.5728443768" lon="8.6940687988">
        <ele>1459.9</ele>
        <time>2012-08-08T15:21:46Z</time>
      </trkpt>
      <trkpt lat="61.572838258" lon="8.69420114905">
        <ele>1459.9</ele>
        <time>2012-08-08T15:21:52Z</time>
      </trkpt>
      <trkpt lat="61.5728386771" lon="8.69422621094">
        <ele>1460.38</ele>
        <time>2012-08-08T15:21:53Z</time>
      </trkpt>
      <trkpt lat="61.5728381742" lon="8.69424817152">
        <ele>1460.38</ele>
        <time>2012-08-08T15:21:54Z</time>
      </trkpt>
      <trkpt lat="61.5728384256" lon="8.69426988065">
        <ele>1460.86</ele>
        <time>2012-08-08T15:21:55Z</time>
      </trkpt>
      <trkpt lat="61.5728341509" lon="8.69431866333">
        <ele>1459.42</ele>
        <time>2012-08-08T15:22:13Z</time>
      </trkpt>
      <trkpt lat="61.5728425328" lon="8.69433727115">
        <ele>1459.9</ele>
        <time>2012-08-08T15:22:35Z</time>
      </trkpt>
      <trkpt lat="61.5728376713" lon="8.6943485029">
        <ele>1460.38</ele>
        <time>2012-08-08T15:22:55Z</time>
      </trkpt>
      <trkpt lat="61.5728377551" lon="8.69437247515">
        <ele>1460.86</ele>
        <time>2012-08-08T15:23:13Z</time>
      </trkpt>
      <trkpt lat="61.5728464723" lon="8.69441270828">
        <ele>1460.38</ele>
        <time>2012-08-08T15:23:36Z</time>
      </trkpt>
      <trkpt lat="61.5728542674" lon="8.69453852065">
        <ele>1461.34</ele>
        <time>2012-08-08T15:23:49Z</time>
      </trkpt>
      <trkpt lat="61.5728812572" lon="8.69476064108">
        <ele>1461.34</ele>
        <time>2012-08-08T15:24:02Z</time>
      </trkpt>
      <trkpt lat="61.5728958417" lon="8.6949307099">
        <ele>1461.34</ele>
        <time>2012-08-08T15:24:13Z</time>
      </trkpt>
      <trkpt lat="61.572898021" lon="8.69495518506">
        <ele>1461.34</ele>
        <time>2012-08-08T15:24:14Z</time>
      </trkpt>
      <trkpt lat="61.5729110967" lon="8.69501092471">
        <ele>1461.34</ele>
        <time>2012-08-08T15:24:26Z</time>
      </trkpt>
      <trkpt lat="61.5729309618" lon="8.69513279758">
        <ele>1459.42</ele>
        <time>2012-08-08T15:24:38Z</time>
      </trkpt>
      <trkpt lat="61.572922999" lon="8.69528207928">
        <ele>1459.42</ele>
        <time>2012-08-08T15:24:54Z</time>
      </trkpt>
      <trkpt lat="61.5729362424" lon="8.69538693689">
        <ele>1458.46</ele>
        <time>2012-08-08T15:25:02Z</time>
      </trkpt>
      <trkpt lat="61.5729421098" lon="8.69544854388">
        <ele>1458.46</ele>
        <time>2012-08-08T15:25:07Z</time>
      </trkpt>
      <trkpt lat="61.5729452949" lon="8.69547142647">
        <ele>1457.98</ele>
        <time>2012-08-08T15:25:08Z</time>
      </trkpt>
      <trkpt lat="61.5729451273" lon="8.69549782947">
        <ele>1458.46</ele>
        <time>2012-08-08T15:25:09Z</time>
      </trkpt>
      <trkpt lat="61.5729493182" lon="8.69553881697">
        <ele>1457.98</ele>
        <time>2012-08-08T15:25:11Z</time>
      </trkpt>
      <trkpt lat="61.5729537606" lon="8.69558793493">
        <ele>1457.5</ele>
        <time>2012-08-08T15:25:13Z</time>
      </trkpt>
      <trkpt lat="61.572935991" lon="8.69564644061">
        <ele>1457.02</ele>
        <time>2012-08-08T15:25:25Z</time>
      </trkpt>
      <trkpt lat="61.5729235858" lon="8.69572330266">
        <ele>1456.53</ele>
        <time>2012-08-08T15:25:37Z</time>
      </trkpt>
      <trkpt lat="61.5729304589" lon="8.69580226019">
        <ele>1455.57</ele>
        <time>2012-08-08T15:25:44Z</time>
      </trkpt>
      <trkpt lat="61.5729443729" lon="8.69592212141">
        <ele>1455.57</ele>
        <time>2012-08-08T15:25:55Z</time>
      </trkpt>
      <trkpt lat="61.5729778167" lon="8.69601055048">
        <ele>1455.57</ele>
        <time>2012-08-08T15:26:02Z</time>
      </trkpt>
      <trkpt lat="61.5729777329" lon="8.69603284635">
        <ele>1455.57</ele>
        <time>2012-08-08T15:26:03Z</time>
      </trkpt>
      <trkpt lat="61.5729718655" lon="8.69607022963">
        <ele>1455.57</ele>
        <time>2012-08-08T15:26:05Z</time>
      </trkpt>
      <trkpt lat="61.5729669202" lon="8.69612060487">
        <ele>1455.09</ele>
        <time>2012-08-08T15:26:08Z</time>
      </trkpt>
      <trkpt lat="61.5729636513" lon="8.69617198594">
        <ele>1455.09</ele>
        <time>2012-08-08T15:26:11Z</time>
      </trkpt>
      <trkpt lat="61.5729625616" lon="8.69631975889">
        <ele>1454.61</ele>
        <time>2012-08-08T15:26:18Z</time>
      </trkpt>
      <trkpt lat="61.5729796607" lon="8.6964730639">
        <ele>1453.17</ele>
        <time>2012-08-08T15:26:28Z</time>
      </trkpt>
      <trkpt lat="61.5729908086" lon="8.69659099728">
        <ele>1452.21</ele>
        <time>2012-08-08T15:26:35Z</time>
      </trkpt>
      <trkpt lat="61.5729893837" lon="8.69661429897">
        <ele>1452.69</ele>
        <time>2012-08-08T15:26:36Z</time>
      </trkpt>
      <trkpt lat="61.5729983523" lon="8.69679392315">
        <ele>1452.21</ele>
        <time>2012-08-08T15:26:48Z</time>
      </trkpt>
      <trkpt lat="61.573016122" lon="8.69684756733">
        <ele>1452.21</ele>
        <time>2012-08-08T15:26:52Z</time>
      </trkpt>
      <trkpt lat="61.5730235819" lon="8.69698871858">
        <ele>1452.69</ele>
        <time>2012-08-08T15:27:02Z</time>
      </trkpt>
      <trkpt lat="61.573024001" lon="8.69701042771">
        <ele>1452.21</ele>
        <time>2012-08-08T15:27:03Z</time>
      </trkpt>
      <trkpt lat="61.5730322991" lon="8.69704412296">
        <ele>1452.69</ele>
        <time>2012-08-08T15:27:05Z</time>
      </trkpt>
      <trkpt lat="61.5730419382" lon="8.69706390426">
        <ele>1452.21</ele>
        <time>2012-08-08T15:27:06Z</time>
      </trkpt>
      <trkpt lat="61.573050404" lon="8.69711293839">
        <ele>1452.21</ele>
        <time>2012-08-08T15:27:08Z</time>
      </trkpt>
      <trkpt lat="61.5730363224" lon="8.69731661864">
        <ele>1450.77</ele>
        <time>2012-08-08T15:27:20Z</time>
      </trkpt>
      <trkpt lat="61.5730595402" lon="8.69749691337">
        <ele>1450.77</ele>
        <time>2012-08-08T15:27:31Z</time>
      </trkpt>
      <trkpt lat="61.5730732866" lon="8.69770294055">
        <ele>1450.77</ele>
        <time>2012-08-08T15:27:44Z</time>
      </trkpt>
      <trkpt lat="61.5730864462" lon="8.69784610346">
        <ele>1450.29</ele>
        <time>2012-08-08T15:27:54Z</time>
      </trkpt>
      <trkpt lat="61.5730910562" lon="8.69802748784">
        <ele>1449.32</ele>
        <time>2012-08-08T15:28:03Z</time>
      </trkpt>
      <trkpt lat="61.5730871167" lon="8.69805137627">
        <ele>1449.32</ele>
        <time>2012-08-08T15:28:04Z</time>
      </trkpt>
      <trkpt lat="61.5730892122" lon="8.6982092075">
        <ele>1448.84</ele>
        <time>2012-08-08T15:28:17Z</time>
      </trkpt>
      <trkpt lat="61.5731024556" lon="8.69827240705">
        <ele>1448.84</ele>
        <time>2012-08-08T15:28:27Z</time>
      </trkpt>
      <trkpt lat="61.5731045511" lon="8.69831448421">
        <ele>1448.36</ele>
        <time>2012-08-08T15:28:29Z</time>
      </trkpt>
      <trkpt lat="61.5731037129" lon="8.69833803736">
        <ele>1448.36</ele>
        <time>2012-08-08T15:28:30Z</time>
      </trkpt>
      <trkpt lat="61.5731099993" lon="8.69845513254">
        <ele>1448.84</ele>
        <time>2012-08-08T15:28:36Z</time>
      </trkpt>
      <trkpt lat="61.5731227398" lon="8.69869871065">
        <ele>1448.36</ele>
        <time>2012-08-08T15:28:48Z</time>
      </trkpt>
      <trkpt lat="61.573116621" lon="8.69878521189">
        <ele>1448.84</ele>
        <time>2012-08-08T15:28:54Z</time>
      </trkpt>
      <trkpt lat="61.5731200576" lon="8.69884531014">
        <ele>1447.88</ele>
        <time>2012-08-08T15:28:57Z</time>
      </trkpt>
      <trkpt lat="61.5731242485" lon="8.69887087494">
        <ele>1448.36</ele>
        <time>2012-08-08T15:28:58Z</time>
      </trkpt>
      <trkpt lat="61.5731262602" lon="8.69889107533">
        <ele>1448.36</ele>
        <time>2012-08-08T15:28:59Z</time>
      </trkpt>
      <trkpt lat="61.5731449518" lon="8.69900423102">
        <ele>1448.36</ele>
        <time>2012-08-08T15:29:06Z</time>
      </trkpt>
      <trkpt lat="61.5731511544" lon="8.69913306087">
        <ele>1447.88</ele>
        <time>2012-08-08T15:29:13Z</time>
      </trkpt>
      <trkpt lat="61.5731497295" lon="8.69915711693">
        <ele>1447.4</ele>
        <time>2012-08-08T15:29:14Z</time>
      </trkpt>
      <trkpt lat="61.5731464606" lon="8.69918259792">
        <ele>1447.4</ele>
        <time>2012-08-08T15:29:15Z</time>
      </trkpt>
      <trkpt lat="61.5731359832" lon="8.69920330122">
        <ele>1447.4</ele>
        <time>2012-08-08T15:29:31Z</time>
      </trkpt>
      <trkpt lat="61.5731530823" lon="8.69919408113">
        <ele>1447.4</ele>
        <time>2012-08-08T15:29:50Z</time>
      </trkpt>
      <trkpt lat="61.573154591" lon="8.6991891358">
        <ele>1447.88</ele>
        <time>2012-08-08T15:29:54Z</time>
      </trkpt>
      <trkpt lat="61.5731601231" lon="8.6992635671">
        <ele>1447.88</ele>
        <time>2012-08-08T15:29:59Z</time>
      </trkpt>
      <trkpt lat="61.5731681697" lon="8.6994229909">
        <ele>1446.92</ele>
        <time>2012-08-08T15:30:09Z</time>
      </trkpt>
      <trkpt lat="61.5731758811" lon="8.69951779023">
        <ele>1447.4</ele>
        <time>2012-08-08T15:30:20Z</time>
      </trkpt>
      <trkpt lat="61.5731989313" lon="8.69961108081">
        <ele>1447.4</ele>
        <time>2012-08-08T15:30:31Z</time>
      </trkpt>
      <trkpt lat="61.5731977578" lon="8.69964829646">
        <ele>1447.4</ele>
        <time>2012-08-08T15:30:42Z</time>
      </trkpt>
      <trkpt lat="61.5732058045" lon="8.69977469556">
        <ele>1446.44</ele>
        <time>2012-08-08T15:30:50Z</time>
      </trkpt>
      <trkpt lat="61.5732066426" lon="8.69980311021">
        <ele>1445.96</ele>
        <time>2012-08-08T15:30:51Z</time>
      </trkpt>
      <trkpt lat="61.5732078999" lon="8.69983051904">
        <ele>1445.96</ele>
        <time>2012-08-08T15:30:52Z</time>
      </trkpt>
      <trkpt lat="61.5732117556" lon="8.69986538775">
        <ele>1445.96</ele>
        <time>2012-08-08T15:30:53Z</time>
      </trkpt>
      <trkpt lat="61.5732111689" lon="8.69989790954">
        <ele>1445.96</ele>
        <time>2012-08-08T15:30:54Z</time>
      </trkpt>
      <trkpt lat="61.5732081514" lon="8.70004216209">
        <ele>1445.96</ele>
        <time>2012-08-08T15:30:59Z</time>
      </trkpt>
      <trkpt lat="61.5732124262" lon="8.70008356869">
        <ele>1445.96</ele>
        <time>2012-08-08T15:31:01Z</time>
      </trkpt>
      <trkpt lat="61.573232878" lon="8.70025908574">
        <ele>1445.96</ele>
        <time>2012-08-08T15:31:10Z</time>
      </trkpt>
      <trkpt lat="61.5732337162" lon="8.70028733276">
        <ele>1445.96</ele>
        <time>2012-08-08T15:31:11Z</time>
      </trkpt>
      <trkpt lat="61.5732376557" lon="8.70033351704">
        <ele>1445.48</ele>
        <time>2012-08-08T15:31:26Z</time>
      </trkpt>
      <trkpt lat="61.5732404217" lon="8.70035883039">
        <ele>1445.96</ele>
        <time>2012-08-08T15:31:33Z</time>
      </trkpt>
      <trkpt lat="61.5732436068" lon="8.70037668385">
        <ele>1445.96</ele>
        <time>2012-08-08T15:31:34Z</time>
      </trkpt>
      <trkpt lat="61.5732470434" lon="8.70039789006">
        <ele>1445.96</ele>
        <time>2012-08-08T15:31:35Z</time>
      </trkpt>
      <trkpt lat="61.5732491389" lon="8.70042479597">
        <ele>1445.48</ele>
        <time>2012-08-08T15:31:36Z</time>
      </trkpt>
      <trkpt lat="61.5732488874" lon="8.70045497082">
        <ele>1445</ele>
        <time>2012-08-08T15:31:37Z</time>
      </trkpt>
      <trkpt lat="61.5732502285" lon="8.70047902688">
        <ele>1445.48</ele>
        <time>2012-08-08T15:31:38Z</time>
      </trkpt>
      <trkpt lat="61.5732525755" lon="8.70050258003">
        <ele>1445</ele>
        <time>2012-08-08T15:31:39Z</time>
      </trkpt>
      <trkpt lat="61.5732461214" lon="8.70055697858">
        <ele>1445</ele>
        <time>2012-08-08T15:31:41Z</time>
      </trkpt>
      <trkpt lat="61.5732432716" lon="8.70058405213">
        <ele>1445</ele>
        <time>2012-08-08T15:31:42Z</time>
      </trkpt>
      <trkpt lat="61.5732488874" lon="8.70062151924">
        <ele>1445.48</ele>
        <time>2012-08-08T15:31:44Z</time>
      </trkpt>
      <trkpt lat="61.5732493903" lon="8.70064113289">
        <ele>1445.48</ele>
        <time>2012-08-08T15:31:45Z</time>
      </trkpt>
      <trkpt lat="61.5732678305" lon="8.70074020699">
        <ele>1445.48</ele>
        <time>2012-08-08T15:31:54Z</time>
      </trkpt>
      <trkpt lat="61.5732682496" lon="8.70078479871">
        <ele>1445</ele>
        <time>2012-08-08T15:31:57Z</time>
      </trkpt>
      <trkpt lat="61.573237069" lon="8.70094950311">
        <ele>1443.08</ele>
        <time>2012-08-08T15:32:08Z</time>
      </trkpt>
      <trkpt lat="61.5732747875" lon="8.70103332214">
        <ele>1443.56</ele>
        <time>2012-08-08T15:32:12Z</time>
      </trkpt>
      <trkpt lat="61.5732814092" lon="8.70107003488">
        <ele>1442.6</ele>
        <time>2012-08-08T15:32:13Z</time>
      </trkpt>
      <trkpt lat="61.5732912999" lon="8.70115502737">
        <ele>1444.04</ele>
        <time>2012-08-08T15:32:17Z</time>
      </trkpt>
      <trkpt lat="61.5733226482" lon="8.70130590163">
        <ele>1445</ele>
        <time>2012-08-08T15:32:30Z</time>
      </trkpt>
      <trkpt lat="61.5733213071" lon="8.7015250884">
        <ele>1444.04</ele>
        <time>2012-08-08T15:32:39Z</time>
      </trkpt>
      <trkpt lat="61.5733277611" lon="8.70155073702">
        <ele>1444.04</ele>
        <time>2012-08-08T15:32:40Z</time>
      </trkpt>
      <trkpt lat="61.5733309463" lon="8.70157437399">
        <ele>1443.56</ele>
        <time>2012-08-08T15:32:41Z</time>
      </trkpt>
      <trkpt lat="61.5733349696" lon="8.7016008608">
        <ele>1443.56</ele>
        <time>2012-08-08T15:32:42Z</time>
      </trkpt>
      <trkpt lat="61.5733405016" lon="8.70162944309">
        <ele>1444.04</ele>
        <time>2012-08-08T15:32:43Z</time>
      </trkpt>
      <trkpt lat="61.5733431838" lon="8.70165266097">
        <ele>1444.04</ele>
        <time>2012-08-08T15:32:44Z</time>
      </trkpt>
      <trkpt lat="61.5733493026" lon="8.70174804702">
        <ele>1443.56</ele>
        <time>2012-08-08T15:32:49Z</time>
      </trkpt>
      <trkpt lat="61.5733545832" lon="8.70177176781">
        <ele>1443.56</ele>
        <time>2012-08-08T15:32:50Z</time>
      </trkpt>
      <trkpt lat="61.5733571816" lon="8.70179967955">
        <ele>1443.56</ele>
        <time>2012-08-08T15:32:51Z</time>
      </trkpt>
      <trkpt lat="61.5733600315" lon="8.70182792656">
        <ele>1443.56</ele>
        <time>2012-08-08T15:32:52Z</time>
      </trkpt>
      <trkpt lat="61.5733761247" lon="8.70195256546">
        <ele>1443.56</ele>
        <time>2012-08-08T15:32:58Z</time>
      </trkpt>
      <trkpt lat="61.5733822435" lon="8.70203210972">
        <ele>1443.08</ele>
        <time>2012-08-08T15:33:03Z</time>
      </trkpt>
      <trkpt lat="61.5733911283" lon="8.70205775835">
        <ele>1443.56</ele>
        <time>2012-08-08T15:33:04Z</time>
      </trkpt>
      <trkpt lat="61.5734194592" lon="8.70223872364">
        <ele>1444.04</ele>
        <time>2012-08-08T15:33:15Z</time>
      </trkpt>
      <trkpt lat="61.573445024" lon="8.70238993317">
        <ele>1444.04</ele>
        <time>2012-08-08T15:33:28Z</time>
      </trkpt>
      <trkpt lat="61.5734524" lon="8.70242916048">
        <ele>1443.56</ele>
        <time>2012-08-08T15:33:30Z</time>
      </trkpt>
      <trkpt lat="61.5734472871" lon="8.7024614308">
        <ele>1443.56</ele>
        <time>2012-08-08T15:33:31Z</time>
      </trkpt>
      <trkpt lat="61.5734461974" lon="8.70248733088">
        <ele>1443.56</ele>
        <time>2012-08-08T15:33:32Z</time>
      </trkpt>
      <trkpt lat="61.5734651405" lon="8.70255555958">
        <ele>1443.56</ele>
        <time>2012-08-08T15:33:36Z</time>
      </trkpt>
      <trkpt lat="61.5734800603" lon="8.70264382102">
        <ele>1443.56</ele>
        <time>2012-08-08T15:33:41Z</time>
      </trkpt>
      <trkpt lat="61.5734830778" lon="8.702678103">
        <ele>1443.08</ele>
        <time>2012-08-08T15:33:42Z</time>
      </trkpt>
      <trkpt lat="61.5734891128" lon="8.7027331721">
        <ele>1443.08</ele>
        <time>2012-08-08T15:33:44Z</time>
      </trkpt>
      <trkpt lat="61.5734884422" lon="8.70294087566">
        <ele>1442.6</ele>
        <time>2012-08-08T15:33:53Z</time>
      </trkpt>
      <trkpt lat="61.5734896157" lon="8.70296400972">
        <ele>1442.11</ele>
        <time>2012-08-08T15:33:54Z</time>
      </trkpt>
      <trkpt lat="61.5734923817" lon="8.70299602859">
        <ele>1442.6</ele>
        <time>2012-08-08T15:33:56Z</time>
      </trkpt>
      <trkpt lat="61.5734917112" lon="8.70303818956">
        <ele>1442.6</ele>
        <time>2012-08-08T15:33:58Z</time>
      </trkpt>
      <trkpt lat="61.5734938066" lon="8.70306660421">
        <ele>1442.11</ele>
        <time>2012-08-08T15:34:00Z</time>
      </trkpt>
      <trkpt lat="61.573541835" lon="8.70313114487">
        <ele>1443.56</ele>
        <time>2012-08-08T15:34:13Z</time>
      </trkpt>
      <trkpt lat="61.5735405777" lon="8.70315587148">
        <ele>1444.04</ele>
        <time>2012-08-08T15:34:14Z</time>
      </trkpt>
      <trkpt lat="61.5735465288" lon="8.70320591144">
        <ele>1443.56</ele>
        <time>2012-08-08T15:34:15Z</time>
      </trkpt>
      <trkpt lat="61.5735508874" lon="8.70323860087">
        <ele>1443.08</ele>
        <time>2012-08-08T15:34:16Z</time>
      </trkpt>
      <trkpt lat="61.5735530667" lon="8.70326584205">
        <ele>1443.08</ele>
        <time>2012-08-08T15:34:17Z</time>
      </trkpt>
      <trkpt lat="61.5735761169" lon="8.70339618064">
        <ele>1443.08</ele>
        <time>2012-08-08T15:34:25Z</time>
      </trkpt>
      <trkpt lat="61.573589528" lon="8.70349609293">
        <ele>1444.52</ele>
        <time>2012-08-08T15:34:37Z</time>
      </trkpt>
      <trkpt lat="61.573604783" lon="8.70359315537">
        <ele>1442.6</ele>
        <time>2012-08-08T15:34:43Z</time>
      </trkpt>
      <trkpt lat="61.5736031067" lon="8.70361494832">
        <ele>1443.08</ele>
        <time>2012-08-08T15:34:44Z</time>
      </trkpt>
      <trkpt lat="61.5736024361" lon="8.70362978429">
        <ele>1442.6</ele>
        <time>2012-08-08T15:34:45Z</time>
      </trkpt>
      <trkpt lat="61.5736237261" lon="8.70394226164">
        <ele>1441.63</ele>
        <time>2012-08-08T15:34:55Z</time>
      </trkpt>
      <trkpt lat="61.5736292582" lon="8.70396045037">
        <ele>1441.15</ele>
        <time>2012-08-08T15:34:56Z</time>
      </trkpt>
      <trkpt lat="61.5736374725" lon="8.70401795022">
        <ele>1441.15</ele>
        <time>2012-08-08T15:34:59Z</time>
      </trkpt>
      <trkpt lat="61.5736397356" lon="8.70403588749">
        <ele>1441.63</ele>
        <time>2012-08-08T15:35:00Z</time>
      </trkpt>
      <trkpt lat="61.5736704133" lon="8.70431240648">
        <ele>1440.67</ele>
        <time>2012-08-08T15:35:10Z</time>
      </trkpt>
      <trkpt lat="61.5736864228" lon="8.70438641869">
        <ele>1440.67</ele>
        <time>2012-08-08T15:35:21Z</time>
      </trkpt>
      <trkpt lat="61.5736883506" lon="8.70450091548">
        <ele>1440.19</ele>
        <time>2012-08-08T15:35:28Z</time>
      </trkpt>
      <trkpt lat="61.5736833215" lon="8.70474516414">
        <ele>1438.75</ele>
        <time>2012-08-08T15:35:39Z</time>
      </trkpt>
      <trkpt lat="61.5737040248" lon="8.70480107144">
        <ele>1438.27</ele>
        <time>2012-08-08T15:35:47Z</time>
      </trkpt>
      <trkpt lat="61.5736994147" lon="8.70484180748">
        <ele>1437.79</ele>
        <time>2012-08-08T15:35:49Z</time>
      </trkpt>
      <trkpt lat="61.5737300925" lon="8.7049361039">
        <ele>1438.75</ele>
        <time>2012-08-08T15:35:55Z</time>
      </trkpt>
      <trkpt lat="61.5737320203" lon="8.70495479554">
        <ele>1438.75</ele>
        <time>2012-08-08T15:35:56Z</time>
      </trkpt>
      <trkpt lat="61.5737310145" lon="8.70497994125">
        <ele>1438.75</ele>
        <time>2012-08-08T15:35:57Z</time>
      </trkpt>
      <trkpt lat="61.573730763" lon="8.70500793681">
        <ele>1438.27</ele>
        <time>2012-08-08T15:35:58Z</time>
      </trkpt>
      <trkpt lat="61.5737226326" lon="8.70503199287">
        <ele>1437.79</ele>
        <time>2012-08-08T15:35:59Z</time>
      </trkpt>
      <trkpt lat="61.5737126581" lon="8.70505294763">
        <ele>1437.31</ele>
        <time>2012-08-08T15:36:00Z</time>
      </trkpt>
      <trkpt lat="61.5737058688" lon="8.70507247746">
        <ele>1437.31</ele>
        <time>2012-08-08T15:36:01Z</time>
      </trkpt>
      <trkpt lat="61.5736940503" lon="8.70513148606">
        <ele>1435.87</ele>
        <time>2012-08-08T15:36:04Z</time>
      </trkpt>
      <trkpt lat="61.57369514" lon="8.7051713001">
        <ele>1435.87</ele>
        <time>2012-08-08T15:36:05Z</time>
      </trkpt>
      <trkpt lat="61.5736922901" lon="8.70520885102">
        <ele>1434.91</ele>
        <time>2012-08-08T15:36:06Z</time>
      </trkpt>
      <trkpt lat="61.5736886021" lon="8.70523307472">
        <ele>1434.91</ele>
        <time>2012-08-08T15:36:07Z</time>
      </trkpt>
      <trkpt lat="61.5736833215" lon="8.70528495871">
        <ele>1434.91</ele>
        <time>2012-08-08T15:36:09Z</time>
      </trkpt>
      <trkpt lat="61.5736844949" lon="8.70531111024">
        <ele>1434.91</ele>
        <time>2012-08-08T15:36:10Z</time>
      </trkpt>
      <trkpt lat="61.5736880153" lon="8.70533466339">
        <ele>1434.91</ele>
        <time>2012-08-08T15:36:11Z</time>
      </trkpt>
      <trkpt lat="61.5737333614" lon="8.70551680215">
        <ele>1434.91</ele>
        <time>2012-08-08T15:36:24Z</time>
      </trkpt>
      <trkpt lat="61.5737621114" lon="8.70581469499">
        <ele>1434.91</ele>
        <time>2012-08-08T15:36:37Z</time>
      </trkpt>
      <trkpt lat="61.5737588424" lon="8.70586096309">
        <ele>1433.94</ele>
        <time>2012-08-08T15:36:39Z</time>
      </trkpt>
      <trkpt lat="61.5737515502" lon="8.70596950874">
        <ele>1434.42</ele>
        <time>2012-08-08T15:36:44Z</time>
      </trkpt>
      <trkpt lat="61.5737575851" lon="8.70605986565">
        <ele>1433.46</ele>
        <time>2012-08-08T15:36:49Z</time>
      </trkpt>
      <trkpt lat="61.5738207847" lon="8.70637225918">
        <ele>1433.46</ele>
        <time>2012-08-08T15:37:04Z</time>
      </trkpt>
      <trkpt lat="61.5738201141" lon="8.70639497414">
        <ele>1433.94</ele>
        <time>2012-08-08T15:37:05Z</time>
      </trkpt>
      <trkpt lat="61.5738193598" lon="8.70646990836">
        <ele>1433.94</ele>
        <time>2012-08-08T15:37:08Z</time>
      </trkpt>
      <trkpt lat="61.573846098" lon="8.7065788731">
        <ele>1433.94</ele>
        <time>2012-08-08T15:37:15Z</time>
      </trkpt>
      <trkpt lat="61.5738621075" lon="8.70665020309">
        <ele>1434.42</ele>
        <time>2012-08-08T15:37:20Z</time>
      </trkpt>
      <trkpt lat="61.573891947" lon="8.70691205375">
        <ele>1433.94</ele>
        <time>2012-08-08T15:37:33Z</time>
      </trkpt>
      <trkpt lat="61.5738981497" lon="8.70693242177">
        <ele>1433.94</ele>
        <time>2012-08-08T15:37:34Z</time>
      </trkpt>
      <trkpt lat="61.5738957189" lon="8.70696879923">
        <ele>1433.94</ele>
        <time>2012-08-08T15:37:35Z</time>
      </trkpt>
      <trkpt lat="61.5738902707" lon="8.70700685307">
        <ele>1433.94</ele>
        <time>2012-08-08T15:37:36Z</time>
      </trkpt>
      <trkpt lat="61.5738904383" lon="8.70704348199">
        <ele>1433.46</ele>
        <time>2012-08-08T15:37:37Z</time>
      </trkpt>
      <trkpt lat="61.5739087109" lon="8.70718589053">
        <ele>1432.5</ele>
        <time>2012-08-08T15:37:46Z</time>
      </trkpt>
      <trkpt lat="61.5739031788" lon="8.7072157301">
        <ele>1432.5</ele>
        <time>2012-08-08T15:37:47Z</time>
      </trkpt>
      <trkpt lat="61.5738960542" lon="8.70723593049">
        <ele>1432.02</ele>
        <time>2012-08-08T15:37:48Z</time>
      </trkpt>
      <trkpt lat="61.5739064477" lon="8.70730080642">
        <ele>1432.5</ele>
        <time>2012-08-08T15:37:56Z</time>
      </trkpt>
      <trkpt lat="61.5739107225" lon="8.70733190328">
        <ele>1432.02</ele>
        <time>2012-08-08T15:37:57Z</time>
      </trkpt>
      <trkpt lat="61.5739186015" lon="8.70735704899">
        <ele>1432.02</ele>
        <time>2012-08-08T15:37:58Z</time>
      </trkpt>
      <trkpt lat="61.5739302523" lon="8.7073945161">
        <ele>1432.02</ele>
        <time>2012-08-08T15:38:00Z</time>
      </trkpt>
      <trkpt lat="61.573946178" lon="8.70744698681">
        <ele>1432.02</ele>
        <time>2012-08-08T15:38:03Z</time>
      </trkpt>
      <trkpt lat="61.5739421546" lon="8.70747489855">
        <ele>1432.02</ele>
        <time>2012-08-08T15:38:04Z</time>
      </trkpt>
      <trkpt lat="61.5739817172" lon="8.70765410364">
        <ele>1433.46</ele>
        <time>2012-08-08T15:38:17Z</time>
      </trkpt>
      <trkpt lat="61.5740351938" lon="8.70783138089">
        <ele>1433.46</ele>
        <time>2012-08-08T15:38:28Z</time>
      </trkpt>
      <trkpt lat="61.5740683023" lon="8.70796482079">
        <ele>1433.94</ele>
        <time>2012-08-08T15:38:35Z</time>
      </trkpt>
      <trkpt lat="61.5740743373" lon="8.70797454379">
        <ele>1433.46</ele>
        <time>2012-08-08T15:38:36Z</time>
      </trkpt>
      <trkpt lat="61.5740844794" lon="8.70798024349">
        <ele>1432.98</ele>
        <time>2012-08-08T15:38:37Z</time>
      </trkpt>
      <trkpt lat="61.5740863234" lon="8.70813514106">
        <ele>1433.94</ele>
        <time>2012-08-08T15:38:47Z</time>
      </trkpt>
      <trkpt lat="61.5741114691" lon="8.70835851878">
        <ele>1433.46</ele>
        <time>2012-08-08T15:39:00Z</time>
      </trkpt>
      <trkpt lat="61.574117085" lon="8.70836446993">
        <ele>1433.46</ele>
        <time>2012-08-08T15:39:01Z</time>
      </trkpt>
      <trkpt lat="61.5741528757" lon="8.7084625382">
        <ele>1433.46</ele>
        <time>2012-08-08T15:39:06Z</time>
      </trkpt>
      <trkpt lat="61.5741619281" lon="8.70849849656">
        <ele>1433.94</ele>
        <time>2012-08-08T15:39:07Z</time>
      </trkpt>
      <trkpt lat="61.5741693042" lon="8.70854107663">
        <ele>1433.46</ele>
        <time>2012-08-08T15:39:08Z</time>
      </trkpt>
      <trkpt lat="61.5741703939" lon="8.70857829228">
        <ele>1432.5</ele>
        <time>2012-08-08T15:39:09Z</time>
      </trkpt>
      <trkpt lat="61.5741677117" lon="8.70860670693">
        <ele>1433.46</ele>
        <time>2012-08-08T15:39:10Z</time>
      </trkpt>
      <trkpt lat="61.5741624311" lon="8.70862606913">
        <ele>1432.98</ele>
        <time>2012-08-08T15:39:11Z</time>
      </trkpt>
      <trkpt lat="61.5741528757" lon="8.70866538025">
        <ele>1432.5</ele>
        <time>2012-08-08T15:39:13Z</time>
      </trkpt>
      <trkpt lat="61.5741553903" lon="8.70869019069">
        <ele>1432.5</ele>
        <time>2012-08-08T15:39:14Z</time>
      </trkpt>
      <trkpt lat="61.5741700586" lon="8.70870720595">
        <ele>1433.46</ele>
        <time>2012-08-08T15:39:28Z</time>
      </trkpt>
      <trkpt lat="61.5741748363" lon="8.70872832835">
        <ele>1432.98</ele>
        <time>2012-08-08T15:39:53Z</time>
      </trkpt>
      <trkpt lat="61.5741777699" lon="8.70871835388">
        <ele>1432.98</ele>
        <time>2012-08-08T15:40:27Z</time>
      </trkpt>
      <trkpt lat="61.5741802007" lon="8.70873771608">
        <ele>1432.98</ele>
        <time>2012-08-08T15:40:57Z</time>
      </trkpt>
      <trkpt lat="61.5741843078" lon="8.70875171386">
        <ele>1432.98</ele>
        <time>2012-08-08T15:41:23Z</time>
      </trkpt>
      <trkpt lat="61.5741755906" lon="8.70872707106">
        <ele>1432.98</ele>
        <time>2012-08-08T15:41:57Z</time>
      </trkpt>
      <trkpt lat="61.574193025" lon="8.70868130587">
        <ele>1432.98</ele>
        <time>2012-08-08T15:42:22Z</time>
      </trkpt>
      <trkpt lat="61.5741880797" lon="8.70873352513">
        <ele>1433.46</ele>
        <time>2012-08-08T15:42:52Z</time>
      </trkpt>
      <trkpt lat="61.5741903428" lon="8.70870620012">
        <ele>1433.94</ele>
        <time>2012-08-08T15:43:18Z</time>
      </trkpt>
      <trkpt lat="61.5741833858" lon="8.70872665197">
        <ele>1432.5</ele>
        <time>2012-08-08T15:43:42Z</time>
      </trkpt>
      <trkpt lat="61.5741783567" lon="8.70874551125">
        <ele>1432.98</ele>
        <time>2012-08-08T15:43:55Z</time>
      </trkpt>
      <trkpt lat="61.5741697233" lon="8.70878658257">
        <ele>1433.94</ele>
        <time>2012-08-08T15:44:01Z</time>
      </trkpt>
      <trkpt lat="61.5741413925" lon="8.7088434957">
        <ele>1432.98</ele>
        <time>2012-08-08T15:44:53Z</time>
      </trkpt>
      <trkpt lat="61.5741792787" lon="8.70876152068">
        <ele>1432.5</ele>
        <time>2012-08-08T15:45:08Z</time>
      </trkpt>
      <trkpt lat="61.5741689689" lon="8.70876981877">
        <ele>1432.5</ele>
        <time>2012-08-08T15:45:11Z</time>
      </trkpt>
      <trkpt lat="61.5741706453" lon="8.70877342299">
        <ele>1432.5</ele>
        <time>2012-08-08T15:45:24Z</time>
      </trkpt>
      <trkpt lat="61.5741691366" lon="8.70878390037">
        <ele>1432.5</ele>
        <time>2012-08-08T15:45:25Z</time>
      </trkpt>
      <trkpt lat="61.5741804522" lon="8.70892756619">
        <ele>1432.02</ele>
        <time>2012-08-08T15:45:37Z</time>
      </trkpt>
      <trkpt lat="61.5741770994" lon="8.70893837884">
        <ele>1431.54</ele>
        <time>2012-08-08T15:45:43Z</time>
      </trkpt>
      <trkpt lat="61.5741765127" lon="8.70899512433">
        <ele>1432.02</ele>
        <time>2012-08-08T15:45:47Z</time>
      </trkpt>
      <trkpt lat="61.5741598327" lon="8.70909579098">
        <ele>1429.62</ele>
        <time>2012-08-08T15:45:54Z</time>
      </trkpt>
      <trkpt lat="61.5741454996" lon="8.70914909989">
        <ele>1429.14</ele>
        <time>2012-08-08T15:45:57Z</time>
      </trkpt>
      <trkpt lat="61.5741320886" lon="8.70917634107">
        <ele>1428.66</ele>
        <time>2012-08-08T15:45:59Z</time>
      </trkpt>
      <trkpt lat="61.5741118882" lon="8.70931338519">
        <ele>1424.81</ele>
        <time>2012-08-08T15:46:10Z</time>
      </trkpt>
      <trkpt lat="61.5741052665" lon="8.70934121311">
        <ele>1424.81</ele>
        <time>2012-08-08T15:46:16Z</time>
      </trkpt>
      <trkpt lat="61.5740928613" lon="8.70944313705">
        <ele>1423.37</ele>
        <time>2012-08-08T15:46:20Z</time>
      </trkpt>
      <trkpt lat="61.5740817972" lon="8.70951404795">
        <ele>1422.89</ele>
        <time>2012-08-08T15:46:24Z</time>
      </trkpt>
      <trkpt lat="61.5740854014" lon="8.70965922251">
        <ele>1421.93</ele>
        <time>2012-08-08T15:46:34Z</time>
      </trkpt>
      <trkpt lat="61.5740790311" lon="8.70965888724">
        <ele>1422.89</ele>
        <time>2012-08-08T15:46:38Z</time>
      </trkpt>
      <trkpt lat="61.5740720741" lon="8.70979417115">
        <ele>1421.93</ele>
        <time>2012-08-08T15:46:44Z</time>
      </trkpt>
      <trkpt lat="61.57407308" lon="8.70991520584">
        <ele>1420.97</ele>
        <time>2012-08-08T15:46:48Z</time>
      </trkpt>
      <trkpt lat="61.57407769" lon="8.70999768376">
        <ele>1419.52</ele>
        <time>2012-08-08T15:46:53Z</time>
      </trkpt>
      <trkpt lat="61.574068889" lon="8.71013246477">
        <ele>1416.64</ele>
        <time>2012-08-08T15:47:04Z</time>
      </trkpt>
      <trkpt lat="61.574053131" lon="8.71019314975">
        <ele>1415.68</ele>
        <time>2012-08-08T15:47:16Z</time>
      </trkpt>
      <trkpt lat="61.574063357" lon="8.71025852859">
        <ele>1414.72</ele>
        <time>2012-08-08T15:47:21Z</time>
      </trkpt>
      <trkpt lat="61.5740745887" lon="8.71031929739">
        <ele>1414.72</ele>
        <time>2012-08-08T15:47:25Z</time>
      </trkpt>
      <trkpt lat="61.5740879159" lon="8.71041610837">
        <ele>1414.72</ele>
        <time>2012-08-08T15:47:31Z</time>
      </trkpt>
      <trkpt lat="61.5740863234" lon="8.71048073284">
        <ele>1414.72</ele>
        <time>2012-08-08T15:47:34Z</time>
      </trkpt>
      <trkpt lat="61.5740833059" lon="8.71057620272">
        <ele>1415.2</ele>
        <time>2012-08-08T15:47:38Z</time>
      </trkpt>
      <trkpt lat="61.5740808751" lon="8.7106642127">
        <ele>1413.28</ele>
        <time>2012-08-08T15:47:41Z</time>
      </trkpt>
      <trkpt lat="61.5741175879" lon="8.71082682163">
        <ele>1412.31</ele>
        <time>2012-08-08T15:47:52Z</time>
      </trkpt>
      <trkpt lat="61.5741309989" lon="8.71087459847">
        <ele>1411.83</ele>
        <time>2012-08-08T15:47:55Z</time>
      </trkpt>
      <trkpt lat="61.5741379559" lon="8.71099529788">
        <ele>1411.83</ele>
        <time>2012-08-08T15:48:01Z</time>
      </trkpt>
      <trkpt lat="61.5741654485" lon="8.71118841693">
        <ele>1411.83</ele>
        <time>2012-08-08T15:48:13Z</time>
      </trkpt>
      <trkpt lat="61.574179614" lon="8.711213395">
        <ele>1411.83</ele>
        <time>2012-08-08T15:48:15Z</time>
      </trkpt>
      <trkpt lat="61.5742094535" lon="8.71146786958">
        <ele>1412.31</ele>
        <time>2012-08-08T15:48:28Z</time>
      </trkpt>
      <trkpt lat="61.5742271394" lon="8.71155789122">
        <ele>1413.28</ele>
        <time>2012-08-08T15:48:35Z</time>
      </trkpt>
      <trkpt lat="61.5742024127" lon="8.71162109077">
        <ele>1412.31</ele>
        <time>2012-08-08T15:48:39Z</time>
      </trkpt>
      <trkpt lat="61.5741734114" lon="8.7118819356">
        <ele>1409.91</ele>
        <time>2012-08-08T15:48:51Z</time>
      </trkpt>
      <trkpt lat="61.5742072742" lon="8.71209198609">
        <ele>1408.95</ele>
        <time>2012-08-08T15:49:06Z</time>
      </trkpt>
      <trkpt lat="61.5742193442" lon="8.71214537881">
        <ele>1409.43</ele>
        <time>2012-08-08T15:49:10Z</time>
      </trkpt>
      <trkpt lat="61.5742009878" lon="8.71226398274">
        <ele>1407.99</ele>
        <time>2012-08-08T15:49:21Z</time>
      </trkpt>
      <trkpt lat="61.574179111" lon="8.71243874542">
        <ele>1406.55</ele>
        <time>2012-08-08T15:49:34Z</time>
      </trkpt>
      <trkpt lat="61.5741689689" lon="8.71254351921">
        <ele>1404.62</ele>
        <time>2012-08-08T15:49:42Z</time>
      </trkpt>
      <trkpt lat="61.5741665382" lon="8.71289170347">
        <ele>1402.7</ele>
        <time>2012-08-08T15:49:58Z</time>
      </trkpt>
      <trkpt lat="61.5741651971" lon="8.71300469153">
        <ele>1402.22</ele>
        <time>2012-08-08T15:50:05Z</time>
      </trkpt>
      <trkpt lat="61.5741863195" lon="8.71318305843">
        <ele>1401.26</ele>
        <time>2012-08-08T15:50:16Z</time>
      </trkpt>
      <trkpt lat="61.5741819609" lon="8.71321180835">
        <ele>1401.26</ele>
        <time>2012-08-08T15:50:17Z</time>
      </trkpt>
      <trkpt lat="61.5741784405" lon="8.71323695406">
        <ele>1400.78</ele>
        <time>2012-08-08T15:50:18Z</time>
      </trkpt>
      <trkpt lat="61.574179111" lon="8.71341599151">
        <ele>1400.78</ele>
        <time>2012-08-08T15:50:26Z</time>
      </trkpt>
      <trkpt lat="61.5741832182" lon="8.7134414725">
        <ele>1400.3</ele>
        <time>2012-08-08T15:50:27Z</time>
      </trkpt>
      <trkpt lat="61.5741888341" lon="8.71363995597">
        <ele>1399.82</ele>
        <time>2012-08-08T15:50:37Z</time>
      </trkpt>
      <trkpt lat="61.5741811227" lon="8.71368396096">
        <ele>1399.82</ele>
        <time>2012-08-08T15:50:39Z</time>
      </trkpt>
      <trkpt lat="61.5741576534" lon="8.71393600479">
        <ele>1398.37</ele>
        <time>2012-08-08T15:50:52Z</time>
      </trkpt>
      <trkpt lat="61.5741543844" lon="8.71404002421">
        <ele>1397.89</ele>
        <time>2012-08-08T15:50:58Z</time>
      </trkpt>
      <trkpt lat="61.5741590783" lon="8.71412434615">
        <ele>1396.45</ele>
        <time>2012-08-08T15:51:03Z</time>
      </trkpt>
      <trkpt lat="61.5741608385" lon="8.7141496595">
        <ele>1396.45</ele>
        <time>2012-08-08T15:51:04Z</time>
      </trkpt>
      <trkpt lat="61.5741569828" lon="8.71424362063">
        <ele>1396.45</ele>
        <time>2012-08-08T15:51:08Z</time>
      </trkpt>
      <trkpt lat="61.5741516184" lon="8.71427446604">
        <ele>1396.45</ele>
        <time>2012-08-08T15:51:09Z</time>
      </trkpt>
      <trkpt lat="61.5741481818" lon="8.71430170722">
        <ele>1396.45</ele>
        <time>2012-08-08T15:51:10Z</time>
      </trkpt>
      <trkpt lat="61.5741211083" lon="8.71456020512">
        <ele>1394.53</ele>
        <time>2012-08-08T15:51:24Z</time>
      </trkpt>
      <trkpt lat="61.57411105" lon="8.7145861052">
        <ele>1393.57</ele>
        <time>2012-08-08T15:51:27Z</time>
      </trkpt>
      <trkpt lat="61.5741028357" lon="8.71466095559">
        <ele>1392.61</ele>
        <time>2012-08-08T15:51:30Z</time>
      </trkpt>
      <trkpt lat="61.5741030872" lon="8.71468844824">
        <ele>1392.61</ele>
        <time>2012-08-08T15:51:31Z</time>
      </trkpt>
      <trkpt lat="61.5740630217" lon="8.71500629">
        <ele>1390.2</ele>
        <time>2012-08-08T15:51:45Z</time>
      </trkpt>
      <trkpt lat="61.5740399715" lon="8.71512020007">
        <ele>1389.24</ele>
        <time>2012-08-08T15:51:50Z</time>
      </trkpt>
      <trkpt lat="61.5740246326" lon="8.71532958001">
        <ele>1386.84</ele>
        <time>2012-08-08T15:52:02Z</time>
      </trkpt>
      <trkpt lat="61.5740381274" lon="8.71552781202">
        <ele>1385.4</ele>
        <time>2012-08-08T15:52:14Z</time>
      </trkpt>
      <trkpt lat="61.5740384627" lon="8.71557081118">
        <ele>1385.4</ele>
        <time>2012-08-08T15:52:16Z</time>
      </trkpt>
      <trkpt lat="61.5740401391" lon="8.71559042484">
        <ele>1384.92</ele>
        <time>2012-08-08T15:52:17Z</time>
      </trkpt>
      <trkpt lat="61.5740657039" lon="8.71573509648">
        <ele>1385.4</ele>
        <time>2012-08-08T15:52:27Z</time>
      </trkpt>
      <trkpt lat="61.5740447491" lon="8.71588513255">
        <ele>1384.44</ele>
        <time>2012-08-08T15:52:38Z</time>
      </trkpt>
      <trkpt lat="61.5740418993" lon="8.71594338678">
        <ele>1384.44</ele>
        <time>2012-08-08T15:52:41Z</time>
      </trkpt>
      <trkpt lat="61.574035529" lon="8.71597507037">
        <ele>1383.96</ele>
        <time>2012-08-08T15:52:42Z</time>
      </trkpt>
      <trkpt lat="61.5740271471" lon="8.71600683779">
        <ele>1382.99</ele>
        <time>2012-08-08T15:52:43Z</time>
      </trkpt>
      <trkpt lat="61.574019352" lon="8.71603324078">
        <ele>1382.99</ele>
        <time>2012-08-08T15:52:44Z</time>
      </trkpt>
      <trkpt lat="61.5740175918" lon="8.71606341563">
        <ele>1382.99</ele>
        <time>2012-08-08T15:52:45Z</time>
      </trkpt>
      <trkpt lat="61.573996637" lon="8.71611018665">
        <ele>1381.55</ele>
        <time>2012-08-08T15:52:57Z</time>
      </trkpt>
      <trkpt lat="61.574003594" lon="8.71614136733">
        <ele>1381.07</ele>
        <time>2012-08-08T15:52:59Z</time>
      </trkpt>
      <trkpt lat="61.5739995707" lon="8.71619693935">
        <ele>1380.59</ele>
        <time>2012-08-08T15:53:01Z</time>
      </trkpt>
      <trkpt lat="61.5739973076" lon="8.71622242033">
        <ele>1380.59</ele>
        <time>2012-08-08T15:53:02Z</time>
      </trkpt>
      <trkpt lat="61.5739766043" lon="8.71640833095">
        <ele>1378.67</ele>
        <time>2012-08-08T15:53:13Z</time>
      </trkpt>
      <trkpt lat="61.5739536379" lon="8.71657940559">
        <ele>1377.71</ele>
        <time>2012-08-08T15:53:19Z</time>
      </trkpt>
      <trkpt lat="61.5739486087" lon="8.71662299149">
        <ele>1377.23</ele>
        <time>2012-08-08T15:53:22Z</time>
      </trkpt>
      <trkpt lat="61.5739538055" lon="8.71664713137">
        <ele>1377.23</ele>
        <time>2012-08-08T15:53:23Z</time>
      </trkpt>
      <trkpt lat="61.5739603434" lon="8.71671318077">
        <ele>1377.23</ele>
        <time>2012-08-08T15:53:26Z</time>
      </trkpt>
      <trkpt lat="61.5739590861" lon="8.71673832648">
        <ele>1377.71</ele>
        <time>2012-08-08T15:53:27Z</time>
      </trkpt>
      <trkpt lat="61.5739289951" lon="8.71683714911">
        <ele>1376.26</ele>
        <time>2012-08-08T15:53:32Z</time>
      </trkpt>
      <trkpt lat="61.5739168413" lon="8.7168903742">
        <ele>1375.78</ele>
        <time>2012-08-08T15:53:35Z</time>
      </trkpt>
      <trkpt lat="61.5739150811" lon="8.71692021377">
        <ele>1375.78</ele>
        <time>2012-08-08T15:53:36Z</time>
      </trkpt>
      <trkpt lat="61.5739130694" lon="8.71694276109">
        <ele>1375.78</ele>
        <time>2012-08-08T15:53:37Z</time>
      </trkpt>
      <trkpt lat="61.5739119798" lon="8.71696916409">
        <ele>1374.82</ele>
        <time>2012-08-08T15:53:38Z</time>
      </trkpt>
      <trkpt lat="61.5739351138" lon="8.71720301919">
        <ele>1375.3</ele>
        <time>2012-08-08T15:53:49Z</time>
      </trkpt>
      <trkpt lat="61.5739365388" lon="8.71722615324">
        <ele>1374.82</ele>
        <time>2012-08-08T15:53:50Z</time>
      </trkpt>
      <trkpt lat="61.573938299" lon="8.71731156483">
        <ele>1374.82</ele>
        <time>2012-08-08T15:53:53Z</time>
      </trkpt>
      <trkpt lat="61.5739398077" lon="8.71746034361">
        <ele>1374.82</ele>
        <time>2012-08-08T15:53:59Z</time>
      </trkpt>
      <trkpt lat="61.5739463456" lon="8.71748196892">
        <ele>1374.34</ele>
        <time>2012-08-08T15:54:00Z</time>
      </trkpt>
      <trkpt lat="61.5739506204" lon="8.71750409715">
        <ele>1374.82</ele>
        <time>2012-08-08T15:54:01Z</time>
      </trkpt>
      <trkpt lat="61.5739455912" lon="8.71756243519">
        <ele>1374.34</ele>
        <time>2012-08-08T15:54:04Z</time>
      </trkpt>
      <trkpt lat="61.573941065" lon="8.71759160422">
        <ele>1374.34</ele>
        <time>2012-08-08T15:54:05Z</time>
      </trkpt>
      <trkpt lat="61.5739374608" lon="8.71761851013">
        <ele>1374.34</ele>
        <time>2012-08-08T15:54:06Z</time>
      </trkpt>
      <trkpt lat="61.5739365388" lon="8.71771104634">
        <ele>1373.86</ele>
        <time>2012-08-08T15:54:11Z</time>
      </trkpt>
      <trkpt lat="61.5739542246" lon="8.71782629751">
        <ele>1373.38</ele>
        <time>2012-08-08T15:54:16Z</time>
      </trkpt>
      <trkpt lat="61.5739527158" lon="8.71791321784">
        <ele>1372.42</ele>
        <time>2012-08-08T15:54:19Z</time>
      </trkpt>
      <trkpt lat="61.5739351977" lon="8.71827531606">
        <ele>1371.94</ele>
        <time>2012-08-08T15:54:33Z</time>
      </trkpt>
      <trkpt lat="61.5739272349" lon="8.7185397651">
        <ele>1370.98</ele>
        <time>2012-08-08T15:54:45Z</time>
      </trkpt>
      <trkpt lat="61.5739324316" lon="8.71867680922">
        <ele>1370.5</ele>
        <time>2012-08-08T15:54:50Z</time>
      </trkpt>
      <trkpt lat="61.5739321802" lon="8.71873430908">
        <ele>1370.02</ele>
        <time>2012-08-08T15:54:53Z</time>
      </trkpt>
      <trkpt lat="61.5739289951" lon="8.71878661215">
        <ele>1370.02</ele>
        <time>2012-08-08T15:54:55Z</time>
      </trkpt>
      <trkpt lat="61.5739241336" lon="8.71881276369">
        <ele>1369.54</ele>
        <time>2012-08-08T15:54:56Z</time>
      </trkpt>
      <trkpt lat="61.5739226248" lon="8.71883874759">
        <ele>1369.54</ele>
        <time>2012-08-08T15:54:57Z</time>
      </trkpt>
      <trkpt lat="61.5739269834" lon="8.71886196546">
        <ele>1369.54</ele>
        <time>2012-08-08T15:54:58Z</time>
      </trkpt>
      <trkpt lat="61.5739299171" lon="8.71888744645">
        <ele>1369.05</ele>
        <time>2012-08-08T15:54:59Z</time>
      </trkpt>
      <trkpt lat="61.5739176795" lon="8.7190391589">
        <ele>1368.09</ele>
        <time>2012-08-08T15:55:05Z</time>
      </trkpt>
      <trkpt lat="61.5739050228" lon="8.71906028129">
        <ele>1367.61</ele>
        <time>2012-08-08T15:55:06Z</time>
      </trkpt>
      <trkpt lat="61.5738879237" lon="8.71908852831">
        <ele>1367.13</ele>
        <time>2012-08-08T15:55:08Z</time>
      </trkpt>
      <trkpt lat="61.573882727" lon="8.71911618859">
        <ele>1367.13</ele>
        <time>2012-08-08T15:55:09Z</time>
      </trkpt>
      <trkpt lat="61.5738804638" lon="8.71914594434">
        <ele>1367.13</ele>
        <time>2012-08-08T15:55:10Z</time>
      </trkpt>
      <trkpt lat="61.5738686454" lon="8.71912649833">
        <ele>1367.13</ele>
        <time>2012-08-08T15:55:21Z</time>
      </trkpt>
      <trkpt lat="61.5738806315" lon="8.71920461766">
        <ele>1366.65</ele>
        <time>2012-08-08T15:55:34Z</time>
      </trkpt>
      <trkpt lat="61.5738729201" lon="8.71919087134">
        <ele>1366.65</ele>
        <time>2012-08-08T15:55:50Z</time>
      </trkpt>
      <trkpt lat="61.5738807153" lon="8.71921216138">
        <ele>1367.13</ele>
        <time>2012-08-08T15:56:16Z</time>
      </trkpt>
      <trkpt lat="61.5738866664" lon="8.71922632679">
        <ele>1366.65</ele>
        <time>2012-08-08T15:56:46Z</time>
      </trkpt>
      <trkpt lat="61.5738849062" lon="8.71919447556">
        <ele>1366.65</ele>
        <time>2012-08-08T15:57:09Z</time>
      </trkpt>
      <trkpt lat="61.5738769434" lon="8.71921308339">
        <ele>1367.13</ele>
        <time>2012-08-08T15:57:27Z</time>
      </trkpt>
      <trkpt lat="61.573878536" lon="8.71922523715">
        <ele>1366.65</ele>
        <time>2012-08-08T15:57:31Z</time>
      </trkpt>
      <trkpt lat="61.5738772787" lon="8.71925314888">
        <ele>1367.13</ele>
        <time>2012-08-08T15:57:32Z</time>
      </trkpt>
      <trkpt lat="61.5738746803" lon="8.71943344362">
        <ele>1366.65</ele>
        <time>2012-08-08T15:57:39Z</time>
      </trkpt>
      <trkpt lat="61.573861856" lon="8.71967014857">
        <ele>1365.69</ele>
        <time>2012-08-08T15:57:50Z</time>
      </trkpt>
      <trkpt lat="61.5738723334" lon="8.71973929927">
        <ele>1365.69</ele>
        <time>2012-08-08T15:57:54Z</time>
      </trkpt>
      <trkpt lat="61.5738769434" lon="8.71982429177">
        <ele>1365.21</ele>
        <time>2012-08-08T15:57:59Z</time>
      </trkpt>
      <trkpt lat="61.5738703217" lon="8.71984818019">
        <ele>1364.73</ele>
        <time>2012-08-08T15:58:00Z</time>
      </trkpt>
      <trkpt lat="61.5738656279" lon="8.71987164952">
        <ele>1364.25</ele>
        <time>2012-08-08T15:58:01Z</time>
      </trkpt>
      <trkpt lat="61.5738568269" lon="8.72012453154">
        <ele>1364.25</ele>
        <time>2012-08-08T15:58:12Z</time>
      </trkpt>
      <trkpt lat="61.5738635324" lon="8.72014515102">
        <ele>1364.73</ele>
        <time>2012-08-08T15:58:13Z</time>
      </trkpt>
      <trkpt lat="61.5738662984" lon="8.7201692909">
        <ele>1364.25</ele>
        <time>2012-08-08T15:58:14Z</time>
      </trkpt>
      <trkpt lat="61.5738691483" lon="8.72019242495">
        <ele>1364.73</ele>
        <time>2012-08-08T15:58:15Z</time>
      </trkpt>
      <trkpt lat="61.573871579" lon="8.72022025287">
        <ele>1364.73</ele>
        <time>2012-08-08T15:58:16Z</time>
      </trkpt>
      <trkpt lat="61.5738718305" lon="8.72025067918">
        <ele>1364.73</ele>
        <time>2012-08-08T15:58:17Z</time>
      </trkpt>
      <trkpt lat="61.5738732554" lon="8.72027758509">
        <ele>1364.73</ele>
        <time>2012-08-08T15:58:18Z</time>
      </trkpt>
      <trkpt lat="61.5738545638" lon="8.72028470971">
        <ele>1364.25</ele>
        <time>2012-08-08T15:58:30Z</time>
      </trkpt>
      <trkpt lat="61.5738725848" lon="8.72031069361">
        <ele>1365.21</ele>
        <time>2012-08-08T15:58:33Z</time>
      </trkpt>
      <trkpt lat="61.5738806315" lon="8.72032326646">
        <ele>1365.21</ele>
        <time>2012-08-08T15:58:47Z</time>
      </trkpt>
      <trkpt lat="61.5738849901" lon="8.72034656815">
        <ele>1365.21</ele>
        <time>2012-08-08T15:58:54Z</time>
      </trkpt>
      <trkpt lat="61.5738826431" lon="8.72038269415">
        <ele>1365.21</ele>
        <time>2012-08-08T15:58:55Z</time>
      </trkpt>
      <trkpt lat="61.573883146" lon="8.72065820731">
        <ele>1364.25</ele>
        <time>2012-08-08T15:59:05Z</time>
      </trkpt>
      <trkpt lat="61.5738940425" lon="8.72073590755">
        <ele>1363.77</ele>
        <time>2012-08-08T15:59:09Z</time>
      </trkpt>
      <trkpt lat="61.5738947969" lon="8.7207651604">
        <ele>1363.77</ele>
        <time>2012-08-08T15:59:10Z</time>
      </trkpt>
      <trkpt lat="61.5738948807" lon="8.7207964249">
        <ele>1364.25</ele>
        <time>2012-08-08T15:59:11Z</time>
      </trkpt>
      <trkpt lat="61.5738920309" lon="8.72082827613">
        <ele>1364.25</ele>
        <time>2012-08-08T15:59:12Z</time>
      </trkpt>
      <trkpt lat="61.5738885105" lon="8.72085836716">
        <ele>1363.77</ele>
        <time>2012-08-08T15:59:13Z</time>
      </trkpt>
      <trkpt lat="61.5738858283" lon="8.72088175267">
        <ele>1363.77</ele>
        <time>2012-08-08T15:59:14Z</time>
      </trkpt>
      <trkpt lat="61.573881302" lon="8.72090857476">
        <ele>1364.25</ele>
        <time>2012-08-08T15:59:15Z</time>
      </trkpt>
      <trkpt lat="61.5738752671" lon="8.72093372047">
        <ele>1363.77</ele>
        <time>2012-08-08T15:59:16Z</time>
      </trkpt>
      <trkpt lat="61.5738736745" lon="8.72095517814">
        <ele>1363.77</ele>
        <time>2012-08-08T15:59:17Z</time>
      </trkpt>
      <trkpt lat="61.5738763567" lon="8.72098384425">
        <ele>1363.29</ele>
        <time>2012-08-08T15:59:18Z</time>
      </trkpt>
      <trkpt lat="61.5738792066" lon="8.72101435438">
        <ele>1363.77</ele>
        <time>2012-08-08T15:59:19Z</time>
      </trkpt>
      <trkpt lat="61.5738804638" lon="8.72104159556">
        <ele>1363.29</ele>
        <time>2012-08-08T15:59:20Z</time>
      </trkpt>
      <trkpt lat="61.5738973953" lon="8.72126245871">
        <ele>1363.29</ele>
        <time>2012-08-08T15:59:31Z</time>
      </trkpt>
      <trkpt lat="61.5739097167" lon="8.72137636878">
        <ele>1362.81</ele>
        <time>2012-08-08T15:59:37Z</time>
      </trkpt>
      <trkpt lat="61.5739037655" lon="8.72141542844">
        <ele>1363.77</ele>
        <time>2012-08-08T15:59:39Z</time>
      </trkpt>
      <trkpt lat="61.5738967247" lon="8.72143847868">
        <ele>1363.29</ele>
        <time>2012-08-08T15:59:40Z</time>
      </trkpt>
      <trkpt lat="61.5738871694" lon="8.72147829272">
        <ele>1362.81</ele>
        <time>2012-08-08T15:59:42Z</time>
      </trkpt>
      <trkpt lat="61.5738693997" lon="8.7215182744">
        <ele>1362.81</ele>
        <time>2012-08-08T15:59:57Z</time>
      </trkpt>
      <trkpt lat="61.573850289" lon="8.72158692218">
        <ele>1362.33</ele>
        <time>2012-08-08T16:00:12Z</time>
      </trkpt>
      <trkpt lat="61.5738528874" lon="8.72159019113">
        <ele>1362.81</ele>
        <time>2012-08-08T16:00:29Z</time>
      </trkpt>
      <trkpt lat="61.5738213714" lon="8.72155540623">
        <ele>1362.81</ele>
        <time>2012-08-08T16:00:55Z</time>
      </trkpt>
      <trkpt lat="61.5738339443" lon="8.72155423276">
        <ele>1362.33</ele>
        <time>2012-08-08T16:01:19Z</time>
      </trkpt>
      <trkpt lat="61.5738544799" lon="8.72158281505">
        <ele>1362.81</ele>
        <time>2012-08-08T16:01:53Z</time>
      </trkpt>
      <trkpt lat="61.5738511272" lon="8.72159010731">
        <ele>1362.81</ele>
        <time>2012-08-08T16:02:22Z</time>
      </trkpt>
      <trkpt lat="61.5738587547" lon="8.72159186751">
        <ele>1363.29</ele>
        <time>2012-08-08T16:02:46Z</time>
      </trkpt>
      <trkpt lat="61.5738642868" lon="8.72163520195">
        <ele>1363.29</ele>
        <time>2012-08-08T16:03:20Z</time>
      </trkpt>
      <trkpt lat="61.5738436673" lon="8.72165640816">
        <ele>1362.81</ele>
        <time>2012-08-08T16:03:32Z</time>
      </trkpt>
      <trkpt lat="61.5738516301" lon="8.72167367488">
        <ele>1362.81</ele>
        <time>2012-08-08T16:03:49Z</time>
      </trkpt>
      <trkpt lat="61.5738552343" lon="8.72172715142">
        <ele>1362.33</ele>
        <time>2012-08-08T16:04:14Z</time>
      </trkpt>
      <trkpt lat="61.573837297" lon="8.72165741399">
        <ele>1362.33</ele>
        <time>2012-08-08T16:04:42Z</time>
      </trkpt>
      <trkpt lat="61.5738415718" lon="8.72175229713">
        <ele>1363.29</ele>
        <time>2012-08-08T16:04:51Z</time>
      </trkpt>
      <trkpt lat="61.573782647" lon="8.72196653858">
        <ele>1362.33</ele>
        <time>2012-08-08T16:05:05Z</time>
      </trkpt>
      <trkpt lat="61.5737706609" lon="8.72199847363">
        <ele>1362.33</ele>
        <time>2012-08-08T16:05:08Z</time>
      </trkpt>
      <trkpt lat="61.5737572499" lon="8.72208681889">
        <ele>1360.88</ele>
        <time>2012-08-08T16:05:21Z</time>
      </trkpt>
      <trkpt lat="61.5737614408" lon="8.72209662572">
        <ele>1360.88</ele>
        <time>2012-08-08T16:05:25Z</time>
      </trkpt>
      <trkpt lat="61.5737667214" lon="8.72219896875">
        <ele>1361.84</ele>
        <time>2012-08-08T16:05:38Z</time>
      </trkpt>
      <trkpt lat="61.5737427492" lon="8.72229728848">
        <ele>1361.36</ele>
        <time>2012-08-08T16:05:44Z</time>
      </trkpt>
      <trkpt lat="61.5737435874" lon="8.72234347276">
        <ele>1361.36</ele>
        <time>2012-08-08T16:05:47Z</time>
      </trkpt>
      <trkpt lat="61.5737130772" lon="8.72238311917">
        <ele>1360.88</ele>
        <time>2012-08-08T16:05:53Z</time>
      </trkpt>
      <trkpt lat="61.5736935474" lon="8.72257732786">
        <ele>1360.4</ele>
        <time>2012-08-08T16:06:06Z</time>
      </trkpt>
      <trkpt lat="61.5736887697" lon="8.72274857014">
        <ele>1359.44</ele>
        <time>2012-08-08T16:06:18Z</time>
      </trkpt>
      <trkpt lat="61.5736712515" lon="8.72281570919">
        <ele>1359.44</ele>
        <time>2012-08-08T16:06:25Z</time>
      </trkpt>
      <trkpt lat="61.5736375563" lon="8.72279777192">
        <ele>1358.48</ele>
        <time>2012-08-08T16:06:28Z</time>
      </trkpt>
      <trkpt lat="61.5736028552" lon="8.72282585129">
        <ele>1356.56</ele>
        <time>2012-08-08T16:06:32Z</time>
      </trkpt>
      <trkpt lat="61.5735777933" lon="8.72275259346">
        <ele>1352.71</ele>
        <time>2012-08-08T16:06:37Z</time>
      </trkpt>
      <trkpt lat="61.5735778771" lon="8.72274538502">
        <ele>1356.56</ele>
        <time>2012-08-08T16:06:38Z</time>
      </trkpt>
      <trkpt lat="61.5736013465" lon="8.72274789959">
        <ele>1355.12</ele>
        <time>2012-08-08T16:07:17Z</time>
      </trkpt>
      <trkpt lat="61.5735890251" lon="8.72273842804">
        <ele>1356.08</ele>
        <time>2012-08-08T16:07:55Z</time>
      </trkpt>
      <trkpt lat="61.5735812299" lon="8.72274789959">
        <ele>1356.08</ele>
        <time>2012-08-08T16:08:02Z</time>
      </trkpt>
      <trkpt lat="61.5736096445" lon="8.72290078551">
        <ele>1357.04</ele>
        <time>2012-08-08T16:08:06Z</time>
      </trkpt>
      <trkpt lat="61.5736129973" lon="8.72294244356">
        <ele>1357.04</ele>
        <time>2012-08-08T16:08:07Z</time>
      </trkpt>
      <trkpt lat="61.5736147575" lon="8.72297764756">
        <ele>1357.04</ele>
        <time>2012-08-08T16:08:08Z</time>
      </trkpt>
      <trkpt lat="61.5736166853" lon="8.72300363146">
        <ele>1357.04</ele>
        <time>2012-08-08T16:08:09Z</time>
      </trkpt>
      <trkpt lat="61.5736188646" lon="8.72302198783">
        <ele>1357.04</ele>
        <time>2012-08-08T16:08:10Z</time>
      </trkpt>
      <trkpt lat="61.57362381" lon="8.72304101475">
        <ele>1357.04</ele>
        <time>2012-08-08T16:08:11Z</time>
      </trkpt>
      <trkpt lat="61.573632611" lon="8.72308208607">
        <ele>1357.52</ele>
        <time>2012-08-08T16:08:14Z</time>
      </trkpt>
      <trkpt lat="61.5736380592" lon="8.72310371138">
        <ele>1358</ele>
        <time>2012-08-08T16:08:15Z</time>
      </trkpt>
      <trkpt lat="61.57364971" lon="8.72315869667">
        <ele>1358</ele>
        <time>2012-08-08T16:08:19Z</time>
      </trkpt>
      <trkpt lat="61.5736522246" lon="8.72336698696">
        <ele>1357.04</ele>
        <time>2012-08-08T16:08:30Z</time>
      </trkpt>
      <trkpt lat="61.5736528113" lon="8.72338819318">
        <ele>1357.04</ele>
        <time>2012-08-08T16:08:31Z</time>
      </trkpt>
      <trkpt lat="61.5736343712" lon="8.72360654175">
        <ele>1356.08</ele>
        <time>2012-08-08T16:08:42Z</time>
      </trkpt>
      <trkpt lat="61.5736304317" lon="8.72368164361">
        <ele>1356.08</ele>
        <time>2012-08-08T16:08:47Z</time>
      </trkpt>
      <trkpt lat="61.5736327786" lon="8.72370502912">
        <ele>1356.08</ele>
        <time>2012-08-08T16:08:48Z</time>
      </trkpt>
      <trkpt lat="61.5736320242" lon="8.72372883372">
        <ele>1355.6</ele>
        <time>2012-08-08T16:08:49Z</time>
      </trkpt>
      <trkpt lat="61.5736146737" lon="8.72385766357">
        <ele>1354.63</ele>
        <time>2012-08-08T16:08:57Z</time>
      </trkpt>
      <trkpt lat="61.5736040287" lon="8.72391985729">
        <ele>1354.63</ele>
        <time>2012-08-08T16:09:00Z</time>
      </trkpt>
      <trkpt lat="61.5735901147" lon="8.72408087365">
        <ele>1354.15</ele>
        <time>2012-08-08T16:09:08Z</time>
      </trkpt>
      <trkpt lat="61.5735887736" lon="8.72413736768">
        <ele>1353.67</ele>
        <time>2012-08-08T16:09:11Z</time>
      </trkpt>
      <trkpt lat="61.5735668968" lon="8.72434800491">
        <ele>1352.71</ele>
        <time>2012-08-08T16:09:24Z</time>
      </trkpt>
      <trkpt lat="61.5735635441" lon="8.72441556305">
        <ele>1353.19</ele>
        <time>2012-08-08T16:09:28Z</time>
      </trkpt>
      <trkpt lat="61.5735632088" lon="8.72443928383">
        <ele>1352.71</ele>
        <time>2012-08-08T16:09:29Z</time>
      </trkpt>
      <trkpt lat="61.5735587664" lon="8.72446141206">
        <ele>1352.71</ele>
        <time>2012-08-08T16:09:30Z</time>
      </trkpt>
      <trkpt lat="61.5735544916" lon="8.72450742871">
        <ele>1352.23</ele>
        <time>2012-08-08T16:09:32Z</time>
      </trkpt>
      <trkpt lat="61.573538566" lon="8.72474379838">
        <ele>1351.75</ele>
        <time>2012-08-08T16:09:45Z</time>
      </trkpt>
      <trkpt lat="61.5735160187" lon="8.72492199764">
        <ele>1350.79</ele>
        <time>2012-08-08T16:09:52Z</time>
      </trkpt>
      <trkpt lat="61.5735130012" lon="8.72497497126">
        <ele>1350.31</ele>
        <time>2012-08-08T16:09:55Z</time>
      </trkpt>
      <trkpt lat="61.5735199582" lon="8.72511645779">
        <ele>1350.31</ele>
        <time>2012-08-08T16:10:08Z</time>
      </trkpt>
      <trkpt lat="61.573506631" lon="8.72520430014">
        <ele>1350.31</ele>
        <time>2012-08-08T16:10:31Z</time>
      </trkpt>
      <trkpt lat="61.5735025238" lon="8.72539859265">
        <ele>1350.79</ele>
        <time>2012-08-08T16:10:42Z</time>
      </trkpt>
      <trkpt lat="61.573498752" lon="8.72542541474">
        <ele>1350.79</ele>
        <time>2012-08-08T16:10:43Z</time>
      </trkpt>
      <trkpt lat="61.5734650567" lon="8.72564258985">
        <ele>1349.35</ele>
        <time>2012-08-08T16:10:56Z</time>
      </trkpt>
      <trkpt lat="61.573441755" lon="8.72569732368">
        <ele>1348.87</ele>
        <time>2012-08-08T16:11:01Z</time>
      </trkpt>
      <trkpt lat="61.5734214708" lon="8.72576412745">
        <ele>1347.91</ele>
        <time>2012-08-08T16:11:07Z</time>
      </trkpt>
      <trkpt lat="61.5734123345" lon="8.72577745467">
        <ele>1347.91</ele>
        <time>2012-08-08T16:11:08Z</time>
      </trkpt>
      <trkpt lat="61.5733835846" lon="8.7258101441">
        <ele>1346.94</ele>
        <time>2012-08-08T16:11:12Z</time>
      </trkpt>
      <trkpt lat="61.5733525716" lon="8.72591550462">
        <ele>1345.5</ele>
        <time>2012-08-08T16:11:21Z</time>
      </trkpt>
      <trkpt lat="61.5733456984" lon="8.72593947686">
        <ele>1345.5</ele>
        <time>2012-08-08T16:11:22Z</time>
      </trkpt>
      <trkpt lat="61.5733116679" lon="8.72604433447">
        <ele>1344.54</ele>
        <time>2012-08-08T16:11:29Z</time>
      </trkpt>
      <trkpt lat="61.5733021963" lon="8.72617408633">
        <ele>1344.54</ele>
        <time>2012-08-08T16:11:40Z</time>
      </trkpt>
      <trkpt lat="61.5732626338" lon="8.72637726367">
        <ele>1344.06</ele>
        <time>2012-08-08T16:11:53Z</time>
      </trkpt>
      <trkpt lat="61.5732623823" lon="8.72646510601">
        <ele>1344.54</ele>
        <time>2012-08-08T16:12:04Z</time>
      </trkpt>
      <trkpt lat="61.5732300282" lon="8.72661313042">
        <ele>1343.1</ele>
        <time>2012-08-08T16:12:16Z</time>
      </trkpt>
      <trkpt lat="61.5732003562" lon="8.72681186534">
        <ele>1342.62</ele>
        <time>2012-08-08T16:12:29Z</time>
      </trkpt>
      <trkpt lat="61.5731785633" lon="8.7269468978">
        <ele>1342.62</ele>
        <time>2012-08-08T16:12:40Z</time>
      </trkpt>
      <trkpt lat="61.5731432755" lon="8.72716776095">
        <ele>1342.14</ele>
        <time>2012-08-08T16:12:51Z</time>
      </trkpt>
      <trkpt lat="61.573122656" lon="8.72719902545">
        <ele>1341.66</ele>
        <time>2012-08-08T16:12:53Z</time>
      </trkpt>
      <trkpt lat="61.5731157828" lon="8.72722316533">
        <ele>1341.66</ele>
        <time>2012-08-08T16:12:54Z</time>
      </trkpt>
      <trkpt lat="61.573087452" lon="8.72735786252">
        <ele>1340.22</ele>
        <time>2012-08-08T16:13:01Z</time>
      </trkpt>
      <trkpt lat="61.5730654914" lon="8.72758735903">
        <ele>1339.73</ele>
        <time>2012-08-08T16:13:14Z</time>
      </trkpt>
      <trkpt lat="61.5730621386" lon="8.72765759937">
        <ele>1339.73</ele>
        <time>2012-08-08T16:13:17Z</time>
      </trkpt>
      <trkpt lat="61.5730512422" lon="8.72778374702">
        <ele>1338.77</ele>
        <time>2012-08-08T16:13:23Z</time>
      </trkpt>
      <trkpt lat="61.5730335563" lon="8.72782473452">
        <ele>1338.77</ele>
        <time>2012-08-08T16:13:25Z</time>
      </trkpt>
      <trkpt lat="61.5730479732" lon="8.72800754383">
        <ele>1338.77</ele>
        <time>2012-08-08T16:13:37Z</time>
      </trkpt>
      <trkpt lat="61.5730465483" lon="8.72802204452">
        <ele>1338.29</ele>
        <time>2012-08-08T16:13:38Z</time>
      </trkpt>
      <trkpt lat="61.5730403457" lon="8.72828825377">
        <ele>1337.33</ele>
        <time>2012-08-08T16:13:51Z</time>
      </trkpt>
      <trkpt lat="61.5730263479" lon="8.72849285603">
        <ele>1337.33</ele>
        <time>2012-08-08T16:14:02Z</time>
      </trkpt>
      <trkpt lat="61.5730113443" lon="8.72866887599">
        <ele>1336.37</ele>
        <time>2012-08-08T16:14:13Z</time>
      </trkpt>
      <trkpt lat="61.5729962569" lon="8.728768453">
        <ele>1336.85</ele>
        <time>2012-08-08T16:14:17Z</time>
      </trkpt>
      <trkpt lat="61.572995754" lon="8.7287909165">
        <ele>1336.37</ele>
        <time>2012-08-08T16:14:18Z</time>
      </trkpt>
      <trkpt lat="61.5729898028" lon="8.72884414159">
        <ele>1336.37</ele>
        <time>2012-08-08T16:14:20Z</time>
      </trkpt>
      <trkpt lat="61.572949402" lon="8.72901664115">
        <ele>1334.93</ele>
        <time>2012-08-08T16:14:32Z</time>
      </trkpt>
      <trkpt lat="61.5729468875" lon="8.7290349137">
        <ele>1334.45</ele>
        <time>2012-08-08T16:14:33Z</time>
      </trkpt>
      <trkpt lat="61.5729313809" lon="8.7291617319">
        <ele>1333.97</ele>
        <time>2012-08-08T16:14:39Z</time>
      </trkpt>
      <trkpt lat="61.5729058161" lon="8.72939139605">
        <ele>1333.49</ele>
        <time>2012-08-08T16:14:52Z</time>
      </trkpt>
      <trkpt lat="61.5728955064" lon="8.72944830917">
        <ele>1333.01</ele>
        <time>2012-08-08T16:14:55Z</time>
      </trkpt>
      <trkpt lat="61.5728532616" lon="8.72977151535">
        <ele>1331.08</ele>
        <time>2012-08-08T16:15:08Z</time>
      </trkpt>
      <trkpt lat="61.5728501603" lon="8.72994904406">
        <ele>1331.08</ele>
        <time>2012-08-08T16:15:17Z</time>
      </trkpt>
      <trkpt lat="61.5728168841" lon="8.73005214147">
        <ele>1330.12</ele>
        <time>2012-08-08T16:15:22Z</time>
      </trkpt>
      <trkpt lat="61.57277992" lon="8.73013981618">
        <ele>1330.12</ele>
        <time>2012-08-08T16:15:30Z</time>
      </trkpt>
      <trkpt lat="61.5727302153" lon="8.73025875539">
        <ele>1331.08</ele>
        <time>2012-08-08T16:15:41Z</time>
      </trkpt>
      <trkpt lat="61.5726775769" lon="8.73031625524">
        <ele>1329.64</ele>
        <time>2012-08-08T16:15:53Z</time>
      </trkpt>
      <trkpt lat="61.5726879705" lon="8.73031751253">
        <ele>1329.64</ele>
        <time>2012-08-08T16:16:19Z</time>
      </trkpt>
      <trkpt lat="61.5726494975" lon="8.73034575954">
        <ele>1330.12</ele>
        <time>2012-08-08T16:16:49Z</time>
      </trkpt>
      <trkpt lat="61.5726888925" lon="8.73037660494">
        <ele>1330.12</ele>
        <time>2012-08-08T16:17:15Z</time>
      </trkpt>
      <trkpt lat="61.5726568736" lon="8.73030745424">
        <ele>1329.64</ele>
        <time>2012-08-08T16:17:38Z</time>
      </trkpt>
      <trkpt lat="61.5726444684" lon="8.73028323054">
        <ele>1329.16</ele>
        <time>2012-08-08T16:18:03Z</time>
      </trkpt>
      <trkpt lat="61.572639104" lon="8.7302698195">
        <ele>1328.68</ele>
        <time>2012-08-08T16:18:05Z</time>
      </trkpt>
      <trkpt lat="61.572615467" lon="8.73019899242">
        <ele>1327.24</ele>
        <time>2012-08-08T16:18:08Z</time>
      </trkpt>
      <trkpt lat="61.5726107731" lon="8.73018231243">
        <ele>1326.76</ele>
        <time>2012-08-08T16:18:12Z</time>
      </trkpt>
      <trkpt lat="61.5726037323" lon="8.73020494357">
        <ele>1326.28</ele>
        <time>2012-08-08T16:18:14Z</time>
      </trkpt>
      <trkpt lat="61.5725681093" lon="8.73025598936">
        <ele>1325.31</ele>
        <time>2012-08-08T16:18:18Z</time>
      </trkpt>
      <trkpt lat="61.5725210868" lon="8.73021164909">
        <ele>1323.87</ele>
        <time>2012-08-08T16:18:23Z</time>
      </trkpt>
      <trkpt lat="61.5724723879" lon="8.73003831133">
        <ele>1321.47</ele>
        <time>2012-08-08T16:18:34Z</time>
      </trkpt>
      <trkpt lat="61.5724717174" lon="8.73001668602">
        <ele>1320.99</ele>
        <time>2012-08-08T16:18:38Z</time>
      </trkpt>
      <trkpt lat="61.5724693704" lon="8.72999028303">
        <ele>1321.47</ele>
        <time>2012-08-08T16:18:39Z</time>
      </trkpt>
      <trkpt lat="61.5724239405" lon="8.73000696301">
        <ele>1320.03</ele>
        <time>2012-08-08T16:18:48Z</time>
      </trkpt>
      <trkpt lat="61.5723763313" lon="8.72998810373">
        <ele>1319.55</ele>
        <time>2012-08-08T16:18:58Z</time>
      </trkpt>
      <trkpt lat="61.5722349286" lon="8.72998114675">
        <ele>1316.18</ele>
        <time>2012-08-08T16:19:11Z</time>
      </trkpt>
      <trkpt lat="61.5722048376" lon="8.72986664996">
        <ele>1314.74</ele>
        <time>2012-08-08T16:19:18Z</time>
      </trkpt>
      <trkpt lat="61.572147673" lon="8.72968744487">
        <ele>1313.3</ele>
        <time>2012-08-08T16:19:30Z</time>
      </trkpt>
      <trkpt lat="61.5721407998" lon="8.72962650843">
        <ele>1313.3</ele>
        <time>2012-08-08T16:19:32Z</time>
      </trkpt>
      <trkpt lat="61.5720665362" lon="8.72950849123">
        <ele>1311.86</ele>
        <time>2012-08-08T16:19:42Z</time>
      </trkpt>
      <trkpt lat="61.5720418934" lon="8.72948762029">
        <ele>1312.34</ele>
        <time>2012-08-08T16:19:54Z</time>
      </trkpt>
      <trkpt lat="61.5720103774" lon="8.72943280265">
        <ele>1310.41</ele>
        <time>2012-08-08T16:19:58Z</time>
      </trkpt>
      <trkpt lat="61.5719508659" lon="8.72938846238">
        <ele>1309.93</ele>
        <time>2012-08-08T16:20:03Z</time>
      </trkpt>
      <trkpt lat="61.5718400571" lon="8.72937739827">
        <ele>1306.57</ele>
        <time>2012-08-08T16:20:14Z</time>
      </trkpt>
      <trkpt lat="61.5718027577" lon="8.72941796668">
        <ele>1306.09</ele>
        <time>2012-08-08T16:20:31Z</time>
      </trkpt>
      <trkpt lat="61.5717197768" lon="8.72947194614">
        <ele>1304.65</ele>
        <time>2012-08-08T16:20:36Z</time>
      </trkpt>
      <trkpt lat="61.5717117302" lon="8.72947731055">
        <ele>1304.17</ele>
        <time>2012-08-08T16:20:37Z</time>
      </trkpt>
      <trkpt lat="61.5716958884" lon="8.72950212099">
        <ele>1303.2</ele>
        <time>2012-08-08T16:20:39Z</time>
      </trkpt>
      <trkpt lat="61.5716590919" lon="8.72951787896">
        <ele>1301.28</ele>
        <time>2012-08-08T16:20:42Z</time>
      </trkpt>
      <trkpt lat="61.5716215409" lon="8.72954168357">
        <ele>1300.32</ele>
        <time>2012-08-08T16:20:45Z</time>
      </trkpt>
      <trkpt lat="61.5715633705" lon="8.72952424921">
        <ele>1298.4</ele>
        <time>2012-08-08T16:20:55Z</time>
      </trkpt>
      <trkpt lat="61.5715243109" lon="8.7295805756">
        <ele>1297.44</ele>
        <time>2012-08-08T16:21:00Z</time>
      </trkpt>
      <trkpt lat="61.5715027694" lon="8.72958283871">
        <ele>1296.96</ele>
        <time>2012-08-08T16:21:02Z</time>
      </trkpt>
      <trkpt lat="61.5714498796" lon="8.72965928167">
        <ele>1294.55</ele>
        <time>2012-08-08T16:21:12Z</time>
      </trkpt>
      <trkpt lat="61.5714263264" lon="8.72973203659">
        <ele>1293.59</ele>
        <time>2012-08-08T16:21:23Z</time>
      </trkpt>
      <trkpt lat="61.5713679884" lon="8.72972474433">
        <ele>1292.15</ele>
        <time>2012-08-08T16:21:37Z</time>
      </trkpt>
      <trkpt lat="61.5713564213" lon="8.72970772907">
        <ele>1292.63</ele>
        <time>2012-08-08T16:22:07Z</time>
      </trkpt>
      <trkpt lat="61.5713492967" lon="8.72971636243">
        <ele>1293.11</ele>
        <time>2012-08-08T16:22:30Z</time>
      </trkpt>
      <trkpt lat="61.5713376459" lon="8.72971745208">
        <ele>1292.63</ele>
        <time>2012-08-08T16:22:31Z</time>
      </trkpt>
      <trkpt lat="61.5712897014" lon="8.72967889532">
        <ele>1292.15</ele>
        <time>2012-08-08T16:22:47Z</time>
      </trkpt>
      <trkpt lat="61.5712278429" lon="8.72982448898">
        <ele>1289.27</ele>
        <time>2012-08-08T16:23:00Z</time>
      </trkpt>
      <trkpt lat="61.5711920522" lon="8.72985131107">
        <ele>1288.3</ele>
        <time>2012-08-08T16:23:05Z</time>
      </trkpt>
      <trkpt lat="61.5710683353" lon="8.72991509736">
        <ele>1286.86</ele>
        <time>2012-08-08T16:23:20Z</time>
      </trkpt>
      <trkpt lat="61.5710533317" lon="8.72989045456">
        <ele>1286.38</ele>
        <time>2012-08-08T16:23:30Z</time>
      </trkpt>
      <trkpt lat="61.5710374899" lon="8.72991928831">
        <ele>1285.42</ele>
        <time>2012-08-08T16:23:35Z</time>
      </trkpt>
      <trkpt lat="61.571014272" lon="8.72998106293">
        <ele>1284.46</ele>
        <time>2012-08-08T16:23:45Z</time>
      </trkpt>
      <trkpt lat="61.5709583648" lon="8.72988810763">
        <ele>1283.98</ele>
        <time>2012-08-08T16:23:51Z</time>
      </trkpt>
      <trkpt lat="61.570948055" lon="8.72989892028">
        <ele>1283.5</ele>
        <time>2012-08-08T16:24:01Z</time>
      </trkpt>
      <trkpt lat="61.5709136054" lon="8.72986254282">
        <ele>1283.5</ele>
        <time>2012-08-08T16:24:12Z</time>
      </trkpt>
      <trkpt lat="61.5708820056" lon="8.72989171185">
        <ele>1283.02</ele>
        <time>2012-08-08T16:24:16Z</time>
      </trkpt>
      <trkpt lat="61.570878569" lon="8.72991786338">
        <ele>1283.02</ele>
        <time>2012-08-08T16:24:24Z</time>
      </trkpt>
      <trkpt lat="61.5708390903" lon="8.72999506071">
        <ele>1282.54</ele>
        <time>2012-08-08T16:24:29Z</time>
      </trkpt>
      <trkpt lat="61.5707548521" lon="8.73009438626">
        <ele>1283.02</ele>
        <time>2012-08-08T16:24:41Z</time>
      </trkpt>
      <trkpt lat="61.5707463864" lon="8.73009782284">
        <ele>1283.02</ele>
        <time>2012-08-08T16:24:42Z</time>
      </trkpt>
      <trkpt lat="61.5706930775" lon="8.73008633964">
        <ele>1282.06</ele>
        <time>2012-08-08T16:24:54Z</time>
      </trkpt>
      <trkpt lat="61.5706135333" lon="8.73012037016">
        <ele>1280.13</ele>
        <time>2012-08-08T16:25:02Z</time>
      </trkpt>
      <trkpt lat="61.5705653373" lon="8.72999707237">
        <ele>1278.69</ele>
        <time>2012-08-08T16:25:14Z</time>
      </trkpt>
      <trkpt lat="61.5705608111" lon="8.72998550534">
        <ele>1279.65</ele>
        <time>2012-08-08T16:25:16Z</time>
      </trkpt>
      <trkpt lat="61.5705390181" lon="8.72998827137">
        <ele>1279.17</ele>
        <time>2012-08-08T16:25:18Z</time>
      </trkpt>
      <trkpt lat="61.5704928339" lon="8.72991694137">
        <ele>1277.73</ele>
        <time>2012-08-08T16:25:23Z</time>
      </trkpt>
      <trkpt lat="61.5704712085" lon="8.72981593944">
        <ele>1277.25</ele>
        <time>2012-08-08T16:25:27Z</time>
      </trkpt>
      <trkpt lat="61.5704370104" lon="8.72980118729">
        <ele>1278.21</ele>
        <time>2012-08-08T16:25:32Z</time>
      </trkpt>
      <trkpt lat="61.5703653451" lon="8.72980638407">
        <ele>1276.77</ele>
        <time>2012-08-08T16:25:38Z</time>
      </trkpt>
      <trkpt lat="61.570336679" lon="8.72980110347">
        <ele>1276.29</ele>
        <time>2012-08-08T16:25:40Z</time>
      </trkpt>
      <trkpt lat="61.57029544" lon="8.7297342997">
        <ele>1275.81</ele>
        <time>2012-08-08T16:25:45Z</time>
      </trkpt>
      <trkpt lat="61.5702663548" lon="8.72971644625">
        <ele>1274.85</ele>
        <time>2012-08-08T16:25:48Z</time>
      </trkpt>
      <trkpt lat="61.570243137" lon="8.72969171964">
        <ele>1274.36</ele>
        <time>2012-08-08T16:25:50Z</time>
      </trkpt>
      <trkpt lat="61.5701817814" lon="8.72971761972">
        <ele>1272.92</ele>
        <time>2012-08-08T16:26:04Z</time>
      </trkpt>
      <trkpt lat="61.5701688733" lon="8.72972172685">
        <ele>1272.44</ele>
        <time>2012-08-08T16:26:08Z</time>
      </trkpt>
      <trkpt lat="61.5701566357" lon="8.72975341044">
        <ele>1271.96</ele>
        <time>2012-08-08T16:26:10Z</time>
      </trkpt>
      <trkpt lat="61.5701167379" lon="8.72976464219">
        <ele>1271.96</ele>
        <time>2012-08-08T16:26:14Z</time>
      </trkpt>
      <trkpt lat="61.5700435638" lon="8.72981593944">
        <ele>1270.04</ele>
        <time>2012-08-08T16:26:21Z</time>
      </trkpt>
      <trkpt lat="61.5699905902" lon="8.72980454005">
        <ele>1270.04</ele>
        <time>2012-08-08T16:26:26Z</time>
      </trkpt>
      <trkpt lat="61.5699515305" lon="8.7298267521">
        <ele>1269.08</ele>
        <time>2012-08-08T16:26:30Z</time>
      </trkpt>
      <trkpt lat="61.5699364431" lon="8.72984686866">
        <ele>1268.12</ele>
        <time>2012-08-08T16:26:32Z</time>
      </trkpt>
      <trkpt lat="61.5699035022" lon="8.72988383286">
        <ele>1268.12</ele>
        <time>2012-08-08T16:26:36Z</time>
      </trkpt>
      <trkpt lat="61.5698848106" lon="8.7298840005">
        <ele>1267.16</ele>
        <time>2012-08-08T16:26:38Z</time>
      </trkpt>
      <trkpt lat="61.5697807912" lon="8.7297765445">
        <ele>1265.23</ele>
        <time>2012-08-08T16:26:49Z</time>
      </trkpt>
      <trkpt lat="61.5697099641" lon="8.72971108183">
        <ele>1265.23</ele>
        <time>2012-08-08T16:27:00Z</time>
      </trkpt>
      <trkpt lat="61.5696726646" lon="8.72972331941">
        <ele>1264.75</ele>
        <time>2012-08-08T16:27:04Z</time>
      </trkpt>
      <trkpt lat="61.5695512109" lon="8.72966498137">
        <ele>1263.31</ele>
        <time>2012-08-08T16:27:17Z</time>
      </trkpt>
      <trkpt lat="61.5695033502" lon="8.72965794057">
        <ele>1262.83</ele>
        <time>2012-08-08T16:27:22Z</time>
      </trkpt>
      <trkpt lat="61.5694638714" lon="8.72966271825">
        <ele>1261.39</ele>
        <time>2012-08-08T16:27:28Z</time>
      </trkpt>
      <trkpt lat="61.5694125742" lon="8.72971560806">
        <ele>1260.91</ele>
        <time>2012-08-08T16:27:34Z</time>
      </trkpt>
      <trkpt lat="61.5692904498" lon="8.7296581082">
        <ele>1260.91</ele>
        <time>2012-08-08T16:27:44Z</time>
      </trkpt>
      <trkpt lat="61.5692579281" lon="8.72974963859">
        <ele>1259.46</ele>
        <time>2012-08-08T16:27:57Z</time>
      </trkpt>
      <trkpt lat="61.5692221373" lon="8.72980286367">
        <ele>1259.46</ele>
        <time>2012-08-08T16:28:14Z</time>
      </trkpt>
      <trkpt lat="61.5692431759" lon="8.72974645346">
        <ele>1258.5</ele>
        <time>2012-08-08T16:28:32Z</time>
      </trkpt>
      <trkpt lat="61.5692323633" lon="8.72970806435">
        <ele>1259.94</ele>
        <time>2012-08-08T16:28:38Z</time>
      </trkpt>
      <trkpt lat="61.5692333691" lon="8.7296669092">
        <ele>1258.98</ele>
        <time>2012-08-08T16:28:59Z</time>
      </trkpt>
      <trkpt lat="61.5692447685" lon="8.72968962416">
        <ele>1259.94</ele>
        <time>2012-08-08T16:29:01Z</time>
      </trkpt>
      <trkpt lat="61.569235716" lon="8.72966196388">
        <ele>1259.46</ele>
        <time>2012-08-08T16:29:20Z</time>
      </trkpt>
      <trkpt lat="61.5692414157" lon="8.7296809908">
        <ele>1259.46</ele>
        <time>2012-08-08T16:29:46Z</time>
      </trkpt>
      <trkpt lat="61.5692443494" lon="8.72973044403">
        <ele>1258.98</ele>
        <time>2012-08-08T16:30:11Z</time>
      </trkpt>
      <trkpt lat="61.5692544915" lon="8.72971971519">
        <ele>1258.98</ele>
        <time>2012-08-08T16:30:33Z</time>
      </trkpt>
      <trkpt lat="61.5692368895" lon="8.72962994501">
        <ele>1258.5</ele>
        <time>2012-08-08T16:30:54Z</time>
      </trkpt>
      <trkpt lat="61.5692301001" lon="8.72969716787">
        <ele>1259.46</ele>
        <time>2012-08-08T16:31:11Z</time>
      </trkpt>
      <trkpt lat="61.5692703333" lon="8.72957370244">
        <ele>1260.43</ele>
        <time>2012-08-08T16:31:18Z</time>
      </trkpt>
      <trkpt lat="61.5692788828" lon="8.72956045903">
        <ele>1259.94</ele>
        <time>2012-08-08T16:31:32Z</time>
      </trkpt>
      <trkpt lat="61.5692785475" lon="8.72957470827">
        <ele>1259.46</ele>
        <time>2012-08-08T16:31:46Z</time>
      </trkpt>
      <trkpt lat="61.5692800563" lon="8.72955819592">
        <ele>1258.98</ele>
        <time>2012-08-08T16:32:07Z</time>
      </trkpt>
      <trkpt lat="61.5692803077" lon="8.72955207713">
        <ele>1258.5</ele>
        <time>2012-08-08T16:32:33Z</time>
      </trkpt>
      <trkpt lat="61.5692845825" lon="8.72956733219">
        <ele>1258.5</ele>
        <time>2012-08-08T16:32:57Z</time>
      </trkpt>
      <trkpt lat="61.5692926291" lon="8.72956498526">
        <ele>1258.98</ele>
        <time>2012-08-08T16:33:27Z</time>
      </trkpt>
      <trkpt lat="61.569291288" lon="8.72959432192">
        <ele>1259.46</ele>
        <time>2012-08-08T16:33:51Z</time>
      </trkpt>
      <trkpt lat="61.5692792181" lon="8.72955299914">
        <ele>1258.98</ele>
        <time>2012-08-08T16:34:07Z</time>
      </trkpt>
      <trkpt lat="61.5692796372" lon="8.72955727391">
        <ele>1259.46</ele>
        <time>2012-08-08T16:34:26Z</time>
      </trkpt>
      <trkpt lat="61.5692801401" lon="8.72955895029">
        <ele>1259.46</ele>
        <time>2012-08-08T16:34:48Z</time>
      </trkpt>
      <trkpt lat="61.569280643" lon="8.72956481762">
        <ele>1258.98</ele>
        <time>2012-08-08T16:35:14Z</time>
      </trkpt>
      <trkpt lat="61.5692788828" lon="8.72961217538">
        <ele>1259.46</ele>
        <time>2012-08-08T16:35:30Z</time>
      </trkpt>
      <trkpt lat="61.5692721773" lon="8.72957713902">
        <ele>1259.46</ele>
        <time>2012-08-08T16:35:55Z</time>
      </trkpt>
      <trkpt lat="61.5692798048" lon="8.729592897">
        <ele>1258.98</ele>
        <time>2012-08-08T16:36:04Z</time>
      </trkpt>
      <trkpt lat="61.5692394041" lon="8.72965861112">
        <ele>1258.5</ele>
        <time>2012-08-08T16:36:14Z</time>
      </trkpt>
      <trkpt lat="61.5692480374" lon="8.72956288978">
        <ele>1258.5</ele>
        <time>2012-08-08T16:36:19Z</time>
      </trkpt>
      <trkpt lat="61.5692598559" lon="8.72952760197">
        <ele>1258.5</ele>
        <time>2012-08-08T16:36:35Z</time>
      </trkpt>
      <trkpt lat="61.5692723449" lon="8.72953673825">
        <ele>1258.5</ele>
        <time>2012-08-08T16:36:46Z</time>
      </trkpt>
      <trkpt lat="61.5692948084" lon="8.72959189117">
        <ele>1258.5</ele>
        <time>2012-08-08T16:37:03Z</time>
      </trkpt>
      <trkpt lat="61.56929221" lon="8.72954344377">
        <ele>1258.5</ele>
        <time>2012-08-08T16:37:29Z</time>
      </trkpt>
      <trkpt lat="61.5692876838" lon="8.72955844738">
        <ele>1258.02</ele>
        <time>2012-08-08T16:37:50Z</time>
      </trkpt>
      <trkpt lat="61.5692963172" lon="8.7295682542">
        <ele>1258.5</ele>
        <time>2012-08-08T16:38:11Z</time>
      </trkpt>
      <trkpt lat="61.5692974068" lon="8.72955626808">
        <ele>1258.5</ele>
        <time>2012-08-08T16:38:41Z</time>
      </trkpt>
      <trkpt lat="61.5692995861" lon="8.7295612134">
        <ele>1258.5</ele>
        <time>2012-08-08T16:39:09Z</time>
      </trkpt>
      <trkpt lat="61.5693075489" lon="8.72955031693">
        <ele>1260.43</ele>
        <time>2012-08-08T16:39:41Z</time>
      </trkpt>
      <trkpt lat="61.5693067107" lon="8.72955542989">
        <ele>1260.43</ele>
        <time>2012-08-08T16:39:42Z</time>
      </trkpt>
      <trkpt lat="61.5693092253" lon="8.72955719009">
        <ele>1258.5</ele>
        <time>2012-08-08T16:39:44Z</time>
      </trkpt>
      <trkpt lat="61.5693073813" lon="8.72956984676">
        <ele>1258.5</ele>
        <time>2012-08-08T16:40:06Z</time>
      </trkpt>
      <trkpt lat="61.5693023521" lon="8.72957026586">
        <ele>1258.5</ele>
        <time>2012-08-08T16:40:33Z</time>
      </trkpt>
      <trkpt lat="61.5693067107" lon="8.72956800275">
        <ele>1258.98</ele>
        <time>2012-08-08T16:40:56Z</time>
      </trkpt>
      <trkpt lat="61.5693053696" lon="8.72959147207">
        <ele>1258.98</ele>
        <time>2012-08-08T16:41:21Z</time>
      </trkpt>
      <trkpt lat="61.569317691" lon="8.72956330888">
        <ele>1260.43</ele>
        <time>2012-08-08T16:41:35Z</time>
      </trkpt>
      <trkpt lat="61.5692921262" lon="8.72959507629">
        <ele>1258.98</ele>
        <time>2012-08-08T16:41:59Z</time>
      </trkpt>
      <trkpt lat="61.5692987479" lon="8.72960446402">
        <ele>1258.5</ele>
        <time>2012-08-08T16:42:20Z</time>
      </trkpt>
      <trkpt lat="61.5692824032" lon="8.72957646847">
        <ele>1258.98</ele>
        <time>2012-08-08T16:42:38Z</time>
      </trkpt>
      <trkpt lat="61.5693087224" lon="8.72954721563">
        <ele>1258.98</ele>
        <time>2012-08-08T16:42:59Z</time>
      </trkpt>
      <trkpt lat="61.5692921262" lon="8.72954218648">
        <ele>1258.98</ele>
        <time>2012-08-08T16:43:27Z</time>
      </trkpt>
      <trkpt lat="61.569316769" lon="8.729584096">
        <ele>1258.98</ele>
        <time>2012-08-08T16:43:53Z</time>
      </trkpt>
      <trkpt lat="61.5693080518" lon="8.72958258726">
        <ele>1259.46</ele>
        <time>2012-08-08T16:44:19Z</time>
      </trkpt>
      <trkpt lat="61.5692867618" lon="8.72963631526">
        <ele>1259.94</ele>
        <time>2012-08-08T16:44:25Z</time>
      </trkpt>
      <trkpt lat="61.5692720935" lon="8.72968769632">
        <ele>1259.94</ele>
        <time>2012-08-08T16:44:37Z</time>
      </trkpt>
      <trkpt lat="61.5692647174" lon="8.72965140268">
        <ele>1259.94</ele>
        <time>2012-08-08T16:44:52Z</time>
      </trkpt>
      <trkpt lat="61.56927092" lon="8.72960203327">
        <ele>1258.98</ele>
        <time>2012-08-08T16:45:12Z</time>
      </trkpt>
      <trkpt lat="61.5693058725" lon="8.72956624255">
        <ele>1258.98</ele>
        <time>2012-08-08T16:45:23Z</time>
      </trkpt>
      <trkpt lat="61.5693129133" lon="8.72957697138">
        <ele>1258.5</ele>
        <time>2012-08-08T16:45:44Z</time>
      </trkpt>
      <trkpt lat="61.5693267435" lon="8.72959490865">
        <ele>1258.98</ele>
        <time>2012-08-08T16:45:59Z</time>
      </trkpt>
      <trkpt lat="61.569285756" lon="8.72959650122">
        <ele>1258.98</ele>
        <time>2012-08-08T16:46:12Z</time>
      </trkpt>
      <trkpt lat="61.5692754462" lon="8.72954067774">
        <ele>1258.02</ele>
        <time>2012-08-08T16:46:27Z</time>
      </trkpt>
      <trkpt lat="61.5692868456" lon="8.72954713181">
        <ele>1258.5</ele>
        <time>2012-08-08T16:46:45Z</time>
      </trkpt>
      <trkpt lat="61.5692758653" lon="8.7295651529">
        <ele>1258.5</ele>
        <time>2012-08-08T16:47:03Z</time>
      </trkpt>
      <trkpt lat="61.5692824032" lon="8.72956833802">
        <ele>1258.02</ele>
        <time>2012-08-08T16:47:28Z</time>
      </trkpt>
      <trkpt lat="61.5692842472" lon="8.72954872437">
        <ele>1258.02</ele>
        <time>2012-08-08T16:47:51Z</time>
      </trkpt>
      <trkpt lat="61.5692728478" lon="8.72956356034">
        <ele>1258.5</ele>
        <time>2012-08-08T16:48:14Z</time>
      </trkpt>
      <trkpt lat="61.5692782123" lon="8.72955844738">
        <ele>1259.46</ele>
        <time>2012-08-08T16:48:28Z</time>
      </trkpt>
      <trkpt lat="61.5692809783" lon="8.7295514904">
        <ele>1258.98</ele>
        <time>2012-08-08T16:49:00Z</time>
      </trkpt>
      <trkpt lat="61.5692813974" lon="8.7295563519">
        <ele>1258.98</ele>
        <time>2012-08-08T16:49:31Z</time>
      </trkpt>
      <trkpt lat="61.5692844987" lon="8.72956397943">
        <ele>1258.98</ele>
        <time>2012-08-08T16:50:06Z</time>
      </trkpt>
      <trkpt lat="61.5692808107" lon="8.72954721563">
        <ele>1258.98</ele>
        <time>2012-08-08T16:50:39Z</time>
      </trkpt>
      <trkpt lat="61.5692795534" lon="8.72953162529">
        <ele>1258.98</ele>
        <time>2012-08-08T16:51:16Z</time>
      </trkpt>
      <trkpt lat="61.5692632087" lon="8.72951771133">
        <ele>1259.46</ele>
        <time>2012-08-08T16:51:52Z</time>
      </trkpt>
      <trkpt lat="61.5692788828" lon="8.72953187674">
        <ele>1259.46</ele>
        <time>2012-08-08T16:52:27Z</time>
      </trkpt>
      <trkpt lat="61.5692770388" lon="8.7295493111">
        <ele>1259.46</ele>
        <time>2012-08-08T16:53:02Z</time>
      </trkpt>
      <trkpt lat="61.5692777932" lon="8.72954067774">
        <ele>1259.94</ele>
        <time>2012-08-08T16:53:34Z</time>
      </trkpt>
      <trkpt lat="61.5692747757" lon="8.72954193503">
        <ele>1259.94</ele>
        <time>2012-08-08T16:54:01Z</time>
      </trkpt>
      <trkpt lat="61.5692724288" lon="8.72953137383">
        <ele>1259.94</ele>
        <time>2012-08-08T16:54:33Z</time>
      </trkpt>
      <trkpt lat="61.5692720097" lon="8.72954042628">
        <ele>1259.94</ele>
        <time>2012-08-08T16:55:00Z</time>
      </trkpt>
      <trkpt lat="61.5692725964" lon="8.72953891754">
        <ele>1259.94</ele>
        <time>2012-08-08T16:55:40Z</time>
      </trkpt>
      <trkpt lat="61.5692701656" lon="8.72954503633">
        <ele>1260.43</ele>
        <time>2012-08-08T16:56:12Z</time>
      </trkpt>
      <trkpt lat="61.5692717582" lon="8.72955526225">
        <ele>1260.43</ele>
        <time>2012-08-08T16:56:46Z</time>
      </trkpt>
      <trkpt lat="61.5692750271" lon="8.72955534607">
        <ele>1260.43</ele>
        <time>2012-08-08T16:57:26Z</time>
      </trkpt>
      <trkpt lat="61.5692693274" lon="8.72954461724">
        <ele>1259.94</ele>
        <time>2012-08-08T16:57:58Z</time>
      </trkpt>
      <trkpt lat="61.5692665614" lon="8.72954034247">
        <ele>1260.43</ele>
        <time>2012-08-08T16:58:37Z</time>
      </trkpt>
      <trkpt lat="61.5692755301" lon="8.72956154868">
        <ele>1259.94</ele>
        <time>2012-08-08T16:59:17Z</time>
      </trkpt>
      <trkpt lat="61.5692792181" lon="8.72955425642">
        <ele>1260.43</ele>
        <time>2012-08-08T16:59:57Z</time>
      </trkpt>
      <trkpt lat="61.5692768712" lon="8.72954595834">
        <ele>1260.43</ele>
        <time>2012-08-08T17:00:40Z</time>
      </trkpt>
      <trkpt lat="61.5692720935" lon="8.72954277322">
        <ele>1260.43</ele>
        <time>2012-08-08T17:01:18Z</time>
      </trkpt>
      <trkpt lat="61.5692793857" lon="8.72956263833">
        <ele>1260.43</ele>
        <time>2012-08-08T17:01:54Z</time>
      </trkpt>
      <trkpt lat="61.5692729317" lon="8.72954797">
        <ele>1259.94</ele>
        <time>2012-08-08T17:02:29Z</time>
      </trkpt>
      <trkpt lat="61.5692738537" lon="8.72951368801">
        <ele>1260.43</ele>
        <time>2012-08-08T17:03:15Z</time>
      </trkpt>
      <trkpt lat="61.5692716744" lon="8.72953556478">
        <ele>1260.43</ele>
        <time>2012-08-08T17:04:03Z</time>
      </trkpt>
      <trkpt lat="61.569272764" lon="8.72950647958">
        <ele>1259.94</ele>
        <time>2012-08-08T17:04:42Z</time>
      </trkpt>
      <trkpt lat="61.5692660585" lon="8.72948753648">
        <ele>1260.43</ele>
        <time>2012-08-08T17:05:13Z</time>
      </trkpt>
    </trkseg>
  </trk>
</gpx>